<?xml version="1.0" encoding="UTF-8" standalone="no" ?>
<gpx xmlns="http://www.topografix.com/GPX/1/1" xmlns:xsi="http://www.w3.org/2001/XMLSchema-instance" xsi:schemaLocation="http://www.topografix.com/GPX/1/1 http://www.topografix.com/GPX/1/1/gpx.xsd" version="1.1" creator="VisuGPX - https://www.visugpx.com">
  <metadata>
    <name>2019 - 48.9km tracé final - Envoyé ITRA - 2</name>
    <desc><![CDATA[Trail du Haut Clunysois Parcours 50 km]]></desc>
  </metadata>
  <trk>
    <name><![CDATA[2019 - 48.9km tracé final - Envoyé ITRA - 2]]></name>
    <trkseg>
      <trkpt lat="46.3704" lon="4.48199">
        <ele>423.59802246094</ele>
        <time>2019-01-19T10:46:42Z</time>
      </trkpt>
      <trkpt lat="46.37049" lon="4.48196">
        <ele>422.63671875</ele>
        <time>2019-01-19T10:46:43Z</time>
      </trkpt>
      <trkpt lat="46.37057" lon="4.48196">
        <ele>421.67541503906</ele>
        <time>2019-01-19T10:46:44Z</time>
      </trkpt>
      <trkpt lat="46.37072" lon="4.48186">
        <ele>419.75280761719</ele>
        <time>2019-01-19T10:46:46Z</time>
      </trkpt>
      <trkpt lat="46.37087" lon="4.48179">
        <ele>417.349609375</ele>
        <time>2019-01-19T10:46:48Z</time>
      </trkpt>
      <trkpt lat="46.37104" lon="4.48171">
        <ele>414.94616699219</ele>
        <time>2019-01-19T10:46:50Z</time>
      </trkpt>
      <trkpt lat="46.3712" lon="4.48164">
        <ele>413.98486328125</ele>
        <time>2019-01-19T10:46:52Z</time>
      </trkpt>
      <trkpt lat="46.37137" lon="4.48157">
        <ele>412.54284667969</ele>
        <time>2019-01-19T10:46:54Z</time>
      </trkpt>
      <trkpt lat="46.37146" lon="4.48152">
        <ele>412.54284667969</ele>
        <time>2019-01-19T10:46:55Z</time>
      </trkpt>
      <trkpt lat="46.37156" lon="4.48149">
        <ele>412.06225585938</ele>
        <time>2019-01-19T10:46:56Z</time>
      </trkpt>
      <trkpt lat="46.37176" lon="4.48139">
        <ele>411.10095214844</ele>
        <time>2019-01-19T10:46:58Z</time>
      </trkpt>
      <trkpt lat="46.37185" lon="4.48135">
        <ele>410.1396484375</ele>
        <time>2019-01-19T10:46:59Z</time>
      </trkpt>
      <trkpt lat="46.37193" lon="4.48132">
        <ele>410.1396484375</ele>
        <time>2019-01-19T10:47:00Z</time>
      </trkpt>
      <trkpt lat="46.37202" lon="4.48129">
        <ele>409.65905761719</ele>
        <time>2019-01-19T10:47:01Z</time>
      </trkpt>
      <trkpt lat="46.37217" lon="4.48126">
        <ele>407.736328125</ele>
        <time>2019-01-19T10:47:03Z</time>
      </trkpt>
      <trkpt lat="46.37226" lon="4.48122">
        <ele>406.29431152344</ele>
        <time>2019-01-19T10:47:05Z</time>
      </trkpt>
      <trkpt lat="46.37235" lon="4.48114">
        <ele>405.3330078125</ele>
        <time>2019-01-19T10:47:08Z</time>
      </trkpt>
      <trkpt lat="46.37246" lon="4.48103">
        <ele>403.89111328125</ele>
        <time>2019-01-19T10:47:11Z</time>
      </trkpt>
      <trkpt lat="46.37255" lon="4.48096">
        <ele>401.96850585938</ele>
        <time>2019-01-19T10:47:14Z</time>
      </trkpt>
      <trkpt lat="46.37264" lon="4.48088">
        <ele>398.60375976562</ele>
        <time>2019-01-19T10:49:00Z</time>
      </trkpt>
      <trkpt lat="46.37277" lon="4.48077">
        <ele>396.20056152344</ele>
        <time>2019-01-19T10:49:03Z</time>
      </trkpt>
      <trkpt lat="46.37289" lon="4.48069">
        <ele>394.27795410156</ele>
        <time>2019-01-19T10:49:05Z</time>
      </trkpt>
      <trkpt lat="46.37304" lon="4.48058">
        <ele>391.87451171875</ele>
        <time>2019-01-19T10:49:07Z</time>
      </trkpt>
      <trkpt lat="46.37319" lon="4.48048">
        <ele>387.54858398438</ele>
        <time>2019-01-19T10:49:09Z</time>
      </trkpt>
      <trkpt lat="46.37336" lon="4.48039">
        <ele>385.6259765625</ele>
        <time>2019-01-19T10:49:11Z</time>
      </trkpt>
      <trkpt lat="46.37351" lon="4.4803">
        <ele>383.22265625</ele>
        <time>2019-01-19T10:49:13Z</time>
      </trkpt>
      <trkpt lat="46.37365" lon="4.4802">
        <ele>381.78063964844</ele>
        <time>2019-01-19T10:49:15Z</time>
      </trkpt>
      <trkpt lat="46.37379" lon="4.48012">
        <ele>379.85803222656</ele>
        <time>2019-01-19T10:49:17Z</time>
      </trkpt>
      <trkpt lat="46.37395" lon="4.48003">
        <ele>377.93542480469</ele>
        <time>2019-01-19T10:49:19Z</time>
      </trkpt>
      <trkpt lat="46.37409" lon="4.47994">
        <ele>376.97424316406</ele>
        <time>2019-01-19T10:49:21Z</time>
      </trkpt>
      <trkpt lat="46.37423" lon="4.47984">
        <ele>375.05151367188</ele>
        <time>2019-01-19T10:49:23Z</time>
      </trkpt>
      <trkpt lat="46.37437" lon="4.47974">
        <ele>373.60949707031</ele>
        <time>2019-01-19T10:49:25Z</time>
      </trkpt>
      <trkpt lat="46.3745" lon="4.47965">
        <ele>372.64819335938</ele>
        <time>2019-01-19T10:49:27Z</time>
      </trkpt>
      <trkpt lat="46.3746" lon="4.47954">
        <ele>371.20629882812</ele>
        <time>2019-01-19T10:49:29Z</time>
      </trkpt>
      <trkpt lat="46.37472" lon="4.47943">
        <ele>370.7255859375</ele>
        <time>2019-01-19T10:49:31Z</time>
      </trkpt>
      <trkpt lat="46.37484" lon="4.47932">
        <ele>370.7255859375</ele>
        <time>2019-01-19T10:49:33Z</time>
      </trkpt>
      <trkpt lat="46.37497" lon="4.4792">
        <ele>370.7255859375</ele>
        <time>2019-01-19T10:49:35Z</time>
      </trkpt>
      <trkpt lat="46.3751" lon="4.47907">
        <ele>371.20629882812</ele>
        <time>2019-01-19T10:49:37Z</time>
      </trkpt>
      <trkpt lat="46.37523" lon="4.47894">
        <ele>370.7255859375</ele>
        <time>2019-01-19T10:49:39Z</time>
      </trkpt>
      <trkpt lat="46.37535" lon="4.47879">
        <ele>371.20629882812</ele>
        <time>2019-01-19T10:49:41Z</time>
      </trkpt>
      <trkpt lat="46.37548" lon="4.47864">
        <ele>371.20629882812</ele>
        <time>2019-01-19T10:49:43Z</time>
      </trkpt>
      <trkpt lat="46.37559" lon="4.4785">
        <ele>371.20629882812</ele>
        <time>2019-01-19T10:49:45Z</time>
      </trkpt>
      <trkpt lat="46.37568" lon="4.47832">
        <ele>372.16748046875</ele>
        <time>2019-01-19T10:49:47Z</time>
      </trkpt>
      <trkpt lat="46.37574" lon="4.47809">
        <ele>373.12890625</ele>
        <time>2019-01-19T10:49:49Z</time>
      </trkpt>
      <trkpt lat="46.37578" lon="4.47798">
        <ele>374.09008789062</ele>
        <time>2019-01-19T10:49:50Z</time>
      </trkpt>
      <trkpt lat="46.37582" lon="4.47786">
        <ele>375.05151367188</ele>
        <time>2019-01-19T10:49:51Z</time>
      </trkpt>
      <trkpt lat="46.37585" lon="4.47772">
        <ele>375.53210449219</ele>
        <time>2019-01-19T10:49:52Z</time>
      </trkpt>
      <trkpt lat="46.37587" lon="4.47757">
        <ele>376.49353027344</ele>
        <time>2019-01-19T10:49:53Z</time>
      </trkpt>
      <trkpt lat="46.37589" lon="4.47743">
        <ele>376.97424316406</ele>
        <time>2019-01-19T10:49:54Z</time>
      </trkpt>
      <trkpt lat="46.3759" lon="4.4773">
        <ele>376.97424316406</ele>
        <time>2019-01-19T10:49:55Z</time>
      </trkpt>
      <trkpt lat="46.37591" lon="4.47705">
        <ele>377.93542480469</ele>
        <time>2019-01-19T10:49:57Z</time>
      </trkpt>
      <trkpt lat="46.37591" lon="4.47681">
        <ele>379.37744140625</ele>
        <time>2019-01-19T10:49:59Z</time>
      </trkpt>
      <trkpt lat="46.37592" lon="4.47655">
        <ele>381.30004882812</ele>
        <time>2019-01-19T10:50:01Z</time>
      </trkpt>
      <trkpt lat="46.37593" lon="4.47641">
        <ele>382.26135253906</ele>
        <time>2019-01-19T10:50:02Z</time>
      </trkpt>
      <trkpt lat="46.37592" lon="4.47628">
        <ele>382.74206542969</ele>
        <time>2019-01-19T10:50:03Z</time>
      </trkpt>
      <trkpt lat="46.37592" lon="4.47603">
        <ele>383.22265625</ele>
        <time>2019-01-19T10:50:05Z</time>
      </trkpt>
      <trkpt lat="46.3759" lon="4.47583">
        <ele>384.18408203125</ele>
        <time>2019-01-19T10:50:07Z</time>
      </trkpt>
      <trkpt lat="46.37583" lon="4.47581">
        <ele>385.6259765625</ele>
        <time>2019-01-19T10:50:09Z</time>
      </trkpt>
      <trkpt lat="46.37569" lon="4.47573">
        <ele>386.58740234375</ele>
        <time>2019-01-19T10:50:11Z</time>
      </trkpt>
      <trkpt lat="46.37553" lon="4.47563">
        <ele>387.06799316406</ele>
        <time>2019-01-19T10:50:13Z</time>
      </trkpt>
      <trkpt lat="46.37544" lon="4.47558">
        <ele>386.58740234375</ele>
        <time>2019-01-19T10:50:14Z</time>
      </trkpt>
      <trkpt lat="46.37535" lon="4.47551">
        <ele>386.10668945312</ele>
        <time>2019-01-19T10:50:15Z</time>
      </trkpt>
      <trkpt lat="46.37526" lon="4.47545">
        <ele>385.6259765625</ele>
        <time>2019-01-19T10:50:16Z</time>
      </trkpt>
      <trkpt lat="46.37509" lon="4.47533">
        <ele>386.10668945312</ele>
        <time>2019-01-19T10:50:18Z</time>
      </trkpt>
      <trkpt lat="46.37493" lon="4.47521">
        <ele>385.6259765625</ele>
        <time>2019-01-19T10:50:20Z</time>
      </trkpt>
      <trkpt lat="46.37476" lon="4.47509">
        <ele>385.6259765625</ele>
        <time>2019-01-19T10:50:22Z</time>
      </trkpt>
      <trkpt lat="46.37461" lon="4.47498">
        <ele>385.6259765625</ele>
        <time>2019-01-19T10:50:24Z</time>
      </trkpt>
      <trkpt lat="46.37443" lon="4.47487">
        <ele>385.6259765625</ele>
        <time>2019-01-19T10:50:26Z</time>
      </trkpt>
      <trkpt lat="46.37428" lon="4.47476">
        <ele>385.6259765625</ele>
        <time>2019-01-19T10:50:28Z</time>
      </trkpt>
      <trkpt lat="46.37414" lon="4.47465">
        <ele>385.6259765625</ele>
        <time>2019-01-19T10:50:30Z</time>
      </trkpt>
      <trkpt lat="46.374" lon="4.47453">
        <ele>385.6259765625</ele>
        <time>2019-01-19T10:50:32Z</time>
      </trkpt>
      <trkpt lat="46.37387" lon="4.47436">
        <ele>385.6259765625</ele>
        <time>2019-01-19T10:50:34Z</time>
      </trkpt>
      <trkpt lat="46.37373" lon="4.47419">
        <ele>385.6259765625</ele>
        <time>2019-01-19T10:50:36Z</time>
      </trkpt>
      <trkpt lat="46.37362" lon="4.47403">
        <ele>384.66479492188</ele>
        <time>2019-01-19T10:50:38Z</time>
      </trkpt>
      <trkpt lat="46.37351" lon="4.47385">
        <ele>384.18408203125</ele>
        <time>2019-01-19T10:50:40Z</time>
      </trkpt>
      <trkpt lat="46.3734" lon="4.47368">
        <ele>382.26135253906</ele>
        <time>2019-01-19T10:50:42Z</time>
      </trkpt>
      <trkpt lat="46.37331" lon="4.4735">
        <ele>381.78063964844</ele>
        <time>2019-01-19T10:50:44Z</time>
      </trkpt>
      <trkpt lat="46.37322" lon="4.47332">
        <ele>381.30004882812</ele>
        <time>2019-01-19T10:50:46Z</time>
      </trkpt>
      <trkpt lat="46.37314" lon="4.47315">
        <ele>380.81945800781</ele>
        <time>2019-01-19T10:50:48Z</time>
      </trkpt>
      <trkpt lat="46.37306" lon="4.47297">
        <ele>380.33874511719</ele>
        <time>2019-01-19T10:50:50Z</time>
      </trkpt>
      <trkpt lat="46.37294" lon="4.47283">
        <ele>380.33874511719</ele>
        <time>2019-01-19T10:50:52Z</time>
      </trkpt>
      <trkpt lat="46.37279" lon="4.47286">
        <ele>380.33874511719</ele>
        <time>2019-01-19T10:50:54Z</time>
      </trkpt>
      <trkpt lat="46.37266" lon="4.47289">
        <ele>381.30004882812</ele>
        <time>2019-01-19T10:50:56Z</time>
      </trkpt>
      <trkpt lat="46.37253" lon="4.47288">
        <ele>382.26135253906</ele>
        <time>2019-01-19T10:50:58Z</time>
      </trkpt>
      <trkpt lat="46.37239" lon="4.47281">
        <ele>382.26135253906</ele>
        <time>2019-01-19T10:51:00Z</time>
      </trkpt>
      <trkpt lat="46.37226" lon="4.4727">
        <ele>383.22265625</ele>
        <time>2019-01-19T10:51:02Z</time>
      </trkpt>
      <trkpt lat="46.37213" lon="4.47256">
        <ele>383.22265625</ele>
        <time>2019-01-19T10:51:04Z</time>
      </trkpt>
      <trkpt lat="46.37198" lon="4.47239">
        <ele>383.22265625</ele>
        <time>2019-01-19T10:51:06Z</time>
      </trkpt>
      <trkpt lat="46.37183" lon="4.47221">
        <ele>382.26135253906</ele>
        <time>2019-01-19T10:51:08Z</time>
      </trkpt>
      <trkpt lat="46.37169" lon="4.47203">
        <ele>381.78063964844</ele>
        <time>2019-01-19T10:51:10Z</time>
      </trkpt>
      <trkpt lat="46.37156" lon="4.47187">
        <ele>381.30004882812</ele>
        <time>2019-01-19T10:51:12Z</time>
      </trkpt>
      <trkpt lat="46.37143" lon="4.47171">
        <ele>381.30004882812</ele>
        <time>2019-01-19T10:51:14Z</time>
      </trkpt>
      <trkpt lat="46.3713" lon="4.47156">
        <ele>380.81945800781</ele>
        <time>2019-01-19T10:51:16Z</time>
      </trkpt>
      <trkpt lat="46.37118" lon="4.47145">
        <ele>381.30004882812</ele>
        <time>2019-01-19T10:51:18Z</time>
      </trkpt>
      <trkpt lat="46.37106" lon="4.47145">
        <ele>381.78063964844</ele>
        <time>2019-01-19T10:51:20Z</time>
      </trkpt>
      <trkpt lat="46.37092" lon="4.47142">
        <ele>381.78063964844</ele>
        <time>2019-01-19T10:51:22Z</time>
      </trkpt>
      <trkpt lat="46.37077" lon="4.47136">
        <ele>379.85803222656</ele>
        <time>2019-01-19T10:51:24Z</time>
      </trkpt>
      <trkpt lat="46.37059" lon="4.47128">
        <ele>378.89685058594</ele>
        <time>2019-01-19T10:51:26Z</time>
      </trkpt>
      <trkpt lat="46.37044" lon="4.47118">
        <ele>377.45483398438</ele>
        <time>2019-01-19T10:51:28Z</time>
      </trkpt>
      <trkpt lat="46.37031" lon="4.47109">
        <ele>376.97424316406</ele>
        <time>2019-01-19T10:51:30Z</time>
      </trkpt>
      <trkpt lat="46.37022" lon="4.47102">
        <ele>376.01281738281</ele>
        <time>2019-01-19T10:51:32Z</time>
      </trkpt>
      <trkpt lat="46.37013" lon="4.47094">
        <ele>376.49353027344</ele>
        <time>2019-01-19T10:51:36Z</time>
      </trkpt>
      <trkpt lat="46.36994" lon="4.47098">
        <ele>376.49353027344</ele>
        <time>2019-01-19T10:51:43Z</time>
      </trkpt>
      <trkpt lat="46.3695" lon="4.47095">
        <ele>376.97424316406</ele>
        <time>2019-01-19T10:51:53Z</time>
      </trkpt>
      <trkpt lat="46.36936" lon="4.47091">
        <ele>377.45483398438</ele>
        <time>2019-01-19T10:51:55Z</time>
      </trkpt>
      <trkpt lat="46.36923" lon="4.47087">
        <ele>377.93542480469</ele>
        <time>2019-01-19T10:51:57Z</time>
      </trkpt>
      <trkpt lat="46.36907" lon="4.47079">
        <ele>379.37744140625</ele>
        <time>2019-01-19T10:51:59Z</time>
      </trkpt>
      <trkpt lat="46.36893" lon="4.47069">
        <ele>379.85803222656</ele>
        <time>2019-01-19T10:52:01Z</time>
      </trkpt>
      <trkpt lat="46.36878" lon="4.47058">
        <ele>381.78063964844</ele>
        <time>2019-01-19T10:52:03Z</time>
      </trkpt>
      <trkpt lat="46.36865" lon="4.4705">
        <ele>382.74206542969</ele>
        <time>2019-01-19T10:52:05Z</time>
      </trkpt>
      <trkpt lat="46.36852" lon="4.47046">
        <ele>383.70324707031</ele>
        <time>2019-01-19T10:52:07Z</time>
      </trkpt>
      <trkpt lat="46.36842" lon="4.47041">
        <ele>385.14538574219</ele>
        <time>2019-01-19T10:52:09Z</time>
      </trkpt>
      <trkpt lat="46.36831" lon="4.47035">
        <ele>387.06799316406</ele>
        <time>2019-01-19T10:52:11Z</time>
      </trkpt>
      <trkpt lat="46.36822" lon="4.47029">
        <ele>388.51000976562</ele>
        <time>2019-01-19T10:52:13Z</time>
      </trkpt>
      <trkpt lat="46.36808" lon="4.47025">
        <ele>389.95190429688</ele>
        <time>2019-01-19T10:52:15Z</time>
      </trkpt>
      <trkpt lat="46.36795" lon="4.47018">
        <ele>390.91320800781</ele>
        <time>2019-01-19T10:52:17Z</time>
      </trkpt>
      <trkpt lat="46.36782" lon="4.4701">
        <ele>391.87451171875</ele>
        <time>2019-01-19T10:52:19Z</time>
      </trkpt>
      <trkpt lat="46.36763" lon="4.46999">
        <ele>392.35534667969</ele>
        <time>2019-01-19T10:52:21Z</time>
      </trkpt>
      <trkpt lat="46.36746" lon="4.46988">
        <ele>393.79724121094</ele>
        <time>2019-01-19T10:52:23Z</time>
      </trkpt>
      <trkpt lat="46.36731" lon="4.46978">
        <ele>394.27795410156</ele>
        <time>2019-01-19T10:52:25Z</time>
      </trkpt>
      <trkpt lat="46.36716" lon="4.46972">
        <ele>394.75854492188</ele>
        <time>2019-01-19T10:52:27Z</time>
      </trkpt>
      <trkpt lat="46.36702" lon="4.46967">
        <ele>394.75854492188</ele>
        <time>2019-01-19T10:52:29Z</time>
      </trkpt>
      <trkpt lat="46.36683" lon="4.46964">
        <ele>395.71984863281</ele>
        <time>2019-01-19T10:52:31Z</time>
      </trkpt>
      <trkpt lat="46.36668" lon="4.46961">
        <ele>397.16174316406</ele>
        <time>2019-01-19T10:52:33Z</time>
      </trkpt>
      <trkpt lat="46.36655" lon="4.46959">
        <ele>397.16174316406</ele>
        <time>2019-01-19T10:52:35Z</time>
      </trkpt>
      <trkpt lat="46.3664" lon="4.46955">
        <ele>398.60375976562</ele>
        <time>2019-01-19T10:52:37Z</time>
      </trkpt>
      <trkpt lat="46.36627" lon="4.4695">
        <ele>399.56506347656</ele>
        <time>2019-01-19T10:52:39Z</time>
      </trkpt>
      <trkpt lat="46.36615" lon="4.46946">
        <ele>400.0458984375</ele>
        <time>2019-01-19T10:52:41Z</time>
      </trkpt>
      <trkpt lat="46.36602" lon="4.46943">
        <ele>401.00708007812</ele>
        <time>2019-01-19T10:52:43Z</time>
      </trkpt>
      <trkpt lat="46.3659" lon="4.46941">
        <ele>401.96850585938</ele>
        <time>2019-01-19T10:52:45Z</time>
      </trkpt>
      <trkpt lat="46.36579" lon="4.46939">
        <ele>402.9296875</ele>
        <time>2019-01-19T10:52:47Z</time>
      </trkpt>
      <trkpt lat="46.3657" lon="4.46936">
        <ele>403.89111328125</ele>
        <time>2019-01-19T10:52:49Z</time>
      </trkpt>
      <trkpt lat="46.36559" lon="4.4693">
        <ele>405.81372070312</ele>
        <time>2019-01-19T10:52:51Z</time>
      </trkpt>
      <trkpt lat="46.36545" lon="4.46918">
        <ele>407.25561523438</ele>
        <time>2019-01-19T10:52:53Z</time>
      </trkpt>
      <trkpt lat="46.36528" lon="4.46907">
        <ele>410.1396484375</ele>
        <time>2019-01-19T10:52:55Z</time>
      </trkpt>
      <trkpt lat="46.36519" lon="4.469">
        <ele>412.06225585938</ele>
        <time>2019-01-19T10:52:56Z</time>
      </trkpt>
      <trkpt lat="46.36511" lon="4.46893">
        <ele>413.50427246094</ele>
        <time>2019-01-19T10:52:57Z</time>
      </trkpt>
      <trkpt lat="46.36503" lon="4.46887">
        <ele>413.50427246094</ele>
        <time>2019-01-19T10:52:58Z</time>
      </trkpt>
      <trkpt lat="46.36495" lon="4.46879">
        <ele>415.42687988281</ele>
        <time>2019-01-19T10:52:59Z</time>
      </trkpt>
      <trkpt lat="46.36487" lon="4.46871">
        <ele>416.38818359375</ele>
        <time>2019-01-19T10:53:00Z</time>
      </trkpt>
      <trkpt lat="46.3648" lon="4.46865">
        <ele>417.83020019531</ele>
        <time>2019-01-19T10:53:01Z</time>
      </trkpt>
      <trkpt lat="46.36472" lon="4.46858">
        <ele>418.79150390625</ele>
        <time>2019-01-19T10:53:02Z</time>
      </trkpt>
      <trkpt lat="46.36463" lon="4.46853">
        <ele>419.27221679688</ele>
        <time>2019-01-19T10:53:03Z</time>
      </trkpt>
      <trkpt lat="46.3645" lon="4.46838">
        <ele>421.67541503906</ele>
        <time>2019-01-19T10:53:05Z</time>
      </trkpt>
      <trkpt lat="46.3644" lon="4.46818">
        <ele>423.59802246094</ele>
        <time>2019-01-19T10:53:07Z</time>
      </trkpt>
      <trkpt lat="46.36431" lon="4.46797">
        <ele>424.55944824219</ele>
        <time>2019-01-19T10:53:09Z</time>
      </trkpt>
      <trkpt lat="46.36426" lon="4.46786">
        <ele>426.00134277344</ele>
        <time>2019-01-19T10:53:10Z</time>
      </trkpt>
      <trkpt lat="46.3642" lon="4.46776">
        <ele>426.48205566406</ele>
        <time>2019-01-19T10:53:11Z</time>
      </trkpt>
      <trkpt lat="46.36409" lon="4.46756">
        <ele>428.88537597656</ele>
        <time>2019-01-19T10:53:13Z</time>
      </trkpt>
      <trkpt lat="46.36399" lon="4.46737">
        <ele>430.80798339844</ele>
        <time>2019-01-19T10:53:15Z</time>
      </trkpt>
      <trkpt lat="46.36387" lon="4.46718">
        <ele>434.17260742188</ele>
        <time>2019-01-19T10:53:17Z</time>
      </trkpt>
      <trkpt lat="46.36371" lon="4.46703">
        <ele>436.57592773438</ele>
        <time>2019-01-19T10:53:19Z</time>
      </trkpt>
      <trkpt lat="46.36354" lon="4.46692">
        <ele>438.49853515625</ele>
        <time>2019-01-19T10:53:21Z</time>
      </trkpt>
      <trkpt lat="46.36345" lon="4.46685">
        <ele>439.9404296875</ele>
        <time>2019-01-19T10:53:22Z</time>
      </trkpt>
      <trkpt lat="46.36329" lon="4.4667">
        <ele>442.34387207031</ele>
        <time>2019-01-19T10:53:24Z</time>
      </trkpt>
      <trkpt lat="46.36313" lon="4.46658">
        <ele>445.22766113281</ele>
        <time>2019-01-19T10:53:26Z</time>
      </trkpt>
      <trkpt lat="46.36297" lon="4.46646">
        <ele>448.11181640625</ele>
        <time>2019-01-19T10:53:28Z</time>
      </trkpt>
      <trkpt lat="46.36289" lon="4.46641">
        <ele>448.59240722656</ele>
        <time>2019-01-19T10:53:29Z</time>
      </trkpt>
      <trkpt lat="46.36272" lon="4.46631">
        <ele>451.95703125</ele>
        <time>2019-01-19T10:53:31Z</time>
      </trkpt>
      <trkpt lat="46.36257" lon="4.46622">
        <ele>455.32153320312</ele>
        <time>2019-01-19T10:53:33Z</time>
      </trkpt>
      <trkpt lat="46.36239" lon="4.4661">
        <ele>457.24426269531</ele>
        <time>2019-01-19T10:53:35Z</time>
      </trkpt>
      <trkpt lat="46.36225" lon="4.46601">
        <ele>459.64758300781</ele>
        <time>2019-01-19T10:53:37Z</time>
      </trkpt>
      <trkpt lat="46.36209" lon="4.46591">
        <ele>461.08947753906</ele>
        <time>2019-01-19T10:53:39Z</time>
      </trkpt>
      <trkpt lat="46.36193" lon="4.46581">
        <ele>463.49279785156</ele>
        <time>2019-01-19T10:53:41Z</time>
      </trkpt>
      <trkpt lat="46.36178" lon="4.46573">
        <ele>463.97338867188</ele>
        <time>2019-01-19T10:53:43Z</time>
      </trkpt>
      <trkpt lat="46.3617" lon="4.46566">
        <ele>463.97338867188</ele>
        <time>2019-01-19T10:53:45Z</time>
      </trkpt>
      <trkpt lat="46.36162" lon="4.4656">
        <ele>463.97338867188</ele>
        <time>2019-01-19T10:53:48Z</time>
      </trkpt>
      <trkpt lat="46.36159" lon="4.46549">
        <ele>463.49279785156</ele>
        <time>2019-01-19T10:53:52Z</time>
      </trkpt>
      <trkpt lat="46.36165" lon="4.46538">
        <ele>463.97338867188</ele>
        <time>2019-01-19T10:53:54Z</time>
      </trkpt>
      <trkpt lat="46.36168" lon="4.46523">
        <ele>463.97338867188</ele>
        <time>2019-01-19T10:53:56Z</time>
      </trkpt>
      <trkpt lat="46.36171" lon="4.46512">
        <ele>463.49279785156</ele>
        <time>2019-01-19T10:53:58Z</time>
      </trkpt>
      <trkpt lat="46.36175" lon="4.46495">
        <ele>463.49279785156</ele>
        <time>2019-01-19T10:54:01Z</time>
      </trkpt>
      <trkpt lat="46.36179" lon="4.4648">
        <ele>463.49279785156</ele>
        <time>2019-01-19T10:54:03Z</time>
      </trkpt>
      <trkpt lat="46.36183" lon="4.46464">
        <ele>463.49279785156</ele>
        <time>2019-01-19T10:54:05Z</time>
      </trkpt>
      <trkpt lat="46.36186" lon="4.46449">
        <ele>463.49279785156</ele>
        <time>2019-01-19T10:54:07Z</time>
      </trkpt>
      <trkpt lat="46.3619" lon="4.46435">
        <ele>463.01208496094</ele>
        <time>2019-01-19T10:54:09Z</time>
      </trkpt>
      <trkpt lat="46.36193" lon="4.46422">
        <ele>463.01208496094</ele>
        <time>2019-01-19T10:54:11Z</time>
      </trkpt>
      <trkpt lat="46.36197" lon="4.46406">
        <ele>462.53137207031</ele>
        <time>2019-01-19T10:54:14Z</time>
      </trkpt>
      <trkpt lat="46.36199" lon="4.46385">
        <ele>463.01208496094</ele>
        <time>2019-01-19T10:54:17Z</time>
      </trkpt>
      <trkpt lat="46.362" lon="4.4637">
        <ele>463.49279785156</ele>
        <time>2019-01-19T10:54:19Z</time>
      </trkpt>
      <trkpt lat="46.36202" lon="4.46357">
        <ele>463.97338867188</ele>
        <time>2019-01-19T10:54:21Z</time>
      </trkpt>
      <trkpt lat="46.36203" lon="4.46343">
        <ele>464.4541015625</ele>
        <time>2019-01-19T10:54:24Z</time>
      </trkpt>
      <trkpt lat="46.36203" lon="4.46333">
        <ele>465.41552734375</ele>
        <time>2019-01-19T10:54:27Z</time>
      </trkpt>
      <trkpt lat="46.36203" lon="4.46319">
        <ele>466.37670898438</ele>
        <time>2019-01-19T10:54:31Z</time>
      </trkpt>
      <trkpt lat="46.36259" lon="4.46301">
        <ele>466.857421875</ele>
        <time>2019-01-19T10:54:34Z</time>
      </trkpt>
      <trkpt lat="46.36266" lon="4.46287">
        <ele>467.81872558594</ele>
        <time>2019-01-19T10:54:37Z</time>
      </trkpt>
      <trkpt lat="46.36269" lon="4.46266">
        <ele>469.74133300781</ele>
        <time>2019-01-19T10:54:40Z</time>
      </trkpt>
      <trkpt lat="46.36278" lon="4.46249">
        <ele>471.18334960938</ele>
        <time>2019-01-19T10:54:42Z</time>
      </trkpt>
      <trkpt lat="46.36283" lon="4.46235">
        <ele>473.58666992188</ele>
        <time>2019-01-19T10:54:44Z</time>
      </trkpt>
      <trkpt lat="46.36293" lon="4.46219">
        <ele>474.54797363281</ele>
        <time>2019-01-19T10:54:46Z</time>
      </trkpt>
      <trkpt lat="46.36299" lon="4.46203">
        <ele>477.43188476562</ele>
        <time>2019-01-19T10:54:48Z</time>
      </trkpt>
      <trkpt lat="46.36306" lon="4.46186">
        <ele>480.31591796875</ele>
        <time>2019-01-19T10:54:50Z</time>
      </trkpt>
      <trkpt lat="46.36312" lon="4.46171">
        <ele>481.27722167969</ele>
        <time>2019-01-19T10:54:52Z</time>
      </trkpt>
      <trkpt lat="46.36319" lon="4.46158">
        <ele>484.1611328125</ele>
        <time>2019-01-19T10:54:54Z</time>
      </trkpt>
      <trkpt lat="46.36326" lon="4.46143">
        <ele>486.08374023438</ele>
        <time>2019-01-19T10:54:56Z</time>
      </trkpt>
      <trkpt lat="46.36333" lon="4.46126">
        <ele>488.00646972656</ele>
        <time>2019-01-19T10:54:58Z</time>
      </trkpt>
      <trkpt lat="46.36339" lon="4.4611">
        <ele>488.9677734375</ele>
        <time>2019-01-19T10:55:00Z</time>
      </trkpt>
      <trkpt lat="46.36344" lon="4.46093">
        <ele>489.44836425781</ele>
        <time>2019-01-19T10:55:02Z</time>
      </trkpt>
      <trkpt lat="46.36349" lon="4.46075">
        <ele>489.44836425781</ele>
        <time>2019-01-19T10:55:04Z</time>
      </trkpt>
      <trkpt lat="46.36353" lon="4.46055">
        <ele>490.40979003906</ele>
        <time>2019-01-19T10:55:06Z</time>
      </trkpt>
      <trkpt lat="46.36356" lon="4.46037">
        <ele>491.37097167969</ele>
        <time>2019-01-19T10:55:08Z</time>
      </trkpt>
      <trkpt lat="46.36355" lon="4.46016">
        <ele>493.77429199219</ele>
        <time>2019-01-19T10:55:10Z</time>
      </trkpt>
      <trkpt lat="46.3635" lon="4.46003">
        <ele>495.21618652344</ele>
        <time>2019-01-19T10:55:12Z</time>
      </trkpt>
      <trkpt lat="46.36348" lon="4.4599">
        <ele>496.65832519531</ele>
        <time>2019-01-19T10:55:14Z</time>
      </trkpt>
      <trkpt lat="46.36343" lon="4.45974">
        <ele>499.0615234375</ele>
        <time>2019-01-19T10:55:16Z</time>
      </trkpt>
      <trkpt lat="46.36331" lon="4.4596">
        <ele>500.50354003906</ele>
        <time>2019-01-19T10:55:18Z</time>
      </trkpt>
      <trkpt lat="46.36323" lon="4.45943">
        <ele>501.46484375</ele>
        <time>2019-01-19T10:55:20Z</time>
      </trkpt>
      <trkpt lat="46.36314" lon="4.45922">
        <ele>502.90673828125</ele>
        <time>2019-01-19T10:55:22Z</time>
      </trkpt>
      <trkpt lat="46.36307" lon="4.45906">
        <ele>503.8681640625</ele>
        <time>2019-01-19T10:55:24Z</time>
      </trkpt>
      <trkpt lat="46.36299" lon="4.45888">
        <ele>505.31018066406</ele>
        <time>2019-01-19T10:55:26Z</time>
      </trkpt>
      <trkpt lat="46.36291" lon="4.45868">
        <ele>505.79089355469</ele>
        <time>2019-01-19T10:55:28Z</time>
      </trkpt>
      <trkpt lat="46.36291" lon="4.45846">
        <ele>506.75207519531</ele>
        <time>2019-01-19T10:55:30Z</time>
      </trkpt>
      <trkpt lat="46.36298" lon="4.45829">
        <ele>507.71350097656</ele>
        <time>2019-01-19T10:55:32Z</time>
      </trkpt>
      <trkpt lat="46.36309" lon="4.45812">
        <ele>508.19409179688</ele>
        <time>2019-01-19T10:55:34Z</time>
      </trkpt>
      <trkpt lat="46.36323" lon="4.45796">
        <ele>509.63610839844</ele>
        <time>2019-01-19T10:55:36Z</time>
      </trkpt>
      <trkpt lat="46.3633" lon="4.45788">
        <ele>509.15539550781</ele>
        <time>2019-01-19T10:55:37Z</time>
      </trkpt>
      <trkpt lat="46.36344" lon="4.45769">
        <ele>509.15539550781</ele>
        <time>2019-01-19T10:55:39Z</time>
      </trkpt>
      <trkpt lat="46.3635" lon="4.45758">
        <ele>510.11669921875</ele>
        <time>2019-01-19T10:55:40Z</time>
      </trkpt>
      <trkpt lat="46.36357" lon="4.45746">
        <ele>509.63610839844</ele>
        <time>2019-01-19T10:55:41Z</time>
      </trkpt>
      <trkpt lat="46.36363" lon="4.45734">
        <ele>509.15539550781</ele>
        <time>2019-01-19T10:55:42Z</time>
      </trkpt>
      <trkpt lat="46.36369" lon="4.45723">
        <ele>509.63610839844</ele>
        <time>2019-01-19T10:55:43Z</time>
      </trkpt>
      <trkpt lat="46.36375" lon="4.45711">
        <ele>509.63610839844</ele>
        <time>2019-01-19T10:55:44Z</time>
      </trkpt>
      <trkpt lat="46.3638" lon="4.45699">
        <ele>509.63610839844</ele>
        <time>2019-01-19T10:55:45Z</time>
      </trkpt>
      <trkpt lat="46.36386" lon="4.45688">
        <ele>509.63610839844</ele>
        <time>2019-01-19T10:55:46Z</time>
      </trkpt>
      <trkpt lat="46.36394" lon="4.45665">
        <ele>510.59729003906</ele>
        <time>2019-01-19T10:55:48Z</time>
      </trkpt>
      <trkpt lat="46.36401" lon="4.45644">
        <ele>510.59729003906</ele>
        <time>2019-01-19T10:55:50Z</time>
      </trkpt>
      <trkpt lat="46.36407" lon="4.45624">
        <ele>510.59729003906</ele>
        <time>2019-01-19T10:55:52Z</time>
      </trkpt>
      <trkpt lat="46.36412" lon="4.45602">
        <ele>511.07800292969</ele>
        <time>2019-01-19T10:55:54Z</time>
      </trkpt>
      <trkpt lat="46.36419" lon="4.4558">
        <ele>511.07800292969</ele>
        <time>2019-01-19T10:55:56Z</time>
      </trkpt>
      <trkpt lat="46.36422" lon="4.45564">
        <ele>510.11669921875</ele>
        <time>2019-01-19T10:55:58Z</time>
      </trkpt>
      <trkpt lat="46.36429" lon="4.45549">
        <ele>510.11669921875</ele>
        <time>2019-01-19T10:56:00Z</time>
      </trkpt>
      <trkpt lat="46.36441" lon="4.4554">
        <ele>511.07800292969</ele>
        <time>2019-01-19T10:56:02Z</time>
      </trkpt>
      <trkpt lat="46.36455" lon="4.45531">
        <ele>512.03942871094</ele>
        <time>2019-01-19T10:56:04Z</time>
      </trkpt>
      <trkpt lat="46.36468" lon="4.45522">
        <ele>513.4814453125</ele>
        <time>2019-01-19T10:56:06Z</time>
      </trkpt>
      <trkpt lat="46.36482" lon="4.45512">
        <ele>514.92333984375</ele>
        <time>2019-01-19T10:56:08Z</time>
      </trkpt>
      <trkpt lat="46.36496" lon="4.45501">
        <ele>515.88464355469</ele>
        <time>2019-01-19T10:56:10Z</time>
      </trkpt>
      <trkpt lat="46.36508" lon="4.45491">
        <ele>517.32666015625</ele>
        <time>2019-01-19T10:56:12Z</time>
      </trkpt>
      <trkpt lat="46.36514" lon="4.45482">
        <ele>516.84594726562</ele>
        <time>2019-01-19T10:56:14Z</time>
      </trkpt>
      <trkpt lat="46.36517" lon="4.45466">
        <ele>518.7685546875</ele>
        <time>2019-01-19T10:56:17Z</time>
      </trkpt>
      <trkpt lat="46.36524" lon="4.4545">
        <ele>519.72985839844</ele>
        <time>2019-01-19T10:56:20Z</time>
      </trkpt>
      <trkpt lat="46.36543" lon="4.45425">
        <ele>522.13317871094</ele>
        <time>2019-01-19T10:56:46Z</time>
      </trkpt>
      <trkpt lat="46.36553" lon="4.45409">
        <ele>523.09460449219</ele>
        <time>2019-01-19T10:57:45Z</time>
      </trkpt>
      <trkpt lat="46.36567" lon="4.45399">
        <ele>523.09460449219</ele>
        <time>2019-01-19T11:00:10Z</time>
      </trkpt>
      <trkpt lat="46.36568" lon="4.45398">
        <ele>525.97839355469</ele>
        <time>2019-01-19T11:01:19Z</time>
      </trkpt>
      <trkpt lat="46.36576" lon="4.45377">
        <ele>528.86254882812</ele>
        <time>2019-01-19T11:01:24Z</time>
      </trkpt>
      <trkpt lat="46.36578" lon="4.45351">
        <ele>530.78515625</ele>
        <time>2019-01-19T11:01:27Z</time>
      </trkpt>
      <trkpt lat="46.36585" lon="4.45332">
        <ele>531.74633789062</ele>
        <time>2019-01-19T11:01:30Z</time>
      </trkpt>
      <trkpt lat="46.36593" lon="4.45318">
        <ele>531.74633789062</ele>
        <time>2019-01-19T11:01:33Z</time>
      </trkpt>
      <trkpt lat="46.36602" lon="4.45288">
        <ele>531.26574707031</ele>
        <time>2019-01-19T11:01:36Z</time>
      </trkpt>
      <trkpt lat="46.36612" lon="4.45269">
        <ele>530.78515625</ele>
        <time>2019-01-19T11:01:39Z</time>
      </trkpt>
      <trkpt lat="46.36629" lon="4.45253">
        <ele>531.74633789062</ele>
        <time>2019-01-19T11:01:42Z</time>
      </trkpt>
      <trkpt lat="46.36645" lon="4.45239">
        <ele>532.70776367188</ele>
        <time>2019-01-19T11:01:44Z</time>
      </trkpt>
      <trkpt lat="46.36661" lon="4.4523">
        <ele>532.70776367188</ele>
        <time>2019-01-19T11:01:46Z</time>
      </trkpt>
      <trkpt lat="46.3668" lon="4.4522">
        <ele>532.22705078125</ele>
        <time>2019-01-19T11:01:48Z</time>
      </trkpt>
      <trkpt lat="46.36698" lon="4.45211">
        <ele>531.26574707031</ele>
        <time>2019-01-19T11:01:50Z</time>
      </trkpt>
      <trkpt lat="46.36726" lon="4.45199">
        <ele>532.22705078125</ele>
        <time>2019-01-19T11:01:52Z</time>
      </trkpt>
      <trkpt lat="46.36741" lon="4.4519">
        <ele>531.26574707031</ele>
        <time>2019-01-19T11:01:54Z</time>
      </trkpt>
      <trkpt lat="46.36747" lon="4.45185">
        <ele>531.74633789062</ele>
        <time>2019-01-19T11:01:55Z</time>
      </trkpt>
      <trkpt lat="46.36767" lon="4.45169">
        <ele>530.78515625</ele>
        <time>2019-01-19T11:01:58Z</time>
      </trkpt>
      <trkpt lat="46.36778" lon="4.45158">
        <ele>529.34313964844</ele>
        <time>2019-01-19T11:02:00Z</time>
      </trkpt>
      <trkpt lat="46.36797" lon="4.45147">
        <ele>528.3818359375</ele>
        <time>2019-01-19T11:02:02Z</time>
      </trkpt>
      <trkpt lat="46.36814" lon="4.45141">
        <ele>527.90100097656</ele>
        <time>2019-01-19T11:02:04Z</time>
      </trkpt>
      <trkpt lat="46.36839" lon="4.45137">
        <ele>527.42041015625</ele>
        <time>2019-01-19T11:02:06Z</time>
      </trkpt>
      <trkpt lat="46.36863" lon="4.45129">
        <ele>526.93981933594</ele>
        <time>2019-01-19T11:02:08Z</time>
      </trkpt>
      <trkpt lat="46.36898" lon="4.45117">
        <ele>525.49780273438</ele>
        <time>2019-01-19T11:02:10Z</time>
      </trkpt>
      <trkpt lat="46.36915" lon="4.45112">
        <ele>525.49780273438</ele>
        <time>2019-01-19T11:02:11Z</time>
      </trkpt>
      <trkpt lat="46.36929" lon="4.45111">
        <ele>525.49780273438</ele>
        <time>2019-01-19T11:02:12Z</time>
      </trkpt>
      <trkpt lat="46.36949" lon="4.45105">
        <ele>524.53649902344</ele>
        <time>2019-01-19T11:02:14Z</time>
      </trkpt>
      <trkpt lat="46.36959" lon="4.451">
        <ele>523.5751953125</ele>
        <time>2019-01-19T11:02:15Z</time>
      </trkpt>
      <trkpt lat="46.36969" lon="4.45096">
        <ele>522.61389160156</ele>
        <time>2019-01-19T11:02:16Z</time>
      </trkpt>
      <trkpt lat="46.3698" lon="4.45091">
        <ele>521.65258789062</ele>
        <time>2019-01-19T11:02:17Z</time>
      </trkpt>
      <trkpt lat="46.36989" lon="4.45088">
        <ele>521.17199707031</ele>
        <time>2019-01-19T11:02:18Z</time>
      </trkpt>
      <trkpt lat="46.36999" lon="4.45085">
        <ele>521.17199707031</ele>
        <time>2019-01-19T11:02:19Z</time>
      </trkpt>
      <trkpt lat="46.37017" lon="4.45079">
        <ele>519.72985839844</ele>
        <time>2019-01-19T11:02:21Z</time>
      </trkpt>
      <trkpt lat="46.37027" lon="4.45075">
        <ele>519.72985839844</ele>
        <time>2019-01-19T11:02:22Z</time>
      </trkpt>
      <trkpt lat="46.37038" lon="4.4507">
        <ele>519.72985839844</ele>
        <time>2019-01-19T11:02:23Z</time>
      </trkpt>
      <trkpt lat="46.37048" lon="4.45065">
        <ele>519.24926757812</ele>
        <time>2019-01-19T11:02:24Z</time>
      </trkpt>
      <trkpt lat="46.37056" lon="4.4506">
        <ele>519.24926757812</ele>
        <time>2019-01-19T11:02:25Z</time>
      </trkpt>
      <trkpt lat="46.37066" lon="4.45055">
        <ele>518.7685546875</ele>
        <time>2019-01-19T11:02:26Z</time>
      </trkpt>
      <trkpt lat="46.37076" lon="4.45048">
        <ele>518.7685546875</ele>
        <time>2019-01-19T11:02:27Z</time>
      </trkpt>
      <trkpt lat="46.37084" lon="4.4504">
        <ele>518.7685546875</ele>
        <time>2019-01-19T11:02:28Z</time>
      </trkpt>
      <trkpt lat="46.37098" lon="4.45026">
        <ele>518.28784179688</ele>
        <time>2019-01-19T11:02:30Z</time>
      </trkpt>
      <trkpt lat="46.37109" lon="4.45014">
        <ele>517.80725097656</ele>
        <time>2019-01-19T11:02:32Z</time>
      </trkpt>
      <trkpt lat="46.37122" lon="4.45002">
        <ele>517.80725097656</ele>
        <time>2019-01-19T11:02:34Z</time>
      </trkpt>
      <trkpt lat="46.37134" lon="4.4499">
        <ele>517.32666015625</ele>
        <time>2019-01-19T11:02:36Z</time>
      </trkpt>
      <trkpt lat="46.37159" lon="4.44964">
        <ele>517.32666015625</ele>
        <time>2019-01-19T11:02:38Z</time>
      </trkpt>
      <trkpt lat="46.37168" lon="4.44956">
        <ele>517.32666015625</ele>
        <time>2019-01-19T11:02:39Z</time>
      </trkpt>
      <trkpt lat="46.37177" lon="4.44945">
        <ele>516.84594726562</ele>
        <time>2019-01-19T11:02:40Z</time>
      </trkpt>
      <trkpt lat="46.37193" lon="4.44934">
        <ele>516.84594726562</ele>
        <time>2019-01-19T11:02:41Z</time>
      </trkpt>
      <trkpt lat="46.37204" lon="4.44923">
        <ele>516.84594726562</ele>
        <time>2019-01-19T11:02:42Z</time>
      </trkpt>
      <trkpt lat="46.37213" lon="4.44912">
        <ele>516.365234375</ele>
        <time>2019-01-19T11:02:43Z</time>
      </trkpt>
      <trkpt lat="46.37221" lon="4.44901">
        <ele>516.365234375</ele>
        <time>2019-01-19T11:02:44Z</time>
      </trkpt>
      <trkpt lat="46.37228" lon="4.4489">
        <ele>515.88464355469</ele>
        <time>2019-01-19T11:02:45Z</time>
      </trkpt>
      <trkpt lat="46.37235" lon="4.44881">
        <ele>515.88464355469</ele>
        <time>2019-01-19T11:02:46Z</time>
      </trkpt>
      <trkpt lat="46.37247" lon="4.44864">
        <ele>515.88464355469</ele>
        <time>2019-01-19T11:02:48Z</time>
      </trkpt>
      <trkpt lat="46.37261" lon="4.44846">
        <ele>514.44262695312</ele>
        <time>2019-01-19T11:02:50Z</time>
      </trkpt>
      <trkpt lat="46.37275" lon="4.44828">
        <ele>515.40405273438</ele>
        <time>2019-01-19T11:02:52Z</time>
      </trkpt>
      <trkpt lat="46.37291" lon="4.44809">
        <ele>515.88464355469</ele>
        <time>2019-01-19T11:02:54Z</time>
      </trkpt>
      <trkpt lat="46.37299" lon="4.44801">
        <ele>515.88464355469</ele>
        <time>2019-01-19T11:02:55Z</time>
      </trkpt>
      <trkpt lat="46.37313" lon="4.44785">
        <ele>515.88464355469</ele>
        <time>2019-01-19T11:02:57Z</time>
      </trkpt>
      <trkpt lat="46.37326" lon="4.44771">
        <ele>515.88464355469</ele>
        <time>2019-01-19T11:02:59Z</time>
      </trkpt>
      <trkpt lat="46.37333" lon="4.44763">
        <ele>515.88464355469</ele>
        <time>2019-01-19T11:03:00Z</time>
      </trkpt>
      <trkpt lat="46.3734" lon="4.44755">
        <ele>516.365234375</ele>
        <time>2019-01-19T11:03:01Z</time>
      </trkpt>
      <trkpt lat="46.37348" lon="4.44748">
        <ele>516.365234375</ele>
        <time>2019-01-19T11:03:02Z</time>
      </trkpt>
      <trkpt lat="46.37356" lon="4.4474">
        <ele>516.84594726562</ele>
        <time>2019-01-19T11:03:03Z</time>
      </trkpt>
      <trkpt lat="46.37363" lon="4.44734">
        <ele>516.365234375</ele>
        <time>2019-01-19T11:03:04Z</time>
      </trkpt>
      <trkpt lat="46.37378" lon="4.4472">
        <ele>516.84594726562</ele>
        <time>2019-01-19T11:03:06Z</time>
      </trkpt>
      <trkpt lat="46.37391" lon="4.44708">
        <ele>516.84594726562</ele>
        <time>2019-01-19T11:03:08Z</time>
      </trkpt>
      <trkpt lat="46.37447" lon="4.44667">
        <ele>516.84594726562</ele>
        <time>2019-01-19T11:03:09Z</time>
      </trkpt>
      <trkpt lat="46.37447" lon="4.44667">
        <ele>516.365234375</ele>
        <time>2019-01-19T11:03:11Z</time>
      </trkpt>
      <trkpt lat="46.37447" lon="4.44667">
        <ele>515.40405273438</ele>
        <time>2019-01-19T11:03:13Z</time>
      </trkpt>
      <trkpt lat="46.37447" lon="4.44667">
        <ele>514.92333984375</ele>
        <time>2019-01-19T11:03:15Z</time>
      </trkpt>
      <trkpt lat="46.37447" lon="4.44667">
        <ele>513.96203613281</ele>
        <time>2019-01-19T11:03:17Z</time>
      </trkpt>
      <trkpt lat="46.37448" lon="4.44667">
        <ele>513.96203613281</ele>
        <time>2019-01-19T11:03:22Z</time>
      </trkpt>
      <trkpt lat="46.37447" lon="4.44667">
        <ele>514.92333984375</ele>
        <time>2019-01-19T11:03:24Z</time>
      </trkpt>
      <trkpt lat="46.37447" lon="4.44667">
        <ele>513.96203613281</ele>
        <time>2019-01-19T11:03:26Z</time>
      </trkpt>
      <trkpt lat="46.37413" lon="4.4459">
        <ele>513.4814453125</ele>
        <time>2019-01-19T11:03:28Z</time>
      </trkpt>
      <trkpt lat="46.37402" lon="4.44569">
        <ele>512.03942871094</ele>
        <time>2019-01-19T11:03:30Z</time>
      </trkpt>
      <trkpt lat="46.37397" lon="4.44558">
        <ele>511.55871582031</ele>
        <time>2019-01-19T11:03:31Z</time>
      </trkpt>
      <trkpt lat="46.3739" lon="4.44546">
        <ele>511.07800292969</ele>
        <time>2019-01-19T11:03:32Z</time>
      </trkpt>
      <trkpt lat="46.37384" lon="4.44535">
        <ele>510.59729003906</ele>
        <time>2019-01-19T11:03:33Z</time>
      </trkpt>
      <trkpt lat="46.37378" lon="4.44525">
        <ele>510.11669921875</ele>
        <time>2019-01-19T11:03:34Z</time>
      </trkpt>
      <trkpt lat="46.37368" lon="4.44504">
        <ele>508.19409179688</ele>
        <time>2019-01-19T11:03:36Z</time>
      </trkpt>
      <trkpt lat="46.37358" lon="4.44483">
        <ele>506.75207519531</ele>
        <time>2019-01-19T11:03:38Z</time>
      </trkpt>
      <trkpt lat="46.37347" lon="4.44462">
        <ele>505.31018066406</ele>
        <time>2019-01-19T11:03:40Z</time>
      </trkpt>
      <trkpt lat="46.37339" lon="4.4444">
        <ele>503.8681640625</ele>
        <time>2019-01-19T11:03:42Z</time>
      </trkpt>
      <trkpt lat="46.37331" lon="4.44421">
        <ele>502.42614746094</ele>
        <time>2019-01-19T11:03:44Z</time>
      </trkpt>
      <trkpt lat="46.37323" lon="4.44402">
        <ele>500.50354003906</ele>
        <time>2019-01-19T11:03:46Z</time>
      </trkpt>
      <trkpt lat="46.37316" lon="4.44384">
        <ele>498.58093261719</ele>
        <time>2019-01-19T11:03:48Z</time>
      </trkpt>
      <trkpt lat="46.37308" lon="4.44366">
        <ele>496.65832519531</ele>
        <time>2019-01-19T11:03:50Z</time>
      </trkpt>
      <trkpt lat="46.37299" lon="4.44349">
        <ele>494.73559570312</ele>
        <time>2019-01-19T11:03:52Z</time>
      </trkpt>
      <trkpt lat="46.37287" lon="4.4433">
        <ele>492.81298828125</ele>
        <time>2019-01-19T11:03:54Z</time>
      </trkpt>
      <trkpt lat="46.37276" lon="4.44311">
        <ele>490.89038085938</ele>
        <time>2019-01-19T11:03:56Z</time>
      </trkpt>
      <trkpt lat="46.37264" lon="4.44293">
        <ele>489.44836425781</ele>
        <time>2019-01-19T11:03:58Z</time>
      </trkpt>
      <trkpt lat="46.37253" lon="4.44276">
        <ele>488.00646972656</ele>
        <time>2019-01-19T11:04:00Z</time>
      </trkpt>
      <trkpt lat="46.37242" lon="4.44259">
        <ele>486.564453125</ele>
        <time>2019-01-19T11:04:02Z</time>
      </trkpt>
      <trkpt lat="46.37231" lon="4.44244">
        <ele>484.64184570312</ele>
        <time>2019-01-19T11:04:04Z</time>
      </trkpt>
      <trkpt lat="46.37221" lon="4.4423">
        <ele>483.68041992188</ele>
        <time>2019-01-19T11:04:06Z</time>
      </trkpt>
      <trkpt lat="46.3721" lon="4.44217">
        <ele>483.68041992188</ele>
        <time>2019-01-19T11:04:08Z</time>
      </trkpt>
      <trkpt lat="46.372" lon="4.44204">
        <ele>481.27722167969</ele>
        <time>2019-01-19T11:04:10Z</time>
      </trkpt>
      <trkpt lat="46.37189" lon="4.44193">
        <ele>480.31591796875</ele>
        <time>2019-01-19T11:04:12Z</time>
      </trkpt>
      <trkpt lat="46.37178" lon="4.44182">
        <ele>477.91247558594</ele>
        <time>2019-01-19T11:04:14Z</time>
      </trkpt>
      <trkpt lat="46.37168" lon="4.4417">
        <ele>476.47058105469</ele>
        <time>2019-01-19T11:04:16Z</time>
      </trkpt>
      <trkpt lat="46.3716" lon="4.44159">
        <ele>474.06726074219</ele>
        <time>2019-01-19T11:04:18Z</time>
      </trkpt>
      <trkpt lat="46.37156" lon="4.44148">
        <ele>472.62536621094</ele>
        <time>2019-01-19T11:04:21Z</time>
      </trkpt>
      <trkpt lat="46.37148" lon="4.44144">
        <ele>470.70263671875</ele>
        <time>2019-01-19T11:04:32Z</time>
      </trkpt>
      <trkpt lat="46.37095" lon="4.44123">
        <ele>468.78002929688</ele>
        <time>2019-01-19T11:04:34Z</time>
      </trkpt>
      <trkpt lat="46.37097" lon="4.44111">
        <ele>458.68615722656</ele>
        <time>2019-01-19T11:04:53Z</time>
      </trkpt>
      <trkpt lat="46.37097" lon="4.44091">
        <ele>457.72497558594</ele>
        <time>2019-01-19T11:04:56Z</time>
      </trkpt>
      <trkpt lat="46.37092" lon="4.44077">
        <ele>457.24426269531</ele>
        <time>2019-01-19T11:04:58Z</time>
      </trkpt>
      <trkpt lat="46.37089" lon="4.44059">
        <ele>456.28295898438</ele>
        <time>2019-01-19T11:05:00Z</time>
      </trkpt>
      <trkpt lat="46.37088" lon="4.44042">
        <ele>454.8408203125</ele>
        <time>2019-01-19T11:05:03Z</time>
      </trkpt>
      <trkpt lat="46.37087" lon="4.44028">
        <ele>453.39892578125</ele>
        <time>2019-01-19T11:05:07Z</time>
      </trkpt>
      <trkpt lat="46.3709" lon="4.44015">
        <ele>453.87963867188</ele>
        <time>2019-01-19T11:05:10Z</time>
      </trkpt>
      <trkpt lat="46.37096" lon="4.44003">
        <ele>454.36022949219</ele>
        <time>2019-01-19T11:05:13Z</time>
      </trkpt>
      <trkpt lat="46.37093" lon="4.4399">
        <ele>452.43762207031</ele>
        <time>2019-01-19T11:05:16Z</time>
      </trkpt>
      <trkpt lat="46.37083" lon="4.43977">
        <ele>450.03442382812</ele>
        <time>2019-01-19T11:05:19Z</time>
      </trkpt>
      <trkpt lat="46.37074" lon="4.43964">
        <ele>447.63098144531</ele>
        <time>2019-01-19T11:05:22Z</time>
      </trkpt>
      <trkpt lat="46.37066" lon="4.4394">
        <ele>446.18908691406</ele>
        <time>2019-01-19T11:05:25Z</time>
      </trkpt>
      <trkpt lat="46.37074" lon="4.43926">
        <ele>445.70837402344</ele>
        <time>2019-01-19T11:05:27Z</time>
      </trkpt>
      <trkpt lat="46.37082" lon="4.43916">
        <ele>445.22766113281</ele>
        <time>2019-01-19T11:05:29Z</time>
      </trkpt>
      <trkpt lat="46.37089" lon="4.43904">
        <ele>444.7470703125</ele>
        <time>2019-01-19T11:05:31Z</time>
      </trkpt>
      <trkpt lat="46.37097" lon="4.43891">
        <ele>444.26647949219</ele>
        <time>2019-01-19T11:05:33Z</time>
      </trkpt>
      <trkpt lat="46.37106" lon="4.43878">
        <ele>443.78576660156</ele>
        <time>2019-01-19T11:05:35Z</time>
      </trkpt>
      <trkpt lat="46.37116" lon="4.43864">
        <ele>442.82446289062</ele>
        <time>2019-01-19T11:05:37Z</time>
      </trkpt>
      <trkpt lat="46.37121" lon="4.43847">
        <ele>441.38244628906</ele>
        <time>2019-01-19T11:05:39Z</time>
      </trkpt>
      <trkpt lat="46.37126" lon="4.43831">
        <ele>439.9404296875</ele>
        <time>2019-01-19T11:05:41Z</time>
      </trkpt>
      <trkpt lat="46.37128" lon="4.43816">
        <ele>438.01782226562</ele>
        <time>2019-01-19T11:05:43Z</time>
      </trkpt>
      <trkpt lat="46.37131" lon="4.43798">
        <ele>437.537109375</ele>
        <time>2019-01-19T11:05:46Z</time>
      </trkpt>
      <trkpt lat="46.37132" lon="4.43788">
        <ele>437.05651855469</ele>
        <time>2019-01-19T11:05:49Z</time>
      </trkpt>
      <trkpt lat="46.37119" lon="4.43782">
        <ele>437.05651855469</ele>
        <time>2019-01-19T11:05:51Z</time>
      </trkpt>
      <trkpt lat="46.37108" lon="4.43775">
        <ele>436.57592773438</ele>
        <time>2019-01-19T11:05:53Z</time>
      </trkpt>
      <trkpt lat="46.37093" lon="4.43765">
        <ele>436.09521484375</ele>
        <time>2019-01-19T11:05:55Z</time>
      </trkpt>
      <trkpt lat="46.37072" lon="4.43749">
        <ele>434.17260742188</ele>
        <time>2019-01-19T11:05:57Z</time>
      </trkpt>
      <trkpt lat="46.37062" lon="4.43742">
        <ele>434.17260742188</ele>
        <time>2019-01-19T11:05:58Z</time>
      </trkpt>
      <trkpt lat="46.37053" lon="4.43734">
        <ele>433.69189453125</ele>
        <time>2019-01-19T11:05:59Z</time>
      </trkpt>
      <trkpt lat="46.37044" lon="4.43724">
        <ele>433.69189453125</ele>
        <time>2019-01-19T11:06:00Z</time>
      </trkpt>
      <trkpt lat="46.37035" lon="4.43713">
        <ele>433.21130371094</ele>
        <time>2019-01-19T11:06:01Z</time>
      </trkpt>
      <trkpt lat="46.37022" lon="4.43693">
        <ele>433.69189453125</ele>
        <time>2019-01-19T11:06:03Z</time>
      </trkpt>
      <trkpt lat="46.37011" lon="4.43676">
        <ele>434.17260742188</ele>
        <time>2019-01-19T11:06:05Z</time>
      </trkpt>
      <trkpt lat="46.37003" lon="4.43664">
        <ele>433.21130371094</ele>
        <time>2019-01-19T11:06:07Z</time>
      </trkpt>
      <trkpt lat="46.37003" lon="4.43649">
        <ele>434.17260742188</ele>
        <time>2019-01-19T11:06:09Z</time>
      </trkpt>
      <trkpt lat="46.37004" lon="4.43635">
        <ele>434.6533203125</ele>
        <time>2019-01-19T11:06:11Z</time>
      </trkpt>
      <trkpt lat="46.37008" lon="4.43615">
        <ele>435.13391113281</ele>
        <time>2019-01-19T11:06:13Z</time>
      </trkpt>
      <trkpt lat="46.37012" lon="4.43587">
        <ele>435.61450195312</ele>
        <time>2019-01-19T11:06:15Z</time>
      </trkpt>
      <trkpt lat="46.37013" lon="4.43572">
        <ele>436.57592773438</ele>
        <time>2019-01-19T11:06:16Z</time>
      </trkpt>
      <trkpt lat="46.37014" lon="4.43556">
        <ele>437.537109375</ele>
        <time>2019-01-19T11:06:17Z</time>
      </trkpt>
      <trkpt lat="46.37016" lon="4.43537">
        <ele>438.97912597656</ele>
        <time>2019-01-19T11:06:18Z</time>
      </trkpt>
      <trkpt lat="46.37015" lon="4.43516">
        <ele>440.42126464844</ele>
        <time>2019-01-19T11:06:19Z</time>
      </trkpt>
      <trkpt lat="46.37013" lon="4.43499">
        <ele>441.38244628906</ele>
        <time>2019-01-19T11:06:20Z</time>
      </trkpt>
      <trkpt lat="46.37009" lon="4.43484">
        <ele>441.86315917969</ele>
        <time>2019-01-19T11:06:21Z</time>
      </trkpt>
      <trkpt lat="46.37007" lon="4.43469">
        <ele>443.30505371094</ele>
        <time>2019-01-19T11:06:22Z</time>
      </trkpt>
      <trkpt lat="46.37006" lon="4.43455">
        <ele>444.26647949219</ele>
        <time>2019-01-19T11:06:23Z</time>
      </trkpt>
      <trkpt lat="46.37005" lon="4.43441">
        <ele>444.7470703125</ele>
        <time>2019-01-19T11:06:24Z</time>
      </trkpt>
      <trkpt lat="46.37003" lon="4.43416">
        <ele>446.18908691406</ele>
        <time>2019-01-19T11:06:26Z</time>
      </trkpt>
      <trkpt lat="46.37001" lon="4.43391">
        <ele>447.63098144531</ele>
        <time>2019-01-19T11:06:28Z</time>
      </trkpt>
      <trkpt lat="46.37001" lon="4.4337">
        <ele>448.59240722656</ele>
        <time>2019-01-19T11:06:30Z</time>
      </trkpt>
      <trkpt lat="46.37001" lon="4.43348">
        <ele>450.03442382812</ele>
        <time>2019-01-19T11:06:32Z</time>
      </trkpt>
      <trkpt lat="46.37" lon="4.43325">
        <ele>452.43762207031</ele>
        <time>2019-01-19T11:06:34Z</time>
      </trkpt>
      <trkpt lat="46.36997" lon="4.43309">
        <ele>453.39892578125</ele>
        <time>2019-01-19T11:06:36Z</time>
      </trkpt>
      <trkpt lat="46.36996" lon="4.43292">
        <ele>454.8408203125</ele>
        <time>2019-01-19T11:06:38Z</time>
      </trkpt>
      <trkpt lat="46.36998" lon="4.43279">
        <ele>456.76354980469</ele>
        <time>2019-01-19T11:06:40Z</time>
      </trkpt>
      <trkpt lat="46.37001" lon="4.43261">
        <ele>458.68615722656</ele>
        <time>2019-01-19T11:06:42Z</time>
      </trkpt>
      <trkpt lat="46.37001" lon="4.43241">
        <ele>461.08947753906</ele>
        <time>2019-01-19T11:06:44Z</time>
      </trkpt>
      <trkpt lat="46.37001" lon="4.43238">
        <ele>462.53137207031</ele>
        <time>2019-01-19T11:06:46Z</time>
      </trkpt>
      <trkpt lat="46.37001" lon="4.43238">
        <ele>463.01208496094</ele>
        <time>2019-01-19T11:06:50Z</time>
      </trkpt>
      <trkpt lat="46.37001" lon="4.43238">
        <ele>463.01208496094</ele>
        <time>2019-01-19T11:07:03Z</time>
      </trkpt>
      <trkpt lat="46.37001" lon="4.43238">
        <ele>463.49279785156</ele>
        <time>2019-01-19T11:07:29Z</time>
      </trkpt>
      <trkpt lat="46.37018" lon="4.43167">
        <ele>464.4541015625</ele>
        <time>2019-01-19T11:07:33Z</time>
      </trkpt>
      <trkpt lat="46.37018" lon="4.43151">
        <ele>465.41552734375</ele>
        <time>2019-01-19T11:07:36Z</time>
      </trkpt>
      <trkpt lat="46.37018" lon="4.4313">
        <ele>466.37670898438</ele>
        <time>2019-01-19T11:07:39Z</time>
      </trkpt>
      <trkpt lat="46.37019" lon="4.43115">
        <ele>468.78002929688</ele>
        <time>2019-01-19T11:07:41Z</time>
      </trkpt>
      <trkpt lat="46.37021" lon="4.43098">
        <ele>470.22192382812</ele>
        <time>2019-01-19T11:07:43Z</time>
      </trkpt>
      <trkpt lat="46.37022" lon="4.43084">
        <ele>472.14465332031</ele>
        <time>2019-01-19T11:07:45Z</time>
      </trkpt>
      <trkpt lat="46.37019" lon="4.43062">
        <ele>474.06726074219</ele>
        <time>2019-01-19T11:07:48Z</time>
      </trkpt>
      <trkpt lat="46.37018" lon="4.4304">
        <ele>475.98986816406</ele>
        <time>2019-01-19T11:07:51Z</time>
      </trkpt>
      <trkpt lat="46.37008" lon="4.43035">
        <ele>479.3544921875</ele>
        <time>2019-01-19T11:07:54Z</time>
      </trkpt>
      <trkpt lat="46.36997" lon="4.43036">
        <ele>481.7578125</ele>
        <time>2019-01-19T11:07:57Z</time>
      </trkpt>
      <trkpt lat="46.36988" lon="4.43036">
        <ele>485.12243652344</ele>
        <time>2019-01-19T11:08:00Z</time>
      </trkpt>
      <trkpt lat="46.36973" lon="4.43035">
        <ele>488.48718261719</ele>
        <time>2019-01-19T11:08:03Z</time>
      </trkpt>
      <trkpt lat="46.36963" lon="4.43036">
        <ele>488.48718261719</ele>
        <time>2019-01-19T11:08:05Z</time>
      </trkpt>
      <trkpt lat="46.36951" lon="4.43037">
        <ele>493.29357910156</ele>
        <time>2019-01-19T11:08:07Z</time>
      </trkpt>
      <trkpt lat="46.36941" lon="4.43039">
        <ele>495.21618652344</ele>
        <time>2019-01-19T11:08:09Z</time>
      </trkpt>
      <trkpt lat="46.36933" lon="4.43039">
        <ele>497.61962890625</ele>
        <time>2019-01-19T11:08:11Z</time>
      </trkpt>
      <trkpt lat="46.36924" lon="4.43038">
        <ele>500.50354003906</ele>
        <time>2019-01-19T11:08:13Z</time>
      </trkpt>
      <trkpt lat="46.36911" lon="4.43033">
        <ele>503.8681640625</ele>
        <time>2019-01-19T11:08:16Z</time>
      </trkpt>
      <trkpt lat="46.36899" lon="4.43026">
        <ele>507.23278808594</ele>
        <time>2019-01-19T11:08:19Z</time>
      </trkpt>
      <trkpt lat="46.36889" lon="4.43026">
        <ele>509.15539550781</ele>
        <time>2019-01-19T11:08:21Z</time>
      </trkpt>
      <trkpt lat="46.3688" lon="4.4303">
        <ele>511.07800292969</ele>
        <time>2019-01-19T11:08:23Z</time>
      </trkpt>
      <trkpt lat="46.36867" lon="4.43037">
        <ele>513.00073242188</ele>
        <time>2019-01-19T11:08:26Z</time>
      </trkpt>
      <trkpt lat="46.36859" lon="4.43042">
        <ele>516.84594726562</ele>
        <time>2019-01-19T11:08:28Z</time>
      </trkpt>
      <trkpt lat="46.36849" lon="4.43042">
        <ele>516.365234375</ele>
        <time>2019-01-19T11:08:30Z</time>
      </trkpt>
      <trkpt lat="46.36843" lon="4.43039">
        <ele>519.72985839844</ele>
        <time>2019-01-19T11:08:33Z</time>
      </trkpt>
      <trkpt lat="46.36825" lon="4.43032">
        <ele>520.69128417969</ele>
        <time>2019-01-19T11:08:36Z</time>
      </trkpt>
      <trkpt lat="46.36792" lon="4.43037">
        <ele>521.65258789062</ele>
        <time>2019-01-19T11:08:38Z</time>
      </trkpt>
      <trkpt lat="46.36785" lon="4.43044">
        <ele>522.13317871094</ele>
        <time>2019-01-19T11:08:40Z</time>
      </trkpt>
      <trkpt lat="46.36778" lon="4.43048">
        <ele>523.09460449219</ele>
        <time>2019-01-19T11:08:42Z</time>
      </trkpt>
      <trkpt lat="46.36765" lon="4.43056">
        <ele>523.09460449219</ele>
        <time>2019-01-19T11:08:44Z</time>
      </trkpt>
      <trkpt lat="46.36754" lon="4.43062">
        <ele>522.61389160156</ele>
        <time>2019-01-19T11:08:46Z</time>
      </trkpt>
      <trkpt lat="46.36738" lon="4.4307">
        <ele>522.13317871094</ele>
        <time>2019-01-19T11:08:48Z</time>
      </trkpt>
      <trkpt lat="46.36726" lon="4.43077">
        <ele>520.69128417969</ele>
        <time>2019-01-19T11:08:50Z</time>
      </trkpt>
      <trkpt lat="46.36712" lon="4.43087">
        <ele>521.17199707031</ele>
        <time>2019-01-19T11:08:52Z</time>
      </trkpt>
      <trkpt lat="46.367" lon="4.43098">
        <ele>519.24926757812</ele>
        <time>2019-01-19T11:08:54Z</time>
      </trkpt>
      <trkpt lat="46.36691" lon="4.43108">
        <ele>518.28784179688</ele>
        <time>2019-01-19T11:08:56Z</time>
      </trkpt>
      <trkpt lat="46.36675" lon="4.43121">
        <ele>516.84594726562</ele>
        <time>2019-01-19T11:08:59Z</time>
      </trkpt>
      <trkpt lat="46.36663" lon="4.43134">
        <ele>517.80725097656</ele>
        <time>2019-01-19T11:09:03Z</time>
      </trkpt>
      <trkpt lat="46.36656" lon="4.43145">
        <ele>517.32666015625</ele>
        <time>2019-01-19T11:09:07Z</time>
      </trkpt>
      <trkpt lat="46.3665" lon="4.43158">
        <ele>516.84594726562</ele>
        <time>2019-01-19T11:09:10Z</time>
      </trkpt>
      <trkpt lat="46.36646" lon="4.43171">
        <ele>516.84594726562</ele>
        <time>2019-01-19T11:09:13Z</time>
      </trkpt>
      <trkpt lat="46.36641" lon="4.43184">
        <ele>516.84594726562</ele>
        <time>2019-01-19T11:09:16Z</time>
      </trkpt>
      <trkpt lat="46.36636" lon="4.43198">
        <ele>516.365234375</ele>
        <time>2019-01-19T11:09:21Z</time>
      </trkpt>
      <trkpt lat="46.36628" lon="4.43208">
        <ele>517.32666015625</ele>
        <time>2019-01-19T11:09:26Z</time>
      </trkpt>
      <trkpt lat="46.36622" lon="4.43219">
        <ele>516.84594726562</ele>
        <time>2019-01-19T11:09:30Z</time>
      </trkpt>
      <trkpt lat="46.36612" lon="4.4323">
        <ele>515.40405273438</ele>
        <time>2019-01-19T11:09:34Z</time>
      </trkpt>
      <trkpt lat="46.36596" lon="4.43242">
        <ele>513.00073242188</ele>
        <time>2019-01-19T11:09:38Z</time>
      </trkpt>
      <trkpt lat="46.36581" lon="4.43259">
        <ele>513.96203613281</ele>
        <time>2019-01-19T11:09:41Z</time>
      </trkpt>
      <trkpt lat="46.36571" lon="4.4327">
        <ele>513.96203613281</ele>
        <time>2019-01-19T11:09:44Z</time>
      </trkpt>
      <trkpt lat="46.36563" lon="4.43289">
        <ele>513.00073242188</ele>
        <time>2019-01-19T11:09:47Z</time>
      </trkpt>
      <trkpt lat="46.36551" lon="4.43304">
        <ele>512.52001953125</ele>
        <time>2019-01-19T11:09:50Z</time>
      </trkpt>
      <trkpt lat="46.3654" lon="4.43314">
        <ele>512.03942871094</ele>
        <time>2019-01-19T11:09:52Z</time>
      </trkpt>
      <trkpt lat="46.3653" lon="4.43326">
        <ele>511.07800292969</ele>
        <time>2019-01-19T11:09:54Z</time>
      </trkpt>
      <trkpt lat="46.36522" lon="4.43336">
        <ele>510.11669921875</ele>
        <time>2019-01-19T11:09:56Z</time>
      </trkpt>
      <trkpt lat="46.36512" lon="4.43346">
        <ele>508.67468261719</ele>
        <time>2019-01-19T11:09:58Z</time>
      </trkpt>
      <trkpt lat="46.36502" lon="4.43353">
        <ele>508.19409179688</ele>
        <time>2019-01-19T11:10:00Z</time>
      </trkpt>
      <trkpt lat="46.36482" lon="4.43365">
        <ele>506.75207519531</ele>
        <time>2019-01-19T11:10:03Z</time>
      </trkpt>
      <trkpt lat="46.36445" lon="4.43382">
        <ele>504.82946777344</ele>
        <time>2019-01-19T11:10:06Z</time>
      </trkpt>
      <trkpt lat="46.36423" lon="4.43381">
        <ele>504.82946777344</ele>
        <time>2019-01-19T11:10:09Z</time>
      </trkpt>
      <trkpt lat="46.36414" lon="4.43385">
        <ele>505.31018066406</ele>
        <time>2019-01-19T11:10:11Z</time>
      </trkpt>
      <trkpt lat="46.36406" lon="4.43386">
        <ele>506.271484375</ele>
        <time>2019-01-19T11:10:13Z</time>
      </trkpt>
      <trkpt lat="46.36395" lon="4.43388">
        <ele>507.23278808594</ele>
        <time>2019-01-19T11:10:15Z</time>
      </trkpt>
      <trkpt lat="46.36383" lon="4.43392">
        <ele>507.71350097656</ele>
        <time>2019-01-19T11:10:17Z</time>
      </trkpt>
      <trkpt lat="46.36371" lon="4.43395">
        <ele>508.67468261719</ele>
        <time>2019-01-19T11:10:19Z</time>
      </trkpt>
      <trkpt lat="46.36354" lon="4.43398">
        <ele>509.63610839844</ele>
        <time>2019-01-19T11:10:21Z</time>
      </trkpt>
      <trkpt lat="46.36338" lon="4.434">
        <ele>510.11669921875</ele>
        <time>2019-01-19T11:10:23Z</time>
      </trkpt>
      <trkpt lat="46.36321" lon="4.43405">
        <ele>511.55871582031</ele>
        <time>2019-01-19T11:10:25Z</time>
      </trkpt>
      <trkpt lat="46.36304" lon="4.43411">
        <ele>513.00073242188</ele>
        <time>2019-01-19T11:10:27Z</time>
      </trkpt>
      <trkpt lat="46.36288" lon="4.43414">
        <ele>513.96203613281</ele>
        <time>2019-01-19T11:10:29Z</time>
      </trkpt>
      <trkpt lat="46.36273" lon="4.43416">
        <ele>514.92333984375</ele>
        <time>2019-01-19T11:10:31Z</time>
      </trkpt>
      <trkpt lat="46.36259" lon="4.43416">
        <ele>514.92333984375</ele>
        <time>2019-01-19T11:10:33Z</time>
      </trkpt>
      <trkpt lat="46.36245" lon="4.43417">
        <ele>514.92333984375</ele>
        <time>2019-01-19T11:10:35Z</time>
      </trkpt>
      <trkpt lat="46.3623" lon="4.43419">
        <ele>513.96203613281</ele>
        <time>2019-01-19T11:10:37Z</time>
      </trkpt>
      <trkpt lat="46.36211" lon="4.43419">
        <ele>514.44262695312</ele>
        <time>2019-01-19T11:10:39Z</time>
      </trkpt>
      <trkpt lat="46.36194" lon="4.43417">
        <ele>514.92333984375</ele>
        <time>2019-01-19T11:10:41Z</time>
      </trkpt>
      <trkpt lat="46.36178" lon="4.43419">
        <ele>513.96203613281</ele>
        <time>2019-01-19T11:10:43Z</time>
      </trkpt>
      <trkpt lat="46.36163" lon="4.43426">
        <ele>513.00073242188</ele>
        <time>2019-01-19T11:10:45Z</time>
      </trkpt>
      <trkpt lat="46.36149" lon="4.43431">
        <ele>512.52001953125</ele>
        <time>2019-01-19T11:10:47Z</time>
      </trkpt>
      <trkpt lat="46.36136" lon="4.43442">
        <ele>512.03942871094</ele>
        <time>2019-01-19T11:10:49Z</time>
      </trkpt>
      <trkpt lat="46.36109" lon="4.43518">
        <ele>512.03942871094</ele>
        <time>2019-01-19T11:10:50Z</time>
      </trkpt>
      <trkpt lat="46.36102" lon="4.43514">
        <ele>511.07800292969</ele>
        <time>2019-01-19T11:10:52Z</time>
      </trkpt>
      <trkpt lat="46.36092" lon="4.43507">
        <ele>511.07800292969</ele>
        <time>2019-01-19T11:10:54Z</time>
      </trkpt>
      <trkpt lat="46.36094" lon="4.43487">
        <ele>509.63610839844</ele>
        <time>2019-01-19T11:10:56Z</time>
      </trkpt>
      <trkpt lat="46.36085" lon="4.43497">
        <ele>509.15539550781</ele>
        <time>2019-01-19T11:10:59Z</time>
      </trkpt>
      <trkpt lat="46.36077" lon="4.43498">
        <ele>507.71350097656</ele>
        <time>2019-01-19T11:11:02Z</time>
      </trkpt>
      <trkpt lat="46.36073" lon="4.43486">
        <ele>508.19409179688</ele>
        <time>2019-01-19T11:11:04Z</time>
      </trkpt>
      <trkpt lat="46.36064" lon="4.43472">
        <ele>508.19409179688</ele>
        <time>2019-01-19T11:11:06Z</time>
      </trkpt>
      <trkpt lat="46.36053" lon="4.43453">
        <ele>507.23278808594</ele>
        <time>2019-01-19T11:11:08Z</time>
      </trkpt>
      <trkpt lat="46.36042" lon="4.43435">
        <ele>506.75207519531</ele>
        <time>2019-01-19T11:11:10Z</time>
      </trkpt>
      <trkpt lat="46.36031" lon="4.43418">
        <ele>506.271484375</ele>
        <time>2019-01-19T11:11:12Z</time>
      </trkpt>
      <trkpt lat="46.36024" lon="4.43409">
        <ele>505.79089355469</ele>
        <time>2019-01-19T11:11:14Z</time>
      </trkpt>
      <trkpt lat="46.36019" lon="4.43405">
        <ele>507.23278808594</ele>
        <time>2019-01-19T11:11:16Z</time>
      </trkpt>
      <trkpt lat="46.36014" lon="4.43399">
        <ele>506.75207519531</ele>
        <time>2019-01-19T11:11:18Z</time>
      </trkpt>
      <trkpt lat="46.36028" lon="4.43348">
        <ele>507.23278808594</ele>
        <time>2019-01-19T11:11:20Z</time>
      </trkpt>
      <trkpt lat="46.36029" lon="4.43321">
        <ele>507.23278808594</ele>
        <time>2019-01-19T11:11:22Z</time>
      </trkpt>
      <trkpt lat="46.36031" lon="4.43294">
        <ele>508.67468261719</ele>
        <time>2019-01-19T11:11:24Z</time>
      </trkpt>
      <trkpt lat="46.36032" lon="4.4328">
        <ele>508.67468261719</ele>
        <time>2019-01-19T11:11:25Z</time>
      </trkpt>
      <trkpt lat="46.36033" lon="4.43267">
        <ele>509.15539550781</ele>
        <time>2019-01-19T11:11:26Z</time>
      </trkpt>
      <trkpt lat="46.36032" lon="4.4324">
        <ele>509.63610839844</ele>
        <time>2019-01-19T11:11:28Z</time>
      </trkpt>
      <trkpt lat="46.36034" lon="4.43221">
        <ele>510.11669921875</ele>
        <time>2019-01-19T11:11:30Z</time>
      </trkpt>
      <trkpt lat="46.36035" lon="4.43205">
        <ele>510.59729003906</ele>
        <time>2019-01-19T11:11:32Z</time>
      </trkpt>
      <trkpt lat="46.36037" lon="4.43191">
        <ele>512.03942871094</ele>
        <time>2019-01-19T11:11:34Z</time>
      </trkpt>
      <trkpt lat="46.36042" lon="4.43171">
        <ele>513.96203613281</ele>
        <time>2019-01-19T11:11:37Z</time>
      </trkpt>
      <trkpt lat="46.36046" lon="4.43158">
        <ele>514.92333984375</ele>
        <time>2019-01-19T11:11:39Z</time>
      </trkpt>
      <trkpt lat="46.36053" lon="4.43143">
        <ele>515.88464355469</ele>
        <time>2019-01-19T11:11:41Z</time>
      </trkpt>
      <trkpt lat="46.36065" lon="4.43127">
        <ele>517.80725097656</ele>
        <time>2019-01-19T11:11:43Z</time>
      </trkpt>
      <trkpt lat="46.36077" lon="4.43113">
        <ele>520.21057128906</ele>
        <time>2019-01-19T11:11:45Z</time>
      </trkpt>
      <trkpt lat="46.36086" lon="4.43101">
        <ele>521.65258789062</ele>
        <time>2019-01-19T11:11:47Z</time>
      </trkpt>
      <trkpt lat="46.36096" lon="4.43091">
        <ele>523.09460449219</ele>
        <time>2019-01-19T11:11:49Z</time>
      </trkpt>
      <trkpt lat="46.36107" lon="4.43078">
        <ele>524.53649902344</ele>
        <time>2019-01-19T11:11:51Z</time>
      </trkpt>
      <trkpt lat="46.3612" lon="4.43068">
        <ele>525.97839355469</ele>
        <time>2019-01-19T11:11:53Z</time>
      </trkpt>
      <trkpt lat="46.36132" lon="4.43059">
        <ele>527.42041015625</ele>
        <time>2019-01-19T11:11:55Z</time>
      </trkpt>
      <trkpt lat="46.36143" lon="4.43053">
        <ele>528.3818359375</ele>
        <time>2019-01-19T11:11:57Z</time>
      </trkpt>
      <trkpt lat="46.36154" lon="4.43051">
        <ele>530.78515625</ele>
        <time>2019-01-19T11:11:59Z</time>
      </trkpt>
      <trkpt lat="46.36164" lon="4.4305">
        <ele>532.22705078125</ele>
        <time>2019-01-19T11:12:01Z</time>
      </trkpt>
      <trkpt lat="46.36174" lon="4.43052">
        <ele>533.18835449219</ele>
        <time>2019-01-19T11:12:03Z</time>
      </trkpt>
      <trkpt lat="46.36184" lon="4.43055">
        <ele>535.11096191406</ele>
        <time>2019-01-19T11:12:05Z</time>
      </trkpt>
      <trkpt lat="46.3619" lon="4.43062">
        <ele>537.03369140625</ele>
        <time>2019-01-19T11:12:07Z</time>
      </trkpt>
      <trkpt lat="46.362" lon="4.43065">
        <ele>538.95629882812</ele>
        <time>2019-01-19T11:12:09Z</time>
      </trkpt>
      <trkpt lat="46.36211" lon="4.43069">
        <ele>541.35949707031</ele>
        <time>2019-01-19T11:12:11Z</time>
      </trkpt>
      <trkpt lat="46.36221" lon="4.43074">
        <ele>542.80151367188</ele>
        <time>2019-01-19T11:12:13Z</time>
      </trkpt>
      <trkpt lat="46.36236" lon="4.43084">
        <ele>546.16625976562</ele>
        <time>2019-01-19T11:12:16Z</time>
      </trkpt>
      <trkpt lat="46.36248" lon="4.43092">
        <ele>548.0888671875</ele>
        <time>2019-01-19T11:12:19Z</time>
      </trkpt>
      <trkpt lat="46.36262" lon="4.43099">
        <ele>550.01147460938</ele>
        <time>2019-01-19T11:12:22Z</time>
      </trkpt>
      <trkpt lat="46.36272" lon="4.43102">
        <ele>552.41455078125</ele>
        <time>2019-01-19T11:12:24Z</time>
      </trkpt>
      <trkpt lat="46.36283" lon="4.43103">
        <ele>554.33740234375</ele>
        <time>2019-01-19T11:12:26Z</time>
      </trkpt>
      <trkpt lat="46.36296" lon="4.43103">
        <ele>555.779296875</ele>
        <time>2019-01-19T11:12:28Z</time>
      </trkpt>
      <trkpt lat="46.36305" lon="4.43102">
        <ele>557.7021484375</ele>
        <time>2019-01-19T11:12:30Z</time>
      </trkpt>
      <trkpt lat="46.36318" lon="4.43098">
        <ele>561.06665039062</ele>
        <time>2019-01-19T11:12:33Z</time>
      </trkpt>
      <trkpt lat="46.3633" lon="4.43093">
        <ele>564.43115234375</ele>
        <time>2019-01-19T11:12:36Z</time>
      </trkpt>
      <trkpt lat="46.36345" lon="4.43082">
        <ele>568.2763671875</ele>
        <time>2019-01-19T11:12:40Z</time>
      </trkpt>
      <trkpt lat="46.36362" lon="4.43072">
        <ele>570.6796875</ele>
        <time>2019-01-19T11:12:43Z</time>
      </trkpt>
      <trkpt lat="46.36386" lon="4.4306">
        <ele>572.6025390625</ele>
        <time>2019-01-19T11:12:45Z</time>
      </trkpt>
      <trkpt lat="46.36399" lon="4.43057">
        <ele>575.005859375</ele>
        <time>2019-01-19T11:12:47Z</time>
      </trkpt>
      <trkpt lat="46.36409" lon="4.4304">
        <ele>575.486328125</ele>
        <time>2019-01-19T11:12:49Z</time>
      </trkpt>
      <trkpt lat="46.36426" lon="4.43017">
        <ele>577.8896484375</ele>
        <time>2019-01-19T11:12:51Z</time>
      </trkpt>
      <trkpt lat="46.36441" lon="4.42997">
        <ele>578.37036132812</ele>
        <time>2019-01-19T11:12:53Z</time>
      </trkpt>
      <trkpt lat="46.36448" lon="4.42986">
        <ele>579.33154296875</ele>
        <time>2019-01-19T11:12:55Z</time>
      </trkpt>
      <trkpt lat="46.36459" lon="4.42976">
        <ele>580.29296875</ele>
        <time>2019-01-19T11:12:57Z</time>
      </trkpt>
      <trkpt lat="46.36468" lon="4.42968">
        <ele>581.25439453125</ele>
        <time>2019-01-19T11:12:59Z</time>
      </trkpt>
      <trkpt lat="46.36476" lon="4.42958">
        <ele>582.6962890625</ele>
        <time>2019-01-19T11:13:02Z</time>
      </trkpt>
      <trkpt lat="46.36484" lon="4.42929">
        <ele>584.13818359375</ele>
        <time>2019-01-19T11:13:05Z</time>
      </trkpt>
      <trkpt lat="46.36501" lon="4.42913">
        <ele>585.099609375</ele>
        <time>2019-01-19T11:13:08Z</time>
      </trkpt>
      <trkpt lat="46.36512" lon="4.42907">
        <ele>587.50268554688</ele>
        <time>2019-01-19T11:13:11Z</time>
      </trkpt>
      <trkpt lat="46.36524" lon="4.42901">
        <ele>590.38696289062</ele>
        <time>2019-01-19T11:13:14Z</time>
      </trkpt>
      <trkpt lat="46.36542" lon="4.42896">
        <ele>593.75146484375</ele>
        <time>2019-01-19T11:13:18Z</time>
      </trkpt>
      <trkpt lat="46.36559" lon="4.42889">
        <ele>597.11596679688</ele>
        <time>2019-01-19T11:13:22Z</time>
      </trkpt>
      <trkpt lat="46.36575" lon="4.42883">
        <ele>597.5966796875</ele>
        <time>2019-01-19T11:13:25Z</time>
      </trkpt>
      <trkpt lat="46.36592" lon="4.42877">
        <ele>598.07739257812</ele>
        <time>2019-01-19T11:13:28Z</time>
      </trkpt>
      <trkpt lat="46.36619" lon="4.42877">
        <ele>597.11596679688</ele>
        <time>2019-01-19T11:13:32Z</time>
      </trkpt>
      <trkpt lat="46.36645" lon="4.42861">
        <ele>595.67407226562</ele>
        <time>2019-01-19T11:13:49Z</time>
      </trkpt>
      <trkpt lat="46.36657" lon="4.4286">
        <ele>594.71264648438</ele>
        <time>2019-01-19T11:13:56Z</time>
      </trkpt>
      <trkpt lat="46.36678" lon="4.42847">
        <ele>594.71264648438</ele>
        <time>2019-01-19T11:14:05Z</time>
      </trkpt>
      <trkpt lat="46.36687" lon="4.42831">
        <ele>594.23217773438</ele>
        <time>2019-01-19T11:14:14Z</time>
      </trkpt>
      <trkpt lat="46.36701" lon="4.42812">
        <ele>593.27075195312</ele>
        <time>2019-01-19T11:14:20Z</time>
      </trkpt>
      <trkpt lat="46.36735" lon="4.42785">
        <ele>592.3095703125</ele>
        <time>2019-01-19T11:14:35Z</time>
      </trkpt>
      <trkpt lat="46.36766" lon="4.42758">
        <ele>591.34814453125</ele>
        <time>2019-01-19T11:14:50Z</time>
      </trkpt>
      <trkpt lat="46.36775" lon="4.42743">
        <ele>590.86743164062</ele>
        <time>2019-01-19T11:14:53Z</time>
      </trkpt>
      <trkpt lat="46.3678" lon="4.42733">
        <ele>590.38696289062</ele>
        <time>2019-01-19T11:14:57Z</time>
      </trkpt>
      <trkpt lat="46.36781" lon="4.4272">
        <ele>591.34814453125</ele>
        <time>2019-01-19T11:15:01Z</time>
      </trkpt>
      <trkpt lat="46.36783" lon="4.42706">
        <ele>592.3095703125</ele>
        <time>2019-01-19T11:15:04Z</time>
      </trkpt>
      <trkpt lat="46.36789" lon="4.42693">
        <ele>594.23217773438</ele>
        <time>2019-01-19T11:15:06Z</time>
      </trkpt>
      <trkpt lat="46.36799" lon="4.42682">
        <ele>595.193359375</ele>
        <time>2019-01-19T11:15:08Z</time>
      </trkpt>
      <trkpt lat="46.36806" lon="4.42671">
        <ele>596.15478515625</ele>
        <time>2019-01-19T11:15:10Z</time>
      </trkpt>
      <trkpt lat="46.36811" lon="4.42658">
        <ele>597.5966796875</ele>
        <time>2019-01-19T11:15:13Z</time>
      </trkpt>
      <trkpt lat="46.36815" lon="4.42646">
        <ele>598.55786132812</ele>
        <time>2019-01-19T11:15:16Z</time>
      </trkpt>
      <trkpt lat="46.36821" lon="4.42635">
        <ele>600</ele>
        <time>2019-01-19T11:15:20Z</time>
      </trkpt>
      <trkpt lat="46.36824" lon="4.42618">
        <ele>599.51928710938</ele>
        <time>2019-01-19T11:15:27Z</time>
      </trkpt>
      <trkpt lat="46.3682" lon="4.42605">
        <ele>596.63549804688</ele>
        <time>2019-01-19T11:15:35Z</time>
      </trkpt>
      <trkpt lat="46.36809" lon="4.42589">
        <ele>594.23217773438</ele>
        <time>2019-01-19T11:15:40Z</time>
      </trkpt>
      <trkpt lat="46.36799" lon="4.42587">
        <ele>594.23217773438</ele>
        <time>2019-01-19T11:15:44Z</time>
      </trkpt>
      <trkpt lat="46.36794" lon="4.42579">
        <ele>590.38696289062</ele>
        <time>2019-01-19T11:15:50Z</time>
      </trkpt>
      <trkpt lat="46.36784" lon="4.42567">
        <ele>588.46435546875</ele>
        <time>2019-01-19T11:15:56Z</time>
      </trkpt>
      <trkpt lat="46.36774" lon="4.4257">
        <ele>583.65747070312</ele>
        <time>2019-01-19T11:16:01Z</time>
      </trkpt>
      <trkpt lat="46.36765" lon="4.42575">
        <ele>583.65747070312</ele>
        <time>2019-01-19T11:16:07Z</time>
      </trkpt>
      <trkpt lat="46.36755" lon="4.42582">
        <ele>580.77368164062</ele>
        <time>2019-01-19T11:16:12Z</time>
      </trkpt>
      <trkpt lat="46.36746" lon="4.42587">
        <ele>577.8896484375</ele>
        <time>2019-01-19T11:16:17Z</time>
      </trkpt>
      <trkpt lat="46.36734" lon="4.42588">
        <ele>575.005859375</ele>
        <time>2019-01-19T11:16:28Z</time>
      </trkpt>
      <trkpt lat="46.36731" lon="4.42574">
        <ele>572.12182617188</ele>
        <time>2019-01-19T11:16:34Z</time>
      </trkpt>
      <trkpt lat="46.3673" lon="4.42558">
        <ele>569.23779296875</ele>
        <time>2019-01-19T11:16:38Z</time>
      </trkpt>
      <trkpt lat="46.36731" lon="4.42542">
        <ele>568.2763671875</ele>
        <time>2019-01-19T11:16:42Z</time>
      </trkpt>
      <trkpt lat="46.36732" lon="4.42529">
        <ele>565.392578125</ele>
        <time>2019-01-19T11:16:46Z</time>
      </trkpt>
      <trkpt lat="46.36733" lon="4.42515">
        <ele>562.50854492188</ele>
        <time>2019-01-19T11:16:50Z</time>
      </trkpt>
      <trkpt lat="46.36729" lon="4.42502">
        <ele>561.06665039062</ele>
        <time>2019-01-19T11:16:54Z</time>
      </trkpt>
      <trkpt lat="46.36729" lon="4.42488">
        <ele>558.18286132812</ele>
        <time>2019-01-19T11:16:59Z</time>
      </trkpt>
      <trkpt lat="46.36733" lon="4.42473">
        <ele>556.74072265625</ele>
        <time>2019-01-19T11:17:06Z</time>
      </trkpt>
      <trkpt lat="46.36732" lon="4.42459">
        <ele>550.97265625</ele>
        <time>2019-01-19T11:17:12Z</time>
      </trkpt>
      <trkpt lat="46.36735" lon="4.42443">
        <ele>548.0888671875</ele>
        <time>2019-01-19T11:17:18Z</time>
      </trkpt>
      <trkpt lat="46.36734" lon="4.42426">
        <ele>545.20483398438</ele>
        <time>2019-01-19T11:17:23Z</time>
      </trkpt>
      <trkpt lat="46.3673" lon="4.42413">
        <ele>542.32092285156</ele>
        <time>2019-01-19T11:17:28Z</time>
      </trkpt>
      <trkpt lat="46.36725" lon="4.42398">
        <ele>540.39831542969</ele>
        <time>2019-01-19T11:17:34Z</time>
      </trkpt>
      <trkpt lat="46.36728" lon="4.42382">
        <ele>537.03369140625</ele>
        <time>2019-01-19T11:17:40Z</time>
      </trkpt>
      <trkpt lat="46.36734" lon="4.42367">
        <ele>535.59155273438</ele>
        <time>2019-01-19T11:17:45Z</time>
      </trkpt>
      <trkpt lat="46.3674" lon="4.42353">
        <ele>534.14965820312</ele>
        <time>2019-01-19T11:17:49Z</time>
      </trkpt>
      <trkpt lat="46.36736" lon="4.42337">
        <ele>529.34313964844</ele>
        <time>2019-01-19T11:17:54Z</time>
      </trkpt>
      <trkpt lat="46.36736" lon="4.42322">
        <ele>529.34313964844</ele>
        <time>2019-01-19T11:17:59Z</time>
      </trkpt>
      <trkpt lat="46.36736" lon="4.42307">
        <ele>526.45910644531</ele>
        <time>2019-01-19T11:18:04Z</time>
      </trkpt>
      <trkpt lat="46.36728" lon="4.42292">
        <ele>520.69128417969</ele>
        <time>2019-01-19T11:18:10Z</time>
      </trkpt>
      <trkpt lat="46.36725" lon="4.42278">
        <ele>519.24926757812</ele>
        <time>2019-01-19T11:18:15Z</time>
      </trkpt>
      <trkpt lat="46.36729" lon="4.42266">
        <ele>520.21057128906</ele>
        <time>2019-01-19T11:18:21Z</time>
      </trkpt>
      <trkpt lat="46.36737" lon="4.4226">
        <ele>523.09460449219</ele>
        <time>2019-01-19T11:18:23Z</time>
      </trkpt>
      <trkpt lat="46.36747" lon="4.42251">
        <ele>524.05578613281</ele>
        <time>2019-01-19T11:18:25Z</time>
      </trkpt>
      <trkpt lat="46.36761" lon="4.42245">
        <ele>526.93981933594</ele>
        <time>2019-01-19T11:18:27Z</time>
      </trkpt>
      <trkpt lat="46.3677" lon="4.4224">
        <ele>526.45910644531</ele>
        <time>2019-01-19T11:18:29Z</time>
      </trkpt>
      <trkpt lat="46.36781" lon="4.42234">
        <ele>528.86254882812</ele>
        <time>2019-01-19T11:18:32Z</time>
      </trkpt>
      <trkpt lat="46.36796" lon="4.42224">
        <ele>530.30444335938</ele>
        <time>2019-01-19T11:18:36Z</time>
      </trkpt>
      <trkpt lat="46.36808" lon="4.42212">
        <ele>531.26574707031</ele>
        <time>2019-01-19T11:18:39Z</time>
      </trkpt>
      <trkpt lat="46.36816" lon="4.42201">
        <ele>534.14965820312</ele>
        <time>2019-01-19T11:18:42Z</time>
      </trkpt>
      <trkpt lat="46.36824" lon="4.42193">
        <ele>532.70776367188</ele>
        <time>2019-01-19T11:18:46Z</time>
      </trkpt>
      <trkpt lat="46.36827" lon="4.42188">
        <ele>533.6689453125</ele>
        <time>2019-01-19T11:18:50Z</time>
      </trkpt>
      <trkpt lat="46.36839" lon="4.42171">
        <ele>531.26574707031</ele>
        <time>2019-01-19T11:19:23Z</time>
      </trkpt>
      <trkpt lat="46.36848" lon="4.42143">
        <ele>532.70776367188</ele>
        <time>2019-01-19T11:19:59Z</time>
      </trkpt>
      <trkpt lat="46.36847" lon="4.42113">
        <ele>530.30444335938</ele>
        <time>2019-01-19T11:20:08Z</time>
      </trkpt>
      <trkpt lat="46.36845" lon="4.42093">
        <ele>526.45910644531</ele>
        <time>2019-01-19T11:20:18Z</time>
      </trkpt>
      <trkpt lat="46.36846" lon="4.42059">
        <ele>523.09460449219</ele>
        <time>2019-01-19T11:20:28Z</time>
      </trkpt>
      <trkpt lat="46.36847" lon="4.42037">
        <ele>522.13317871094</ele>
        <time>2019-01-19T11:20:37Z</time>
      </trkpt>
      <trkpt lat="46.36854" lon="4.42033">
        <ele>522.13317871094</ele>
        <time>2019-01-19T11:20:43Z</time>
      </trkpt>
      <trkpt lat="46.36867" lon="4.42027">
        <ele>519.24926757812</ele>
        <time>2019-01-19T11:20:50Z</time>
      </trkpt>
      <trkpt lat="46.36883" lon="4.42013">
        <ele>516.84594726562</ele>
        <time>2019-01-19T11:20:58Z</time>
      </trkpt>
      <trkpt lat="46.36902" lon="4.42004">
        <ele>510.11669921875</ele>
        <time>2019-01-19T11:21:08Z</time>
      </trkpt>
      <trkpt lat="46.36916" lon="4.41995">
        <ele>506.75207519531</ele>
        <time>2019-01-19T11:21:16Z</time>
      </trkpt>
      <trkpt lat="46.36926" lon="4.41964">
        <ele>505.31018066406</ele>
        <time>2019-01-19T11:21:21Z</time>
      </trkpt>
      <trkpt lat="46.36931" lon="4.41948">
        <ele>502.90673828125</ele>
        <time>2019-01-19T11:21:24Z</time>
      </trkpt>
      <trkpt lat="46.36937" lon="4.41932">
        <ele>502.42614746094</ele>
        <time>2019-01-19T11:21:27Z</time>
      </trkpt>
      <trkpt lat="46.36944" lon="4.41918">
        <ele>500.02294921875</ele>
        <time>2019-01-19T11:21:31Z</time>
      </trkpt>
      <trkpt lat="46.36952" lon="4.41906">
        <ele>496.177734375</ele>
        <time>2019-01-19T11:21:38Z</time>
      </trkpt>
      <trkpt lat="46.36968" lon="4.41894">
        <ele>493.77429199219</ele>
        <time>2019-01-19T11:21:43Z</time>
      </trkpt>
      <trkpt lat="46.36982" lon="4.41888">
        <ele>492.81298828125</ele>
        <time>2019-01-19T11:21:57Z</time>
      </trkpt>
      <trkpt lat="46.37001" lon="4.41889">
        <ele>488.48718261719</ele>
        <time>2019-01-19T11:22:11Z</time>
      </trkpt>
      <trkpt lat="46.37023" lon="4.41889">
        <ele>484.1611328125</ele>
        <time>2019-01-19T11:22:23Z</time>
      </trkpt>
      <trkpt lat="46.37041" lon="4.4189">
        <ele>480.79663085938</ele>
        <time>2019-01-19T11:22:27Z</time>
      </trkpt>
      <trkpt lat="46.37072" lon="4.41893">
        <ele>477.43188476562</ele>
        <time>2019-01-19T11:22:30Z</time>
      </trkpt>
      <trkpt lat="46.37086" lon="4.41895">
        <ele>475.50927734375</ele>
        <time>2019-01-19T11:22:32Z</time>
      </trkpt>
      <trkpt lat="46.371" lon="4.41895">
        <ele>475.02868652344</ele>
        <time>2019-01-19T11:22:35Z</time>
      </trkpt>
      <trkpt lat="46.37112" lon="4.41889">
        <ele>472.14465332031</ele>
        <time>2019-01-19T11:22:38Z</time>
      </trkpt>
      <trkpt lat="46.37119" lon="4.4188">
        <ele>472.62536621094</ele>
        <time>2019-01-19T11:22:41Z</time>
      </trkpt>
      <trkpt lat="46.37114" lon="4.41861">
        <ele>470.22192382812</ele>
        <time>2019-01-19T11:22:44Z</time>
      </trkpt>
      <trkpt lat="46.37101" lon="4.41844">
        <ele>469.74133300781</ele>
        <time>2019-01-19T11:22:47Z</time>
      </trkpt>
      <trkpt lat="46.37089" lon="4.41831">
        <ele>468.78002929688</ele>
        <time>2019-01-19T11:22:50Z</time>
      </trkpt>
      <trkpt lat="46.37081" lon="4.41815">
        <ele>468.29931640625</ele>
        <time>2019-01-19T11:22:53Z</time>
      </trkpt>
      <trkpt lat="46.37067" lon="4.41799">
        <ele>467.81872558594</ele>
        <time>2019-01-19T11:22:55Z</time>
      </trkpt>
      <trkpt lat="46.37057" lon="4.41787">
        <ele>464.93481445312</ele>
        <time>2019-01-19T11:22:57Z</time>
      </trkpt>
      <trkpt lat="46.37049" lon="4.41775">
        <ele>465.89611816406</ele>
        <time>2019-01-19T11:22:59Z</time>
      </trkpt>
      <trkpt lat="46.37038" lon="4.41764">
        <ele>464.93481445312</ele>
        <time>2019-01-19T11:23:01Z</time>
      </trkpt>
      <trkpt lat="46.3703" lon="4.41755">
        <ele>464.4541015625</ele>
        <time>2019-01-19T11:23:03Z</time>
      </trkpt>
      <trkpt lat="46.37021" lon="4.41741">
        <ele>463.49279785156</ele>
        <time>2019-01-19T11:23:06Z</time>
      </trkpt>
      <trkpt lat="46.37007" lon="4.41728">
        <ele>462.05078125</ele>
        <time>2019-01-19T11:23:09Z</time>
      </trkpt>
      <trkpt lat="46.36991" lon="4.41712">
        <ele>461.08947753906</ele>
        <time>2019-01-19T11:23:12Z</time>
      </trkpt>
      <trkpt lat="46.36978" lon="4.41697">
        <ele>460.12817382812</ele>
        <time>2019-01-19T11:23:14Z</time>
      </trkpt>
      <trkpt lat="46.36967" lon="4.41685">
        <ele>458.68615722656</ele>
        <time>2019-01-19T11:23:16Z</time>
      </trkpt>
      <trkpt lat="46.36949" lon="4.4167">
        <ele>457.72497558594</ele>
        <time>2019-01-19T11:23:18Z</time>
      </trkpt>
      <trkpt lat="46.36918" lon="4.41648">
        <ele>457.24426269531</ele>
        <time>2019-01-19T11:23:20Z</time>
      </trkpt>
      <trkpt lat="46.36903" lon="4.41634">
        <ele>455.80224609375</ele>
        <time>2019-01-19T11:23:22Z</time>
      </trkpt>
      <trkpt lat="46.36887" lon="4.4162">
        <ele>454.8408203125</ele>
        <time>2019-01-19T11:23:24Z</time>
      </trkpt>
      <trkpt lat="46.36877" lon="4.41607">
        <ele>452.91821289062</ele>
        <time>2019-01-19T11:23:26Z</time>
      </trkpt>
      <trkpt lat="46.36867" lon="4.41593">
        <ele>453.39892578125</ele>
        <time>2019-01-19T11:23:28Z</time>
      </trkpt>
      <trkpt lat="46.36858" lon="4.41581">
        <ele>453.39892578125</ele>
        <time>2019-01-19T11:23:30Z</time>
      </trkpt>
      <trkpt lat="46.36847" lon="4.4156">
        <ele>452.43762207031</ele>
        <time>2019-01-19T11:23:32Z</time>
      </trkpt>
      <trkpt lat="46.36844" lon="4.41541">
        <ele>452.91821289062</ele>
        <time>2019-01-19T11:23:34Z</time>
      </trkpt>
      <trkpt lat="46.36841" lon="4.41522">
        <ele>452.43762207031</ele>
        <time>2019-01-19T11:23:36Z</time>
      </trkpt>
      <trkpt lat="46.3684" lon="4.41504">
        <ele>450.03442382812</ele>
        <time>2019-01-19T11:23:38Z</time>
      </trkpt>
      <trkpt lat="46.36834" lon="4.4149">
        <ele>450.03442382812</ele>
        <time>2019-01-19T11:23:40Z</time>
      </trkpt>
      <trkpt lat="46.36828" lon="4.41478">
        <ele>449.5537109375</ele>
        <time>2019-01-19T11:23:42Z</time>
      </trkpt>
      <trkpt lat="46.36819" lon="4.41468">
        <ele>450.03442382812</ele>
        <time>2019-01-19T11:23:44Z</time>
      </trkpt>
      <trkpt lat="46.36811" lon="4.41457">
        <ele>446.18908691406</ele>
        <time>2019-01-19T11:23:46Z</time>
      </trkpt>
      <trkpt lat="46.36804" lon="4.41447">
        <ele>445.22766113281</ele>
        <time>2019-01-19T11:23:48Z</time>
      </trkpt>
      <trkpt lat="46.36795" lon="4.41437">
        <ele>443.78576660156</ele>
        <time>2019-01-19T11:23:50Z</time>
      </trkpt>
      <trkpt lat="46.36784" lon="4.41427">
        <ele>442.82446289062</ele>
        <time>2019-01-19T11:23:52Z</time>
      </trkpt>
      <trkpt lat="46.36775" lon="4.41419">
        <ele>441.38244628906</ele>
        <time>2019-01-19T11:23:55Z</time>
      </trkpt>
      <trkpt lat="46.36772" lon="4.4141">
        <ele>439.9404296875</ele>
        <time>2019-01-19T11:23:59Z</time>
      </trkpt>
      <trkpt lat="46.36771" lon="4.41389">
        <ele>438.01782226562</ele>
        <time>2019-01-19T11:24:02Z</time>
      </trkpt>
      <trkpt lat="46.36757" lon="4.41377">
        <ele>435.61450195312</ele>
        <time>2019-01-19T11:24:05Z</time>
      </trkpt>
      <trkpt lat="46.36745" lon="4.41375">
        <ele>433.69189453125</ele>
        <time>2019-01-19T11:24:07Z</time>
      </trkpt>
      <trkpt lat="46.36734" lon="4.41372">
        <ele>432.73071289062</ele>
        <time>2019-01-19T11:24:09Z</time>
      </trkpt>
      <trkpt lat="46.36721" lon="4.41368">
        <ele>431.28857421875</ele>
        <time>2019-01-19T11:24:11Z</time>
      </trkpt>
      <trkpt lat="46.36709" lon="4.41362">
        <ele>430.80798339844</ele>
        <time>2019-01-19T11:24:13Z</time>
      </trkpt>
      <trkpt lat="46.36698" lon="4.41355">
        <ele>429.84655761719</ele>
        <time>2019-01-19T11:24:15Z</time>
      </trkpt>
      <trkpt lat="46.36689" lon="4.41345">
        <ele>429.84655761719</ele>
        <time>2019-01-19T11:24:17Z</time>
      </trkpt>
      <trkpt lat="46.3668" lon="4.41335">
        <ele>428.88537597656</ele>
        <time>2019-01-19T11:24:19Z</time>
      </trkpt>
      <trkpt lat="46.3667" lon="4.41325">
        <ele>428.40466308594</ele>
        <time>2019-01-19T11:24:21Z</time>
      </trkpt>
      <trkpt lat="46.36658" lon="4.41315">
        <ele>427.92395019531</ele>
        <time>2019-01-19T11:24:23Z</time>
      </trkpt>
      <trkpt lat="46.36647" lon="4.41307">
        <ele>426.48205566406</ele>
        <time>2019-01-19T11:24:25Z</time>
      </trkpt>
      <trkpt lat="46.36637" lon="4.413">
        <ele>426.00134277344</ele>
        <time>2019-01-19T11:24:27Z</time>
      </trkpt>
      <trkpt lat="46.36626" lon="4.41289">
        <ele>424.07873535156</ele>
        <time>2019-01-19T11:24:29Z</time>
      </trkpt>
      <trkpt lat="46.36616" lon="4.41277">
        <ele>423.11743164062</ele>
        <time>2019-01-19T11:24:31Z</time>
      </trkpt>
      <trkpt lat="46.36601" lon="4.41265">
        <ele>421.67541503906</ele>
        <time>2019-01-19T11:24:33Z</time>
      </trkpt>
      <trkpt lat="46.36587" lon="4.41254">
        <ele>420.2333984375</ele>
        <time>2019-01-19T11:24:35Z</time>
      </trkpt>
      <trkpt lat="46.36576" lon="4.41241">
        <ele>419.75280761719</ele>
        <time>2019-01-19T11:24:37Z</time>
      </trkpt>
      <trkpt lat="46.36563" lon="4.41231">
        <ele>418.31079101562</ele>
        <time>2019-01-19T11:24:39Z</time>
      </trkpt>
      <trkpt lat="46.36556" lon="4.41225">
        <ele>417.83020019531</ele>
        <time>2019-01-19T11:24:41Z</time>
      </trkpt>
      <trkpt lat="46.36547" lon="4.41221">
        <ele>416.86889648438</ele>
        <time>2019-01-19T11:24:45Z</time>
      </trkpt>
      <trkpt lat="46.36536" lon="4.41216">
        <ele>415.90747070312</ele>
        <time>2019-01-19T11:24:52Z</time>
      </trkpt>
      <trkpt lat="46.36524" lon="4.41211">
        <ele>414.46545410156</ele>
        <time>2019-01-19T11:24:55Z</time>
      </trkpt>
      <trkpt lat="46.36512" lon="4.41211">
        <ele>416.38818359375</ele>
        <time>2019-01-19T11:59:54Z</time>
      </trkpt>
      <trkpt lat="46.36503" lon="4.41211">
        <ele>415.42687988281</ele>
        <time>2019-01-19T11:59:57Z</time>
      </trkpt>
      <trkpt lat="46.36493" lon="4.41206">
        <ele>413.98486328125</ele>
        <time>2019-01-19T11:59:59Z</time>
      </trkpt>
      <trkpt lat="46.36481" lon="4.41203">
        <ele>413.50427246094</ele>
        <time>2019-01-19T12:00:01Z</time>
      </trkpt>
      <trkpt lat="46.36469" lon="4.41197">
        <ele>412.06225585938</ele>
        <time>2019-01-19T12:00:03Z</time>
      </trkpt>
      <trkpt lat="46.36457" lon="4.41193">
        <ele>409.17834472656</ele>
        <time>2019-01-19T12:00:05Z</time>
      </trkpt>
      <trkpt lat="46.36443" lon="4.41188">
        <ele>409.17834472656</ele>
        <time>2019-01-19T12:00:07Z</time>
      </trkpt>
      <trkpt lat="46.36434" lon="4.41183">
        <ele>408.21704101562</ele>
        <time>2019-01-19T12:00:21Z</time>
      </trkpt>
      <trkpt lat="46.36429" lon="4.41162">
        <ele>407.736328125</ele>
        <time>2019-01-19T12:00:25Z</time>
      </trkpt>
      <trkpt lat="46.36419" lon="4.41143">
        <ele>407.736328125</ele>
        <time>2019-01-19T12:00:28Z</time>
      </trkpt>
      <trkpt lat="46.36418" lon="4.41129">
        <ele>407.25561523438</ele>
        <time>2019-01-19T12:00:31Z</time>
      </trkpt>
      <trkpt lat="46.36407" lon="4.41128">
        <ele>406.77490234375</ele>
        <time>2019-01-19T12:00:33Z</time>
      </trkpt>
      <trkpt lat="46.36393" lon="4.41131">
        <ele>405.3330078125</ele>
        <time>2019-01-19T12:00:35Z</time>
      </trkpt>
      <trkpt lat="46.36376" lon="4.41137">
        <ele>403.89111328125</ele>
        <time>2019-01-19T12:00:37Z</time>
      </trkpt>
      <trkpt lat="46.36361" lon="4.41141">
        <ele>402.9296875</ele>
        <time>2019-01-19T12:00:39Z</time>
      </trkpt>
      <trkpt lat="46.36348" lon="4.41145">
        <ele>402.44909667969</ele>
        <time>2019-01-19T12:00:41Z</time>
      </trkpt>
      <trkpt lat="46.36332" lon="4.4115">
        <ele>401.96850585938</ele>
        <time>2019-01-19T12:00:43Z</time>
      </trkpt>
      <trkpt lat="46.36315" lon="4.41157">
        <ele>401.96850585938</ele>
        <time>2019-01-19T12:00:45Z</time>
      </trkpt>
      <trkpt lat="46.36301" lon="4.41162">
        <ele>404.37170410156</ele>
        <time>2019-01-19T12:00:47Z</time>
      </trkpt>
      <trkpt lat="46.36289" lon="4.41164">
        <ele>400.0458984375</ele>
        <time>2019-01-19T12:00:49Z</time>
      </trkpt>
      <trkpt lat="46.3628" lon="4.41161">
        <ele>399.56506347656</ele>
        <time>2019-01-19T12:00:52Z</time>
      </trkpt>
      <trkpt lat="46.36272" lon="4.41153">
        <ele>399.08435058594</ele>
        <time>2019-01-19T12:00:54Z</time>
      </trkpt>
      <trkpt lat="46.36263" lon="4.41145">
        <ele>397.16174316406</ele>
        <time>2019-01-19T12:00:56Z</time>
      </trkpt>
      <trkpt lat="46.36252" lon="4.41137">
        <ele>397.64245605469</ele>
        <time>2019-01-19T12:00:58Z</time>
      </trkpt>
      <trkpt lat="46.36241" lon="4.4113">
        <ele>395.71984863281</ele>
        <time>2019-01-19T12:01:00Z</time>
      </trkpt>
      <trkpt lat="46.36232" lon="4.41128">
        <ele>394.27795410156</ele>
        <time>2019-01-19T12:01:02Z</time>
      </trkpt>
      <trkpt lat="46.36219" lon="4.41132">
        <ele>385.6259765625</ele>
        <time>2019-01-19T12:01:05Z</time>
      </trkpt>
      <trkpt lat="46.36208" lon="4.41142">
        <ele>391.39379882812</ele>
        <time>2019-01-19T12:01:08Z</time>
      </trkpt>
      <trkpt lat="46.36195" lon="4.41146">
        <ele>388.99060058594</ele>
        <time>2019-01-19T12:01:11Z</time>
      </trkpt>
      <trkpt lat="46.36182" lon="4.41145">
        <ele>387.54858398438</ele>
        <time>2019-01-19T12:01:14Z</time>
      </trkpt>
      <trkpt lat="46.36169" lon="4.41142">
        <ele>385.14538574219</ele>
        <time>2019-01-19T12:01:17Z</time>
      </trkpt>
      <trkpt lat="46.36158" lon="4.41139">
        <ele>384.18408203125</ele>
        <time>2019-01-19T12:01:20Z</time>
      </trkpt>
      <trkpt lat="46.36149" lon="4.41137">
        <ele>382.74206542969</ele>
        <time>2019-01-19T12:01:23Z</time>
      </trkpt>
      <trkpt lat="46.36139" lon="4.41134">
        <ele>381.30004882812</ele>
        <time>2019-01-19T12:01:26Z</time>
      </trkpt>
      <trkpt lat="46.36125" lon="4.41132">
        <ele>381.78063964844</ele>
        <time>2019-01-19T12:01:29Z</time>
      </trkpt>
      <trkpt lat="46.36111" lon="4.41127">
        <ele>381.78063964844</ele>
        <time>2019-01-19T12:01:32Z</time>
      </trkpt>
      <trkpt lat="46.36101" lon="4.41125">
        <ele>380.33874511719</ele>
        <time>2019-01-19T12:01:34Z</time>
      </trkpt>
      <trkpt lat="46.36092" lon="4.41121">
        <ele>380.33874511719</ele>
        <time>2019-01-19T12:01:37Z</time>
      </trkpt>
      <trkpt lat="46.36077" lon="4.41118">
        <ele>379.37744140625</ele>
        <time>2019-01-19T12:01:40Z</time>
      </trkpt>
      <trkpt lat="46.36063" lon="4.41116">
        <ele>381.30004882812</ele>
        <time>2019-01-19T12:01:42Z</time>
      </trkpt>
      <trkpt lat="46.36047" lon="4.41111">
        <ele>382.74206542969</ele>
        <time>2019-01-19T12:01:44Z</time>
      </trkpt>
      <trkpt lat="46.36029" lon="4.41105">
        <ele>382.74206542969</ele>
        <time>2019-01-19T12:01:46Z</time>
      </trkpt>
      <trkpt lat="46.36013" lon="4.41102">
        <ele>384.18408203125</ele>
        <time>2019-01-19T12:01:48Z</time>
      </trkpt>
      <trkpt lat="46.35997" lon="4.41096">
        <ele>387.54858398438</ele>
        <time>2019-01-19T12:01:50Z</time>
      </trkpt>
      <trkpt lat="46.35984" lon="4.41093">
        <ele>386.10668945312</ele>
        <time>2019-01-19T12:01:52Z</time>
      </trkpt>
      <trkpt lat="46.35972" lon="4.41091">
        <ele>386.58740234375</ele>
        <time>2019-01-19T12:01:54Z</time>
      </trkpt>
      <trkpt lat="46.35959" lon="4.41086">
        <ele>385.14538574219</ele>
        <time>2019-01-19T12:01:56Z</time>
      </trkpt>
      <trkpt lat="46.35946" lon="4.41079">
        <ele>386.10668945312</ele>
        <time>2019-01-19T12:01:58Z</time>
      </trkpt>
      <trkpt lat="46.35935" lon="4.41055">
        <ele>387.06799316406</ele>
        <time>2019-01-19T12:02:10Z</time>
      </trkpt>
      <trkpt lat="46.35928" lon="4.41036">
        <ele>390.4326171875</ele>
        <time>2019-01-19T12:02:15Z</time>
      </trkpt>
      <trkpt lat="46.35921" lon="4.41015">
        <ele>394.27795410156</ele>
        <time>2019-01-19T12:02:20Z</time>
      </trkpt>
      <trkpt lat="46.35897" lon="4.41004">
        <ele>400.52648925781</ele>
        <time>2019-01-19T12:02:25Z</time>
      </trkpt>
      <trkpt lat="46.35878" lon="4.40997">
        <ele>404.85229492188</ele>
        <time>2019-01-19T12:02:29Z</time>
      </trkpt>
      <trkpt lat="46.3586" lon="4.40996">
        <ele>407.736328125</ele>
        <time>2019-01-19T12:02:33Z</time>
      </trkpt>
      <trkpt lat="46.3584" lon="4.40998">
        <ele>408.69763183594</ele>
        <time>2019-01-19T12:02:36Z</time>
      </trkpt>
      <trkpt lat="46.3583" lon="4.40994">
        <ele>408.69763183594</ele>
        <time>2019-01-19T12:02:39Z</time>
      </trkpt>
      <trkpt lat="46.35818" lon="4.40989">
        <ele>415.90747070312</ele>
        <time>2019-01-19T12:02:42Z</time>
      </trkpt>
      <trkpt lat="46.35805" lon="4.40982">
        <ele>417.349609375</ele>
        <time>2019-01-19T12:02:45Z</time>
      </trkpt>
      <trkpt lat="46.35794" lon="4.40977">
        <ele>418.31079101562</ele>
        <time>2019-01-19T12:02:47Z</time>
      </trkpt>
      <trkpt lat="46.35784" lon="4.40973">
        <ele>419.75280761719</ele>
        <time>2019-01-19T12:02:49Z</time>
      </trkpt>
      <trkpt lat="46.35769" lon="4.4097">
        <ele>423.11743164062</ele>
        <time>2019-01-19T12:02:52Z</time>
      </trkpt>
      <trkpt lat="46.35757" lon="4.40965">
        <ele>427.443359375</ele>
        <time>2019-01-19T12:02:55Z</time>
      </trkpt>
      <trkpt lat="46.35746" lon="4.40962">
        <ele>432.73071289062</ele>
        <time>2019-01-19T12:02:58Z</time>
      </trkpt>
      <trkpt lat="46.35732" lon="4.40961">
        <ele>433.69189453125</ele>
        <time>2019-01-19T12:03:01Z</time>
      </trkpt>
      <trkpt lat="46.3572" lon="4.40965">
        <ele>434.17260742188</ele>
        <time>2019-01-19T12:03:04Z</time>
      </trkpt>
      <trkpt lat="46.35705" lon="4.40962">
        <ele>433.69189453125</ele>
        <time>2019-01-19T12:03:07Z</time>
      </trkpt>
      <trkpt lat="46.35693" lon="4.40959">
        <ele>439.45971679688</ele>
        <time>2019-01-19T12:03:10Z</time>
      </trkpt>
      <trkpt lat="46.35625" lon="4.41006">
        <ele>440.90185546875</ele>
        <time>2019-01-19T12:03:12Z</time>
      </trkpt>
      <trkpt lat="46.3562" lon="4.40992">
        <ele>444.7470703125</ele>
        <time>2019-01-19T12:03:15Z</time>
      </trkpt>
      <trkpt lat="46.35617" lon="4.40985">
        <ele>445.22766113281</ele>
        <time>2019-01-19T12:03:18Z</time>
      </trkpt>
      <trkpt lat="46.3561" lon="4.40975">
        <ele>446.66967773438</ele>
        <time>2019-01-19T12:03:20Z</time>
      </trkpt>
      <trkpt lat="46.35599" lon="4.40959">
        <ele>448.11181640625</ele>
        <time>2019-01-19T12:03:22Z</time>
      </trkpt>
      <trkpt lat="46.35588" lon="4.40944">
        <ele>454.36022949219</ele>
        <time>2019-01-19T12:03:24Z</time>
      </trkpt>
      <trkpt lat="46.35581" lon="4.40933">
        <ele>453.39892578125</ele>
        <time>2019-01-19T12:03:26Z</time>
      </trkpt>
      <trkpt lat="46.35575" lon="4.40924">
        <ele>454.36022949219</ele>
        <time>2019-01-19T12:03:28Z</time>
      </trkpt>
      <trkpt lat="46.35567" lon="4.40914">
        <ele>454.8408203125</ele>
        <time>2019-01-19T12:03:30Z</time>
      </trkpt>
      <trkpt lat="46.35559" lon="4.40903">
        <ele>456.28295898438</ele>
        <time>2019-01-19T12:03:34Z</time>
      </trkpt>
      <trkpt lat="46.35551" lon="4.40894">
        <ele>457.72497558594</ele>
        <time>2019-01-19T12:03:39Z</time>
      </trkpt>
      <trkpt lat="46.35543" lon="4.40884">
        <ele>458.68615722656</ele>
        <time>2019-01-19T12:03:41Z</time>
      </trkpt>
      <trkpt lat="46.35528" lon="4.40867">
        <ele>461.08947753906</ele>
        <time>2019-01-19T12:03:43Z</time>
      </trkpt>
      <trkpt lat="46.3551" lon="4.40852">
        <ele>463.01208496094</ele>
        <time>2019-01-19T12:03:45Z</time>
      </trkpt>
      <trkpt lat="46.35501" lon="4.40844">
        <ele>463.49279785156</ele>
        <time>2019-01-19T12:03:46Z</time>
      </trkpt>
      <trkpt lat="46.35494" lon="4.40838">
        <ele>464.4541015625</ele>
        <time>2019-01-19T12:03:47Z</time>
      </trkpt>
      <trkpt lat="46.35484" lon="4.40831">
        <ele>465.89611816406</ele>
        <time>2019-01-19T12:03:48Z</time>
      </trkpt>
      <trkpt lat="46.35474" lon="4.40822">
        <ele>466.857421875</ele>
        <time>2019-01-19T12:03:49Z</time>
      </trkpt>
      <trkpt lat="46.35464" lon="4.40814">
        <ele>467.33813476562</ele>
        <time>2019-01-19T12:03:50Z</time>
      </trkpt>
      <trkpt lat="46.35453" lon="4.40805">
        <ele>466.857421875</ele>
        <time>2019-01-19T12:03:51Z</time>
      </trkpt>
      <trkpt lat="46.35451" lon="4.40803">
        <ele>466.857421875</ele>
        <time>2019-01-19T12:03:52Z</time>
      </trkpt>
      <trkpt lat="46.35441" lon="4.40794">
        <ele>465.89611816406</ele>
        <time>2019-01-19T12:03:53Z</time>
      </trkpt>
      <trkpt lat="46.35431" lon="4.40785">
        <ele>463.49279785156</ele>
        <time>2019-01-19T12:03:54Z</time>
      </trkpt>
      <trkpt lat="46.35422" lon="4.40777">
        <ele>464.93481445312</ele>
        <time>2019-01-19T12:03:55Z</time>
      </trkpt>
      <trkpt lat="46.35409" lon="4.4076">
        <ele>464.4541015625</ele>
        <time>2019-01-19T12:03:57Z</time>
      </trkpt>
      <trkpt lat="46.354" lon="4.40745">
        <ele>464.4541015625</ele>
        <time>2019-01-19T12:04:00Z</time>
      </trkpt>
      <trkpt lat="46.35397" lon="4.40746">
        <ele>464.4541015625</ele>
        <time>2019-01-19T12:04:14Z</time>
      </trkpt>
      <trkpt lat="46.3539" lon="4.40759">
        <ele>466.857421875</ele>
        <time>2019-01-19T12:04:17Z</time>
      </trkpt>
      <trkpt lat="46.35385" lon="4.40772">
        <ele>467.81872558594</ele>
        <time>2019-01-19T12:04:20Z</time>
      </trkpt>
      <trkpt lat="46.35385" lon="4.40786">
        <ele>473.10607910156</ele>
        <time>2019-01-19T12:04:25Z</time>
      </trkpt>
      <trkpt lat="46.35387" lon="4.40813">
        <ele>477.43188476562</ele>
        <time>2019-01-19T12:04:29Z</time>
      </trkpt>
      <trkpt lat="46.35378" lon="4.40843">
        <ele>478.87390136719</ele>
        <time>2019-01-19T12:04:34Z</time>
      </trkpt>
      <trkpt lat="46.35371" lon="4.40858">
        <ele>485.60302734375</ele>
        <time>2019-01-19T12:04:37Z</time>
      </trkpt>
      <trkpt lat="46.35349" lon="4.40893">
        <ele>489.92907714844</ele>
        <time>2019-01-19T12:04:40Z</time>
      </trkpt>
      <trkpt lat="46.35339" lon="4.40912">
        <ele>489.92907714844</ele>
        <time>2019-01-19T12:04:42Z</time>
      </trkpt>
      <trkpt lat="46.35321" lon="4.4094">
        <ele>491.37097167969</ele>
        <time>2019-01-19T12:04:44Z</time>
      </trkpt>
      <trkpt lat="46.35312" lon="4.4096">
        <ele>495.21618652344</ele>
        <time>2019-01-19T12:04:46Z</time>
      </trkpt>
      <trkpt lat="46.35309" lon="4.40981">
        <ele>495.21618652344</ele>
        <time>2019-01-19T12:04:48Z</time>
      </trkpt>
      <trkpt lat="46.35311" lon="4.40999">
        <ele>496.177734375</ele>
        <time>2019-01-19T12:04:50Z</time>
      </trkpt>
      <trkpt lat="46.35311" lon="4.41017">
        <ele>500.02294921875</ele>
        <time>2019-01-19T12:04:52Z</time>
      </trkpt>
      <trkpt lat="46.35309" lon="4.41033">
        <ele>500.98413085938</ele>
        <time>2019-01-19T12:04:54Z</time>
      </trkpt>
      <trkpt lat="46.35305" lon="4.41047">
        <ele>501.94555664062</ele>
        <time>2019-01-19T12:04:56Z</time>
      </trkpt>
      <trkpt lat="46.35305" lon="4.41062">
        <ele>502.42614746094</ele>
        <time>2019-01-19T12:05:04Z</time>
      </trkpt>
      <trkpt lat="46.3531" lon="4.41084">
        <ele>506.75207519531</ele>
        <time>2019-01-19T12:05:08Z</time>
      </trkpt>
      <trkpt lat="46.35312" lon="4.41101">
        <ele>508.19409179688</ele>
        <time>2019-01-19T12:05:10Z</time>
      </trkpt>
      <trkpt lat="46.35312" lon="4.4112">
        <ele>510.59729003906</ele>
        <time>2019-01-19T12:05:12Z</time>
      </trkpt>
      <trkpt lat="46.35311" lon="4.41146">
        <ele>514.44262695312</ele>
        <time>2019-01-19T12:05:14Z</time>
      </trkpt>
      <trkpt lat="46.35311" lon="4.41165">
        <ele>515.88464355469</ele>
        <time>2019-01-19T12:05:16Z</time>
      </trkpt>
      <trkpt lat="46.35307" lon="4.41191">
        <ele>510.59729003906</ele>
        <time>2019-01-19T12:05:18Z</time>
      </trkpt>
      <trkpt lat="46.35292" lon="4.4121">
        <ele>511.07800292969</ele>
        <time>2019-01-19T12:05:20Z</time>
      </trkpt>
      <trkpt lat="46.35282" lon="4.41224">
        <ele>511.55871582031</ele>
        <time>2019-01-19T12:05:22Z</time>
      </trkpt>
      <trkpt lat="46.35276" lon="4.41241">
        <ele>513.00073242188</ele>
        <time>2019-01-19T12:05:24Z</time>
      </trkpt>
      <trkpt lat="46.35262" lon="4.41257">
        <ele>517.32666015625</ele>
        <time>2019-01-19T12:05:26Z</time>
      </trkpt>
      <trkpt lat="46.35252" lon="4.41273">
        <ele>512.03942871094</ele>
        <time>2019-01-19T12:05:28Z</time>
      </trkpt>
      <trkpt lat="46.35247" lon="4.41291">
        <ele>521.17199707031</ele>
        <time>2019-01-19T12:05:30Z</time>
      </trkpt>
      <trkpt lat="46.35244" lon="4.41313">
        <ele>520.69128417969</ele>
        <time>2019-01-19T12:05:33Z</time>
      </trkpt>
      <trkpt lat="46.35244" lon="4.41327">
        <ele>521.65258789062</ele>
        <time>2019-01-19T12:05:35Z</time>
      </trkpt>
      <trkpt lat="46.35246" lon="4.41342">
        <ele>527.42041015625</ele>
        <time>2019-01-19T12:05:37Z</time>
      </trkpt>
      <trkpt lat="46.35251" lon="4.41362">
        <ele>527.42041015625</ele>
        <time>2019-01-19T12:05:39Z</time>
      </trkpt>
      <trkpt lat="46.35259" lon="4.41384">
        <ele>531.26574707031</ele>
        <time>2019-01-19T12:05:41Z</time>
      </trkpt>
      <trkpt lat="46.3527" lon="4.41406">
        <ele>532.22705078125</ele>
        <time>2019-01-19T12:05:43Z</time>
      </trkpt>
      <trkpt lat="46.35281" lon="4.41428">
        <ele>533.6689453125</ele>
        <time>2019-01-19T12:05:45Z</time>
      </trkpt>
      <trkpt lat="46.35289" lon="4.4145">
        <ele>536.55310058594</ele>
        <time>2019-01-19T12:05:47Z</time>
      </trkpt>
      <trkpt lat="46.35295" lon="4.41472">
        <ele>537.03369140625</ele>
        <time>2019-01-19T12:05:49Z</time>
      </trkpt>
      <trkpt lat="46.35301" lon="4.41497">
        <ele>536.07238769531</ele>
        <time>2019-01-19T12:05:51Z</time>
      </trkpt>
      <trkpt lat="46.35304" lon="4.41526">
        <ele>537.51428222656</ele>
        <time>2019-01-19T12:05:53Z</time>
      </trkpt>
      <trkpt lat="46.35307" lon="4.4155">
        <ele>539.43688964844</ele>
        <time>2019-01-19T12:05:55Z</time>
      </trkpt>
      <trkpt lat="46.35306" lon="4.41571">
        <ele>541.84020996094</ele>
        <time>2019-01-19T12:05:57Z</time>
      </trkpt>
      <trkpt lat="46.35299" lon="4.41588">
        <ele>538.47570800781</ele>
        <time>2019-01-19T12:05:59Z</time>
      </trkpt>
      <trkpt lat="46.35294" lon="4.41607">
        <ele>543.76281738281</ele>
        <time>2019-01-19T12:06:01Z</time>
      </trkpt>
      <trkpt lat="46.35287" lon="4.41626">
        <ele>544.72424316406</ele>
        <time>2019-01-19T12:06:03Z</time>
      </trkpt>
      <trkpt lat="46.35281" lon="4.41646">
        <ele>551.93408203125</ele>
        <time>2019-01-19T12:06:05Z</time>
      </trkpt>
      <trkpt lat="46.35268" lon="4.41659">
        <ele>545.685546875</ele>
        <time>2019-01-19T12:06:07Z</time>
      </trkpt>
      <trkpt lat="46.35256" lon="4.4167">
        <ele>551.45336914062</ele>
        <time>2019-01-19T12:06:09Z</time>
      </trkpt>
      <trkpt lat="46.35249" lon="4.41684">
        <ele>550.97265625</ele>
        <time>2019-01-19T12:06:11Z</time>
      </trkpt>
      <trkpt lat="46.35244" lon="4.41696">
        <ele>550.97265625</ele>
        <time>2019-01-19T12:06:13Z</time>
      </trkpt>
      <trkpt lat="46.35238" lon="4.41711">
        <ele>550.97265625</ele>
        <time>2019-01-19T12:06:16Z</time>
      </trkpt>
      <trkpt lat="46.35232" lon="4.41727">
        <ele>550.97265625</ele>
        <time>2019-01-19T12:06:22Z</time>
      </trkpt>
      <trkpt lat="46.35217" lon="4.41724">
        <ele>552.89526367188</ele>
        <time>2019-01-19T12:06:28Z</time>
      </trkpt>
      <trkpt lat="46.35205" lon="4.41725">
        <ele>554.81787109375</ele>
        <time>2019-01-19T12:06:30Z</time>
      </trkpt>
      <trkpt lat="46.35191" lon="4.41722">
        <ele>555.29858398438</ele>
        <time>2019-01-19T12:06:32Z</time>
      </trkpt>
      <trkpt lat="46.35176" lon="4.41719">
        <ele>557.22143554688</ele>
        <time>2019-01-19T12:06:34Z</time>
      </trkpt>
      <trkpt lat="46.35162" lon="4.41713">
        <ele>557.22143554688</ele>
        <time>2019-01-19T12:06:36Z</time>
      </trkpt>
      <trkpt lat="46.35141" lon="4.41704">
        <ele>558.18286132812</ele>
        <time>2019-01-19T12:06:38Z</time>
      </trkpt>
      <trkpt lat="46.35124" lon="4.41696">
        <ele>558.66333007812</ele>
        <time>2019-01-19T12:06:40Z</time>
      </trkpt>
      <trkpt lat="46.35106" lon="4.41705">
        <ele>557.22143554688</ele>
        <time>2019-01-19T12:06:42Z</time>
      </trkpt>
      <trkpt lat="46.35091" lon="4.41713">
        <ele>554.33740234375</ele>
        <time>2019-01-19T12:06:44Z</time>
      </trkpt>
      <trkpt lat="46.35081" lon="4.41714">
        <ele>558.66333007812</ele>
        <time>2019-01-19T12:06:46Z</time>
      </trkpt>
      <trkpt lat="46.35068" lon="4.41721">
        <ele>558.66333007812</ele>
        <time>2019-01-19T12:06:49Z</time>
      </trkpt>
      <trkpt lat="46.35058" lon="4.41729">
        <ele>560.10522460938</ele>
        <time>2019-01-19T12:06:51Z</time>
      </trkpt>
      <trkpt lat="46.35048" lon="4.41734">
        <ele>560.10522460938</ele>
        <time>2019-01-19T12:06:53Z</time>
      </trkpt>
      <trkpt lat="46.35037" lon="4.4173">
        <ele>561.06665039062</ele>
        <time>2019-01-19T12:06:55Z</time>
      </trkpt>
      <trkpt lat="46.35023" lon="4.41723">
        <ele>561.06665039062</ele>
        <time>2019-01-19T12:06:57Z</time>
      </trkpt>
      <trkpt lat="46.35009" lon="4.41714">
        <ele>555.779296875</ele>
        <time>2019-01-19T12:06:59Z</time>
      </trkpt>
      <trkpt lat="46.34994" lon="4.41707">
        <ele>560.5859375</ele>
        <time>2019-01-19T12:07:01Z</time>
      </trkpt>
      <trkpt lat="46.34981" lon="4.41697">
        <ele>556.74072265625</ele>
        <time>2019-01-19T12:07:03Z</time>
      </trkpt>
      <trkpt lat="46.3497" lon="4.41687">
        <ele>555.29858398438</ele>
        <time>2019-01-19T12:07:05Z</time>
      </trkpt>
      <trkpt lat="46.34963" lon="4.41682">
        <ele>558.66333007812</ele>
        <time>2019-01-19T12:07:07Z</time>
      </trkpt>
      <trkpt lat="46.34952" lon="4.41678">
        <ele>553.3759765625</ele>
        <time>2019-01-19T12:07:10Z</time>
      </trkpt>
      <trkpt lat="46.34944" lon="4.41671">
        <ele>550.97265625</ele>
        <time>2019-01-19T12:07:13Z</time>
      </trkpt>
      <trkpt lat="46.34936" lon="4.41665">
        <ele>548.0888671875</ele>
        <time>2019-01-19T12:07:17Z</time>
      </trkpt>
      <trkpt lat="46.34922" lon="4.4166">
        <ele>543.76281738281</ele>
        <time>2019-01-19T12:07:20Z</time>
      </trkpt>
      <trkpt lat="46.34908" lon="4.41657">
        <ele>539.91760253906</ele>
        <time>2019-01-19T12:07:23Z</time>
      </trkpt>
      <trkpt lat="46.34895" lon="4.4165">
        <ele>542.32092285156</ele>
        <time>2019-01-19T12:07:26Z</time>
      </trkpt>
      <trkpt lat="46.34877" lon="4.41647">
        <ele>539.43688964844</ele>
        <time>2019-01-19T12:07:29Z</time>
      </trkpt>
      <trkpt lat="46.34853" lon="4.4165">
        <ele>537.03369140625</ele>
        <time>2019-01-19T12:07:32Z</time>
      </trkpt>
      <trkpt lat="46.34833" lon="4.41646">
        <ele>536.07238769531</ele>
        <time>2019-01-19T12:07:35Z</time>
      </trkpt>
      <trkpt lat="46.34802" lon="4.41631">
        <ele>536.07238769531</ele>
        <time>2019-01-19T12:07:41Z</time>
      </trkpt>
      <trkpt lat="46.34767" lon="4.41623">
        <ele>530.30444335938</ele>
        <time>2019-01-19T12:07:49Z</time>
      </trkpt>
      <trkpt lat="46.34741" lon="4.41622">
        <ele>528.86254882812</ele>
        <time>2019-01-19T12:07:55Z</time>
      </trkpt>
      <trkpt lat="46.34719" lon="4.41619">
        <ele>523.09460449219</ele>
        <time>2019-01-19T12:08:08Z</time>
      </trkpt>
      <trkpt lat="46.34708" lon="4.41612">
        <ele>521.17199707031</ele>
        <time>2019-01-19T12:08:10Z</time>
      </trkpt>
      <trkpt lat="46.34699" lon="4.41605">
        <ele>517.80725097656</ele>
        <time>2019-01-19T12:08:12Z</time>
      </trkpt>
      <trkpt lat="46.34687" lon="4.41595">
        <ele>514.44262695312</ele>
        <time>2019-01-19T12:08:15Z</time>
      </trkpt>
      <trkpt lat="46.34678" lon="4.41585">
        <ele>512.52001953125</ele>
        <time>2019-01-19T12:08:17Z</time>
      </trkpt>
      <trkpt lat="46.34666" lon="4.41573">
        <ele>510.59729003906</ele>
        <time>2019-01-19T12:08:19Z</time>
      </trkpt>
      <trkpt lat="46.34657" lon="4.4156">
        <ele>507.71350097656</ele>
        <time>2019-01-19T12:08:21Z</time>
      </trkpt>
      <trkpt lat="46.34649" lon="4.41551">
        <ele>507.23278808594</ele>
        <time>2019-01-19T12:08:23Z</time>
      </trkpt>
      <trkpt lat="46.34633" lon="4.41541">
        <ele>503.8681640625</ele>
        <time>2019-01-19T12:08:26Z</time>
      </trkpt>
      <trkpt lat="46.34622" lon="4.41533">
        <ele>499.0615234375</ele>
        <time>2019-01-19T12:08:28Z</time>
      </trkpt>
      <trkpt lat="46.3461" lon="4.41528">
        <ele>495.21618652344</ele>
        <time>2019-01-19T12:08:31Z</time>
      </trkpt>
      <trkpt lat="46.34587" lon="4.41516">
        <ele>493.29357910156</ele>
        <time>2019-01-19T12:08:35Z</time>
      </trkpt>
      <trkpt lat="46.34574" lon="4.41508">
        <ele>492.33239746094</ele>
        <time>2019-01-19T12:08:37Z</time>
      </trkpt>
      <trkpt lat="46.34562" lon="4.41501">
        <ele>489.44836425781</ele>
        <time>2019-01-19T12:08:39Z</time>
      </trkpt>
      <trkpt lat="46.34544" lon="4.41504">
        <ele>484.64184570312</ele>
        <time>2019-01-19T12:08:41Z</time>
      </trkpt>
      <trkpt lat="46.34534" lon="4.41497">
        <ele>484.64184570312</ele>
        <time>2019-01-19T12:08:43Z</time>
      </trkpt>
      <trkpt lat="46.34517" lon="4.41487">
        <ele>482.71923828125</ele>
        <time>2019-01-19T12:08:45Z</time>
      </trkpt>
      <trkpt lat="46.34508" lon="4.41481">
        <ele>480.31591796875</ele>
        <time>2019-01-19T12:08:47Z</time>
      </trkpt>
      <trkpt lat="46.34492" lon="4.41481">
        <ele>475.98986816406</ele>
        <time>2019-01-19T12:08:50Z</time>
      </trkpt>
      <trkpt lat="46.34484" lon="4.41496">
        <ele>474.54797363281</ele>
        <time>2019-01-19T12:08:52Z</time>
      </trkpt>
      <trkpt lat="46.34473" lon="4.41498">
        <ele>473.58666992188</ele>
        <time>2019-01-19T12:08:54Z</time>
      </trkpt>
      <trkpt lat="46.34458" lon="4.41504">
        <ele>468.78002929688</ele>
        <time>2019-01-19T12:08:57Z</time>
      </trkpt>
      <trkpt lat="46.34448" lon="4.4149">
        <ele>465.41552734375</ele>
        <time>2019-01-19T12:09:01Z</time>
      </trkpt>
      <trkpt lat="46.34442" lon="4.41473">
        <ele>463.49279785156</ele>
        <time>2019-01-19T12:09:03Z</time>
      </trkpt>
      <trkpt lat="46.34437" lon="4.41458">
        <ele>462.05078125</ele>
        <time>2019-01-19T12:09:05Z</time>
      </trkpt>
      <trkpt lat="46.34433" lon="4.41446">
        <ele>460.12817382812</ele>
        <time>2019-01-19T12:09:07Z</time>
      </trkpt>
      <trkpt lat="46.34428" lon="4.41433">
        <ele>458.68615722656</ele>
        <time>2019-01-19T12:09:09Z</time>
      </trkpt>
      <trkpt lat="46.34423" lon="4.41417">
        <ele>459.16687011719</ele>
        <time>2019-01-19T12:09:12Z</time>
      </trkpt>
      <trkpt lat="46.34421" lon="4.41403">
        <ele>455.32153320312</ele>
        <time>2019-01-19T12:09:14Z</time>
      </trkpt>
      <trkpt lat="46.34419" lon="4.41389">
        <ele>452.91821289062</ele>
        <time>2019-01-19T12:09:16Z</time>
      </trkpt>
      <trkpt lat="46.34416" lon="4.41375">
        <ele>449.5537109375</ele>
        <time>2019-01-19T12:09:19Z</time>
      </trkpt>
      <trkpt lat="46.3442" lon="4.41348">
        <ele>449.5537109375</ele>
        <time>2019-01-19T12:09:22Z</time>
      </trkpt>
      <trkpt lat="46.34425" lon="4.41323">
        <ele>449.5537109375</ele>
        <time>2019-01-19T12:09:24Z</time>
      </trkpt>
      <trkpt lat="46.34426" lon="4.41295">
        <ele>446.66967773438</ele>
        <time>2019-01-19T12:09:26Z</time>
      </trkpt>
      <trkpt lat="46.34428" lon="4.41283">
        <ele>445.22766113281</ele>
        <time>2019-01-19T12:09:27Z</time>
      </trkpt>
      <trkpt lat="46.34428" lon="4.4127">
        <ele>445.70837402344</ele>
        <time>2019-01-19T12:09:28Z</time>
      </trkpt>
      <trkpt lat="46.3443" lon="4.41256">
        <ele>447.63098144531</ele>
        <time>2019-01-19T12:09:29Z</time>
      </trkpt>
      <trkpt lat="46.34439" lon="4.41233">
        <ele>445.22766113281</ele>
        <time>2019-01-19T12:09:31Z</time>
      </trkpt>
      <trkpt lat="46.34451" lon="4.41213">
        <ele>446.18908691406</ele>
        <time>2019-01-19T12:09:33Z</time>
      </trkpt>
      <trkpt lat="46.34465" lon="4.41195">
        <ele>440.90185546875</ele>
        <time>2019-01-19T12:09:35Z</time>
      </trkpt>
      <trkpt lat="46.34472" lon="4.41186">
        <ele>440.42126464844</ele>
        <time>2019-01-19T12:09:36Z</time>
      </trkpt>
      <trkpt lat="46.34478" lon="4.41177">
        <ele>439.45971679688</ele>
        <time>2019-01-19T12:09:37Z</time>
      </trkpt>
      <trkpt lat="46.34484" lon="4.41166">
        <ele>439.9404296875</ele>
        <time>2019-01-19T12:09:38Z</time>
      </trkpt>
      <trkpt lat="46.34494" lon="4.41147">
        <ele>438.01782226562</ele>
        <time>2019-01-19T12:09:40Z</time>
      </trkpt>
      <trkpt lat="46.345" lon="4.41133">
        <ele>436.09521484375</ele>
        <time>2019-01-19T12:09:42Z</time>
      </trkpt>
      <trkpt lat="46.3451" lon="4.41124">
        <ele>433.21130371094</ele>
        <time>2019-01-19T12:09:45Z</time>
      </trkpt>
      <trkpt lat="46.34503" lon="4.41112">
        <ele>431.76916503906</ele>
        <time>2019-01-19T12:09:48Z</time>
      </trkpt>
      <trkpt lat="46.34493" lon="4.41109">
        <ele>429.84655761719</ele>
        <time>2019-01-19T12:09:50Z</time>
      </trkpt>
      <trkpt lat="46.34483" lon="4.41109">
        <ele>427.443359375</ele>
        <time>2019-01-19T12:09:54Z</time>
      </trkpt>
      <trkpt lat="46.34475" lon="4.41109">
        <ele>426.48205566406</ele>
        <time>2019-01-19T12:10:06Z</time>
      </trkpt>
      <trkpt lat="46.34468" lon="4.41085">
        <ele>423.59802246094</ele>
        <time>2019-01-19T12:11:03Z</time>
      </trkpt>
      <trkpt lat="46.34472" lon="4.41069">
        <ele>422.63671875</ele>
        <time>2019-01-19T12:11:05Z</time>
      </trkpt>
      <trkpt lat="46.34475" lon="4.41048">
        <ele>422.15600585938</ele>
        <time>2019-01-19T12:11:07Z</time>
      </trkpt>
      <trkpt lat="46.34479" lon="4.41021">
        <ele>420.2333984375</ele>
        <time>2019-01-19T12:11:09Z</time>
      </trkpt>
      <trkpt lat="46.34481" lon="4.41008">
        <ele>419.27221679688</ele>
        <time>2019-01-19T12:11:10Z</time>
      </trkpt>
      <trkpt lat="46.34484" lon="4.4098">
        <ele>418.31079101562</ele>
        <time>2019-01-19T12:11:12Z</time>
      </trkpt>
      <trkpt lat="46.34488" lon="4.40959">
        <ele>417.349609375</ele>
        <time>2019-01-19T12:11:14Z</time>
      </trkpt>
      <trkpt lat="46.34491" lon="4.40938">
        <ele>415.90747070312</ele>
        <time>2019-01-19T12:11:16Z</time>
      </trkpt>
      <trkpt lat="46.34439" lon="4.40876">
        <ele>416.38818359375</ele>
        <time>2019-01-19T12:11:18Z</time>
      </trkpt>
      <trkpt lat="46.34439" lon="4.40876">
        <ele>414.46545410156</ele>
        <time>2019-01-19T12:11:20Z</time>
      </trkpt>
      <trkpt lat="46.34439" lon="4.40874">
        <ele>413.02355957031</ele>
        <time>2019-01-19T12:11:23Z</time>
      </trkpt>
      <trkpt lat="46.34435" lon="4.40876">
        <ele>412.54284667969</ele>
        <time>2019-01-19T12:11:34Z</time>
      </trkpt>
      <trkpt lat="46.34423" lon="4.40878">
        <ele>411.58166503906</ele>
        <time>2019-01-19T12:11:36Z</time>
      </trkpt>
      <trkpt lat="46.34411" lon="4.40879">
        <ele>410.62023925781</ele>
        <time>2019-01-19T12:11:38Z</time>
      </trkpt>
      <trkpt lat="46.34399" lon="4.40881">
        <ele>409.65905761719</ele>
        <time>2019-01-19T12:11:40Z</time>
      </trkpt>
      <trkpt lat="46.34389" lon="4.40882">
        <ele>408.69763183594</ele>
        <time>2019-01-19T12:11:42Z</time>
      </trkpt>
      <trkpt lat="46.34374" lon="4.40884">
        <ele>407.736328125</ele>
        <time>2019-01-19T12:11:45Z</time>
      </trkpt>
      <trkpt lat="46.34361" lon="4.40875">
        <ele>406.29431152344</ele>
        <time>2019-01-19T12:11:48Z</time>
      </trkpt>
      <trkpt lat="46.34349" lon="4.40866">
        <ele>403.89111328125</ele>
        <time>2019-01-19T12:11:50Z</time>
      </trkpt>
      <trkpt lat="46.34334" lon="4.40854">
        <ele>401.48779296875</ele>
        <time>2019-01-19T12:11:52Z</time>
      </trkpt>
      <trkpt lat="46.34318" lon="4.40842">
        <ele>401.00708007812</ele>
        <time>2019-01-19T12:11:54Z</time>
      </trkpt>
      <trkpt lat="46.34303" lon="4.40826">
        <ele>399.08435058594</ele>
        <time>2019-01-19T12:11:56Z</time>
      </trkpt>
      <trkpt lat="46.34296" lon="4.40813">
        <ele>398.12316894531</ele>
        <time>2019-01-19T12:11:58Z</time>
      </trkpt>
      <trkpt lat="46.34289" lon="4.40799">
        <ele>397.16174316406</ele>
        <time>2019-01-19T12:12:01Z</time>
      </trkpt>
      <trkpt lat="46.34282" lon="4.40784">
        <ele>396.68115234375</ele>
        <time>2019-01-19T12:12:04Z</time>
      </trkpt>
      <trkpt lat="46.34275" lon="4.40767">
        <ele>395.71984863281</ele>
        <time>2019-01-19T12:12:07Z</time>
      </trkpt>
      <trkpt lat="46.34268" lon="4.40752">
        <ele>394.75854492188</ele>
        <time>2019-01-19T12:12:10Z</time>
      </trkpt>
      <trkpt lat="46.34262" lon="4.40738">
        <ele>394.27795410156</ele>
        <time>2019-01-19T12:12:13Z</time>
      </trkpt>
      <trkpt lat="46.34259" lon="4.40729">
        <ele>393.31652832031</ele>
        <time>2019-01-19T12:12:44Z</time>
      </trkpt>
      <trkpt lat="46.34256" lon="4.40723">
        <ele>392.35534667969</ele>
        <time>2019-01-19T12:12:56Z</time>
      </trkpt>
      <trkpt lat="46.3422" lon="4.40732">
        <ele>394.27795410156</ele>
        <time>2019-01-19T12:13:22Z</time>
      </trkpt>
      <trkpt lat="46.3422" lon="4.40732">
        <ele>399.08435058594</ele>
        <time>2019-01-19T12:13:36Z</time>
      </trkpt>
      <trkpt lat="46.34173" lon="4.40798">
        <ele>399.08435058594</ele>
        <time>2019-01-19T12:13:39Z</time>
      </trkpt>
      <trkpt lat="46.34165" lon="4.4081">
        <ele>400.52648925781</ele>
        <time>2019-01-19T12:13:41Z</time>
      </trkpt>
      <trkpt lat="46.34156" lon="4.40824">
        <ele>401.48779296875</ele>
        <time>2019-01-19T12:13:43Z</time>
      </trkpt>
      <trkpt lat="46.34145" lon="4.40836">
        <ele>400.52648925781</ele>
        <time>2019-01-19T12:13:45Z</time>
      </trkpt>
      <trkpt lat="46.34135" lon="4.40851">
        <ele>400.52648925781</ele>
        <time>2019-01-19T12:13:47Z</time>
      </trkpt>
      <trkpt lat="46.34129" lon="4.4087">
        <ele>400.52648925781</ele>
        <time>2019-01-19T12:13:49Z</time>
      </trkpt>
      <trkpt lat="46.34125" lon="4.4089">
        <ele>400.52648925781</ele>
        <time>2019-01-19T12:13:51Z</time>
      </trkpt>
      <trkpt lat="46.34122" lon="4.4091">
        <ele>400.0458984375</ele>
        <time>2019-01-19T12:13:53Z</time>
      </trkpt>
      <trkpt lat="46.34119" lon="4.40927">
        <ele>400.52648925781</ele>
        <time>2019-01-19T12:13:55Z</time>
      </trkpt>
      <trkpt lat="46.34116" lon="4.4093">
        <ele>400.0458984375</ele>
        <time>2019-01-19T12:14:11Z</time>
      </trkpt>
      <trkpt lat="46.3411" lon="4.40937">
        <ele>400.52648925781</ele>
        <time>2019-01-19T12:14:29Z</time>
      </trkpt>
      <trkpt lat="46.34103" lon="4.4095">
        <ele>402.44909667969</ele>
        <time>2019-01-19T12:14:32Z</time>
      </trkpt>
      <trkpt lat="46.34092" lon="4.40957">
        <ele>403.89111328125</ele>
        <time>2019-01-19T12:14:35Z</time>
      </trkpt>
      <trkpt lat="46.34082" lon="4.40959">
        <ele>404.37170410156</ele>
        <time>2019-01-19T12:14:38Z</time>
      </trkpt>
      <trkpt lat="46.34073" lon="4.40957">
        <ele>405.3330078125</ele>
        <time>2019-01-19T12:14:43Z</time>
      </trkpt>
      <trkpt lat="46.34063" lon="4.4096">
        <ele>405.81372070312</ele>
        <time>2019-01-19T12:14:48Z</time>
      </trkpt>
      <trkpt lat="46.34053" lon="4.40963">
        <ele>406.77490234375</ele>
        <time>2019-01-19T12:14:51Z</time>
      </trkpt>
      <trkpt lat="46.34043" lon="4.40962">
        <ele>407.25561523438</ele>
        <time>2019-01-19T12:14:53Z</time>
      </trkpt>
      <trkpt lat="46.34028" lon="4.40956">
        <ele>409.65905761719</ele>
        <time>2019-01-19T12:14:55Z</time>
      </trkpt>
      <trkpt lat="46.34012" lon="4.40944">
        <ele>412.06225585938</ele>
        <time>2019-01-19T12:14:57Z</time>
      </trkpt>
      <trkpt lat="46.34002" lon="4.40938">
        <ele>412.06225585938</ele>
        <time>2019-01-19T12:14:58Z</time>
      </trkpt>
      <trkpt lat="46.33992" lon="4.40931">
        <ele>413.02355957031</ele>
        <time>2019-01-19T12:14:59Z</time>
      </trkpt>
      <trkpt lat="46.33983" lon="4.40928">
        <ele>413.02355957031</ele>
        <time>2019-01-19T12:15:00Z</time>
      </trkpt>
      <trkpt lat="46.33973" lon="4.40924">
        <ele>413.50427246094</ele>
        <time>2019-01-19T12:15:01Z</time>
      </trkpt>
      <trkpt lat="46.33961" lon="4.40924">
        <ele>413.02355957031</ele>
        <time>2019-01-19T12:15:03Z</time>
      </trkpt>
      <trkpt lat="46.33948" lon="4.40922">
        <ele>412.54284667969</ele>
        <time>2019-01-19T12:15:05Z</time>
      </trkpt>
      <trkpt lat="46.33945" lon="4.40933">
        <ele>413.02355957031</ele>
        <time>2019-01-19T12:15:08Z</time>
      </trkpt>
      <trkpt lat="46.33946" lon="4.40944">
        <ele>413.50427246094</ele>
        <time>2019-01-19T12:15:11Z</time>
      </trkpt>
      <trkpt lat="46.33947" lon="4.40963">
        <ele>413.02355957031</ele>
        <time>2019-01-19T12:15:14Z</time>
      </trkpt>
      <trkpt lat="46.33947" lon="4.40968">
        <ele>415.90747070312</ele>
        <time>2019-01-19T12:15:20Z</time>
      </trkpt>
      <trkpt lat="46.33909" lon="4.40982">
        <ele>414.94616699219</ele>
        <time>2019-01-19T12:15:23Z</time>
      </trkpt>
      <trkpt lat="46.33896" lon="4.4099">
        <ele>418.31079101562</ele>
        <time>2019-01-19T12:15:26Z</time>
      </trkpt>
      <trkpt lat="46.33884" lon="4.40995">
        <ele>419.27221679688</ele>
        <time>2019-01-19T12:15:28Z</time>
      </trkpt>
      <trkpt lat="46.33871" lon="4.41">
        <ele>419.75280761719</ele>
        <time>2019-01-19T12:15:30Z</time>
      </trkpt>
      <trkpt lat="46.33855" lon="4.41005">
        <ele>420.2333984375</ele>
        <time>2019-01-19T12:15:32Z</time>
      </trkpt>
      <trkpt lat="46.33838" lon="4.4101">
        <ele>424.55944824219</ele>
        <time>2019-01-19T12:15:34Z</time>
      </trkpt>
      <trkpt lat="46.33822" lon="4.41015">
        <ele>425.52075195312</ele>
        <time>2019-01-19T12:15:36Z</time>
      </trkpt>
      <trkpt lat="46.33804" lon="4.41019">
        <ele>428.88537597656</ele>
        <time>2019-01-19T12:15:38Z</time>
      </trkpt>
      <trkpt lat="46.33789" lon="4.41022">
        <ele>431.28857421875</ele>
        <time>2019-01-19T12:15:40Z</time>
      </trkpt>
      <trkpt lat="46.33775" lon="4.41025">
        <ele>432.73071289062</ele>
        <time>2019-01-19T12:15:42Z</time>
      </trkpt>
      <trkpt lat="46.33764" lon="4.41028">
        <ele>436.09521484375</ele>
        <time>2019-01-19T12:15:44Z</time>
      </trkpt>
      <trkpt lat="46.3375" lon="4.41031">
        <ele>438.01782226562</ele>
        <time>2019-01-19T12:15:46Z</time>
      </trkpt>
      <trkpt lat="46.33735" lon="4.41033">
        <ele>440.42126464844</ele>
        <time>2019-01-19T12:15:48Z</time>
      </trkpt>
      <trkpt lat="46.33723" lon="4.41036">
        <ele>440.42126464844</ele>
        <time>2019-01-19T12:15:50Z</time>
      </trkpt>
      <trkpt lat="46.3371" lon="4.41037">
        <ele>443.30505371094</ele>
        <time>2019-01-19T12:15:52Z</time>
      </trkpt>
      <trkpt lat="46.33695" lon="4.4104">
        <ele>444.7470703125</ele>
        <time>2019-01-19T12:15:54Z</time>
      </trkpt>
      <trkpt lat="46.33678" lon="4.41043">
        <ele>444.26647949219</ele>
        <time>2019-01-19T12:15:56Z</time>
      </trkpt>
      <trkpt lat="46.33663" lon="4.41045">
        <ele>447.63098144531</ele>
        <time>2019-01-19T12:15:58Z</time>
      </trkpt>
      <trkpt lat="46.33649" lon="4.41044">
        <ele>449.07299804688</ele>
        <time>2019-01-19T12:16:00Z</time>
      </trkpt>
      <trkpt lat="46.33638" lon="4.41048">
        <ele>452.43762207031</ele>
        <time>2019-01-19T12:16:02Z</time>
      </trkpt>
      <trkpt lat="46.33632" lon="4.4106">
        <ele>450.99560546875</ele>
        <time>2019-01-19T12:16:04Z</time>
      </trkpt>
      <trkpt lat="46.33626" lon="4.41081">
        <ele>451.95703125</ele>
        <time>2019-01-19T12:16:06Z</time>
      </trkpt>
      <trkpt lat="46.33619" lon="4.41103">
        <ele>450.99560546875</ele>
        <time>2019-01-19T12:16:08Z</time>
      </trkpt>
      <trkpt lat="46.33614" lon="4.41123">
        <ele>452.43762207031</ele>
        <time>2019-01-19T12:16:10Z</time>
      </trkpt>
      <trkpt lat="46.33612" lon="4.4114">
        <ele>450.51501464844</ele>
        <time>2019-01-19T12:16:12Z</time>
      </trkpt>
      <trkpt lat="46.33607" lon="4.41159">
        <ele>453.87963867188</ele>
        <time>2019-01-19T12:16:14Z</time>
      </trkpt>
      <trkpt lat="46.33604" lon="4.41177">
        <ele>453.87963867188</ele>
        <time>2019-01-19T12:16:16Z</time>
      </trkpt>
      <trkpt lat="46.33601" lon="4.41192">
        <ele>455.32153320312</ele>
        <time>2019-01-19T12:16:18Z</time>
      </trkpt>
      <trkpt lat="46.33593" lon="4.41204">
        <ele>457.72497558594</ele>
        <time>2019-01-19T12:16:21Z</time>
      </trkpt>
      <trkpt lat="46.33582" lon="4.41206">
        <ele>459.16687011719</ele>
        <time>2019-01-19T12:16:23Z</time>
      </trkpt>
      <trkpt lat="46.3357" lon="4.41205">
        <ele>459.16687011719</ele>
        <time>2019-01-19T12:16:25Z</time>
      </trkpt>
      <trkpt lat="46.3356" lon="4.41206">
        <ele>461.08947753906</ele>
        <time>2019-01-19T12:16:27Z</time>
      </trkpt>
      <trkpt lat="46.3355" lon="4.41197">
        <ele>463.01208496094</ele>
        <time>2019-01-19T12:16:30Z</time>
      </trkpt>
      <trkpt lat="46.33544" lon="4.41186">
        <ele>463.01208496094</ele>
        <time>2019-01-19T12:16:32Z</time>
      </trkpt>
      <trkpt lat="46.33537" lon="4.41174">
        <ele>463.49279785156</ele>
        <time>2019-01-19T12:16:34Z</time>
      </trkpt>
      <trkpt lat="46.33527" lon="4.41161">
        <ele>466.37670898438</ele>
        <time>2019-01-19T12:16:36Z</time>
      </trkpt>
      <trkpt lat="46.33514" lon="4.41148">
        <ele>468.29931640625</ele>
        <time>2019-01-19T12:16:38Z</time>
      </trkpt>
      <trkpt lat="46.33502" lon="4.41139">
        <ele>470.70263671875</ele>
        <time>2019-01-19T12:16:40Z</time>
      </trkpt>
      <trkpt lat="46.33479" lon="4.4118">
        <ele>471.18334960938</ele>
        <time>2019-01-19T12:16:59Z</time>
      </trkpt>
      <trkpt lat="46.33474" lon="4.41193">
        <ele>469.74133300781</ele>
        <time>2019-01-19T12:17:02Z</time>
      </trkpt>
      <trkpt lat="46.33465" lon="4.41204">
        <ele>468.78002929688</ele>
        <time>2019-01-19T12:17:06Z</time>
      </trkpt>
      <trkpt lat="46.33456" lon="4.41208">
        <ele>470.70263671875</ele>
        <time>2019-01-19T12:17:12Z</time>
      </trkpt>
      <trkpt lat="46.33444" lon="4.41207">
        <ele>473.10607910156</ele>
        <time>2019-01-19T12:17:15Z</time>
      </trkpt>
      <trkpt lat="46.33433" lon="4.41208">
        <ele>472.62536621094</ele>
        <time>2019-01-19T12:17:17Z</time>
      </trkpt>
      <trkpt lat="46.3342" lon="4.41211">
        <ele>475.50927734375</ele>
        <time>2019-01-19T12:17:19Z</time>
      </trkpt>
      <trkpt lat="46.33406" lon="4.41213">
        <ele>482.23852539062</ele>
        <time>2019-01-19T12:17:21Z</time>
      </trkpt>
      <trkpt lat="46.33396" lon="4.41215">
        <ele>472.62536621094</ele>
        <time>2019-01-19T12:17:23Z</time>
      </trkpt>
      <trkpt lat="46.33386" lon="4.41215">
        <ele>477.91247558594</ele>
        <time>2019-01-19T12:17:25Z</time>
      </trkpt>
      <trkpt lat="46.33339" lon="4.41153">
        <ele>479.83508300781</ele>
        <time>2019-01-19T12:17:27Z</time>
      </trkpt>
      <trkpt lat="46.33334" lon="4.41159">
        <ele>479.83508300781</ele>
        <time>2019-01-19T12:17:30Z</time>
      </trkpt>
      <trkpt lat="46.33329" lon="4.41166">
        <ele>479.83508300781</ele>
        <time>2019-01-19T12:17:33Z</time>
      </trkpt>
      <trkpt lat="46.33325" lon="4.41172">
        <ele>482.71923828125</ele>
        <time>2019-01-19T12:17:36Z</time>
      </trkpt>
      <trkpt lat="46.33321" lon="4.41176">
        <ele>480.79663085938</ele>
        <time>2019-01-19T12:17:40Z</time>
      </trkpt>
      <trkpt lat="46.33317" lon="4.41181">
        <ele>480.79663085938</ele>
        <time>2019-01-19T12:17:43Z</time>
      </trkpt>
      <trkpt lat="46.33313" lon="4.41187">
        <ele>484.64184570312</ele>
        <time>2019-01-19T12:17:47Z</time>
      </trkpt>
      <trkpt lat="46.33306" lon="4.41187">
        <ele>487.52563476562</ele>
        <time>2019-01-19T12:17:51Z</time>
      </trkpt>
      <trkpt lat="46.33298" lon="4.41179">
        <ele>488.9677734375</ele>
        <time>2019-01-19T12:17:54Z</time>
      </trkpt>
      <trkpt lat="46.33288" lon="4.4117">
        <ele>489.44836425781</ele>
        <time>2019-01-19T12:17:56Z</time>
      </trkpt>
      <trkpt lat="46.33266" lon="4.41209">
        <ele>490.89038085938</ele>
        <time>2019-01-19T12:17:57Z</time>
      </trkpt>
      <trkpt lat="46.33255" lon="4.41207">
        <ele>493.77429199219</ele>
        <time>2019-01-19T12:17:59Z</time>
      </trkpt>
      <trkpt lat="46.3324" lon="4.41204">
        <ele>497.13891601562</ele>
        <time>2019-01-19T12:18:01Z</time>
      </trkpt>
      <trkpt lat="46.33237" lon="4.41204">
        <ele>500.02294921875</ele>
        <time>2019-01-19T12:18:03Z</time>
      </trkpt>
      <trkpt lat="46.3323" lon="4.41208">
        <ele>501.94555664062</ele>
        <time>2019-01-19T12:18:05Z</time>
      </trkpt>
      <trkpt lat="46.33225" lon="4.41211">
        <ele>503.38745117188</ele>
        <time>2019-01-19T12:18:06Z</time>
      </trkpt>
      <trkpt lat="46.33193" lon="4.41106">
        <ele>507.23278808594</ele>
        <time>2019-01-19T12:18:08Z</time>
      </trkpt>
      <trkpt lat="46.33182" lon="4.41097">
        <ele>509.63610839844</ele>
        <time>2019-01-19T12:18:10Z</time>
      </trkpt>
      <trkpt lat="46.33174" lon="4.41089">
        <ele>512.03942871094</ele>
        <time>2019-01-19T12:18:12Z</time>
      </trkpt>
      <trkpt lat="46.33165" lon="4.41079">
        <ele>513.00073242188</ele>
        <time>2019-01-19T12:18:14Z</time>
      </trkpt>
      <trkpt lat="46.33138" lon="4.40996">
        <ele>515.40405273438</ele>
        <time>2019-01-19T12:18:16Z</time>
      </trkpt>
      <trkpt lat="46.33131" lon="4.40998">
        <ele>517.32666015625</ele>
        <time>2019-01-19T12:18:18Z</time>
      </trkpt>
      <trkpt lat="46.33126" lon="4.41">
        <ele>519.24926757812</ele>
        <time>2019-01-19T12:18:20Z</time>
      </trkpt>
      <trkpt lat="46.33126" lon="4.41005">
        <ele>521.17199707031</ele>
        <time>2019-01-19T12:18:27Z</time>
      </trkpt>
      <trkpt lat="46.33101" lon="4.41">
        <ele>523.09460449219</ele>
        <time>2019-01-19T12:18:35Z</time>
      </trkpt>
      <trkpt lat="46.33082" lon="4.40997">
        <ele>523.09460449219</ele>
        <time>2019-01-19T12:18:37Z</time>
      </trkpt>
      <trkpt lat="46.33059" lon="4.40994">
        <ele>522.61389160156</ele>
        <time>2019-01-19T12:18:39Z</time>
      </trkpt>
      <trkpt lat="46.33043" lon="4.40996">
        <ele>522.13317871094</ele>
        <time>2019-01-19T12:18:41Z</time>
      </trkpt>
      <trkpt lat="46.33033" lon="4.40999">
        <ele>520.69128417969</ele>
        <time>2019-01-19T12:18:43Z</time>
      </trkpt>
      <trkpt lat="46.33022" lon="4.41003">
        <ele>521.65258789062</ele>
        <time>2019-01-19T12:18:46Z</time>
      </trkpt>
      <trkpt lat="46.33001" lon="4.4094">
        <ele>512.52001953125</ele>
        <time>2019-01-19T14:18:25Z</time>
      </trkpt>
      <trkpt lat="46.32957" lon="4.40921">
        <ele>510.11669921875</ele>
        <time>2019-01-19T14:18:39Z</time>
      </trkpt>
      <trkpt lat="46.32945" lon="4.40917">
        <ele>506.75207519531</ele>
        <time>2019-01-19T14:18:46Z</time>
      </trkpt>
      <trkpt lat="46.32935" lon="4.40909">
        <ele>505.31018066406</ele>
        <time>2019-01-19T14:18:51Z</time>
      </trkpt>
      <trkpt lat="46.32925" lon="4.40899">
        <ele>504.34887695312</ele>
        <time>2019-01-19T14:18:56Z</time>
      </trkpt>
      <trkpt lat="46.32914" lon="4.40894">
        <ele>500.50354003906</ele>
        <time>2019-01-19T14:19:01Z</time>
      </trkpt>
      <trkpt lat="46.32904" lon="4.40886">
        <ele>496.65832519531</ele>
        <time>2019-01-19T14:19:06Z</time>
      </trkpt>
      <trkpt lat="46.32894" lon="4.40878">
        <ele>493.29357910156</ele>
        <time>2019-01-19T14:19:13Z</time>
      </trkpt>
      <trkpt lat="46.32884" lon="4.40868">
        <ele>494.25500488281</ele>
        <time>2019-01-19T14:19:19Z</time>
      </trkpt>
      <trkpt lat="46.32874" lon="4.40859">
        <ele>498.10034179688</ele>
        <time>2019-01-19T14:19:23Z</time>
      </trkpt>
      <trkpt lat="46.32862" lon="4.40853">
        <ele>491.85168457031</ele>
        <time>2019-01-19T14:19:27Z</time>
      </trkpt>
      <trkpt lat="46.32852" lon="4.40849">
        <ele>488.48718261719</ele>
        <time>2019-01-19T14:19:32Z</time>
      </trkpt>
      <trkpt lat="46.32839" lon="4.40845">
        <ele>490.89038085938</ele>
        <time>2019-01-19T14:19:38Z</time>
      </trkpt>
      <trkpt lat="46.32824" lon="4.4084">
        <ele>481.27722167969</ele>
        <time>2019-01-19T14:19:42Z</time>
      </trkpt>
      <trkpt lat="46.32813" lon="4.40836">
        <ele>482.71923828125</ele>
        <time>2019-01-19T14:19:46Z</time>
      </trkpt>
      <trkpt lat="46.32803" lon="4.40828">
        <ele>473.10607910156</ele>
        <time>2019-01-19T14:19:51Z</time>
      </trkpt>
      <trkpt lat="46.328" lon="4.4081">
        <ele>475.02868652344</ele>
        <time>2019-01-19T14:19:57Z</time>
      </trkpt>
      <trkpt lat="46.328" lon="4.40795">
        <ele>471.18334960938</ele>
        <time>2019-01-19T14:20:02Z</time>
      </trkpt>
      <trkpt lat="46.32798" lon="4.40779">
        <ele>463.49279785156</ele>
        <time>2019-01-19T14:20:07Z</time>
      </trkpt>
      <trkpt lat="46.32795" lon="4.40755">
        <ele>463.49279785156</ele>
        <time>2019-01-19T14:20:13Z</time>
      </trkpt>
      <trkpt lat="46.32792" lon="4.4074">
        <ele>462.05078125</ele>
        <time>2019-01-19T14:20:17Z</time>
      </trkpt>
      <trkpt lat="46.32789" lon="4.40726">
        <ele>457.24426269531</ele>
        <time>2019-01-19T14:20:21Z</time>
      </trkpt>
      <trkpt lat="46.32784" lon="4.40707">
        <ele>457.24426269531</ele>
        <time>2019-01-19T14:20:25Z</time>
      </trkpt>
      <trkpt lat="46.32782" lon="4.40692">
        <ele>450.51501464844</ele>
        <time>2019-01-19T14:20:28Z</time>
      </trkpt>
      <trkpt lat="46.3278" lon="4.40676">
        <ele>448.11181640625</ele>
        <time>2019-01-19T14:20:31Z</time>
      </trkpt>
      <trkpt lat="46.32774" lon="4.4066">
        <ele>446.18908691406</ele>
        <time>2019-01-19T14:20:34Z</time>
      </trkpt>
      <trkpt lat="46.32769" lon="4.40647">
        <ele>445.70837402344</ele>
        <time>2019-01-19T14:20:37Z</time>
      </trkpt>
      <trkpt lat="46.32762" lon="4.40635">
        <ele>444.7470703125</ele>
        <time>2019-01-19T14:20:41Z</time>
      </trkpt>
      <trkpt lat="46.3275" lon="4.40634">
        <ele>442.82446289062</ele>
        <time>2019-01-19T14:20:44Z</time>
      </trkpt>
      <trkpt lat="46.32736" lon="4.4064">
        <ele>444.26647949219</ele>
        <time>2019-01-19T14:21:25Z</time>
      </trkpt>
      <trkpt lat="46.32736" lon="4.40659">
        <ele>442.34387207031</ele>
        <time>2019-01-19T14:21:29Z</time>
      </trkpt>
      <trkpt lat="46.32729" lon="4.40678">
        <ele>444.26647949219</ele>
        <time>2019-01-19T14:21:32Z</time>
      </trkpt>
      <trkpt lat="46.32721" lon="4.40687">
        <ele>446.18908691406</ele>
        <time>2019-01-19T14:21:34Z</time>
      </trkpt>
      <trkpt lat="46.32712" lon="4.40698">
        <ele>450.51501464844</ele>
        <time>2019-01-19T14:21:36Z</time>
      </trkpt>
      <trkpt lat="46.32702" lon="4.40712">
        <ele>447.15026855469</ele>
        <time>2019-01-19T14:21:38Z</time>
      </trkpt>
      <trkpt lat="46.32694" lon="4.40729">
        <ele>448.11181640625</ele>
        <time>2019-01-19T14:21:40Z</time>
      </trkpt>
      <trkpt lat="46.32687" lon="4.40744">
        <ele>447.15026855469</ele>
        <time>2019-01-19T14:21:42Z</time>
      </trkpt>
      <trkpt lat="46.32681" lon="4.40756">
        <ele>449.5537109375</ele>
        <time>2019-01-19T14:21:44Z</time>
      </trkpt>
      <trkpt lat="46.32673" lon="4.40765">
        <ele>450.51501464844</ele>
        <time>2019-01-19T14:21:46Z</time>
      </trkpt>
      <trkpt lat="46.32661" lon="4.4077">
        <ele>450.99560546875</ele>
        <time>2019-01-19T14:21:49Z</time>
      </trkpt>
      <trkpt lat="46.32647" lon="4.40765">
        <ele>450.03442382812</ele>
        <time>2019-01-19T14:21:53Z</time>
      </trkpt>
      <trkpt lat="46.32629" lon="4.4076">
        <ele>452.91821289062</ele>
        <time>2019-01-19T14:21:56Z</time>
      </trkpt>
      <trkpt lat="46.32615" lon="4.40762">
        <ele>449.07299804688</ele>
        <time>2019-01-19T14:21:58Z</time>
      </trkpt>
      <trkpt lat="46.32602" lon="4.40764">
        <ele>450.51501464844</ele>
        <time>2019-01-19T14:22:00Z</time>
      </trkpt>
      <trkpt lat="46.32589" lon="4.40771">
        <ele>460.12817382812</ele>
        <time>2019-01-19T14:22:02Z</time>
      </trkpt>
      <trkpt lat="46.32579" lon="4.40781">
        <ele>460.60876464844</ele>
        <time>2019-01-19T14:22:04Z</time>
      </trkpt>
      <trkpt lat="46.32572" lon="4.40796">
        <ele>463.01208496094</ele>
        <time>2019-01-19T14:22:06Z</time>
      </trkpt>
      <trkpt lat="46.32565" lon="4.40812">
        <ele>462.05078125</ele>
        <time>2019-01-19T14:22:08Z</time>
      </trkpt>
      <trkpt lat="46.32558" lon="4.40826">
        <ele>462.53137207031</ele>
        <time>2019-01-19T14:22:10Z</time>
      </trkpt>
      <trkpt lat="46.32549" lon="4.40835">
        <ele>465.89611816406</ele>
        <time>2019-01-19T14:22:12Z</time>
      </trkpt>
      <trkpt lat="46.32534" lon="4.40835">
        <ele>465.41552734375</ele>
        <time>2019-01-19T14:22:15Z</time>
      </trkpt>
      <trkpt lat="46.3252" lon="4.40846">
        <ele>467.33813476562</ele>
        <time>2019-01-19T14:22:18Z</time>
      </trkpt>
      <trkpt lat="46.3251" lon="4.40869">
        <ele>467.81872558594</ele>
        <time>2019-01-19T14:22:21Z</time>
      </trkpt>
      <trkpt lat="46.32512" lon="4.40901">
        <ele>472.62536621094</ele>
        <time>2019-01-19T14:22:24Z</time>
      </trkpt>
      <trkpt lat="46.32516" lon="4.40913">
        <ele>475.02868652344</ele>
        <time>2019-01-19T14:22:26Z</time>
      </trkpt>
      <trkpt lat="46.32511" lon="4.40925">
        <ele>474.54797363281</ele>
        <time>2019-01-19T14:22:31Z</time>
      </trkpt>
      <trkpt lat="46.325" lon="4.40905">
        <ele>468.78002929688</ele>
        <time>2019-01-19T14:22:38Z</time>
      </trkpt>
      <trkpt lat="46.3249" lon="4.40892">
        <ele>465.89611816406</ele>
        <time>2019-01-19T14:22:42Z</time>
      </trkpt>
      <trkpt lat="46.32481" lon="4.40876">
        <ele>467.33813476562</ele>
        <time>2019-01-19T14:22:46Z</time>
      </trkpt>
      <trkpt lat="46.32474" lon="4.4086">
        <ele>458.20556640625</ele>
        <time>2019-01-19T14:22:51Z</time>
      </trkpt>
      <trkpt lat="46.3247" lon="4.40841">
        <ele>449.5537109375</ele>
        <time>2019-01-19T14:22:58Z</time>
      </trkpt>
      <trkpt lat="46.32462" lon="4.40822">
        <ele>447.15026855469</ele>
        <time>2019-01-19T14:23:04Z</time>
      </trkpt>
      <trkpt lat="46.32454" lon="4.40785">
        <ele>442.82446289062</ele>
        <time>2019-01-19T14:23:09Z</time>
      </trkpt>
      <trkpt lat="46.3245" lon="4.40758">
        <ele>443.30505371094</ele>
        <time>2019-01-19T14:23:13Z</time>
      </trkpt>
      <trkpt lat="46.32448" lon="4.40741">
        <ele>438.49853515625</ele>
        <time>2019-01-19T14:23:20Z</time>
      </trkpt>
      <trkpt lat="46.32438" lon="4.40746">
        <ele>439.9404296875</ele>
        <time>2019-01-19T14:23:26Z</time>
      </trkpt>
      <trkpt lat="46.32427" lon="4.40759">
        <ele>439.45971679688</ele>
        <time>2019-01-19T14:23:32Z</time>
      </trkpt>
      <trkpt lat="46.32426" lon="4.40777">
        <ele>441.86315917969</ele>
        <time>2019-01-19T14:23:36Z</time>
      </trkpt>
      <trkpt lat="46.32425" lon="4.40794">
        <ele>440.90185546875</ele>
        <time>2019-01-19T14:23:40Z</time>
      </trkpt>
      <trkpt lat="46.32423" lon="4.40815">
        <ele>450.03442382812</ele>
        <time>2019-01-19T14:23:54Z</time>
      </trkpt>
      <trkpt lat="46.32416" lon="4.40829">
        <ele>447.15026855469</ele>
        <time>2019-01-19T14:23:58Z</time>
      </trkpt>
      <trkpt lat="46.32406" lon="4.40847">
        <ele>451.95703125</ele>
        <time>2019-01-19T14:24:04Z</time>
      </trkpt>
      <trkpt lat="46.32391" lon="4.40878">
        <ele>455.80224609375</ele>
        <time>2019-01-19T14:24:08Z</time>
      </trkpt>
      <trkpt lat="46.32371" lon="4.40893">
        <ele>458.20556640625</ele>
        <time>2019-01-19T14:24:10Z</time>
      </trkpt>
      <trkpt lat="46.32358" lon="4.409">
        <ele>461.57019042969</ele>
        <time>2019-01-19T14:24:12Z</time>
      </trkpt>
      <trkpt lat="46.32343" lon="4.40911">
        <ele>465.89611816406</ele>
        <time>2019-01-19T14:24:16Z</time>
      </trkpt>
      <trkpt lat="46.32331" lon="4.40919">
        <ele>465.89611816406</ele>
        <time>2019-01-19T14:24:19Z</time>
      </trkpt>
      <trkpt lat="46.32322" lon="4.40929">
        <ele>467.33813476562</ele>
        <time>2019-01-19T14:24:21Z</time>
      </trkpt>
      <trkpt lat="46.32313" lon="4.40936">
        <ele>467.33813476562</ele>
        <time>2019-01-19T14:24:23Z</time>
      </trkpt>
      <trkpt lat="46.32304" lon="4.40944">
        <ele>470.70263671875</ele>
        <time>2019-01-19T14:24:25Z</time>
      </trkpt>
      <trkpt lat="46.32295" lon="4.40952">
        <ele>471.66394042969</ele>
        <time>2019-01-19T14:24:27Z</time>
      </trkpt>
      <trkpt lat="46.32286" lon="4.40962">
        <ele>474.06726074219</ele>
        <time>2019-01-19T14:24:29Z</time>
      </trkpt>
      <trkpt lat="46.32279" lon="4.40976">
        <ele>479.83508300781</ele>
        <time>2019-01-19T14:24:31Z</time>
      </trkpt>
      <trkpt lat="46.32269" lon="4.40994">
        <ele>478.39318847656</ele>
        <time>2019-01-19T14:24:33Z</time>
      </trkpt>
      <trkpt lat="46.32271" lon="4.41083">
        <ele>478.87390136719</ele>
        <time>2019-01-19T14:24:34Z</time>
      </trkpt>
      <trkpt lat="46.32261" lon="4.41084">
        <ele>479.83508300781</ele>
        <time>2019-01-19T14:24:36Z</time>
      </trkpt>
      <trkpt lat="46.32251" lon="4.41086">
        <ele>480.79663085938</ele>
        <time>2019-01-19T14:24:38Z</time>
      </trkpt>
      <trkpt lat="46.32237" lon="4.41088">
        <ele>482.71923828125</ele>
        <time>2019-01-19T14:24:41Z</time>
      </trkpt>
      <trkpt lat="46.32224" lon="4.4109">
        <ele>483.68041992188</ele>
        <time>2019-01-19T14:24:45Z</time>
      </trkpt>
      <trkpt lat="46.32212" lon="4.41099">
        <ele>484.64184570312</ele>
        <time>2019-01-19T14:25:38Z</time>
      </trkpt>
      <trkpt lat="46.32207" lon="4.41118">
        <ele>486.564453125</ele>
        <time>2019-01-19T14:25:43Z</time>
      </trkpt>
      <trkpt lat="46.32182" lon="4.41098">
        <ele>489.44836425781</ele>
        <time>2019-01-19T14:25:47Z</time>
      </trkpt>
      <trkpt lat="46.32164" lon="4.41101">
        <ele>491.37097167969</ele>
        <time>2019-01-19T14:25:49Z</time>
      </trkpt>
      <trkpt lat="46.32156" lon="4.41102">
        <ele>491.37097167969</ele>
        <time>2019-01-19T14:25:51Z</time>
      </trkpt>
      <trkpt lat="46.32146" lon="4.41104">
        <ele>493.77429199219</ele>
        <time>2019-01-19T14:25:53Z</time>
      </trkpt>
      <trkpt lat="46.32138" lon="4.41208">
        <ele>494.25500488281</ele>
        <time>2019-01-19T14:25:56Z</time>
      </trkpt>
      <trkpt lat="46.3213" lon="4.41219">
        <ele>493.29357910156</ele>
        <time>2019-01-19T14:25:58Z</time>
      </trkpt>
      <trkpt lat="46.32123" lon="4.4123">
        <ele>496.177734375</ele>
        <time>2019-01-19T14:26:01Z</time>
      </trkpt>
      <trkpt lat="46.32127" lon="4.41245">
        <ele>496.177734375</ele>
        <time>2019-01-19T14:26:04Z</time>
      </trkpt>
      <trkpt lat="46.32142" lon="4.41251">
        <ele>497.13891601562</ele>
        <time>2019-01-19T14:26:06Z</time>
      </trkpt>
      <trkpt lat="46.32151" lon="4.41252">
        <ele>499.0615234375</ele>
        <time>2019-01-19T14:26:07Z</time>
      </trkpt>
      <trkpt lat="46.32161" lon="4.41254">
        <ele>501.46484375</ele>
        <time>2019-01-19T14:26:08Z</time>
      </trkpt>
      <trkpt lat="46.32172" lon="4.41256">
        <ele>501.46484375</ele>
        <time>2019-01-19T14:26:09Z</time>
      </trkpt>
      <trkpt lat="46.32183" lon="4.41258">
        <ele>502.42614746094</ele>
        <time>2019-01-19T14:26:10Z</time>
      </trkpt>
      <trkpt lat="46.322" lon="4.41261">
        <ele>501.46484375</ele>
        <time>2019-01-19T14:26:12Z</time>
      </trkpt>
      <trkpt lat="46.32207" lon="4.4126">
        <ele>500.98413085938</ele>
        <time>2019-01-19T14:26:13Z</time>
      </trkpt>
      <trkpt lat="46.32218" lon="4.41251">
        <ele>500.50354003906</ele>
        <time>2019-01-19T14:26:16Z</time>
      </trkpt>
      <trkpt lat="46.32226" lon="4.41265">
        <ele>503.8681640625</ele>
        <time>2019-01-19T14:26:49Z</time>
      </trkpt>
      <trkpt lat="46.32225" lon="4.41281">
        <ele>504.82946777344</ele>
        <time>2019-01-19T14:26:52Z</time>
      </trkpt>
      <trkpt lat="46.32228" lon="4.41296">
        <ele>508.67468261719</ele>
        <time>2019-01-19T14:26:55Z</time>
      </trkpt>
      <trkpt lat="46.32225" lon="4.41311">
        <ele>510.11669921875</ele>
        <time>2019-01-19T14:26:58Z</time>
      </trkpt>
      <trkpt lat="46.3218" lon="4.41347">
        <ele>518.28784179688</ele>
        <time>2019-01-19T14:27:10Z</time>
      </trkpt>
      <trkpt lat="46.32168" lon="4.41362">
        <ele>525.01721191406</ele>
        <time>2019-01-19T14:27:14Z</time>
      </trkpt>
      <trkpt lat="46.32154" lon="4.41382">
        <ele>528.3818359375</ele>
        <time>2019-01-19T14:27:17Z</time>
      </trkpt>
      <trkpt lat="46.32148" lon="4.41396">
        <ele>525.49780273438</ele>
        <time>2019-01-19T14:27:19Z</time>
      </trkpt>
      <trkpt lat="46.3214" lon="4.4141">
        <ele>532.22705078125</ele>
        <time>2019-01-19T14:27:22Z</time>
      </trkpt>
      <trkpt lat="46.32131" lon="4.41425">
        <ele>533.18835449219</ele>
        <time>2019-01-19T14:27:26Z</time>
      </trkpt>
      <trkpt lat="46.32124" lon="4.41455">
        <ele>537.99499511719</ele>
        <time>2019-01-19T14:27:32Z</time>
      </trkpt>
      <trkpt lat="46.32122" lon="4.41479">
        <ele>543.28210449219</ele>
        <time>2019-01-19T14:27:43Z</time>
      </trkpt>
      <trkpt lat="46.32121" lon="4.41512">
        <ele>544.72424316406</ele>
        <time>2019-01-19T14:27:49Z</time>
      </trkpt>
      <trkpt lat="46.32125" lon="4.41546">
        <ele>549.53076171875</ele>
        <time>2019-01-19T14:27:52Z</time>
      </trkpt>
      <trkpt lat="46.321" lon="4.41606">
        <ele>552.89526367188</ele>
        <time>2019-01-19T14:28:36Z</time>
      </trkpt>
      <trkpt lat="46.32112" lon="4.41628">
        <ele>554.33740234375</ele>
        <time>2019-01-19T14:28:44Z</time>
      </trkpt>
      <trkpt lat="46.32113" lon="4.41645">
        <ele>557.22143554688</ele>
        <time>2019-01-19T14:28:48Z</time>
      </trkpt>
      <trkpt lat="46.32111" lon="4.4167">
        <ele>559.62475585938</ele>
        <time>2019-01-19T14:28:51Z</time>
      </trkpt>
      <trkpt lat="46.32112" lon="4.41689">
        <ele>562.02807617188</ele>
        <time>2019-01-19T14:28:53Z</time>
      </trkpt>
      <trkpt lat="46.32108" lon="4.41705">
        <ele>561.54736328125</ele>
        <time>2019-01-19T14:28:55Z</time>
      </trkpt>
      <trkpt lat="46.32107" lon="4.4172">
        <ele>567.31518554688</ele>
        <time>2019-01-19T14:28:58Z</time>
      </trkpt>
      <trkpt lat="46.32108" lon="4.41736">
        <ele>568.75708007812</ele>
        <time>2019-01-19T14:29:01Z</time>
      </trkpt>
      <trkpt lat="46.32106" lon="4.41754">
        <ele>570.6796875</ele>
        <time>2019-01-19T14:29:04Z</time>
      </trkpt>
      <trkpt lat="46.32102" lon="4.41778">
        <ele>571.64086914062</ele>
        <time>2019-01-19T14:29:08Z</time>
      </trkpt>
      <trkpt lat="46.321" lon="4.418">
        <ele>573.56396484375</ele>
        <time>2019-01-19T14:29:12Z</time>
      </trkpt>
      <trkpt lat="46.32106" lon="4.41811">
        <ele>581.25439453125</ele>
        <time>2019-01-19T14:29:17Z</time>
      </trkpt>
      <trkpt lat="46.32114" lon="4.41799">
        <ele>579.81225585938</ele>
        <time>2019-01-19T14:29:19Z</time>
      </trkpt>
      <trkpt lat="46.3213" lon="4.41785">
        <ele>579.81225585938</ele>
        <time>2019-01-19T14:29:21Z</time>
      </trkpt>
      <trkpt lat="46.3214" lon="4.41773">
        <ele>579.33154296875</ele>
        <time>2019-01-19T14:29:22Z</time>
      </trkpt>
      <trkpt lat="46.32148" lon="4.41765">
        <ele>579.81225585938</ele>
        <time>2019-01-19T14:29:23Z</time>
      </trkpt>
      <trkpt lat="46.32162" lon="4.4175">
        <ele>580.29296875</ele>
        <time>2019-01-19T14:29:25Z</time>
      </trkpt>
      <trkpt lat="46.32173" lon="4.41738">
        <ele>580.29296875</ele>
        <time>2019-01-19T14:29:27Z</time>
      </trkpt>
      <trkpt lat="46.32186" lon="4.41729">
        <ele>581.73486328125</ele>
        <time>2019-01-19T14:29:29Z</time>
      </trkpt>
      <trkpt lat="46.32201" lon="4.4172">
        <ele>582.21557617188</ele>
        <time>2019-01-19T14:29:31Z</time>
      </trkpt>
      <trkpt lat="46.32211" lon="4.41714">
        <ele>582.6962890625</ele>
        <time>2019-01-19T14:29:33Z</time>
      </trkpt>
      <trkpt lat="46.32221" lon="4.41703">
        <ele>584.13818359375</ele>
        <time>2019-01-19T14:29:36Z</time>
      </trkpt>
      <trkpt lat="46.32235" lon="4.41687">
        <ele>585.099609375</ele>
        <time>2019-01-19T14:29:41Z</time>
      </trkpt>
      <trkpt lat="46.32251" lon="4.41675">
        <ele>585.580078125</ele>
        <time>2019-01-19T14:29:49Z</time>
      </trkpt>
      <trkpt lat="46.32265" lon="4.41673">
        <ele>587.9833984375</ele>
        <time>2019-01-19T14:29:56Z</time>
      </trkpt>
      <trkpt lat="46.32275" lon="4.41678">
        <ele>588.94506835938</ele>
        <time>2019-01-19T14:29:58Z</time>
      </trkpt>
      <trkpt lat="46.32324" lon="4.41739">
        <ele>590.38696289062</ele>
        <time>2019-01-19T14:30:00Z</time>
      </trkpt>
      <trkpt lat="46.32332" lon="4.4173">
        <ele>591.34814453125</ele>
        <time>2019-01-19T14:30:02Z</time>
      </trkpt>
      <trkpt lat="46.32345" lon="4.41717">
        <ele>591.82885742188</ele>
        <time>2019-01-19T14:30:04Z</time>
      </trkpt>
      <trkpt lat="46.32357" lon="4.41704">
        <ele>590.38696289062</ele>
        <time>2019-01-19T14:30:06Z</time>
      </trkpt>
      <trkpt lat="46.32368" lon="4.41693">
        <ele>592.3095703125</ele>
        <time>2019-01-19T14:30:08Z</time>
      </trkpt>
      <trkpt lat="46.3238" lon="4.41681">
        <ele>592.79028320312</ele>
        <time>2019-01-19T14:30:10Z</time>
      </trkpt>
      <trkpt lat="46.32394" lon="4.41669">
        <ele>593.75146484375</ele>
        <time>2019-01-19T14:30:12Z</time>
      </trkpt>
      <trkpt lat="46.32402" lon="4.41661">
        <ele>592.79028320312</ele>
        <time>2019-01-19T14:30:14Z</time>
      </trkpt>
      <trkpt lat="46.32418" lon="4.41647">
        <ele>591.82885742188</ele>
        <time>2019-01-19T14:30:16Z</time>
      </trkpt>
      <trkpt lat="46.32438" lon="4.41629">
        <ele>591.34814453125</ele>
        <time>2019-01-19T14:30:18Z</time>
      </trkpt>
      <trkpt lat="46.3245" lon="4.41617">
        <ele>591.34814453125</ele>
        <time>2019-01-19T14:30:20Z</time>
      </trkpt>
      <trkpt lat="46.32458" lon="4.41621">
        <ele>590.86743164062</ele>
        <time>2019-01-19T14:30:23Z</time>
      </trkpt>
      <trkpt lat="46.32458" lon="4.41637">
        <ele>591.34814453125</ele>
        <time>2019-01-19T14:30:25Z</time>
      </trkpt>
      <trkpt lat="46.32458" lon="4.41658">
        <ele>594.71264648438</ele>
        <time>2019-01-19T14:30:27Z</time>
      </trkpt>
      <trkpt lat="46.32459" lon="4.41678">
        <ele>596.15478515625</ele>
        <time>2019-01-19T14:30:29Z</time>
      </trkpt>
      <trkpt lat="46.32463" lon="4.417">
        <ele>597.11596679688</ele>
        <time>2019-01-19T14:30:31Z</time>
      </trkpt>
      <trkpt lat="46.32472" lon="4.41714">
        <ele>600</ele>
        <time>2019-01-19T14:30:33Z</time>
      </trkpt>
      <trkpt lat="46.32483" lon="4.41733">
        <ele>603.36450195312</ele>
        <time>2019-01-19T14:30:35Z</time>
      </trkpt>
      <trkpt lat="46.3249" lon="4.41744">
        <ele>600.48071289062</ele>
        <time>2019-01-19T14:30:37Z</time>
      </trkpt>
      <trkpt lat="46.3249" lon="4.41745">
        <ele>604.326171875</ele>
        <time>2019-01-19T14:30:49Z</time>
      </trkpt>
      <trkpt lat="46.3249" lon="4.41745">
        <ele>607.69067382812</ele>
        <time>2019-01-19T14:30:53Z</time>
      </trkpt>
      <trkpt lat="46.3249" lon="4.41745">
        <ele>611.53588867188</ele>
        <time>2019-01-19T14:31:03Z</time>
      </trkpt>
      <trkpt lat="46.32507" lon="4.4182">
        <ele>613.45849609375</ele>
        <time>2019-01-19T14:31:07Z</time>
      </trkpt>
      <trkpt lat="46.32513" lon="4.4184">
        <ele>615.38110351562</ele>
        <time>2019-01-19T14:31:12Z</time>
      </trkpt>
      <trkpt lat="46.32523" lon="4.41855">
        <ele>617.3037109375</ele>
        <time>2019-01-19T14:31:15Z</time>
      </trkpt>
      <trkpt lat="46.32532" lon="4.41868">
        <ele>612.97778320312</ele>
        <time>2019-01-19T14:31:18Z</time>
      </trkpt>
      <trkpt lat="46.32542" lon="4.4188">
        <ele>623.55249023438</ele>
        <time>2019-01-19T14:31:20Z</time>
      </trkpt>
      <trkpt lat="46.32554" lon="4.41892">
        <ele>624.513671875</ele>
        <time>2019-01-19T14:31:22Z</time>
      </trkpt>
      <trkpt lat="46.32562" lon="4.41905">
        <ele>624.99438476562</ele>
        <time>2019-01-19T14:31:24Z</time>
      </trkpt>
      <trkpt lat="46.32569" lon="4.41917">
        <ele>625.47485351562</ele>
        <time>2019-01-19T14:31:26Z</time>
      </trkpt>
      <trkpt lat="46.32583" lon="4.41939">
        <ele>628.35888671875</ele>
        <time>2019-01-19T14:31:28Z</time>
      </trkpt>
      <trkpt lat="46.32593" lon="4.41951">
        <ele>629.80078125</ele>
        <time>2019-01-19T14:31:30Z</time>
      </trkpt>
      <trkpt lat="46.32602" lon="4.41965">
        <ele>632.2041015625</ele>
        <time>2019-01-19T14:31:32Z</time>
      </trkpt>
      <trkpt lat="46.3261" lon="4.41984">
        <ele>634.607421875</ele>
        <time>2019-01-19T14:31:34Z</time>
      </trkpt>
      <trkpt lat="46.32613" lon="4.41997">
        <ele>635.08813476562</ele>
        <time>2019-01-19T14:31:36Z</time>
      </trkpt>
      <trkpt lat="46.32623" lon="4.42008">
        <ele>636.04956054688</ele>
        <time>2019-01-19T14:31:45Z</time>
      </trkpt>
      <trkpt lat="46.32633" lon="4.42019">
        <ele>638.45288085938</ele>
        <time>2019-01-19T14:31:48Z</time>
      </trkpt>
      <trkpt lat="46.32637" lon="4.42032">
        <ele>637.49145507812</ele>
        <time>2019-01-19T14:31:50Z</time>
      </trkpt>
      <trkpt lat="46.32645" lon="4.42041">
        <ele>638.93359375</ele>
        <time>2019-01-19T14:31:52Z</time>
      </trkpt>
      <trkpt lat="46.3265" lon="4.42054">
        <ele>639.89477539062</ele>
        <time>2019-01-19T14:31:54Z</time>
      </trkpt>
      <trkpt lat="46.32654" lon="4.42068">
        <ele>638.45288085938</ele>
        <time>2019-01-19T14:31:57Z</time>
      </trkpt>
      <trkpt lat="46.3265" lon="4.42087">
        <ele>639.89477539062</ele>
        <time>2019-01-19T14:32:02Z</time>
      </trkpt>
      <trkpt lat="46.3265" lon="4.42108">
        <ele>638.93359375</ele>
        <time>2019-01-19T14:32:05Z</time>
      </trkpt>
      <trkpt lat="46.32648" lon="4.42144">
        <ele>638.45288085938</ele>
        <time>2019-01-19T14:32:08Z</time>
      </trkpt>
      <trkpt lat="46.32653" lon="4.42165">
        <ele>641.8173828125</ele>
        <time>2019-01-19T14:32:11Z</time>
      </trkpt>
      <trkpt lat="46.32661" lon="4.42194">
        <ele>639.89477539062</ele>
        <time>2019-01-19T14:32:14Z</time>
      </trkpt>
      <trkpt lat="46.32671" lon="4.42217">
        <ele>640.37548828125</ele>
        <time>2019-01-19T14:32:16Z</time>
      </trkpt>
      <trkpt lat="46.3268" lon="4.42237">
        <ele>639.4140625</ele>
        <time>2019-01-19T14:32:18Z</time>
      </trkpt>
      <trkpt lat="46.32691" lon="4.42257">
        <ele>642.29809570312</ele>
        <time>2019-01-19T14:32:20Z</time>
      </trkpt>
      <trkpt lat="46.32699" lon="4.42274">
        <ele>637.0107421875</ele>
        <time>2019-01-19T14:32:22Z</time>
      </trkpt>
      <trkpt lat="46.32706" lon="4.42288">
        <ele>639.4140625</ele>
        <time>2019-01-19T14:32:24Z</time>
      </trkpt>
      <trkpt lat="46.32719" lon="4.42304">
        <ele>640.37548828125</ele>
        <time>2019-01-19T14:32:26Z</time>
      </trkpt>
      <trkpt lat="46.32738" lon="4.42323">
        <ele>638.93359375</ele>
        <time>2019-01-19T14:32:28Z</time>
      </trkpt>
      <trkpt lat="46.32746" lon="4.42336">
        <ele>639.4140625</ele>
        <time>2019-01-19T14:32:30Z</time>
      </trkpt>
      <trkpt lat="46.32759" lon="4.42353">
        <ele>642.29809570312</ele>
        <time>2019-01-19T14:32:32Z</time>
      </trkpt>
      <trkpt lat="46.32766" lon="4.42364">
        <ele>639.4140625</ele>
        <time>2019-01-19T14:32:34Z</time>
      </trkpt>
      <trkpt lat="46.32775" lon="4.42375">
        <ele>638.93359375</ele>
        <time>2019-01-19T14:32:36Z</time>
      </trkpt>
      <trkpt lat="46.32783" lon="4.42383">
        <ele>639.4140625</ele>
        <time>2019-01-19T14:32:38Z</time>
      </trkpt>
      <trkpt lat="46.32789" lon="4.42392">
        <ele>639.4140625</ele>
        <time>2019-01-19T14:32:41Z</time>
      </trkpt>
      <trkpt lat="46.32804" lon="4.42401">
        <ele>639.89477539062</ele>
        <time>2019-01-19T14:32:53Z</time>
      </trkpt>
      <trkpt lat="46.32817" lon="4.42423">
        <ele>640.37548828125</ele>
        <time>2019-01-19T14:34:30Z</time>
      </trkpt>
      <trkpt lat="46.32819" lon="4.42451">
        <ele>641.8173828125</ele>
        <time>2019-01-19T14:37:09Z</time>
      </trkpt>
      <trkpt lat="46.32825" lon="4.42466">
        <ele>644.701171875</ele>
        <time>2019-01-19T14:37:24Z</time>
      </trkpt>
      <trkpt lat="46.32827" lon="4.42488">
        <ele>650.94970703125</ele>
        <time>2019-01-19T14:38:13Z</time>
      </trkpt>
      <trkpt lat="46.32831" lon="4.4256">
        <ele>663.92749023438</ele>
        <time>2019-01-19T14:39:36Z</time>
      </trkpt>
      <trkpt lat="46.32855" lon="4.4261">
        <ele>667.77270507812</ele>
        <time>2019-01-19T14:40:02Z</time>
      </trkpt>
      <trkpt lat="46.32864" lon="4.42635">
        <ele>674.98291015625</ele>
        <time>2019-01-19T14:40:32Z</time>
      </trkpt>
      <trkpt lat="46.32873" lon="4.42668">
        <ele>684.59619140625</ele>
        <time>2019-01-19T14:41:32Z</time>
      </trkpt>
      <trkpt lat="46.32861" lon="4.4266">
        <ele>686.51879882812</ele>
        <time>2019-01-19T14:41:47Z</time>
      </trkpt>
      <trkpt lat="46.32845" lon="4.4266">
        <ele>688.92211914062</ele>
        <time>2019-01-19T14:42:03Z</time>
      </trkpt>
      <trkpt lat="46.32827" lon="4.42656">
        <ele>692.76733398438</ele>
        <time>2019-01-19T14:42:20Z</time>
      </trkpt>
      <trkpt lat="46.3281" lon="4.42643">
        <ele>692.28662109375</ele>
        <time>2019-01-19T14:42:37Z</time>
      </trkpt>
      <trkpt lat="46.32793" lon="4.42645">
        <ele>695.65112304688</ele>
        <time>2019-01-19T14:42:51Z</time>
      </trkpt>
      <trkpt lat="46.32778" lon="4.42639">
        <ele>696.1318359375</ele>
        <time>2019-01-19T14:43:03Z</time>
      </trkpt>
      <trkpt lat="46.32768" lon="4.42636">
        <ele>697.09301757812</ele>
        <time>2019-01-19T14:43:15Z</time>
      </trkpt>
      <trkpt lat="46.32753" lon="4.42627">
        <ele>701.41918945312</ele>
        <time>2019-01-19T14:43:26Z</time>
      </trkpt>
      <trkpt lat="46.32742" lon="4.42629">
        <ele>702.86108398438</ele>
        <time>2019-01-19T14:43:39Z</time>
      </trkpt>
      <trkpt lat="46.32716" lon="4.4264">
        <ele>711.51293945312</ele>
        <time>2019-01-19T14:44:25Z</time>
      </trkpt>
      <trkpt lat="46.32685" lon="4.4263">
        <ele>712.95483398438</ele>
        <time>2019-01-19T14:44:51Z</time>
      </trkpt>
      <trkpt lat="46.32665" lon="4.4261">
        <ele>710.55151367188</ele>
        <time>2019-01-19T14:45:03Z</time>
      </trkpt>
      <trkpt lat="46.32649" lon="4.42597">
        <ele>712.95483398438</ele>
        <time>2019-01-19T14:45:14Z</time>
      </trkpt>
      <trkpt lat="46.32635" lon="4.42576">
        <ele>712.47412109375</ele>
        <time>2019-01-19T14:45:26Z</time>
      </trkpt>
      <trkpt lat="46.32627" lon="4.42566">
        <ele>713.916015625</ele>
        <time>2019-01-19T14:45:37Z</time>
      </trkpt>
      <trkpt lat="46.32616" lon="4.42556">
        <ele>715.8388671875</ele>
        <time>2019-01-19T14:45:47Z</time>
      </trkpt>
      <trkpt lat="46.32605" lon="4.42544">
        <ele>717.76147460938</ele>
        <time>2019-01-19T14:45:59Z</time>
      </trkpt>
      <trkpt lat="46.32589" lon="4.42537">
        <ele>718.2421875</ele>
        <time>2019-01-19T14:46:09Z</time>
      </trkpt>
      <trkpt lat="46.32577" lon="4.42532">
        <ele>714.87744140625</ele>
        <time>2019-01-19T14:46:21Z</time>
      </trkpt>
      <trkpt lat="46.32559" lon="4.42526">
        <ele>712.95483398438</ele>
        <time>2019-01-19T14:46:31Z</time>
      </trkpt>
      <trkpt lat="46.32537" lon="4.42516">
        <ele>710.07080078125</ele>
        <time>2019-01-19T14:46:49Z</time>
      </trkpt>
      <trkpt lat="46.32519" lon="4.42506">
        <ele>707.18701171875</ele>
        <time>2019-01-19T14:47:01Z</time>
      </trkpt>
      <trkpt lat="46.32513" lon="4.42513">
        <ele>711.0322265625</ele>
        <time>2019-01-19T14:47:59Z</time>
      </trkpt>
      <trkpt lat="46.3251" lon="4.42546">
        <ele>714.39672851562</ele>
        <time>2019-01-19T14:48:05Z</time>
      </trkpt>
      <trkpt lat="46.3251" lon="4.42577">
        <ele>717.76147460938</ele>
        <time>2019-01-19T14:48:09Z</time>
      </trkpt>
      <trkpt lat="46.32507" lon="4.42601">
        <ele>719.20361328125</ele>
        <time>2019-01-19T14:48:13Z</time>
      </trkpt>
      <trkpt lat="46.32503" lon="4.42624">
        <ele>720.16479492188</ele>
        <time>2019-01-19T14:48:16Z</time>
      </trkpt>
      <trkpt lat="46.32496" lon="4.42659">
        <ele>723.048828125</ele>
        <time>2019-01-19T14:48:31Z</time>
      </trkpt>
      <trkpt lat="46.32485" lon="4.42696">
        <ele>725.9326171875</ele>
        <time>2019-01-19T14:48:35Z</time>
      </trkpt>
      <trkpt lat="46.32479" lon="4.42718">
        <ele>727.37475585938</ele>
        <time>2019-01-19T14:48:40Z</time>
      </trkpt>
      <trkpt lat="46.32473" lon="4.42743">
        <ele>731.70043945312</ele>
        <time>2019-01-19T14:48:56Z</time>
      </trkpt>
      <trkpt lat="46.32469" lon="4.42768">
        <ele>734.10400390625</ele>
        <time>2019-01-19T14:49:02Z</time>
      </trkpt>
      <trkpt lat="46.32469" lon="4.42785">
        <ele>736.50732421875</ele>
        <time>2019-01-19T14:49:09Z</time>
      </trkpt>
      <trkpt lat="46.32494" lon="4.42824">
        <ele>743.71704101562</ele>
        <time>2019-01-19T14:49:41Z</time>
      </trkpt>
      <trkpt lat="46.32509" lon="4.42814">
        <ele>747.56225585938</ele>
        <time>2019-01-19T14:50:03Z</time>
      </trkpt>
      <trkpt lat="46.32527" lon="4.42803">
        <ele>750.92700195312</ele>
        <time>2019-01-19T14:50:22Z</time>
      </trkpt>
      <trkpt lat="46.32533" lon="4.4279">
        <ele>751.40771484375</ele>
        <time>2019-01-19T14:50:33Z</time>
      </trkpt>
      <trkpt lat="46.3255" lon="4.42776">
        <ele>752.849609375</ele>
        <time>2019-01-19T14:50:44Z</time>
      </trkpt>
      <trkpt lat="46.32558" lon="4.42762">
        <ele>752.36889648438</ele>
        <time>2019-01-19T14:50:56Z</time>
      </trkpt>
      <trkpt lat="46.32569" lon="4.42746">
        <ele>753.81103515625</ele>
        <time>2019-01-19T14:51:08Z</time>
      </trkpt>
      <trkpt lat="46.32582" lon="4.42739">
        <ele>757.17553710938</ele>
        <time>2019-01-19T14:51:22Z</time>
      </trkpt>
      <trkpt lat="46.32599" lon="4.42742">
        <ele>761.50146484375</ele>
        <time>2019-01-19T14:51:37Z</time>
      </trkpt>
      <trkpt lat="46.32615" lon="4.42751">
        <ele>764.8662109375</ele>
        <time>2019-01-19T14:51:52Z</time>
      </trkpt>
      <trkpt lat="46.32626" lon="4.42759">
        <ele>763.42407226562</ele>
        <time>2019-01-19T14:52:27Z</time>
      </trkpt>
      <trkpt lat="46.32641" lon="4.42765">
        <ele>764.38549804688</ele>
        <time>2019-01-19T14:52:35Z</time>
      </trkpt>
      <trkpt lat="46.32652" lon="4.42772">
        <ele>764.38549804688</ele>
        <time>2019-01-19T14:52:40Z</time>
      </trkpt>
      <trkpt lat="46.32659" lon="4.42782">
        <ele>761.98217773438</ele>
        <time>2019-01-19T14:53:02Z</time>
      </trkpt>
      <trkpt lat="46.32652" lon="4.42789">
        <ele>765.82763671875</ele>
        <time>2019-01-19T14:53:09Z</time>
      </trkpt>
      <trkpt lat="46.32652" lon="4.42811">
        <ele>767.26953125</ele>
        <time>2019-01-19T14:53:31Z</time>
      </trkpt>
      <trkpt lat="46.32662" lon="4.42821">
        <ele>764.8662109375</ele>
        <time>2019-01-19T14:53:41Z</time>
      </trkpt>
      <trkpt lat="46.32669" lon="4.42828">
        <ele>764.8662109375</ele>
        <time>2019-01-19T14:53:48Z</time>
      </trkpt>
      <trkpt lat="46.32667" lon="4.42837">
        <ele>763.90454101562</ele>
        <time>2019-01-19T14:53:56Z</time>
      </trkpt>
      <trkpt lat="46.32656" lon="4.42842">
        <ele>761.98217773438</ele>
        <time>2019-01-19T14:54:02Z</time>
      </trkpt>
      <trkpt lat="46.32646" lon="4.42845">
        <ele>763.42407226562</ele>
        <time>2019-01-19T14:54:07Z</time>
      </trkpt>
      <trkpt lat="46.32635" lon="4.42842">
        <ele>761.02075195312</ele>
        <time>2019-01-19T14:54:12Z</time>
      </trkpt>
      <trkpt lat="46.32627" lon="4.42852">
        <ele>761.98217773438</ele>
        <time>2019-01-19T14:54:18Z</time>
      </trkpt>
      <trkpt lat="46.32615" lon="4.42858">
        <ele>758.61743164062</ele>
        <time>2019-01-19T14:54:23Z</time>
      </trkpt>
      <trkpt lat="46.32603" lon="4.42863">
        <ele>758.13696289062</ele>
        <time>2019-01-19T14:54:32Z</time>
      </trkpt>
      <trkpt lat="46.32595" lon="4.42869">
        <ele>755.73364257812</ele>
        <time>2019-01-19T14:54:47Z</time>
      </trkpt>
      <trkpt lat="46.32594" lon="4.42908">
        <ele>742.27514648438</ele>
        <time>2019-01-19T14:55:32Z</time>
      </trkpt>
      <trkpt lat="46.326" lon="4.42935">
        <ele>736.98779296875</ele>
        <time>2019-01-19T14:55:45Z</time>
      </trkpt>
      <trkpt lat="46.32589" lon="4.42946">
        <ele>736.98779296875</ele>
        <time>2019-01-19T14:56:56Z</time>
      </trkpt>
      <trkpt lat="46.32574" lon="4.42949">
        <ele>736.02661132812</ele>
        <time>2019-01-19T14:57:00Z</time>
      </trkpt>
      <trkpt lat="46.32553" lon="4.42941">
        <ele>737.46850585938</ele>
        <time>2019-01-19T14:57:03Z</time>
      </trkpt>
      <trkpt lat="46.32543" lon="4.42936">
        <ele>738.42993164062</ele>
        <time>2019-01-19T14:57:06Z</time>
      </trkpt>
      <trkpt lat="46.32521" lon="4.42929">
        <ele>738.91064453125</ele>
        <time>2019-01-19T14:57:12Z</time>
      </trkpt>
      <trkpt lat="46.32508" lon="4.42945">
        <ele>733.62329101562</ele>
        <time>2019-01-19T14:57:15Z</time>
      </trkpt>
      <trkpt lat="46.32491" lon="4.42964">
        <ele>734.10400390625</ele>
        <time>2019-01-19T14:57:18Z</time>
      </trkpt>
      <trkpt lat="46.32482" lon="4.42981">
        <ele>728.3359375</ele>
        <time>2019-01-19T14:57:21Z</time>
      </trkpt>
      <trkpt lat="46.32473" lon="4.42994">
        <ele>725.9326171875</ele>
        <time>2019-01-19T14:57:24Z</time>
      </trkpt>
      <trkpt lat="46.32464" lon="4.43006">
        <ele>725.45190429688</ele>
        <time>2019-01-19T14:57:27Z</time>
      </trkpt>
      <trkpt lat="46.32456" lon="4.43023">
        <ele>717.28100585938</ele>
        <time>2019-01-19T14:57:30Z</time>
      </trkpt>
      <trkpt lat="46.32453" lon="4.43037">
        <ele>714.87744140625</ele>
        <time>2019-01-19T14:57:33Z</time>
      </trkpt>
      <trkpt lat="46.32452" lon="4.4306">
        <ele>711.0322265625</ele>
        <time>2019-01-19T14:57:36Z</time>
      </trkpt>
      <trkpt lat="46.32448" lon="4.43075">
        <ele>707.66772460938</ele>
        <time>2019-01-19T14:57:38Z</time>
      </trkpt>
      <trkpt lat="46.32441" lon="4.43087">
        <ele>707.18701171875</ele>
        <time>2019-01-19T14:57:40Z</time>
      </trkpt>
      <trkpt lat="46.32439" lon="4.43098">
        <ele>705.26440429688</ele>
        <time>2019-01-19T14:57:42Z</time>
      </trkpt>
      <trkpt lat="46.32434" lon="4.43111">
        <ele>706.2255859375</ele>
        <time>2019-01-19T14:57:44Z</time>
      </trkpt>
      <trkpt lat="46.32431" lon="4.43124">
        <ele>702.86108398438</ele>
        <time>2019-01-19T14:57:46Z</time>
      </trkpt>
      <trkpt lat="46.32426" lon="4.43137">
        <ele>700.9384765625</ele>
        <time>2019-01-19T14:57:48Z</time>
      </trkpt>
      <trkpt lat="46.32421" lon="4.43149">
        <ele>703.82250976562</ele>
        <time>2019-01-19T14:57:50Z</time>
      </trkpt>
      <trkpt lat="46.32417" lon="4.43157">
        <ele>697.09301757812</ele>
        <time>2019-01-19T14:57:52Z</time>
      </trkpt>
      <trkpt lat="46.32414" lon="4.43172">
        <ele>699.97705078125</ele>
        <time>2019-01-19T14:57:54Z</time>
      </trkpt>
      <trkpt lat="46.32403" lon="4.43176">
        <ele>701.89990234375</ele>
        <time>2019-01-19T14:57:56Z</time>
      </trkpt>
      <trkpt lat="46.32391" lon="4.43178">
        <ele>700.4580078125</ele>
        <time>2019-01-19T14:57:58Z</time>
      </trkpt>
      <trkpt lat="46.32377" lon="4.43178">
        <ele>701.41918945312</ele>
        <time>2019-01-19T14:58:01Z</time>
      </trkpt>
      <trkpt lat="46.32367" lon="4.4318">
        <ele>700.9384765625</ele>
        <time>2019-01-19T14:58:04Z</time>
      </trkpt>
      <trkpt lat="46.32354" lon="4.43179">
        <ele>700.9384765625</ele>
        <time>2019-01-19T14:58:07Z</time>
      </trkpt>
      <trkpt lat="46.32344" lon="4.43175">
        <ele>700.9384765625</ele>
        <time>2019-01-19T14:58:10Z</time>
      </trkpt>
      <trkpt lat="46.32332" lon="4.43168">
        <ele>698.53491210938</ele>
        <time>2019-01-19T14:58:14Z</time>
      </trkpt>
      <trkpt lat="46.32321" lon="4.43159">
        <ele>695.65112304688</ele>
        <time>2019-01-19T14:58:17Z</time>
      </trkpt>
      <trkpt lat="46.32307" lon="4.43143">
        <ele>694.20922851562</ele>
        <time>2019-01-19T14:58:21Z</time>
      </trkpt>
      <trkpt lat="46.32287" lon="4.43137">
        <ele>692.76733398438</ele>
        <time>2019-01-19T14:58:28Z</time>
      </trkpt>
      <trkpt lat="46.32245" lon="4.4312">
        <ele>691.80590820312</ele>
        <time>2019-01-19T14:58:31Z</time>
      </trkpt>
      <trkpt lat="46.32231" lon="4.43121">
        <ele>691.3251953125</ele>
        <time>2019-01-19T14:58:35Z</time>
      </trkpt>
      <trkpt lat="46.32218" lon="4.43121">
        <ele>690.36401367188</ele>
        <time>2019-01-19T14:58:39Z</time>
      </trkpt>
      <trkpt lat="46.32205" lon="4.43118">
        <ele>686.99926757812</ele>
        <time>2019-01-19T14:58:43Z</time>
      </trkpt>
      <trkpt lat="46.32192" lon="4.43114">
        <ele>688.92211914062</ele>
        <time>2019-01-19T14:58:47Z</time>
      </trkpt>
      <trkpt lat="46.32174" lon="4.43106">
        <ele>685.55737304688</ele>
        <time>2019-01-19T14:58:56Z</time>
      </trkpt>
      <trkpt lat="46.32147" lon="4.431">
        <ele>685.07690429688</ele>
        <time>2019-01-19T14:59:12Z</time>
      </trkpt>
      <trkpt lat="46.3213" lon="4.43099">
        <ele>682.19262695312</ele>
        <time>2019-01-19T14:59:16Z</time>
      </trkpt>
      <trkpt lat="46.32117" lon="4.43099">
        <ele>682.67333984375</ele>
        <time>2019-01-19T14:59:21Z</time>
      </trkpt>
      <trkpt lat="46.32102" lon="4.43099">
        <ele>681.2314453125</ele>
        <time>2019-01-19T14:59:27Z</time>
      </trkpt>
      <trkpt lat="46.32087" lon="4.43093">
        <ele>680.27001953125</ele>
        <time>2019-01-19T14:59:31Z</time>
      </trkpt>
      <trkpt lat="46.32073" lon="4.43087">
        <ele>677.86669921875</ele>
        <time>2019-01-19T14:59:36Z</time>
      </trkpt>
      <trkpt lat="46.32058" lon="4.43076">
        <ele>676.4248046875</ele>
        <time>2019-01-19T14:59:42Z</time>
      </trkpt>
      <trkpt lat="46.32039" lon="4.43069">
        <ele>673.06030273438</ele>
        <time>2019-01-19T14:59:46Z</time>
      </trkpt>
      <trkpt lat="46.32026" lon="4.4306">
        <ele>672.09887695312</ele>
        <time>2019-01-19T14:59:49Z</time>
      </trkpt>
      <trkpt lat="46.32005" lon="4.43056">
        <ele>671.1376953125</ele>
        <time>2019-01-19T14:59:52Z</time>
      </trkpt>
      <trkpt lat="46.3199" lon="4.4305">
        <ele>669.21508789062</ele>
        <time>2019-01-19T14:59:57Z</time>
      </trkpt>
      <trkpt lat="46.31979" lon="4.43041">
        <ele>667.29223632812</ele>
        <time>2019-01-19T15:00:00Z</time>
      </trkpt>
      <trkpt lat="46.31966" lon="4.43037">
        <ele>668.25366210938</ele>
        <time>2019-01-19T15:00:03Z</time>
      </trkpt>
      <trkpt lat="46.31951" lon="4.43035">
        <ele>669.69580078125</ele>
        <time>2019-01-19T15:00:06Z</time>
      </trkpt>
      <trkpt lat="46.31933" lon="4.43027">
        <ele>666.33081054688</ele>
        <time>2019-01-19T15:00:09Z</time>
      </trkpt>
      <trkpt lat="46.31914" lon="4.43014">
        <ele>665.85034179688</ele>
        <time>2019-01-19T15:00:13Z</time>
      </trkpt>
      <trkpt lat="46.31903" lon="4.43014">
        <ele>664.88891601562</ele>
        <time>2019-01-19T15:00:15Z</time>
      </trkpt>
      <trkpt lat="46.31884" lon="4.43015">
        <ele>664.88891601562</ele>
        <time>2019-01-19T15:00:17Z</time>
      </trkpt>
      <trkpt lat="46.31871" lon="4.43016">
        <ele>666.8115234375</ele>
        <time>2019-01-19T15:00:19Z</time>
      </trkpt>
      <trkpt lat="46.31857" lon="4.43023">
        <ele>668.734375</ele>
        <time>2019-01-19T15:00:21Z</time>
      </trkpt>
      <trkpt lat="46.31843" lon="4.43035">
        <ele>671.6181640625</ele>
        <time>2019-01-19T15:00:23Z</time>
      </trkpt>
      <trkpt lat="46.31829" lon="4.43037">
        <ele>670.17626953125</ele>
        <time>2019-01-19T15:00:25Z</time>
      </trkpt>
      <trkpt lat="46.31816" lon="4.43036">
        <ele>675.94409179688</ele>
        <time>2019-01-19T15:00:27Z</time>
      </trkpt>
      <trkpt lat="46.31803" lon="4.43037">
        <ele>670.17626953125</ele>
        <time>2019-01-19T15:00:29Z</time>
      </trkpt>
      <trkpt lat="46.31791" lon="4.43036">
        <ele>671.1376953125</ele>
        <time>2019-01-19T15:00:31Z</time>
      </trkpt>
      <trkpt lat="46.31776" lon="4.43035">
        <ele>672.09887695312</ele>
        <time>2019-01-19T15:00:33Z</time>
      </trkpt>
      <trkpt lat="46.31763" lon="4.43035">
        <ele>672.09887695312</ele>
        <time>2019-01-19T15:00:35Z</time>
      </trkpt>
      <trkpt lat="46.3175" lon="4.43033">
        <ele>674.021484375</ele>
        <time>2019-01-19T15:00:37Z</time>
      </trkpt>
      <trkpt lat="46.31738" lon="4.43034">
        <ele>674.50219726562</ele>
        <time>2019-01-19T15:00:39Z</time>
      </trkpt>
      <trkpt lat="46.31727" lon="4.43035">
        <ele>674.98291015625</ele>
        <time>2019-01-19T15:00:41Z</time>
      </trkpt>
      <trkpt lat="46.31717" lon="4.43044">
        <ele>674.98291015625</ele>
        <time>2019-01-19T15:00:44Z</time>
      </trkpt>
      <trkpt lat="46.31707" lon="4.43048">
        <ele>677.38623046875</ele>
        <time>2019-01-19T15:00:46Z</time>
      </trkpt>
      <trkpt lat="46.31695" lon="4.43056">
        <ele>679.78930664062</ele>
        <time>2019-01-19T15:00:48Z</time>
      </trkpt>
      <trkpt lat="46.31683" lon="4.43069">
        <ele>678.828125</ele>
        <time>2019-01-19T15:00:50Z</time>
      </trkpt>
      <trkpt lat="46.31673" lon="4.43081">
        <ele>685.55737304688</ele>
        <time>2019-01-19T15:00:52Z</time>
      </trkpt>
      <trkpt lat="46.31661" lon="4.43095">
        <ele>684.59619140625</ele>
        <time>2019-01-19T15:00:54Z</time>
      </trkpt>
      <trkpt lat="46.31649" lon="4.43109">
        <ele>683.15380859375</ele>
        <time>2019-01-19T15:00:56Z</time>
      </trkpt>
      <trkpt lat="46.31636" lon="4.4312">
        <ele>693.24780273438</ele>
        <time>2019-01-19T15:00:58Z</time>
      </trkpt>
      <trkpt lat="46.31627" lon="4.43132">
        <ele>695.17041015625</ele>
        <time>2019-01-19T15:01:00Z</time>
      </trkpt>
      <trkpt lat="46.31622" lon="4.43151">
        <ele>696.1318359375</ele>
        <time>2019-01-19T15:01:02Z</time>
      </trkpt>
      <trkpt lat="46.31614" lon="4.43165">
        <ele>698.53491210938</ele>
        <time>2019-01-19T15:01:04Z</time>
      </trkpt>
      <trkpt lat="46.31606" lon="4.43179">
        <ele>700.4580078125</ele>
        <time>2019-01-19T15:01:06Z</time>
      </trkpt>
      <trkpt lat="46.31597" lon="4.43189">
        <ele>703.341796875</ele>
        <time>2019-01-19T15:01:08Z</time>
      </trkpt>
      <trkpt lat="46.31583" lon="4.43205">
        <ele>702.38037109375</ele>
        <time>2019-01-19T15:01:10Z</time>
      </trkpt>
      <trkpt lat="46.31575" lon="4.43213">
        <ele>703.341796875</ele>
        <time>2019-01-19T15:01:12Z</time>
      </trkpt>
      <trkpt lat="46.31569" lon="4.43222">
        <ele>703.341796875</ele>
        <time>2019-01-19T15:01:17Z</time>
      </trkpt>
      <trkpt lat="46.31559" lon="4.43232">
        <ele>700.9384765625</ele>
        <time>2019-01-19T15:01:23Z</time>
      </trkpt>
      <trkpt lat="46.31544" lon="4.43245">
        <ele>695.65112304688</ele>
        <time>2019-01-19T15:01:29Z</time>
      </trkpt>
      <trkpt lat="46.31533" lon="4.43259">
        <ele>690.36401367188</ele>
        <time>2019-01-19T15:01:35Z</time>
      </trkpt>
      <trkpt lat="46.31525" lon="4.43276">
        <ele>686.0380859375</ele>
        <time>2019-01-19T15:01:41Z</time>
      </trkpt>
      <trkpt lat="46.31507" lon="4.43291">
        <ele>684.11547851562</ele>
        <time>2019-01-19T15:01:46Z</time>
      </trkpt>
      <trkpt lat="46.31488" lon="4.433">
        <ele>683.63452148438</ele>
        <time>2019-01-19T15:01:50Z</time>
      </trkpt>
      <trkpt lat="46.31473" lon="4.43312">
        <ele>682.67333984375</ele>
        <time>2019-01-19T15:01:53Z</time>
      </trkpt>
      <trkpt lat="46.31459" lon="4.43322">
        <ele>681.7119140625</ele>
        <time>2019-01-19T15:01:57Z</time>
      </trkpt>
      <trkpt lat="46.31437" lon="4.43328">
        <ele>684.11547851562</ele>
        <time>2019-01-19T15:03:09Z</time>
      </trkpt>
      <trkpt lat="46.31433" lon="4.43328">
        <ele>683.15380859375</ele>
        <time>2019-01-19T15:04:28Z</time>
      </trkpt>
      <trkpt lat="46.31422" lon="4.43346">
        <ele>683.63452148438</ele>
        <time>2019-01-19T15:04:38Z</time>
      </trkpt>
      <trkpt lat="46.31404" lon="4.43373">
        <ele>684.11547851562</ele>
        <time>2019-01-19T15:04:42Z</time>
      </trkpt>
      <trkpt lat="46.31386" lon="4.43409">
        <ele>683.63452148438</ele>
        <time>2019-01-19T15:04:47Z</time>
      </trkpt>
      <trkpt lat="46.31373" lon="4.4343">
        <ele>683.15380859375</ele>
        <time>2019-01-19T15:04:50Z</time>
      </trkpt>
      <trkpt lat="46.31359" lon="4.43469">
        <ele>682.67333984375</ele>
        <time>2019-01-19T15:04:54Z</time>
      </trkpt>
      <trkpt lat="46.31354" lon="4.43486">
        <ele>683.63452148438</ele>
        <time>2019-01-19T15:04:56Z</time>
      </trkpt>
      <trkpt lat="46.31347" lon="4.43514">
        <ele>683.15380859375</ele>
        <time>2019-01-19T15:04:58Z</time>
      </trkpt>
      <trkpt lat="46.31344" lon="4.43531">
        <ele>680.27001953125</ele>
        <time>2019-01-19T15:05:00Z</time>
      </trkpt>
      <trkpt lat="46.31343" lon="4.43548">
        <ele>680.27001953125</ele>
        <time>2019-01-19T15:05:02Z</time>
      </trkpt>
      <trkpt lat="46.31342" lon="4.43566">
        <ele>682.67333984375</ele>
        <time>2019-01-19T15:05:04Z</time>
      </trkpt>
      <trkpt lat="46.31339" lon="4.43581">
        <ele>683.63452148438</ele>
        <time>2019-01-19T15:05:06Z</time>
      </trkpt>
      <trkpt lat="46.31337" lon="4.43594">
        <ele>685.55737304688</ele>
        <time>2019-01-19T15:05:08Z</time>
      </trkpt>
      <trkpt lat="46.31332" lon="4.43607">
        <ele>683.63452148438</ele>
        <time>2019-01-19T15:05:10Z</time>
      </trkpt>
      <trkpt lat="46.31326" lon="4.43619">
        <ele>683.63452148438</ele>
        <time>2019-01-19T15:05:12Z</time>
      </trkpt>
      <trkpt lat="46.31322" lon="4.43634">
        <ele>682.19262695312</ele>
        <time>2019-01-19T15:05:14Z</time>
      </trkpt>
      <trkpt lat="46.3132" lon="4.4365">
        <ele>680.75073242188</ele>
        <time>2019-01-19T15:05:16Z</time>
      </trkpt>
      <trkpt lat="46.31315" lon="4.43676">
        <ele>683.15380859375</ele>
        <time>2019-01-19T15:05:18Z</time>
      </trkpt>
      <trkpt lat="46.31316" lon="4.43703">
        <ele>680.27001953125</ele>
        <time>2019-01-19T15:05:20Z</time>
      </trkpt>
      <trkpt lat="46.31316" lon="4.4372">
        <ele>679.30859375</ele>
        <time>2019-01-19T15:05:22Z</time>
      </trkpt>
      <trkpt lat="46.31313" lon="4.43739">
        <ele>681.2314453125</ele>
        <time>2019-01-19T15:05:24Z</time>
      </trkpt>
      <trkpt lat="46.31308" lon="4.4376">
        <ele>682.19262695312</ele>
        <time>2019-01-19T15:05:26Z</time>
      </trkpt>
      <trkpt lat="46.31306" lon="4.43786">
        <ele>682.19262695312</ele>
        <time>2019-01-19T15:05:28Z</time>
      </trkpt>
      <trkpt lat="46.31309" lon="4.43808">
        <ele>682.67333984375</ele>
        <time>2019-01-19T15:05:30Z</time>
      </trkpt>
      <trkpt lat="46.31313" lon="4.43826">
        <ele>681.2314453125</ele>
        <time>2019-01-19T15:05:32Z</time>
      </trkpt>
      <trkpt lat="46.31315" lon="4.43843">
        <ele>683.15380859375</ele>
        <time>2019-01-19T15:05:34Z</time>
      </trkpt>
      <trkpt lat="46.31316" lon="4.43859">
        <ele>681.7119140625</ele>
        <time>2019-01-19T15:05:36Z</time>
      </trkpt>
      <trkpt lat="46.31313" lon="4.43874">
        <ele>682.19262695312</ele>
        <time>2019-01-19T15:05:38Z</time>
      </trkpt>
      <trkpt lat="46.31309" lon="4.43885">
        <ele>680.75073242188</ele>
        <time>2019-01-19T15:05:40Z</time>
      </trkpt>
      <trkpt lat="46.31307" lon="4.439">
        <ele>679.78930664062</ele>
        <time>2019-01-19T15:05:42Z</time>
      </trkpt>
      <trkpt lat="46.31298" lon="4.43917">
        <ele>679.78930664062</ele>
        <time>2019-01-19T15:05:44Z</time>
      </trkpt>
      <trkpt lat="46.31292" lon="4.43935">
        <ele>678.34741210938</ele>
        <time>2019-01-19T15:05:46Z</time>
      </trkpt>
      <trkpt lat="46.31287" lon="4.43957">
        <ele>677.86669921875</ele>
        <time>2019-01-19T15:05:48Z</time>
      </trkpt>
      <trkpt lat="46.31286" lon="4.43978">
        <ele>678.34741210938</ele>
        <time>2019-01-19T15:05:50Z</time>
      </trkpt>
      <trkpt lat="46.31285" lon="4.43998">
        <ele>678.34741210938</ele>
        <time>2019-01-19T15:05:52Z</time>
      </trkpt>
      <trkpt lat="46.31283" lon="4.44017">
        <ele>678.34741210938</ele>
        <time>2019-01-19T15:05:54Z</time>
      </trkpt>
      <trkpt lat="46.31279" lon="4.44037">
        <ele>677.38623046875</ele>
        <time>2019-01-19T15:05:56Z</time>
      </trkpt>
      <trkpt lat="46.31276" lon="4.44058">
        <ele>675.46337890625</ele>
        <time>2019-01-19T15:05:58Z</time>
      </trkpt>
      <trkpt lat="46.31276" lon="4.44079">
        <ele>678.34741210938</ele>
        <time>2019-01-19T15:06:00Z</time>
      </trkpt>
      <trkpt lat="46.31279" lon="4.44096">
        <ele>675.94409179688</ele>
        <time>2019-01-19T15:06:02Z</time>
      </trkpt>
      <trkpt lat="46.31282" lon="4.44111">
        <ele>676.4248046875</ele>
        <time>2019-01-19T15:06:04Z</time>
      </trkpt>
      <trkpt lat="46.31285" lon="4.44124">
        <ele>675.94409179688</ele>
        <time>2019-01-19T15:06:06Z</time>
      </trkpt>
      <trkpt lat="46.31286" lon="4.44139">
        <ele>673.541015625</ele>
        <time>2019-01-19T15:06:09Z</time>
      </trkpt>
      <trkpt lat="46.31289" lon="4.44154">
        <ele>668.25366210938</ele>
        <time>2019-01-19T15:06:12Z</time>
      </trkpt>
      <trkpt lat="46.31299" lon="4.44178">
        <ele>668.25366210938</ele>
        <time>2019-01-19T15:06:15Z</time>
      </trkpt>
      <trkpt lat="46.31305" lon="4.44204">
        <ele>662.96630859375</ele>
        <time>2019-01-19T15:06:19Z</time>
      </trkpt>
      <trkpt lat="46.3132" lon="4.44217">
        <ele>662.48559570312</ele>
        <time>2019-01-19T15:06:24Z</time>
      </trkpt>
      <trkpt lat="46.31333" lon="4.44237">
        <ele>660.08227539062</ele>
        <time>2019-01-19T15:06:38Z</time>
      </trkpt>
      <trkpt lat="46.31332" lon="4.44253">
        <ele>660.08227539062</ele>
        <time>2019-01-19T15:06:45Z</time>
      </trkpt>
      <trkpt lat="46.31326" lon="4.44271">
        <ele>659.60180664062</ele>
        <time>2019-01-19T15:06:51Z</time>
      </trkpt>
      <trkpt lat="46.3132" lon="4.44287">
        <ele>659.12109375</ele>
        <time>2019-01-19T15:06:57Z</time>
      </trkpt>
      <trkpt lat="46.31324" lon="4.44314">
        <ele>659.12109375</ele>
        <time>2019-01-19T15:07:02Z</time>
      </trkpt>
      <trkpt lat="46.31324" lon="4.44339">
        <ele>657.67919921875</ele>
        <time>2019-01-19T15:07:07Z</time>
      </trkpt>
      <trkpt lat="46.31321" lon="4.44365">
        <ele>660.08227539062</ele>
        <time>2019-01-19T15:07:12Z</time>
      </trkpt>
      <trkpt lat="46.31311" lon="4.44381">
        <ele>658.64038085938</ele>
        <time>2019-01-19T15:07:15Z</time>
      </trkpt>
      <trkpt lat="46.31304" lon="4.44398">
        <ele>658.64038085938</ele>
        <time>2019-01-19T15:07:18Z</time>
      </trkpt>
      <trkpt lat="46.3129" lon="4.4442">
        <ele>661.5244140625</ele>
        <time>2019-01-19T15:07:22Z</time>
      </trkpt>
      <trkpt lat="46.31281" lon="4.44434">
        <ele>659.60180664062</ele>
        <time>2019-01-19T15:07:25Z</time>
      </trkpt>
      <trkpt lat="46.31281" lon="4.44464">
        <ele>660.56298828125</ele>
        <time>2019-01-19T15:07:27Z</time>
      </trkpt>
      <trkpt lat="46.31269" lon="4.44475">
        <ele>661.5244140625</ele>
        <time>2019-01-19T15:07:30Z</time>
      </trkpt>
      <trkpt lat="46.31255" lon="4.44484">
        <ele>660.08227539062</ele>
        <time>2019-01-19T15:07:33Z</time>
      </trkpt>
      <trkpt lat="46.31243" lon="4.44486">
        <ele>663.92749023438</ele>
        <time>2019-01-19T15:07:36Z</time>
      </trkpt>
      <trkpt lat="46.31237" lon="4.44488">
        <ele>661.04370117188</ele>
        <time>2019-01-19T15:07:38Z</time>
      </trkpt>
      <trkpt lat="46.31226" lon="4.4449">
        <ele>666.33081054688</ele>
        <time>2019-01-19T15:07:40Z</time>
      </trkpt>
      <trkpt lat="46.31219" lon="4.44491">
        <ele>667.29223632812</ele>
        <time>2019-01-19T15:07:42Z</time>
      </trkpt>
      <trkpt lat="46.31218" lon="4.44563">
        <ele>667.77270507812</ele>
        <time>2019-01-19T15:07:44Z</time>
      </trkpt>
      <trkpt lat="46.31212" lon="4.44582">
        <ele>669.21508789062</ele>
        <time>2019-01-19T15:07:46Z</time>
      </trkpt>
      <trkpt lat="46.31216" lon="4.44601">
        <ele>668.734375</ele>
        <time>2019-01-19T15:07:48Z</time>
      </trkpt>
      <trkpt lat="46.3122" lon="4.44615">
        <ele>667.29223632812</ele>
        <time>2019-01-19T15:07:50Z</time>
      </trkpt>
      <trkpt lat="46.31228" lon="4.44638">
        <ele>666.8115234375</ele>
        <time>2019-01-19T15:07:53Z</time>
      </trkpt>
      <trkpt lat="46.31235" lon="4.44651">
        <ele>667.77270507812</ele>
        <time>2019-01-19T15:07:58Z</time>
      </trkpt>
      <trkpt lat="46.31241" lon="4.44669">
        <ele>667.29223632812</ele>
        <time>2019-01-19T15:08:03Z</time>
      </trkpt>
      <trkpt lat="46.31252" lon="4.44692">
        <ele>667.77270507812</ele>
        <time>2019-01-19T15:08:08Z</time>
      </trkpt>
      <trkpt lat="46.31266" lon="4.44721">
        <ele>666.8115234375</ele>
        <time>2019-01-19T15:08:14Z</time>
      </trkpt>
      <trkpt lat="46.31269" lon="4.44735">
        <ele>664.408203125</ele>
        <time>2019-01-19T15:08:17Z</time>
      </trkpt>
      <trkpt lat="46.31267" lon="4.44756">
        <ele>664.408203125</ele>
        <time>2019-01-19T15:08:21Z</time>
      </trkpt>
      <trkpt lat="46.31265" lon="4.44777">
        <ele>662.00512695312</ele>
        <time>2019-01-19T15:08:24Z</time>
      </trkpt>
      <trkpt lat="46.31265" lon="4.44797">
        <ele>662.48559570312</ele>
        <time>2019-01-19T15:08:27Z</time>
      </trkpt>
      <trkpt lat="46.31262" lon="4.44817">
        <ele>661.5244140625</ele>
        <time>2019-01-19T15:08:30Z</time>
      </trkpt>
      <trkpt lat="46.3126" lon="4.4484">
        <ele>660.08227539062</ele>
        <time>2019-01-19T15:08:34Z</time>
      </trkpt>
      <trkpt lat="46.31253" lon="4.44869">
        <ele>656.23706054688</ele>
        <time>2019-01-19T15:08:38Z</time>
      </trkpt>
      <trkpt lat="46.31243" lon="4.44895">
        <ele>652.87255859375</ele>
        <time>2019-01-19T15:08:40Z</time>
      </trkpt>
      <trkpt lat="46.31239" lon="4.44909">
        <ele>651.9111328125</ele>
        <time>2019-01-19T15:08:43Z</time>
      </trkpt>
      <trkpt lat="46.31241" lon="4.44933">
        <ele>648.06591796875</ele>
        <time>2019-01-19T15:08:46Z</time>
      </trkpt>
      <trkpt lat="46.31235" lon="4.44953">
        <ele>645.18188476562</ele>
        <time>2019-01-19T15:08:50Z</time>
      </trkpt>
      <trkpt lat="46.31227" lon="4.44971">
        <ele>645.18188476562</ele>
        <time>2019-01-19T15:08:53Z</time>
      </trkpt>
      <trkpt lat="46.31223" lon="4.44997">
        <ele>642.29809570312</ele>
        <time>2019-01-19T15:08:56Z</time>
      </trkpt>
      <trkpt lat="46.31213" lon="4.45018">
        <ele>636.04956054688</ele>
        <time>2019-01-19T15:08:59Z</time>
      </trkpt>
      <trkpt lat="46.31195" lon="4.45046">
        <ele>637.97216796875</ele>
        <time>2019-01-19T15:09:02Z</time>
      </trkpt>
      <trkpt lat="46.31184" lon="4.45058">
        <ele>637.97216796875</ele>
        <time>2019-01-19T15:09:05Z</time>
      </trkpt>
      <trkpt lat="46.31174" lon="4.45066">
        <ele>630.76220703125</ele>
        <time>2019-01-19T15:09:09Z</time>
      </trkpt>
      <trkpt lat="46.31157" lon="4.45083">
        <ele>630.28149414062</ele>
        <time>2019-01-19T15:09:12Z</time>
      </trkpt>
      <trkpt lat="46.31149" lon="4.45096">
        <ele>629.80078125</ele>
        <time>2019-01-19T15:09:15Z</time>
      </trkpt>
      <trkpt lat="46.31132" lon="4.45111">
        <ele>625.95556640625</ele>
        <time>2019-01-19T15:09:19Z</time>
      </trkpt>
      <trkpt lat="46.31121" lon="4.45132">
        <ele>624.03295898438</ele>
        <time>2019-01-19T15:09:22Z</time>
      </trkpt>
      <trkpt lat="46.31113" lon="4.45148">
        <ele>624.99438476562</ele>
        <time>2019-01-19T15:09:25Z</time>
      </trkpt>
      <trkpt lat="46.31113" lon="4.45168">
        <ele>617.7841796875</ele>
        <time>2019-01-19T15:09:29Z</time>
      </trkpt>
      <trkpt lat="46.31121" lon="4.45181">
        <ele>615.38110351562</ele>
        <time>2019-01-19T15:09:33Z</time>
      </trkpt>
      <trkpt lat="46.31117" lon="4.4521">
        <ele>609.61328125</ele>
        <time>2019-01-19T15:09:37Z</time>
      </trkpt>
      <trkpt lat="46.31123" lon="4.45227">
        <ele>609.13256835938</ele>
        <time>2019-01-19T15:09:40Z</time>
      </trkpt>
      <trkpt lat="46.31131" lon="4.4524">
        <ele>607.69067382812</ele>
        <time>2019-01-19T15:09:44Z</time>
      </trkpt>
      <trkpt lat="46.31139" lon="4.45258">
        <ele>604.806640625</ele>
        <time>2019-01-19T15:09:48Z</time>
      </trkpt>
      <trkpt lat="46.31141" lon="4.45286">
        <ele>601.92260742188</ele>
        <time>2019-01-19T15:09:52Z</time>
      </trkpt>
      <trkpt lat="46.31145" lon="4.45306">
        <ele>600</ele>
        <time>2019-01-19T15:09:54Z</time>
      </trkpt>
      <trkpt lat="46.31151" lon="4.45326">
        <ele>598.55786132812</ele>
        <time>2019-01-19T15:09:56Z</time>
      </trkpt>
      <trkpt lat="46.31152" lon="4.45349">
        <ele>597.5966796875</ele>
        <time>2019-01-19T15:09:58Z</time>
      </trkpt>
      <trkpt lat="46.31152" lon="4.45365">
        <ele>594.23217773438</ele>
        <time>2019-01-19T15:10:00Z</time>
      </trkpt>
      <trkpt lat="46.31151" lon="4.45384">
        <ele>594.23217773438</ele>
        <time>2019-01-19T15:10:03Z</time>
      </trkpt>
      <trkpt lat="46.31154" lon="4.45409">
        <ele>593.27075195312</ele>
        <time>2019-01-19T15:10:06Z</time>
      </trkpt>
      <trkpt lat="46.31158" lon="4.45428">
        <ele>592.79028320312</ele>
        <time>2019-01-19T15:10:11Z</time>
      </trkpt>
      <trkpt lat="46.31171" lon="4.45438">
        <ele>591.82885742188</ele>
        <time>2019-01-19T15:10:41Z</time>
      </trkpt>
      <trkpt lat="46.31178" lon="4.45421">
        <ele>593.27075195312</ele>
        <time>2019-01-19T15:10:44Z</time>
      </trkpt>
      <trkpt lat="46.31185" lon="4.45406">
        <ele>593.27075195312</ele>
        <time>2019-01-19T15:10:46Z</time>
      </trkpt>
      <trkpt lat="46.31191" lon="4.45389">
        <ele>592.79028320312</ele>
        <time>2019-01-19T15:10:48Z</time>
      </trkpt>
      <trkpt lat="46.31195" lon="4.45376">
        <ele>593.75146484375</ele>
        <time>2019-01-19T15:10:50Z</time>
      </trkpt>
      <trkpt lat="46.31201" lon="4.45356">
        <ele>594.23217773438</ele>
        <time>2019-01-19T15:10:53Z</time>
      </trkpt>
      <trkpt lat="46.31204" lon="4.45343">
        <ele>594.71264648438</ele>
        <time>2019-01-19T15:10:55Z</time>
      </trkpt>
      <trkpt lat="46.31209" lon="4.45327">
        <ele>594.71264648438</ele>
        <time>2019-01-19T15:10:58Z</time>
      </trkpt>
      <trkpt lat="46.31217" lon="4.45315">
        <ele>588.46435546875</ele>
        <time>2019-01-19T15:11:02Z</time>
      </trkpt>
      <trkpt lat="46.31229" lon="4.45305">
        <ele>587.02197265625</ele>
        <time>2019-01-19T15:11:06Z</time>
      </trkpt>
      <trkpt lat="46.31238" lon="4.45297">
        <ele>583.65747070312</ele>
        <time>2019-01-19T15:11:09Z</time>
      </trkpt>
      <trkpt lat="46.31253" lon="4.45286">
        <ele>581.25439453125</ele>
        <time>2019-01-19T15:11:13Z</time>
      </trkpt>
      <trkpt lat="46.31267" lon="4.45273">
        <ele>577.4091796875</ele>
        <time>2019-01-19T15:11:17Z</time>
      </trkpt>
      <trkpt lat="46.31292" lon="4.45258">
        <ele>572.6025390625</ele>
        <time>2019-01-19T15:11:23Z</time>
      </trkpt>
      <trkpt lat="46.31306" lon="4.45252">
        <ele>571.16040039062</ele>
        <time>2019-01-19T15:11:28Z</time>
      </trkpt>
      <trkpt lat="46.3131" lon="4.45259">
        <ele>568.75708007812</ele>
        <time>2019-01-19T15:11:39Z</time>
      </trkpt>
      <trkpt lat="46.31312" lon="4.45276">
        <ele>564.91186523438</ele>
        <time>2019-01-19T15:11:46Z</time>
      </trkpt>
      <trkpt lat="46.3131" lon="4.45309">
        <ele>563.46997070312</ele>
        <time>2019-01-19T15:11:55Z</time>
      </trkpt>
      <trkpt lat="46.31317" lon="4.45341">
        <ele>560.10522460938</ele>
        <time>2019-01-19T15:12:04Z</time>
      </trkpt>
      <trkpt lat="46.31337" lon="4.45383">
        <ele>551.45336914062</ele>
        <time>2019-01-19T15:13:06Z</time>
      </trkpt>
      <trkpt lat="46.31345" lon="4.45402">
        <ele>548.0888671875</ele>
        <time>2019-01-19T15:13:11Z</time>
      </trkpt>
      <trkpt lat="46.31346" lon="4.4542">
        <ele>547.60815429688</ele>
        <time>2019-01-19T15:13:14Z</time>
      </trkpt>
      <trkpt lat="46.31353" lon="4.45451">
        <ele>546.64685058594</ele>
        <time>2019-01-19T15:13:17Z</time>
      </trkpt>
      <trkpt lat="46.31356" lon="4.4547">
        <ele>545.685546875</ele>
        <time>2019-01-19T15:13:20Z</time>
      </trkpt>
      <trkpt lat="46.31354" lon="4.45495">
        <ele>546.16625976562</ele>
        <time>2019-01-19T15:13:23Z</time>
      </trkpt>
      <trkpt lat="46.3135" lon="4.45511">
        <ele>546.64685058594</ele>
        <time>2019-01-19T15:13:25Z</time>
      </trkpt>
      <trkpt lat="46.3135" lon="4.4553">
        <ele>547.12744140625</ele>
        <time>2019-01-19T15:13:27Z</time>
      </trkpt>
      <trkpt lat="46.3135" lon="4.45556">
        <ele>547.60815429688</ele>
        <time>2019-01-19T15:13:30Z</time>
      </trkpt>
      <trkpt lat="46.31349" lon="4.45577">
        <ele>547.12744140625</ele>
        <time>2019-01-19T15:13:33Z</time>
      </trkpt>
      <trkpt lat="46.31348" lon="4.45599">
        <ele>547.60815429688</ele>
        <time>2019-01-19T15:13:36Z</time>
      </trkpt>
      <trkpt lat="46.3135" lon="4.45624">
        <ele>544.24365234375</ele>
        <time>2019-01-19T15:13:38Z</time>
      </trkpt>
      <trkpt lat="46.31351" lon="4.45647">
        <ele>544.24365234375</ele>
        <time>2019-01-19T15:13:40Z</time>
      </trkpt>
      <trkpt lat="46.31351" lon="4.45664">
        <ele>544.24365234375</ele>
        <time>2019-01-19T15:13:42Z</time>
      </trkpt>
      <trkpt lat="46.31356" lon="4.45682">
        <ele>542.32092285156</ele>
        <time>2019-01-19T15:13:45Z</time>
      </trkpt>
      <trkpt lat="46.31359" lon="4.45697">
        <ele>541.84020996094</ele>
        <time>2019-01-19T15:13:47Z</time>
      </trkpt>
      <trkpt lat="46.31361" lon="4.45713">
        <ele>540.39831542969</ele>
        <time>2019-01-19T15:13:49Z</time>
      </trkpt>
      <trkpt lat="46.31363" lon="4.45726">
        <ele>539.91760253906</ele>
        <time>2019-01-19T15:13:51Z</time>
      </trkpt>
      <trkpt lat="46.31364" lon="4.4574">
        <ele>538.95629882812</ele>
        <time>2019-01-19T15:13:53Z</time>
      </trkpt>
      <trkpt lat="46.31366" lon="4.45754">
        <ele>536.07238769531</ele>
        <time>2019-01-19T15:13:55Z</time>
      </trkpt>
      <trkpt lat="46.31372" lon="4.45772">
        <ele>532.70776367188</ele>
        <time>2019-01-19T15:13:58Z</time>
      </trkpt>
      <trkpt lat="46.31377" lon="4.45789">
        <ele>530.78515625</ele>
        <time>2019-01-19T15:14:01Z</time>
      </trkpt>
      <trkpt lat="46.3138" lon="4.45806">
        <ele>528.3818359375</ele>
        <time>2019-01-19T15:14:04Z</time>
      </trkpt>
      <trkpt lat="46.3138" lon="4.45822">
        <ele>525.97839355469</ele>
        <time>2019-01-19T15:14:07Z</time>
      </trkpt>
      <trkpt lat="46.31385" lon="4.45838">
        <ele>523.09460449219</ele>
        <time>2019-01-19T15:14:10Z</time>
      </trkpt>
      <trkpt lat="46.31393" lon="4.45853">
        <ele>520.21057128906</ele>
        <time>2019-01-19T15:14:13Z</time>
      </trkpt>
      <trkpt lat="46.31397" lon="4.45866">
        <ele>518.28784179688</ele>
        <time>2019-01-19T15:14:15Z</time>
      </trkpt>
      <trkpt lat="46.314" lon="4.45882">
        <ele>518.28784179688</ele>
        <time>2019-01-19T15:14:17Z</time>
      </trkpt>
      <trkpt lat="46.31404" lon="4.45897">
        <ele>512.03942871094</ele>
        <time>2019-01-19T15:14:19Z</time>
      </trkpt>
      <trkpt lat="46.31408" lon="4.4591">
        <ele>514.44262695312</ele>
        <time>2019-01-19T15:14:21Z</time>
      </trkpt>
      <trkpt lat="46.3141" lon="4.45925">
        <ele>514.44262695312</ele>
        <time>2019-01-19T15:14:24Z</time>
      </trkpt>
      <trkpt lat="46.31406" lon="4.45939">
        <ele>510.59729003906</ele>
        <time>2019-01-19T15:14:27Z</time>
      </trkpt>
      <trkpt lat="46.31399" lon="4.45955">
        <ele>508.19409179688</ele>
        <time>2019-01-19T15:14:30Z</time>
      </trkpt>
      <trkpt lat="46.31394" lon="4.45969">
        <ele>506.75207519531</ele>
        <time>2019-01-19T15:14:32Z</time>
      </trkpt>
      <trkpt lat="46.31389" lon="4.4598">
        <ele>505.31018066406</ele>
        <time>2019-01-19T15:14:34Z</time>
      </trkpt>
      <trkpt lat="46.31385" lon="4.45994">
        <ele>504.34887695312</ele>
        <time>2019-01-19T15:14:36Z</time>
      </trkpt>
      <trkpt lat="46.31374" lon="4.4601">
        <ele>502.90673828125</ele>
        <time>2019-01-19T15:14:39Z</time>
      </trkpt>
      <trkpt lat="46.31367" lon="4.46022">
        <ele>500.50354003906</ele>
        <time>2019-01-19T15:14:43Z</time>
      </trkpt>
      <trkpt lat="46.31363" lon="4.46033">
        <ele>500.02294921875</ele>
        <time>2019-01-19T15:14:48Z</time>
      </trkpt>
      <trkpt lat="46.31354" lon="4.46035">
        <ele>500.98413085938</ele>
        <time>2019-01-19T15:14:51Z</time>
      </trkpt>
      <trkpt lat="46.31341" lon="4.46035">
        <ele>501.94555664062</ele>
        <time>2019-01-19T15:14:53Z</time>
      </trkpt>
      <trkpt lat="46.31332" lon="4.46037">
        <ele>505.79089355469</ele>
        <time>2019-01-19T15:14:55Z</time>
      </trkpt>
      <trkpt lat="46.31323" lon="4.46041">
        <ele>509.15539550781</ele>
        <time>2019-01-19T15:14:57Z</time>
      </trkpt>
      <trkpt lat="46.31311" lon="4.46043">
        <ele>509.63610839844</ele>
        <time>2019-01-19T15:14:59Z</time>
      </trkpt>
      <trkpt lat="46.313" lon="4.46043">
        <ele>511.07800292969</ele>
        <time>2019-01-19T15:15:01Z</time>
      </trkpt>
      <trkpt lat="46.31289" lon="4.46041">
        <ele>511.07800292969</ele>
        <time>2019-01-19T15:15:03Z</time>
      </trkpt>
      <trkpt lat="46.31279" lon="4.46039">
        <ele>512.03942871094</ele>
        <time>2019-01-19T15:15:05Z</time>
      </trkpt>
      <trkpt lat="46.3127" lon="4.46036">
        <ele>513.00073242188</ele>
        <time>2019-01-19T15:15:07Z</time>
      </trkpt>
      <trkpt lat="46.31258" lon="4.46031">
        <ele>514.44262695312</ele>
        <time>2019-01-19T15:15:10Z</time>
      </trkpt>
      <trkpt lat="46.31245" lon="4.46028">
        <ele>515.88464355469</ele>
        <time>2019-01-19T15:15:13Z</time>
      </trkpt>
      <trkpt lat="46.31232" lon="4.46028">
        <ele>519.72985839844</ele>
        <time>2019-01-19T15:15:16Z</time>
      </trkpt>
      <trkpt lat="46.31217" lon="4.46025">
        <ele>519.24926757812</ele>
        <time>2019-01-19T15:15:19Z</time>
      </trkpt>
      <trkpt lat="46.31206" lon="4.4602">
        <ele>520.69128417969</ele>
        <time>2019-01-19T15:15:22Z</time>
      </trkpt>
      <trkpt lat="46.31193" lon="4.46011">
        <ele>522.13317871094</ele>
        <time>2019-01-19T15:15:25Z</time>
      </trkpt>
      <trkpt lat="46.31184" lon="4.46006">
        <ele>524.05578613281</ele>
        <time>2019-01-19T15:15:27Z</time>
      </trkpt>
      <trkpt lat="46.31174" lon="4.46003">
        <ele>525.49780273438</ele>
        <time>2019-01-19T15:15:29Z</time>
      </trkpt>
      <trkpt lat="46.31162" lon="4.46002">
        <ele>529.34313964844</ele>
        <time>2019-01-19T15:15:31Z</time>
      </trkpt>
      <trkpt lat="46.31152" lon="4.46001">
        <ele>532.22705078125</ele>
        <time>2019-01-19T15:15:33Z</time>
      </trkpt>
      <trkpt lat="46.31141" lon="4.45998">
        <ele>535.59155273438</ele>
        <time>2019-01-19T15:15:36Z</time>
      </trkpt>
      <trkpt lat="46.31127" lon="4.45991">
        <ele>537.51428222656</ele>
        <time>2019-01-19T15:15:39Z</time>
      </trkpt>
      <trkpt lat="46.31118" lon="4.45982">
        <ele>539.43688964844</ele>
        <time>2019-01-19T15:15:41Z</time>
      </trkpt>
      <trkpt lat="46.31108" lon="4.4597">
        <ele>541.84020996094</ele>
        <time>2019-01-19T15:15:43Z</time>
      </trkpt>
      <trkpt lat="46.31098" lon="4.4596">
        <ele>544.72424316406</ele>
        <time>2019-01-19T15:15:45Z</time>
      </trkpt>
      <trkpt lat="46.31086" lon="4.4594">
        <ele>547.12744140625</ele>
        <time>2019-01-19T15:15:48Z</time>
      </trkpt>
      <trkpt lat="46.31068" lon="4.45929">
        <ele>549.05004882812</ele>
        <time>2019-01-19T15:15:50Z</time>
      </trkpt>
      <trkpt lat="46.31056" lon="4.45919">
        <ele>551.45336914062</ele>
        <time>2019-01-19T15:15:52Z</time>
      </trkpt>
      <trkpt lat="46.31044" lon="4.45905">
        <ele>553.3759765625</ele>
        <time>2019-01-19T15:15:54Z</time>
      </trkpt>
      <trkpt lat="46.31036" lon="4.45898">
        <ele>553.85668945312</ele>
        <time>2019-01-19T15:15:56Z</time>
      </trkpt>
      <trkpt lat="46.31028" lon="4.45889">
        <ele>556.26000976562</ele>
        <time>2019-01-19T15:15:59Z</time>
      </trkpt>
      <trkpt lat="46.31022" lon="4.45873">
        <ele>558.18286132812</ele>
        <time>2019-01-19T15:16:02Z</time>
      </trkpt>
      <trkpt lat="46.31017" lon="4.45858">
        <ele>560.10522460938</ele>
        <time>2019-01-19T15:16:05Z</time>
      </trkpt>
      <trkpt lat="46.3101" lon="4.45841">
        <ele>561.06665039062</ele>
        <time>2019-01-19T15:16:08Z</time>
      </trkpt>
      <trkpt lat="46.31002" lon="4.45823">
        <ele>562.02807617188</ele>
        <time>2019-01-19T15:16:11Z</time>
      </trkpt>
      <trkpt lat="46.30998" lon="4.45812">
        <ele>562.50854492188</ele>
        <time>2019-01-19T15:16:14Z</time>
      </trkpt>
      <trkpt lat="46.30991" lon="4.45822">
        <ele>562.50854492188</ele>
        <time>2019-01-19T15:16:24Z</time>
      </trkpt>
      <trkpt lat="46.30985" lon="4.45835">
        <ele>561.54736328125</ele>
        <time>2019-01-19T15:16:26Z</time>
      </trkpt>
      <trkpt lat="46.30979" lon="4.45847">
        <ele>560.10522460938</ele>
        <time>2019-01-19T15:16:28Z</time>
      </trkpt>
      <trkpt lat="46.30973" lon="4.4586">
        <ele>558.66333007812</ele>
        <time>2019-01-19T15:16:30Z</time>
      </trkpt>
      <trkpt lat="46.30967" lon="4.45873">
        <ele>556.74072265625</ele>
        <time>2019-01-19T15:16:32Z</time>
      </trkpt>
      <trkpt lat="46.30961" lon="4.45885">
        <ele>554.33740234375</ele>
        <time>2019-01-19T15:16:34Z</time>
      </trkpt>
      <trkpt lat="46.30955" lon="4.45896">
        <ele>553.3759765625</ele>
        <time>2019-01-19T15:16:36Z</time>
      </trkpt>
      <trkpt lat="46.30945" lon="4.45913">
        <ele>551.93408203125</ele>
        <time>2019-01-19T15:16:38Z</time>
      </trkpt>
      <trkpt lat="46.30936" lon="4.4593">
        <ele>550.01147460938</ele>
        <time>2019-01-19T15:16:40Z</time>
      </trkpt>
      <trkpt lat="46.30929" lon="4.45945">
        <ele>547.60815429688</ele>
        <time>2019-01-19T15:16:42Z</time>
      </trkpt>
      <trkpt lat="46.30922" lon="4.45963">
        <ele>545.685546875</ele>
        <time>2019-01-19T15:16:44Z</time>
      </trkpt>
      <trkpt lat="46.30916" lon="4.45979">
        <ele>543.28210449219</ele>
        <time>2019-01-19T15:16:46Z</time>
      </trkpt>
      <trkpt lat="46.30909" lon="4.45997">
        <ele>540.87890625</ele>
        <time>2019-01-19T15:16:48Z</time>
      </trkpt>
      <trkpt lat="46.30902" lon="4.46012">
        <ele>539.43688964844</ele>
        <time>2019-01-19T15:16:50Z</time>
      </trkpt>
      <trkpt lat="46.30892" lon="4.46033">
        <ele>535.59155273438</ele>
        <time>2019-01-19T15:16:52Z</time>
      </trkpt>
      <trkpt lat="46.30885" lon="4.46049">
        <ele>533.6689453125</ele>
        <time>2019-01-19T15:16:54Z</time>
      </trkpt>
      <trkpt lat="46.30879" lon="4.46062">
        <ele>532.70776367188</ele>
        <time>2019-01-19T15:16:56Z</time>
      </trkpt>
      <trkpt lat="46.30873" lon="4.46078">
        <ele>531.26574707031</ele>
        <time>2019-01-19T15:16:59Z</time>
      </trkpt>
      <trkpt lat="46.30863" lon="4.46083">
        <ele>531.26574707031</ele>
        <time>2019-01-19T15:17:05Z</time>
      </trkpt>
      <trkpt lat="46.30853" lon="4.46071">
        <ele>532.22705078125</ele>
        <time>2019-01-19T15:17:08Z</time>
      </trkpt>
      <trkpt lat="46.30846" lon="4.4606">
        <ele>533.6689453125</ele>
        <time>2019-01-19T15:17:10Z</time>
      </trkpt>
      <trkpt lat="46.30837" lon="4.46045">
        <ele>535.11096191406</ele>
        <time>2019-01-19T15:17:12Z</time>
      </trkpt>
      <trkpt lat="46.30828" lon="4.46033">
        <ele>535.59155273438</ele>
        <time>2019-01-19T15:17:14Z</time>
      </trkpt>
      <trkpt lat="46.30819" lon="4.46022">
        <ele>532.70776367188</ele>
        <time>2019-01-19T15:17:16Z</time>
      </trkpt>
      <trkpt lat="46.3081" lon="4.46011">
        <ele>533.6689453125</ele>
        <time>2019-01-19T15:17:18Z</time>
      </trkpt>
      <trkpt lat="46.30802" lon="4.45999">
        <ele>532.70776367188</ele>
        <time>2019-01-19T15:17:20Z</time>
      </trkpt>
      <trkpt lat="46.30794" lon="4.45987">
        <ele>531.74633789062</ele>
        <time>2019-01-19T15:17:22Z</time>
      </trkpt>
      <trkpt lat="46.30789" lon="4.45977">
        <ele>530.30444335938</ele>
        <time>2019-01-19T15:17:24Z</time>
      </trkpt>
      <trkpt lat="46.30783" lon="4.45961">
        <ele>529.82373046875</ele>
        <time>2019-01-19T15:17:27Z</time>
      </trkpt>
      <trkpt lat="46.30778" lon="4.45947">
        <ele>526.93981933594</ele>
        <time>2019-01-19T15:17:30Z</time>
      </trkpt>
      <trkpt lat="46.30775" lon="4.45934">
        <ele>525.97839355469</ele>
        <time>2019-01-19T15:17:33Z</time>
      </trkpt>
      <trkpt lat="46.30772" lon="4.45924">
        <ele>525.01721191406</ele>
        <time>2019-01-19T15:17:37Z</time>
      </trkpt>
      <trkpt lat="46.30766" lon="4.45907">
        <ele>524.53649902344</ele>
        <time>2019-01-19T15:17:40Z</time>
      </trkpt>
      <trkpt lat="46.3076" lon="4.45888">
        <ele>522.61389160156</ele>
        <time>2019-01-19T15:17:43Z</time>
      </trkpt>
      <trkpt lat="46.30756" lon="4.45871">
        <ele>521.65258789062</ele>
        <time>2019-01-19T15:17:45Z</time>
      </trkpt>
      <trkpt lat="46.30753" lon="4.45855">
        <ele>519.72985839844</ele>
        <time>2019-01-19T15:17:47Z</time>
      </trkpt>
      <trkpt lat="46.3075" lon="4.4584">
        <ele>517.32666015625</ele>
        <time>2019-01-19T15:17:49Z</time>
      </trkpt>
      <trkpt lat="46.30746" lon="4.45828">
        <ele>515.40405273438</ele>
        <time>2019-01-19T15:17:52Z</time>
      </trkpt>
      <trkpt lat="46.30739" lon="4.45811">
        <ele>512.03942871094</ele>
        <time>2019-01-19T15:17:57Z</time>
      </trkpt>
      <trkpt lat="46.30734" lon="4.45797">
        <ele>512.52001953125</ele>
        <time>2019-01-19T15:18:01Z</time>
      </trkpt>
      <trkpt lat="46.30727" lon="4.45779">
        <ele>509.15539550781</ele>
        <time>2019-01-19T15:18:05Z</time>
      </trkpt>
      <trkpt lat="46.30722" lon="4.45766">
        <ele>509.15539550781</ele>
        <time>2019-01-19T15:18:09Z</time>
      </trkpt>
      <trkpt lat="46.30716" lon="4.45751">
        <ele>508.19409179688</ele>
        <time>2019-01-19T15:18:13Z</time>
      </trkpt>
      <trkpt lat="46.3071" lon="4.45738">
        <ele>505.79089355469</ele>
        <time>2019-01-19T15:18:17Z</time>
      </trkpt>
      <trkpt lat="46.30703" lon="4.45722">
        <ele>505.31018066406</ele>
        <time>2019-01-19T15:18:21Z</time>
      </trkpt>
      <trkpt lat="46.30697" lon="4.45711">
        <ele>505.31018066406</ele>
        <time>2019-01-19T15:18:24Z</time>
      </trkpt>
      <trkpt lat="46.30688" lon="4.457">
        <ele>504.82946777344</ele>
        <time>2019-01-19T15:18:28Z</time>
      </trkpt>
      <trkpt lat="46.30677" lon="4.45696">
        <ele>503.8681640625</ele>
        <time>2019-01-19T15:18:33Z</time>
      </trkpt>
      <trkpt lat="46.30666" lon="4.45698">
        <ele>503.8681640625</ele>
        <time>2019-01-19T15:18:38Z</time>
      </trkpt>
      <trkpt lat="46.30649" lon="4.45702">
        <ele>504.34887695312</ele>
        <time>2019-01-19T15:18:42Z</time>
      </trkpt>
      <trkpt lat="46.30633" lon="4.45702">
        <ele>504.82946777344</ele>
        <time>2019-01-19T15:18:46Z</time>
      </trkpt>
      <trkpt lat="46.30625" lon="4.45694">
        <ele>505.31018066406</ele>
        <time>2019-01-19T15:18:49Z</time>
      </trkpt>
      <trkpt lat="46.30618" lon="4.45681">
        <ele>506.75207519531</ele>
        <time>2019-01-19T15:18:52Z</time>
      </trkpt>
      <trkpt lat="46.30613" lon="4.4567">
        <ele>507.23278808594</ele>
        <time>2019-01-19T15:18:54Z</time>
      </trkpt>
      <trkpt lat="46.30611" lon="4.45649">
        <ele>508.67468261719</ele>
        <time>2019-01-19T15:18:57Z</time>
      </trkpt>
      <trkpt lat="46.3061" lon="4.45633">
        <ele>511.07800292969</ele>
        <time>2019-01-19T15:18:59Z</time>
      </trkpt>
      <trkpt lat="46.30608" lon="4.45616">
        <ele>511.07800292969</ele>
        <time>2019-01-19T15:19:01Z</time>
      </trkpt>
      <trkpt lat="46.30607" lon="4.45598">
        <ele>512.03942871094</ele>
        <time>2019-01-19T15:19:03Z</time>
      </trkpt>
      <trkpt lat="46.30603" lon="4.45579">
        <ele>512.03942871094</ele>
        <time>2019-01-19T15:19:05Z</time>
      </trkpt>
      <trkpt lat="46.306" lon="4.45564">
        <ele>514.44262695312</ele>
        <time>2019-01-19T15:19:08Z</time>
      </trkpt>
      <trkpt lat="46.30598" lon="4.45549">
        <ele>516.365234375</ele>
        <time>2019-01-19T15:19:11Z</time>
      </trkpt>
      <trkpt lat="46.30598" lon="4.45543">
        <ele>517.80725097656</ele>
        <time>2019-01-19T15:19:15Z</time>
      </trkpt>
      <trkpt lat="46.30581" lon="4.45539">
        <ele>520.69128417969</ele>
        <time>2019-01-19T15:19:19Z</time>
      </trkpt>
      <trkpt lat="46.30572" lon="4.4553">
        <ele>521.17199707031</ele>
        <time>2019-01-19T15:19:23Z</time>
      </trkpt>
      <trkpt lat="46.3057" lon="4.45528">
        <ele>522.13317871094</ele>
        <time>2019-01-19T15:19:26Z</time>
      </trkpt>
      <trkpt lat="46.30548" lon="4.45514">
        <ele>522.61389160156</ele>
        <time>2019-01-19T15:19:29Z</time>
      </trkpt>
      <trkpt lat="46.30536" lon="4.45511">
        <ele>522.61389160156</ele>
        <time>2019-01-19T15:19:31Z</time>
      </trkpt>
      <trkpt lat="46.30523" lon="4.45508">
        <ele>523.09460449219</ele>
        <time>2019-01-19T15:19:33Z</time>
      </trkpt>
      <trkpt lat="46.30518" lon="4.45506">
        <ele>524.05578613281</ele>
        <time>2019-01-19T15:19:35Z</time>
      </trkpt>
      <trkpt lat="46.30497" lon="4.4549">
        <ele>524.05578613281</ele>
        <time>2019-01-19T15:19:37Z</time>
      </trkpt>
      <trkpt lat="46.30485" lon="4.4548">
        <ele>524.53649902344</ele>
        <time>2019-01-19T15:19:39Z</time>
      </trkpt>
      <trkpt lat="46.30471" lon="4.4547">
        <ele>525.01721191406</ele>
        <time>2019-01-19T15:19:41Z</time>
      </trkpt>
      <trkpt lat="46.3046" lon="4.4546">
        <ele>525.97839355469</ele>
        <time>2019-01-19T15:19:43Z</time>
      </trkpt>
      <trkpt lat="46.30449" lon="4.45451">
        <ele>525.97839355469</ele>
        <time>2019-01-19T15:19:45Z</time>
      </trkpt>
      <trkpt lat="46.30437" lon="4.45445">
        <ele>526.93981933594</ele>
        <time>2019-01-19T15:19:47Z</time>
      </trkpt>
      <trkpt lat="46.30424" lon="4.45437">
        <ele>527.90100097656</ele>
        <time>2019-01-19T15:19:49Z</time>
      </trkpt>
      <trkpt lat="46.30412" lon="4.4543">
        <ele>527.42041015625</ele>
        <time>2019-01-19T15:19:51Z</time>
      </trkpt>
      <trkpt lat="46.30405" lon="4.45429">
        <ele>529.34313964844</ele>
        <time>2019-01-19T15:19:53Z</time>
      </trkpt>
      <trkpt lat="46.30396" lon="4.45438">
        <ele>529.34313964844</ele>
        <time>2019-01-19T15:19:55Z</time>
      </trkpt>
      <trkpt lat="46.30388" lon="4.45451">
        <ele>529.82373046875</ele>
        <time>2019-01-19T15:19:57Z</time>
      </trkpt>
      <trkpt lat="46.30379" lon="4.45468">
        <ele>532.22705078125</ele>
        <time>2019-01-19T15:19:59Z</time>
      </trkpt>
      <trkpt lat="46.30378" lon="4.45477">
        <ele>531.74633789062</ele>
        <time>2019-01-19T15:20:00Z</time>
      </trkpt>
      <trkpt lat="46.30374" lon="4.45502">
        <ele>533.6689453125</ele>
        <time>2019-01-19T15:20:02Z</time>
      </trkpt>
      <trkpt lat="46.30368" lon="4.45529">
        <ele>534.14965820312</ele>
        <time>2019-01-19T15:20:04Z</time>
      </trkpt>
      <trkpt lat="46.30359" lon="4.45553">
        <ele>536.07238769531</ele>
        <time>2019-01-19T15:20:06Z</time>
      </trkpt>
      <trkpt lat="46.3035" lon="4.45578">
        <ele>537.03369140625</ele>
        <time>2019-01-19T15:20:08Z</time>
      </trkpt>
      <trkpt lat="46.30343" lon="4.45595">
        <ele>537.03369140625</ele>
        <time>2019-01-19T15:20:10Z</time>
      </trkpt>
      <trkpt lat="46.30338" lon="4.45608">
        <ele>537.51428222656</ele>
        <time>2019-01-19T15:20:12Z</time>
      </trkpt>
      <trkpt lat="46.30332" lon="4.45624">
        <ele>537.51428222656</ele>
        <time>2019-01-19T15:20:15Z</time>
      </trkpt>
      <trkpt lat="46.30326" lon="4.45644">
        <ele>537.03369140625</ele>
        <time>2019-01-19T15:20:18Z</time>
      </trkpt>
      <trkpt lat="46.3032" lon="4.45664">
        <ele>539.91760253906</ele>
        <time>2019-01-19T15:20:20Z</time>
      </trkpt>
      <trkpt lat="46.30316" lon="4.45677">
        <ele>541.84020996094</ele>
        <time>2019-01-19T15:20:21Z</time>
      </trkpt>
      <trkpt lat="46.3031" lon="4.4569">
        <ele>541.35949707031</ele>
        <time>2019-01-19T15:20:22Z</time>
      </trkpt>
      <trkpt lat="46.30305" lon="4.45701">
        <ele>541.84020996094</ele>
        <time>2019-01-19T15:20:23Z</time>
      </trkpt>
      <trkpt lat="46.30299" lon="4.45712">
        <ele>542.32092285156</ele>
        <time>2019-01-19T15:20:24Z</time>
      </trkpt>
      <trkpt lat="46.30288" lon="4.4573">
        <ele>543.28210449219</ele>
        <time>2019-01-19T15:20:26Z</time>
      </trkpt>
      <trkpt lat="46.30277" lon="4.45748">
        <ele>544.72424316406</ele>
        <time>2019-01-19T15:20:28Z</time>
      </trkpt>
      <trkpt lat="46.30271" lon="4.45759">
        <ele>546.16625976562</ele>
        <time>2019-01-19T15:20:29Z</time>
      </trkpt>
      <trkpt lat="46.30261" lon="4.45781">
        <ele>546.64685058594</ele>
        <time>2019-01-19T15:20:31Z</time>
      </trkpt>
      <trkpt lat="46.30249" lon="4.45797">
        <ele>549.53076171875</ele>
        <time>2019-01-19T15:20:33Z</time>
      </trkpt>
      <trkpt lat="46.30238" lon="4.45812">
        <ele>551.93408203125</ele>
        <time>2019-01-19T15:20:35Z</time>
      </trkpt>
      <trkpt lat="46.30227" lon="4.45825">
        <ele>554.33740234375</ele>
        <time>2019-01-19T15:20:37Z</time>
      </trkpt>
      <trkpt lat="46.30216" lon="4.45842">
        <ele>554.33740234375</ele>
        <time>2019-01-19T15:20:39Z</time>
      </trkpt>
      <trkpt lat="46.30205" lon="4.45857">
        <ele>557.22143554688</ele>
        <time>2019-01-19T15:20:41Z</time>
      </trkpt>
      <trkpt lat="46.30192" lon="4.45871">
        <ele>558.18286132812</ele>
        <time>2019-01-19T15:20:43Z</time>
      </trkpt>
      <trkpt lat="46.30182" lon="4.45883">
        <ele>560.5859375</ele>
        <time>2019-01-19T15:20:45Z</time>
      </trkpt>
      <trkpt lat="46.30174" lon="4.45896">
        <ele>562.9892578125</ele>
        <time>2019-01-19T15:20:47Z</time>
      </trkpt>
      <trkpt lat="46.30164" lon="4.45913">
        <ele>562.9892578125</ele>
        <time>2019-01-19T15:20:49Z</time>
      </trkpt>
      <trkpt lat="46.30152" lon="4.45929">
        <ele>565.87329101562</ele>
        <time>2019-01-19T15:20:51Z</time>
      </trkpt>
      <trkpt lat="46.30139" lon="4.45947">
        <ele>566.35375976562</ele>
        <time>2019-01-19T15:20:53Z</time>
      </trkpt>
      <trkpt lat="46.30127" lon="4.45958">
        <ele>567.31518554688</ele>
        <time>2019-01-19T15:20:55Z</time>
      </trkpt>
      <trkpt lat="46.30116" lon="4.45967">
        <ele>568.75708007812</ele>
        <time>2019-01-19T15:20:57Z</time>
      </trkpt>
      <trkpt lat="46.30106" lon="4.45974">
        <ele>570.19897460938</ele>
        <time>2019-01-19T15:20:59Z</time>
      </trkpt>
      <trkpt lat="46.30089" lon="4.45985">
        <ele>573.56396484375</ele>
        <time>2019-01-19T15:21:02Z</time>
      </trkpt>
      <trkpt lat="46.30076" lon="4.45985">
        <ele>575.005859375</ele>
        <time>2019-01-19T15:21:04Z</time>
      </trkpt>
      <trkpt lat="46.30062" lon="4.45984">
        <ele>576.44775390625</ele>
        <time>2019-01-19T15:21:06Z</time>
      </trkpt>
      <trkpt lat="46.30044" lon="4.45981">
        <ele>576.92846679688</ele>
        <time>2019-01-19T15:21:08Z</time>
      </trkpt>
      <trkpt lat="46.30029" lon="4.45975">
        <ele>578.85107421875</ele>
        <time>2019-01-19T15:21:10Z</time>
      </trkpt>
      <trkpt lat="46.30027" lon="4.45974">
        <ele>580.29296875</ele>
        <time>2019-01-19T15:21:12Z</time>
      </trkpt>
      <trkpt lat="46.29999" lon="4.45963">
        <ele>581.25439453125</ele>
        <time>2019-01-19T15:21:14Z</time>
      </trkpt>
      <trkpt lat="46.29986" lon="4.45955">
        <ele>583.1767578125</ele>
        <time>2019-01-19T15:21:16Z</time>
      </trkpt>
      <trkpt lat="46.29973" lon="4.45949">
        <ele>585.099609375</ele>
        <time>2019-01-19T15:21:18Z</time>
      </trkpt>
      <trkpt lat="46.29959" lon="4.4594">
        <ele>586.54150390625</ele>
        <time>2019-01-19T15:21:20Z</time>
      </trkpt>
      <trkpt lat="46.29947" lon="4.45924">
        <ele>589.90625</ele>
        <time>2019-01-19T15:21:22Z</time>
      </trkpt>
      <trkpt lat="46.29936" lon="4.4591">
        <ele>593.27075195312</ele>
        <time>2019-01-19T15:21:24Z</time>
      </trkpt>
      <trkpt lat="46.29926" lon="4.45898">
        <ele>594.23217773438</ele>
        <time>2019-01-19T15:21:26Z</time>
      </trkpt>
      <trkpt lat="46.29921" lon="4.45874">
        <ele>597.11596679688</ele>
        <time>2019-01-19T15:21:28Z</time>
      </trkpt>
      <trkpt lat="46.29919" lon="4.45858">
        <ele>597.11596679688</ele>
        <time>2019-01-19T15:21:30Z</time>
      </trkpt>
      <trkpt lat="46.29915" lon="4.45843">
        <ele>598.55786132812</ele>
        <time>2019-01-19T15:21:32Z</time>
      </trkpt>
      <trkpt lat="46.29908" lon="4.45821">
        <ele>600</ele>
        <time>2019-01-19T15:21:34Z</time>
      </trkpt>
      <trkpt lat="46.29898" lon="4.45805">
        <ele>600.96118164062</ele>
        <time>2019-01-19T15:21:36Z</time>
      </trkpt>
      <trkpt lat="46.29887" lon="4.45795">
        <ele>600.96118164062</ele>
        <time>2019-01-19T15:21:38Z</time>
      </trkpt>
      <trkpt lat="46.2987" lon="4.45792">
        <ele>600.96118164062</ele>
        <time>2019-01-19T15:21:40Z</time>
      </trkpt>
      <trkpt lat="46.29859" lon="4.4579">
        <ele>601.92260742188</ele>
        <time>2019-01-19T15:21:42Z</time>
      </trkpt>
      <trkpt lat="46.29843" lon="4.45792">
        <ele>601.92260742188</ele>
        <time>2019-01-19T15:21:45Z</time>
      </trkpt>
      <trkpt lat="46.29831" lon="4.45794">
        <ele>601.92260742188</ele>
        <time>2019-01-19T15:21:47Z</time>
      </trkpt>
      <trkpt lat="46.29817" lon="4.458">
        <ele>602.40307617188</ele>
        <time>2019-01-19T15:21:49Z</time>
      </trkpt>
      <trkpt lat="46.29805" lon="4.45807">
        <ele>601.92260742188</ele>
        <time>2019-01-19T15:21:51Z</time>
      </trkpt>
      <trkpt lat="46.29796" lon="4.45816">
        <ele>600.96118164062</ele>
        <time>2019-01-19T15:21:53Z</time>
      </trkpt>
      <trkpt lat="46.29786" lon="4.45825">
        <ele>600.96118164062</ele>
        <time>2019-01-19T15:21:55Z</time>
      </trkpt>
      <trkpt lat="46.29778" lon="4.4583">
        <ele>600</ele>
        <time>2019-01-19T15:21:58Z</time>
      </trkpt>
      <trkpt lat="46.29771" lon="4.45832">
        <ele>600.48071289062</ele>
        <time>2019-01-19T15:22:03Z</time>
      </trkpt>
      <trkpt lat="46.29762" lon="4.45835">
        <ele>600.48071289062</ele>
        <time>2019-01-19T15:22:06Z</time>
      </trkpt>
      <trkpt lat="46.29751" lon="4.45837">
        <ele>600.48071289062</ele>
        <time>2019-01-19T15:22:09Z</time>
      </trkpt>
      <trkpt lat="46.29739" lon="4.45837">
        <ele>600.48071289062</ele>
        <time>2019-01-19T15:22:12Z</time>
      </trkpt>
      <trkpt lat="46.29729" lon="4.45837">
        <ele>600.48071289062</ele>
        <time>2019-01-19T15:22:14Z</time>
      </trkpt>
      <trkpt lat="46.29721" lon="4.45838">
        <ele>600.48071289062</ele>
        <time>2019-01-19T15:22:16Z</time>
      </trkpt>
      <trkpt lat="46.29712" lon="4.45848">
        <ele>600</ele>
        <time>2019-01-19T15:22:18Z</time>
      </trkpt>
      <trkpt lat="46.29707" lon="4.45858">
        <ele>599.51928710938</ele>
        <time>2019-01-19T15:22:20Z</time>
      </trkpt>
      <trkpt lat="46.29707" lon="4.45858">
        <ele>599.51928710938</ele>
        <time>2019-01-19T15:22:24Z</time>
      </trkpt>
      <trkpt lat="46.29694" lon="4.45885">
        <ele>599.03857421875</ele>
        <time>2019-01-19T15:22:27Z</time>
      </trkpt>
      <trkpt lat="46.29686" lon="4.45895">
        <ele>598.55786132812</ele>
        <time>2019-01-19T15:22:31Z</time>
      </trkpt>
      <trkpt lat="46.29678" lon="4.45902">
        <ele>598.55786132812</ele>
        <time>2019-01-19T15:22:35Z</time>
      </trkpt>
      <trkpt lat="46.29671" lon="4.45912">
        <ele>598.55786132812</ele>
        <time>2019-01-19T15:22:39Z</time>
      </trkpt>
      <trkpt lat="46.29663" lon="4.45922">
        <ele>598.55786132812</ele>
        <time>2019-01-19T15:22:44Z</time>
      </trkpt>
      <trkpt lat="46.29653" lon="4.4593">
        <ele>598.07739257812</ele>
        <time>2019-01-19T15:22:51Z</time>
      </trkpt>
      <trkpt lat="46.29643" lon="4.45942">
        <ele>599.03857421875</ele>
        <time>2019-01-19T15:22:58Z</time>
      </trkpt>
      <trkpt lat="46.29626" lon="4.45963">
        <ele>599.03857421875</ele>
        <time>2019-01-19T15:23:07Z</time>
      </trkpt>
      <trkpt lat="46.29614" lon="4.45979">
        <ele>598.55786132812</ele>
        <time>2019-01-19T15:23:18Z</time>
      </trkpt>
      <trkpt lat="46.29604" lon="4.45991">
        <ele>599.03857421875</ele>
        <time>2019-01-19T15:23:23Z</time>
      </trkpt>
      <trkpt lat="46.29604" lon="4.45991">
        <ele>600</ele>
        <time>2019-01-19T15:23:28Z</time>
      </trkpt>
      <trkpt lat="46.29576" lon="4.46018">
        <ele>600.96118164062</ele>
        <time>2019-01-19T15:23:33Z</time>
      </trkpt>
      <trkpt lat="46.29561" lon="4.46032">
        <ele>600.48071289062</ele>
        <time>2019-01-19T15:23:42Z</time>
      </trkpt>
      <trkpt lat="46.29577" lon="4.46059">
        <ele>598.55786132812</ele>
        <time>2019-01-19T15:23:47Z</time>
      </trkpt>
      <trkpt lat="46.29574" lon="4.46068">
        <ele>597.11596679688</ele>
        <time>2019-01-19T15:23:54Z</time>
      </trkpt>
      <trkpt lat="46.29569" lon="4.46085">
        <ele>597.11596679688</ele>
        <time>2019-01-19T15:23:59Z</time>
      </trkpt>
      <trkpt lat="46.29559" lon="4.46114">
        <ele>595.67407226562</ele>
        <time>2019-01-19T15:24:02Z</time>
      </trkpt>
      <trkpt lat="46.29552" lon="4.46127">
        <ele>594.23217773438</ele>
        <time>2019-01-19T15:24:04Z</time>
      </trkpt>
      <trkpt lat="46.29548" lon="4.4614">
        <ele>593.27075195312</ele>
        <time>2019-01-19T15:24:06Z</time>
      </trkpt>
      <trkpt lat="46.29544" lon="4.46152">
        <ele>593.27075195312</ele>
        <time>2019-01-19T15:24:08Z</time>
      </trkpt>
      <trkpt lat="46.29539" lon="4.46168">
        <ele>593.27075195312</ele>
        <time>2019-01-19T15:24:11Z</time>
      </trkpt>
      <trkpt lat="46.29533" lon="4.46178">
        <ele>592.3095703125</ele>
        <time>2019-01-19T15:24:14Z</time>
      </trkpt>
      <trkpt lat="46.29527" lon="4.46191">
        <ele>592.79028320312</ele>
        <time>2019-01-19T15:24:17Z</time>
      </trkpt>
      <trkpt lat="46.29521" lon="4.46211">
        <ele>590.86743164062</ele>
        <time>2019-01-19T15:24:22Z</time>
      </trkpt>
      <trkpt lat="46.29517" lon="4.46232">
        <ele>586.54150390625</ele>
        <time>2019-01-19T15:24:25Z</time>
      </trkpt>
      <trkpt lat="46.29513" lon="4.46256">
        <ele>583.1767578125</ele>
        <time>2019-01-19T15:24:28Z</time>
      </trkpt>
      <trkpt lat="46.29508" lon="4.46278">
        <ele>580.29296875</ele>
        <time>2019-01-19T15:24:31Z</time>
      </trkpt>
      <trkpt lat="46.29504" lon="4.46298">
        <ele>575.96704101562</ele>
        <time>2019-01-19T15:24:34Z</time>
      </trkpt>
      <trkpt lat="46.29501" lon="4.46328">
        <ele>574.04443359375</ele>
        <time>2019-01-19T15:24:37Z</time>
      </trkpt>
      <trkpt lat="46.29504" lon="4.46345">
        <ele>572.12182617188</ele>
        <time>2019-01-19T15:24:39Z</time>
      </trkpt>
      <trkpt lat="46.29509" lon="4.46363">
        <ele>571.64086914062</ele>
        <time>2019-01-19T15:24:42Z</time>
      </trkpt>
      <trkpt lat="46.29513" lon="4.46385">
        <ele>571.16040039062</ele>
        <time>2019-01-19T15:24:45Z</time>
      </trkpt>
      <trkpt lat="46.29514" lon="4.46411">
        <ele>570.19897460938</ele>
        <time>2019-01-19T15:24:48Z</time>
      </trkpt>
      <trkpt lat="46.2951" lon="4.46435">
        <ele>568.75708007812</ele>
        <time>2019-01-19T15:24:51Z</time>
      </trkpt>
      <trkpt lat="46.29512" lon="4.46461">
        <ele>567.31518554688</ele>
        <time>2019-01-19T15:24:54Z</time>
      </trkpt>
      <trkpt lat="46.29509" lon="4.46486">
        <ele>566.35375976562</ele>
        <time>2019-01-19T15:24:57Z</time>
      </trkpt>
      <trkpt lat="46.29508" lon="4.46503">
        <ele>563.95043945312</ele>
        <time>2019-01-19T15:25:00Z</time>
      </trkpt>
      <trkpt lat="46.29506" lon="4.46523">
        <ele>561.06665039062</ele>
        <time>2019-01-19T15:25:05Z</time>
      </trkpt>
      <trkpt lat="46.29506" lon="4.46526">
        <ele>559.14404296875</ele>
        <time>2019-01-19T15:25:08Z</time>
      </trkpt>
      <trkpt lat="46.29494" lon="4.46559">
        <ele>559.14404296875</ele>
        <time>2019-01-19T15:25:11Z</time>
      </trkpt>
      <trkpt lat="46.29488" lon="4.46571">
        <ele>561.54736328125</ele>
        <time>2019-01-19T15:25:13Z</time>
      </trkpt>
      <trkpt lat="46.29483" lon="4.46586">
        <ele>559.14404296875</ele>
        <time>2019-01-19T15:25:16Z</time>
      </trkpt>
      <trkpt lat="46.2948" lon="4.466">
        <ele>558.18286132812</ele>
        <time>2019-01-19T15:25:19Z</time>
      </trkpt>
      <trkpt lat="46.29479" lon="4.46613">
        <ele>558.18286132812</ele>
        <time>2019-01-19T15:25:24Z</time>
      </trkpt>
      <trkpt lat="46.29484" lon="4.46631">
        <ele>557.22143554688</ele>
        <time>2019-01-19T15:25:27Z</time>
      </trkpt>
      <trkpt lat="46.29491" lon="4.46641">
        <ele>555.779296875</ele>
        <time>2019-01-19T15:25:29Z</time>
      </trkpt>
      <trkpt lat="46.29503" lon="4.46647">
        <ele>552.89526367188</ele>
        <time>2019-01-19T15:25:32Z</time>
      </trkpt>
      <trkpt lat="46.29514" lon="4.46658">
        <ele>550.01147460938</ele>
        <time>2019-01-19T15:25:35Z</time>
      </trkpt>
      <trkpt lat="46.29522" lon="4.46671">
        <ele>548.0888671875</ele>
        <time>2019-01-19T15:25:37Z</time>
      </trkpt>
      <trkpt lat="46.29529" lon="4.46683">
        <ele>547.60815429688</ele>
        <time>2019-01-19T15:25:39Z</time>
      </trkpt>
      <trkpt lat="46.29538" lon="4.46697">
        <ele>546.16625976562</ele>
        <time>2019-01-19T15:25:42Z</time>
      </trkpt>
      <trkpt lat="46.29545" lon="4.46716">
        <ele>546.16625976562</ele>
        <time>2019-01-19T15:25:45Z</time>
      </trkpt>
      <trkpt lat="46.29552" lon="4.46734">
        <ele>543.28210449219</ele>
        <time>2019-01-19T15:25:48Z</time>
      </trkpt>
      <trkpt lat="46.29559" lon="4.46748">
        <ele>542.32092285156</ele>
        <time>2019-01-19T15:25:51Z</time>
      </trkpt>
      <trkpt lat="46.29569" lon="4.46769">
        <ele>541.35949707031</ele>
        <time>2019-01-19T15:26:01Z</time>
      </trkpt>
      <trkpt lat="46.29577" lon="4.46782">
        <ele>541.84020996094</ele>
        <time>2019-01-19T15:26:05Z</time>
      </trkpt>
      <trkpt lat="46.29581" lon="4.46801">
        <ele>542.80151367188</ele>
        <time>2019-01-19T15:26:09Z</time>
      </trkpt>
      <trkpt lat="46.29566" lon="4.46812">
        <ele>546.64685058594</ele>
        <time>2019-01-19T15:26:12Z</time>
      </trkpt>
      <trkpt lat="46.29559" lon="4.46831">
        <ele>549.05004882812</ele>
        <time>2019-01-19T15:26:14Z</time>
      </trkpt>
      <trkpt lat="46.29556" lon="4.46851">
        <ele>552.41455078125</ele>
        <time>2019-01-19T15:26:16Z</time>
      </trkpt>
      <trkpt lat="46.29554" lon="4.46873">
        <ele>556.74072265625</ele>
        <time>2019-01-19T15:26:18Z</time>
      </trkpt>
      <trkpt lat="46.29551" lon="4.4689">
        <ele>558.18286132812</ele>
        <time>2019-01-19T15:26:20Z</time>
      </trkpt>
      <trkpt lat="46.29551" lon="4.4689">
        <ele>559.14404296875</ele>
        <time>2019-01-19T15:26:22Z</time>
      </trkpt>
      <trkpt lat="46.29551" lon="4.4689">
        <ele>558.66333007812</ele>
        <time>2019-01-19T15:26:25Z</time>
      </trkpt>
      <trkpt lat="46.29557" lon="4.46932">
        <ele>557.22143554688</ele>
        <time>2019-01-19T15:26:28Z</time>
      </trkpt>
      <trkpt lat="46.29557" lon="4.46948">
        <ele>555.29858398438</ele>
        <time>2019-01-19T15:26:31Z</time>
      </trkpt>
      <trkpt lat="46.29557" lon="4.46965">
        <ele>553.3759765625</ele>
        <time>2019-01-19T15:26:34Z</time>
      </trkpt>
      <trkpt lat="46.29559" lon="4.46991">
        <ele>551.93408203125</ele>
        <time>2019-01-19T15:26:37Z</time>
      </trkpt>
      <trkpt lat="46.29562" lon="4.47016">
        <ele>550.4921875</ele>
        <time>2019-01-19T15:26:40Z</time>
      </trkpt>
      <trkpt lat="46.29561" lon="4.47051">
        <ele>550.01147460938</ele>
        <time>2019-01-19T15:26:43Z</time>
      </trkpt>
      <trkpt lat="46.29551" lon="4.47076">
        <ele>549.53076171875</ele>
        <time>2019-01-19T15:26:47Z</time>
      </trkpt>
      <trkpt lat="46.29549" lon="4.47079">
        <ele>548.5693359375</ele>
        <time>2019-01-19T15:26:50Z</time>
      </trkpt>
      <trkpt lat="46.29555" lon="4.47106">
        <ele>547.60815429688</ele>
        <time>2019-01-19T15:26:52Z</time>
      </trkpt>
      <trkpt lat="46.29549" lon="4.47154">
        <ele>544.72424316406</ele>
        <time>2019-01-19T15:26:55Z</time>
      </trkpt>
      <trkpt lat="46.29548" lon="4.47158">
        <ele>542.80151367188</ele>
        <time>2019-01-19T15:26:57Z</time>
      </trkpt>
      <trkpt lat="46.29546" lon="4.47173">
        <ele>539.43688964844</ele>
        <time>2019-01-19T15:27:00Z</time>
      </trkpt>
      <trkpt lat="46.29546" lon="4.47196">
        <ele>535.59155273438</ele>
        <time>2019-01-19T15:27:03Z</time>
      </trkpt>
      <trkpt lat="46.29544" lon="4.47222">
        <ele>530.78515625</ele>
        <time>2019-01-19T15:27:06Z</time>
      </trkpt>
      <trkpt lat="46.29542" lon="4.47239">
        <ele>527.90100097656</ele>
        <time>2019-01-19T15:27:08Z</time>
      </trkpt>
      <trkpt lat="46.2954" lon="4.4727">
        <ele>525.97839355469</ele>
        <time>2019-01-19T15:27:10Z</time>
      </trkpt>
      <trkpt lat="46.29542" lon="4.47284">
        <ele>524.05578613281</ele>
        <time>2019-01-19T15:27:12Z</time>
      </trkpt>
      <trkpt lat="46.29542" lon="4.47319">
        <ele>521.65258789062</ele>
        <time>2019-01-19T15:27:15Z</time>
      </trkpt>
      <trkpt lat="46.29542" lon="4.47343">
        <ele>519.24926757812</ele>
        <time>2019-01-19T15:27:18Z</time>
      </trkpt>
      <trkpt lat="46.29542" lon="4.47365">
        <ele>517.32666015625</ele>
        <time>2019-01-19T15:27:21Z</time>
      </trkpt>
      <trkpt lat="46.29543" lon="4.47382">
        <ele>515.40405273438</ele>
        <time>2019-01-19T15:27:23Z</time>
      </trkpt>
      <trkpt lat="46.29548" lon="4.47403">
        <ele>513.4814453125</ele>
        <time>2019-01-19T15:27:25Z</time>
      </trkpt>
      <trkpt lat="46.29556" lon="4.4742">
        <ele>512.52001953125</ele>
        <time>2019-01-19T15:27:27Z</time>
      </trkpt>
      <trkpt lat="46.29562" lon="4.47433">
        <ele>511.07800292969</ele>
        <time>2019-01-19T15:27:29Z</time>
      </trkpt>
      <trkpt lat="46.29569" lon="4.47444">
        <ele>510.11669921875</ele>
        <time>2019-01-19T15:27:32Z</time>
      </trkpt>
      <trkpt lat="46.29574" lon="4.47453">
        <ele>509.63610839844</ele>
        <time>2019-01-19T15:27:37Z</time>
      </trkpt>
      <trkpt lat="46.29591" lon="4.47446">
        <ele>508.67468261719</ele>
        <time>2019-01-19T15:27:39Z</time>
      </trkpt>
      <trkpt lat="46.29602" lon="4.47444">
        <ele>507.23278808594</ele>
        <time>2019-01-19T15:27:41Z</time>
      </trkpt>
      <trkpt lat="46.29614" lon="4.47445">
        <ele>505.79089355469</ele>
        <time>2019-01-19T15:27:43Z</time>
      </trkpt>
      <trkpt lat="46.29627" lon="4.47446">
        <ele>504.34887695312</ele>
        <time>2019-01-19T15:27:45Z</time>
      </trkpt>
      <trkpt lat="46.2964" lon="4.47446">
        <ele>502.90673828125</ele>
        <time>2019-01-19T15:27:47Z</time>
      </trkpt>
      <trkpt lat="46.29651" lon="4.47445">
        <ele>500.98413085938</ele>
        <time>2019-01-19T15:27:49Z</time>
      </trkpt>
      <trkpt lat="46.29661" lon="4.47444">
        <ele>498.58093261719</ele>
        <time>2019-01-19T15:27:51Z</time>
      </trkpt>
      <trkpt lat="46.29674" lon="4.4744">
        <ele>495.69689941406</ele>
        <time>2019-01-19T15:27:54Z</time>
      </trkpt>
      <trkpt lat="46.29686" lon="4.47436">
        <ele>494.25500488281</ele>
        <time>2019-01-19T15:27:56Z</time>
      </trkpt>
      <trkpt lat="46.29697" lon="4.47434">
        <ele>492.33239746094</ele>
        <time>2019-01-19T15:27:58Z</time>
      </trkpt>
      <trkpt lat="46.29707" lon="4.47432">
        <ele>490.89038085938</ele>
        <time>2019-01-19T15:28:01Z</time>
      </trkpt>
      <trkpt lat="46.29709" lon="4.47431">
        <ele>488.00646972656</ele>
        <time>2019-01-19T15:28:05Z</time>
      </trkpt>
      <trkpt lat="46.29729" lon="4.47439">
        <ele>486.08374023438</ele>
        <time>2019-01-19T15:28:07Z</time>
      </trkpt>
      <trkpt lat="46.2974" lon="4.4744">
        <ele>484.64184570312</ele>
        <time>2019-01-19T15:28:10Z</time>
      </trkpt>
      <trkpt lat="46.29753" lon="4.47441">
        <ele>482.23852539062</ele>
        <time>2019-01-19T15:28:14Z</time>
      </trkpt>
      <trkpt lat="46.29762" lon="4.47442">
        <ele>479.3544921875</ele>
        <time>2019-01-19T15:28:17Z</time>
      </trkpt>
      <trkpt lat="46.29775" lon="4.47443">
        <ele>477.43188476562</ele>
        <time>2019-01-19T15:28:20Z</time>
      </trkpt>
      <trkpt lat="46.29785" lon="4.47443">
        <ele>475.98986816406</ele>
        <time>2019-01-19T15:28:22Z</time>
      </trkpt>
      <trkpt lat="46.29796" lon="4.47444">
        <ele>474.54797363281</ele>
        <time>2019-01-19T15:28:25Z</time>
      </trkpt>
      <trkpt lat="46.29811" lon="4.47444">
        <ele>473.10607910156</ele>
        <time>2019-01-19T15:28:28Z</time>
      </trkpt>
      <trkpt lat="46.29825" lon="4.47444">
        <ele>471.66394042969</ele>
        <time>2019-01-19T15:28:31Z</time>
      </trkpt>
      <trkpt lat="46.29838" lon="4.47444">
        <ele>470.22192382812</ele>
        <time>2019-01-19T15:28:34Z</time>
      </trkpt>
      <trkpt lat="46.29853" lon="4.47442">
        <ele>467.81872558594</ele>
        <time>2019-01-19T15:28:37Z</time>
      </trkpt>
      <trkpt lat="46.29869" lon="4.4744">
        <ele>466.857421875</ele>
        <time>2019-01-19T15:28:39Z</time>
      </trkpt>
      <trkpt lat="46.29879" lon="4.47439">
        <ele>466.37670898438</ele>
        <time>2019-01-19T15:28:41Z</time>
      </trkpt>
      <trkpt lat="46.2989" lon="4.47437">
        <ele>464.93481445312</ele>
        <time>2019-01-19T15:28:43Z</time>
      </trkpt>
      <trkpt lat="46.29901" lon="4.47436">
        <ele>463.97338867188</ele>
        <time>2019-01-19T15:28:46Z</time>
      </trkpt>
      <trkpt lat="46.29914" lon="4.47436">
        <ele>463.01208496094</ele>
        <time>2019-01-19T15:28:49Z</time>
      </trkpt>
      <trkpt lat="46.29927" lon="4.47437">
        <ele>461.57019042969</ele>
        <time>2019-01-19T15:28:52Z</time>
      </trkpt>
      <trkpt lat="46.29939" lon="4.47437">
        <ele>459.16687011719</ele>
        <time>2019-01-19T15:28:54Z</time>
      </trkpt>
      <trkpt lat="46.2995" lon="4.47436">
        <ele>457.24426269531</ele>
        <time>2019-01-19T15:28:56Z</time>
      </trkpt>
      <trkpt lat="46.29965" lon="4.47433">
        <ele>454.8408203125</ele>
        <time>2019-01-19T15:28:59Z</time>
      </trkpt>
      <trkpt lat="46.29974" lon="4.47431">
        <ele>453.39892578125</ele>
        <time>2019-01-19T15:29:03Z</time>
      </trkpt>
      <trkpt lat="46.29984" lon="4.47428">
        <ele>452.43762207031</ele>
        <time>2019-01-19T15:29:08Z</time>
      </trkpt>
      <trkpt lat="46.29995" lon="4.47424">
        <ele>450.51501464844</ele>
        <time>2019-01-19T15:29:13Z</time>
      </trkpt>
      <trkpt lat="46.30006" lon="4.4742">
        <ele>449.07299804688</ele>
        <time>2019-01-19T15:29:17Z</time>
      </trkpt>
      <trkpt lat="46.30016" lon="4.47416">
        <ele>447.63098144531</ele>
        <time>2019-01-19T15:29:20Z</time>
      </trkpt>
      <trkpt lat="46.30027" lon="4.47411">
        <ele>445.22766113281</ele>
        <time>2019-01-19T15:29:26Z</time>
      </trkpt>
      <trkpt lat="46.3004" lon="4.47405">
        <ele>443.78576660156</ele>
        <time>2019-01-19T15:29:32Z</time>
      </trkpt>
      <trkpt lat="46.30057" lon="4.47398">
        <ele>442.82446289062</ele>
        <time>2019-01-19T15:29:36Z</time>
      </trkpt>
      <trkpt lat="46.30074" lon="4.47389">
        <ele>440.90185546875</ele>
        <time>2019-01-19T15:29:48Z</time>
      </trkpt>
      <trkpt lat="46.30089" lon="4.47382">
        <ele>439.45971679688</ele>
        <time>2019-01-19T15:29:52Z</time>
      </trkpt>
      <trkpt lat="46.30102" lon="4.47375">
        <ele>438.01782226562</ele>
        <time>2019-01-19T15:29:55Z</time>
      </trkpt>
      <trkpt lat="46.30115" lon="4.47368">
        <ele>436.57592773438</ele>
        <time>2019-01-19T15:29:58Z</time>
      </trkpt>
      <trkpt lat="46.30128" lon="4.4736">
        <ele>435.13391113281</ele>
        <time>2019-01-19T15:30:01Z</time>
      </trkpt>
      <trkpt lat="46.30141" lon="4.47354">
        <ele>434.6533203125</ele>
        <time>2019-01-19T15:30:04Z</time>
      </trkpt>
      <trkpt lat="46.30154" lon="4.47348">
        <ele>432.73071289062</ele>
        <time>2019-01-19T15:30:08Z</time>
      </trkpt>
      <trkpt lat="46.30172" lon="4.4734">
        <ele>432.25</ele>
        <time>2019-01-19T15:30:14Z</time>
      </trkpt>
      <trkpt lat="46.30185" lon="4.47334">
        <ele>431.76916503906</ele>
        <time>2019-01-19T15:30:18Z</time>
      </trkpt>
      <trkpt lat="46.30197" lon="4.47326">
        <ele>430.80798339844</ele>
        <time>2019-01-19T15:30:21Z</time>
      </trkpt>
      <trkpt lat="46.30207" lon="4.4732">
        <ele>429.36596679688</ele>
        <time>2019-01-19T15:30:25Z</time>
      </trkpt>
      <trkpt lat="46.30217" lon="4.47317">
        <ele>427.92395019531</ele>
        <time>2019-01-19T15:30:31Z</time>
      </trkpt>
      <trkpt lat="46.30218" lon="4.47297">
        <ele>426.96276855469</ele>
        <time>2019-01-19T15:30:36Z</time>
      </trkpt>
      <trkpt lat="46.30218" lon="4.47285">
        <ele>426.00134277344</ele>
        <time>2019-01-19T15:30:42Z</time>
      </trkpt>
      <trkpt lat="46.30223" lon="4.47265">
        <ele>425.52075195312</ele>
        <time>2019-01-19T15:30:49Z</time>
      </trkpt>
      <trkpt lat="46.30238" lon="4.47252">
        <ele>425.52075195312</ele>
        <time>2019-01-19T15:30:52Z</time>
      </trkpt>
      <trkpt lat="46.30254" lon="4.47247">
        <ele>425.04016113281</ele>
        <time>2019-01-19T15:30:54Z</time>
      </trkpt>
      <trkpt lat="46.30269" lon="4.47245">
        <ele>424.55944824219</ele>
        <time>2019-01-19T15:30:56Z</time>
      </trkpt>
      <trkpt lat="46.30281" lon="4.47247">
        <ele>424.07873535156</ele>
        <time>2019-01-19T15:30:58Z</time>
      </trkpt>
      <trkpt lat="46.30293" lon="4.4725">
        <ele>424.07873535156</ele>
        <time>2019-01-19T15:31:00Z</time>
      </trkpt>
      <trkpt lat="46.30303" lon="4.47253">
        <ele>423.59802246094</ele>
        <time>2019-01-19T15:31:02Z</time>
      </trkpt>
      <trkpt lat="46.30317" lon="4.47258">
        <ele>423.59802246094</ele>
        <time>2019-01-19T15:31:05Z</time>
      </trkpt>
      <trkpt lat="46.3033" lon="4.47261">
        <ele>423.59802246094</ele>
        <time>2019-01-19T15:31:08Z</time>
      </trkpt>
      <trkpt lat="46.30332" lon="4.47262">
        <ele>423.59802246094</ele>
        <time>2019-01-19T15:31:10Z</time>
      </trkpt>
      <trkpt lat="46.30346" lon="4.47287">
        <ele>423.59802246094</ele>
        <time>2019-01-19T15:31:12Z</time>
      </trkpt>
      <trkpt lat="46.30354" lon="4.47302">
        <ele>423.11743164062</ele>
        <time>2019-01-19T15:31:14Z</time>
      </trkpt>
      <trkpt lat="46.30358" lon="4.4732">
        <ele>423.59802246094</ele>
        <time>2019-01-19T15:31:16Z</time>
      </trkpt>
      <trkpt lat="46.30359" lon="4.47344">
        <ele>423.59802246094</ele>
        <time>2019-01-19T15:31:18Z</time>
      </trkpt>
      <trkpt lat="46.3036" lon="4.47363">
        <ele>423.11743164062</ele>
        <time>2019-01-19T15:31:20Z</time>
      </trkpt>
      <trkpt lat="46.30361" lon="4.47379">
        <ele>423.11743164062</ele>
        <time>2019-01-19T15:31:22Z</time>
      </trkpt>
      <trkpt lat="46.30361" lon="4.47394">
        <ele>423.11743164062</ele>
        <time>2019-01-19T15:31:24Z</time>
      </trkpt>
      <trkpt lat="46.30363" lon="4.4741">
        <ele>423.11743164062</ele>
        <time>2019-01-19T15:31:26Z</time>
      </trkpt>
      <trkpt lat="46.30366" lon="4.47426">
        <ele>423.59802246094</ele>
        <time>2019-01-19T15:31:28Z</time>
      </trkpt>
      <trkpt lat="46.3037" lon="4.47444">
        <ele>423.59802246094</ele>
        <time>2019-01-19T15:31:30Z</time>
      </trkpt>
      <trkpt lat="46.30373" lon="4.47462">
        <ele>424.07873535156</ele>
        <time>2019-01-19T15:31:32Z</time>
      </trkpt>
      <trkpt lat="46.30376" lon="4.47476">
        <ele>424.07873535156</ele>
        <time>2019-01-19T15:31:34Z</time>
      </trkpt>
      <trkpt lat="46.3038" lon="4.47487">
        <ele>424.07873535156</ele>
        <time>2019-01-19T15:31:36Z</time>
      </trkpt>
      <trkpt lat="46.30386" lon="4.47503">
        <ele>424.55944824219</ele>
        <time>2019-01-19T15:31:39Z</time>
      </trkpt>
      <trkpt lat="46.30391" lon="4.47518">
        <ele>424.55944824219</ele>
        <time>2019-01-19T15:31:42Z</time>
      </trkpt>
      <trkpt lat="46.30396" lon="4.47531">
        <ele>424.55944824219</ele>
        <time>2019-01-19T15:31:46Z</time>
      </trkpt>
      <trkpt lat="46.30391" lon="4.47536">
        <ele>423.11743164062</ele>
        <time>2019-01-19T15:32:32Z</time>
      </trkpt>
      <trkpt lat="46.30385" lon="4.47525">
        <ele>421.67541503906</ele>
        <time>2019-01-19T15:32:38Z</time>
      </trkpt>
      <trkpt lat="46.3038" lon="4.47514">
        <ele>421.19482421875</ele>
        <time>2019-01-19T15:32:46Z</time>
      </trkpt>
      <trkpt lat="46.30372" lon="4.47514">
        <ele>421.19482421875</ele>
        <time>2019-01-19T15:33:22Z</time>
      </trkpt>
      <trkpt lat="46.30361" lon="4.47508">
        <ele>418.31079101562</ele>
        <time>2019-01-19T15:33:29Z</time>
      </trkpt>
      <trkpt lat="46.3035" lon="4.47508">
        <ele>417.83020019531</ele>
        <time>2019-01-19T15:33:36Z</time>
      </trkpt>
      <trkpt lat="46.30339" lon="4.47506">
        <ele>416.86889648438</ele>
        <time>2019-01-19T15:33:43Z</time>
      </trkpt>
      <trkpt lat="46.30327" lon="4.47505">
        <ele>416.38818359375</ele>
        <time>2019-01-19T15:33:51Z</time>
      </trkpt>
      <trkpt lat="46.30314" lon="4.47507">
        <ele>416.38818359375</ele>
        <time>2019-01-19T15:34:21Z</time>
      </trkpt>
      <trkpt lat="46.30304" lon="4.47505">
        <ele>416.38818359375</ele>
        <time>2019-01-19T15:34:28Z</time>
      </trkpt>
      <trkpt lat="46.30294" lon="4.47506">
        <ele>417.349609375</ele>
        <time>2019-01-19T15:34:35Z</time>
      </trkpt>
      <trkpt lat="46.30284" lon="4.47512">
        <ele>416.86889648438</ele>
        <time>2019-01-19T15:34:43Z</time>
      </trkpt>
      <trkpt lat="46.3028" lon="4.47524">
        <ele>417.349609375</ele>
        <time>2019-01-19T15:34:51Z</time>
      </trkpt>
      <trkpt lat="46.30285" lon="4.47538">
        <ele>415.90747070312</ele>
        <time>2019-01-19T15:34:59Z</time>
      </trkpt>
      <trkpt lat="46.30289" lon="4.47554">
        <ele>415.42687988281</ele>
        <time>2019-01-19T15:35:07Z</time>
      </trkpt>
      <trkpt lat="46.30295" lon="4.47566">
        <ele>414.94616699219</ele>
        <time>2019-01-19T15:35:15Z</time>
      </trkpt>
      <trkpt lat="46.30295" lon="4.47581">
        <ele>413.50427246094</ele>
        <time>2019-01-19T15:35:24Z</time>
      </trkpt>
      <trkpt lat="46.30286" lon="4.47594">
        <ele>414.94616699219</ele>
        <time>2019-01-19T15:35:33Z</time>
      </trkpt>
      <trkpt lat="46.30279" lon="4.47608">
        <ele>413.98486328125</ele>
        <time>2019-01-19T15:35:41Z</time>
      </trkpt>
      <trkpt lat="46.30273" lon="4.47623">
        <ele>414.46545410156</ele>
        <time>2019-01-19T15:35:49Z</time>
      </trkpt>
      <trkpt lat="46.30273" lon="4.47641">
        <ele>414.46545410156</ele>
        <time>2019-01-19T15:36:09Z</time>
      </trkpt>
      <trkpt lat="46.30266" lon="4.47657">
        <ele>413.98486328125</ele>
        <time>2019-01-19T15:36:19Z</time>
      </trkpt>
      <trkpt lat="46.30257" lon="4.47682">
        <ele>413.50427246094</ele>
        <time>2019-01-19T15:36:31Z</time>
      </trkpt>
      <trkpt lat="46.30259" lon="4.47701">
        <ele>413.50427246094</ele>
        <time>2019-01-19T15:36:47Z</time>
      </trkpt>
      <trkpt lat="46.30272" lon="4.47698">
        <ele>412.06225585938</ele>
        <time>2019-01-19T15:36:59Z</time>
      </trkpt>
      <trkpt lat="46.30283" lon="4.47684">
        <ele>413.50427246094</ele>
        <time>2019-01-19T15:37:11Z</time>
      </trkpt>
      <trkpt lat="46.30298" lon="4.4768">
        <ele>413.50427246094</ele>
        <time>2019-01-19T15:37:23Z</time>
      </trkpt>
      <trkpt lat="46.30311" lon="4.47686">
        <ele>412.54284667969</ele>
        <time>2019-01-19T15:37:31Z</time>
      </trkpt>
      <trkpt lat="46.30316" lon="4.47698">
        <ele>412.06225585938</ele>
        <time>2019-01-19T15:37:38Z</time>
      </trkpt>
      <trkpt lat="46.30319" lon="4.47717">
        <ele>411.58166503906</ele>
        <time>2019-01-19T15:37:47Z</time>
      </trkpt>
      <trkpt lat="46.3032" lon="4.47733">
        <ele>411.10095214844</ele>
        <time>2019-01-19T15:37:56Z</time>
      </trkpt>
      <trkpt lat="46.3032" lon="4.47749">
        <ele>411.58166503906</ele>
        <time>2019-01-19T15:38:04Z</time>
      </trkpt>
      <trkpt lat="46.30323" lon="4.47762">
        <ele>410.1396484375</ele>
        <time>2019-01-19T15:38:12Z</time>
      </trkpt>
      <trkpt lat="46.30328" lon="4.47776">
        <ele>411.10095214844</ele>
        <time>2019-01-19T15:38:19Z</time>
      </trkpt>
      <trkpt lat="46.30331" lon="4.47789">
        <ele>411.10095214844</ele>
        <time>2019-01-19T15:38:27Z</time>
      </trkpt>
      <trkpt lat="46.30334" lon="4.47803">
        <ele>411.10095214844</ele>
        <time>2019-01-19T15:38:35Z</time>
      </trkpt>
      <trkpt lat="46.30334" lon="4.4782">
        <ele>411.10095214844</ele>
        <time>2019-01-19T15:38:43Z</time>
      </trkpt>
      <trkpt lat="46.30334" lon="4.47834">
        <ele>411.10095214844</ele>
        <time>2019-01-19T15:38:50Z</time>
      </trkpt>
      <trkpt lat="46.3033" lon="4.47852">
        <ele>411.10095214844</ele>
        <time>2019-01-19T15:38:58Z</time>
      </trkpt>
      <trkpt lat="46.30331" lon="4.47867">
        <ele>411.58166503906</ele>
        <time>2019-01-19T15:39:05Z</time>
      </trkpt>
      <trkpt lat="46.30329" lon="4.47886">
        <ele>411.58166503906</ele>
        <time>2019-01-19T15:39:13Z</time>
      </trkpt>
      <trkpt lat="46.30329" lon="4.47902">
        <ele>411.58166503906</ele>
        <time>2019-01-19T15:39:21Z</time>
      </trkpt>
      <trkpt lat="46.30327" lon="4.47917">
        <ele>412.06225585938</ele>
        <time>2019-01-19T15:39:28Z</time>
      </trkpt>
      <trkpt lat="46.30327" lon="4.47934">
        <ele>411.58166503906</ele>
        <time>2019-01-19T15:39:36Z</time>
      </trkpt>
      <trkpt lat="46.30334" lon="4.47945">
        <ele>411.58166503906</ele>
        <time>2019-01-19T15:39:44Z</time>
      </trkpt>
      <trkpt lat="46.30345" lon="4.47949">
        <ele>412.54284667969</ele>
        <time>2019-01-19T15:39:52Z</time>
      </trkpt>
      <trkpt lat="46.30356" lon="4.47955">
        <ele>412.54284667969</ele>
        <time>2019-01-19T15:39:59Z</time>
      </trkpt>
      <trkpt lat="46.30361" lon="4.47966">
        <ele>412.06225585938</ele>
        <time>2019-01-19T15:40:06Z</time>
      </trkpt>
      <trkpt lat="46.30363" lon="4.4798">
        <ele>411.58166503906</ele>
        <time>2019-01-19T15:40:13Z</time>
      </trkpt>
      <trkpt lat="46.30366" lon="4.47992">
        <ele>411.58166503906</ele>
        <time>2019-01-19T15:40:20Z</time>
      </trkpt>
      <trkpt lat="46.30368" lon="4.48008">
        <ele>411.58166503906</ele>
        <time>2019-01-19T15:40:26Z</time>
      </trkpt>
      <trkpt lat="46.30371" lon="4.48021">
        <ele>412.54284667969</ele>
        <time>2019-01-19T15:40:32Z</time>
      </trkpt>
      <trkpt lat="46.30376" lon="4.48031">
        <ele>412.54284667969</ele>
        <time>2019-01-19T15:40:38Z</time>
      </trkpt>
      <trkpt lat="46.30381" lon="4.4804">
        <ele>412.06225585938</ele>
        <time>2019-01-19T15:40:45Z</time>
      </trkpt>
      <trkpt lat="46.30389" lon="4.48048">
        <ele>413.50427246094</ele>
        <time>2019-01-19T15:40:52Z</time>
      </trkpt>
      <trkpt lat="46.30399" lon="4.48047">
        <ele>414.46545410156</ele>
        <time>2019-01-19T15:40:59Z</time>
      </trkpt>
      <trkpt lat="46.30404" lon="4.48048">
        <ele>414.94616699219</ele>
        <time>2019-01-19T15:41:34Z</time>
      </trkpt>
      <trkpt lat="46.30417" lon="4.48036">
        <ele>416.86889648438</ele>
        <time>2019-01-19T15:41:37Z</time>
      </trkpt>
      <trkpt lat="46.30429" lon="4.48031">
        <ele>416.86889648438</ele>
        <time>2019-01-19T15:41:39Z</time>
      </trkpt>
      <trkpt lat="46.30441" lon="4.48026">
        <ele>417.83020019531</ele>
        <time>2019-01-19T15:41:42Z</time>
      </trkpt>
      <trkpt lat="46.30451" lon="4.48022">
        <ele>418.31079101562</ele>
        <time>2019-01-19T15:41:45Z</time>
      </trkpt>
      <trkpt lat="46.30458" lon="4.48009">
        <ele>418.31079101562</ele>
        <time>2019-01-19T15:41:58Z</time>
      </trkpt>
      <trkpt lat="46.30457" lon="4.47989">
        <ele>417.83020019531</ele>
        <time>2019-01-19T15:42:02Z</time>
      </trkpt>
      <trkpt lat="46.30456" lon="4.4797">
        <ele>418.31079101562</ele>
        <time>2019-01-19T15:42:05Z</time>
      </trkpt>
      <trkpt lat="46.30456" lon="4.4795">
        <ele>418.31079101562</ele>
        <time>2019-01-19T15:42:08Z</time>
      </trkpt>
      <trkpt lat="46.30487" lon="4.47964">
        <ele>419.75280761719</ele>
        <time>2019-01-19T15:42:10Z</time>
      </trkpt>
      <trkpt lat="46.30497" lon="4.47973">
        <ele>420.2333984375</ele>
        <time>2019-01-19T15:42:12Z</time>
      </trkpt>
      <trkpt lat="46.30505" lon="4.47979">
        <ele>420.71411132812</ele>
        <time>2019-01-19T15:42:14Z</time>
      </trkpt>
      <trkpt lat="46.30521" lon="4.47989">
        <ele>422.15600585938</ele>
        <time>2019-01-19T15:42:17Z</time>
      </trkpt>
      <trkpt lat="46.3053" lon="4.47993">
        <ele>423.11743164062</ele>
        <time>2019-01-19T15:42:19Z</time>
      </trkpt>
      <trkpt lat="46.30542" lon="4.47995">
        <ele>424.55944824219</ele>
        <time>2019-01-19T15:42:21Z</time>
      </trkpt>
      <trkpt lat="46.30556" lon="4.47997">
        <ele>425.04016113281</ele>
        <time>2019-01-19T15:42:23Z</time>
      </trkpt>
      <trkpt lat="46.30566" lon="4.4799">
        <ele>426.00134277344</ele>
        <time>2019-01-19T15:42:25Z</time>
      </trkpt>
      <trkpt lat="46.30576" lon="4.47983">
        <ele>426.48205566406</ele>
        <time>2019-01-19T15:42:27Z</time>
      </trkpt>
      <trkpt lat="46.30585" lon="4.47977">
        <ele>426.96276855469</ele>
        <time>2019-01-19T15:42:30Z</time>
      </trkpt>
      <trkpt lat="46.30592" lon="4.47957">
        <ele>426.96276855469</ele>
        <time>2019-01-19T15:42:44Z</time>
      </trkpt>
      <trkpt lat="46.30585" lon="4.47942">
        <ele>426.00134277344</ele>
        <time>2019-01-19T15:42:47Z</time>
      </trkpt>
      <trkpt lat="46.30578" lon="4.4793">
        <ele>425.52075195312</ele>
        <time>2019-01-19T15:42:50Z</time>
      </trkpt>
      <trkpt lat="46.30577" lon="4.47927">
        <ele>425.04016113281</ele>
        <time>2019-01-19T15:43:22Z</time>
      </trkpt>
      <trkpt lat="46.30573" lon="4.47919">
        <ele>426.48205566406</ele>
        <time>2019-01-19T15:43:55Z</time>
      </trkpt>
      <trkpt lat="46.30597" lon="4.47898">
        <ele>428.88537597656</ele>
        <time>2019-01-19T15:44:00Z</time>
      </trkpt>
      <trkpt lat="46.30609" lon="4.47919">
        <ele>429.84655761719</ele>
        <time>2019-01-19T15:44:05Z</time>
      </trkpt>
      <trkpt lat="46.30609" lon="4.47929">
        <ele>430.32727050781</ele>
        <time>2019-01-19T15:44:10Z</time>
      </trkpt>
      <trkpt lat="46.30609" lon="4.47939">
        <ele>430.80798339844</ele>
        <time>2019-01-19T15:44:15Z</time>
      </trkpt>
      <trkpt lat="46.30614" lon="4.47957">
        <ele>431.76916503906</ele>
        <time>2019-01-19T15:44:20Z</time>
      </trkpt>
      <trkpt lat="46.30619" lon="4.47972">
        <ele>432.25</ele>
        <time>2019-01-19T15:44:24Z</time>
      </trkpt>
      <trkpt lat="46.30624" lon="4.47989">
        <ele>433.21130371094</ele>
        <time>2019-01-19T15:44:27Z</time>
      </trkpt>
      <trkpt lat="46.30634" lon="4.48002">
        <ele>433.21130371094</ele>
        <time>2019-01-19T15:44:30Z</time>
      </trkpt>
      <trkpt lat="46.30641" lon="4.48012">
        <ele>433.69189453125</ele>
        <time>2019-01-19T15:44:33Z</time>
      </trkpt>
      <trkpt lat="46.30649" lon="4.48024">
        <ele>433.69189453125</ele>
        <time>2019-01-19T15:44:36Z</time>
      </trkpt>
      <trkpt lat="46.30655" lon="4.48029">
        <ele>433.21130371094</ele>
        <time>2019-01-19T15:44:40Z</time>
      </trkpt>
      <trkpt lat="46.30716" lon="4.48088">
        <ele>432.73071289062</ele>
        <time>2019-01-19T15:44:55Z</time>
      </trkpt>
      <trkpt lat="46.30695" lon="4.48254">
        <ele>426.96276855469</ele>
        <time>2019-01-27T10:37:16Z</time>
      </trkpt>
      <trkpt lat="46.307" lon="4.48267">
        <ele>426.96276855469</ele>
        <time>2019-01-27T10:37:19Z</time>
      </trkpt>
      <trkpt lat="46.30706" lon="4.4828">
        <ele>427.443359375</ele>
        <time>2019-01-27T10:37:22Z</time>
      </trkpt>
      <trkpt lat="46.3071" lon="4.48295">
        <ele>427.443359375</ele>
        <time>2019-01-27T10:37:26Z</time>
      </trkpt>
      <trkpt lat="46.30718" lon="4.48302">
        <ele>427.443359375</ele>
        <time>2019-01-27T10:37:31Z</time>
      </trkpt>
      <trkpt lat="46.30728" lon="4.48303">
        <ele>426.96276855469</ele>
        <time>2019-01-27T10:37:45Z</time>
      </trkpt>
      <trkpt lat="46.30736" lon="4.48307">
        <ele>426.96276855469</ele>
        <time>2019-01-27T10:37:57Z</time>
      </trkpt>
      <trkpt lat="46.30746" lon="4.48305">
        <ele>426.00134277344</ele>
        <time>2019-01-27T10:38:01Z</time>
      </trkpt>
      <trkpt lat="46.30757" lon="4.48309">
        <ele>425.52075195312</ele>
        <time>2019-01-27T10:38:04Z</time>
      </trkpt>
      <trkpt lat="46.30769" lon="4.48311">
        <ele>424.07873535156</ele>
        <time>2019-01-27T10:38:08Z</time>
      </trkpt>
      <trkpt lat="46.30783" lon="4.48315">
        <ele>423.11743164062</ele>
        <time>2019-01-27T10:38:13Z</time>
      </trkpt>
      <trkpt lat="46.30793" lon="4.48311">
        <ele>422.15600585938</ele>
        <time>2019-01-27T10:38:17Z</time>
      </trkpt>
      <trkpt lat="46.30808" lon="4.4833">
        <ele>421.67541503906</ele>
        <time>2019-01-27T10:38:20Z</time>
      </trkpt>
      <trkpt lat="46.30821" lon="4.48328">
        <ele>419.27221679688</ele>
        <time>2019-01-27T10:38:23Z</time>
      </trkpt>
      <trkpt lat="46.30834" lon="4.48326">
        <ele>419.27221679688</ele>
        <time>2019-01-27T10:38:26Z</time>
      </trkpt>
      <trkpt lat="46.30848" lon="4.48325">
        <ele>417.349609375</ele>
        <time>2019-01-27T10:38:29Z</time>
      </trkpt>
      <trkpt lat="46.30863" lon="4.48323">
        <ele>416.38818359375</ele>
        <time>2019-01-27T10:38:32Z</time>
      </trkpt>
      <trkpt lat="46.3087" lon="4.48322">
        <ele>416.38818359375</ele>
        <time>2019-01-27T10:38:34Z</time>
      </trkpt>
      <trkpt lat="46.30884" lon="4.4832">
        <ele>413.98486328125</ele>
        <time>2019-01-27T10:38:37Z</time>
      </trkpt>
      <trkpt lat="46.30899" lon="4.48319">
        <ele>413.98486328125</ele>
        <time>2019-01-27T10:38:40Z</time>
      </trkpt>
      <trkpt lat="46.30909" lon="4.48318">
        <ele>412.54284667969</ele>
        <time>2019-01-27T10:38:42Z</time>
      </trkpt>
      <trkpt lat="46.30919" lon="4.48317">
        <ele>411.58166503906</ele>
        <time>2019-01-27T10:38:44Z</time>
      </trkpt>
      <trkpt lat="46.30935" lon="4.48316">
        <ele>411.10095214844</ele>
        <time>2019-01-27T10:38:47Z</time>
      </trkpt>
      <trkpt lat="46.30945" lon="4.48315">
        <ele>409.65905761719</ele>
        <time>2019-01-27T10:38:49Z</time>
      </trkpt>
      <trkpt lat="46.30957" lon="4.48316">
        <ele>409.65905761719</ele>
        <time>2019-01-27T10:38:52Z</time>
      </trkpt>
      <trkpt lat="46.30967" lon="4.48317">
        <ele>408.21704101562</ele>
        <time>2019-01-27T10:38:55Z</time>
      </trkpt>
      <trkpt lat="46.30978" lon="4.48317">
        <ele>409.17834472656</ele>
        <time>2019-01-27T10:38:58Z</time>
      </trkpt>
      <trkpt lat="46.30981" lon="4.48319">
        <ele>408.21704101562</ele>
        <time>2019-01-27T10:39:01Z</time>
      </trkpt>
      <trkpt lat="46.30986" lon="4.48321">
        <ele>408.21704101562</ele>
        <time>2019-01-27T10:39:04Z</time>
      </trkpt>
      <trkpt lat="46.30991" lon="4.48323">
        <ele>407.736328125</ele>
        <time>2019-01-27T10:39:07Z</time>
      </trkpt>
      <trkpt lat="46.30998" lon="4.48326">
        <ele>409.17834472656</ele>
        <time>2019-01-27T10:39:10Z</time>
      </trkpt>
      <trkpt lat="46.30986" lon="4.48397">
        <ele>407.25561523438</ele>
        <time>2019-01-27T10:39:13Z</time>
      </trkpt>
      <trkpt lat="46.30986" lon="4.48416">
        <ele>407.736328125</ele>
        <time>2019-01-27T10:39:16Z</time>
      </trkpt>
      <trkpt lat="46.30985" lon="4.48437">
        <ele>406.77490234375</ele>
        <time>2019-01-27T10:39:19Z</time>
      </trkpt>
      <trkpt lat="46.30984" lon="4.48455">
        <ele>405.81372070312</ele>
        <time>2019-01-27T10:39:22Z</time>
      </trkpt>
      <trkpt lat="46.30983" lon="4.48473">
        <ele>404.85229492188</ele>
        <time>2019-01-27T10:39:25Z</time>
      </trkpt>
      <trkpt lat="46.3098" lon="4.48492">
        <ele>402.9296875</ele>
        <time>2019-01-27T10:39:28Z</time>
      </trkpt>
      <trkpt lat="46.30978" lon="4.4851">
        <ele>400.0458984375</ele>
        <time>2019-01-27T10:39:31Z</time>
      </trkpt>
      <trkpt lat="46.30978" lon="4.48527">
        <ele>399.56506347656</ele>
        <time>2019-01-27T10:39:34Z</time>
      </trkpt>
      <trkpt lat="46.30978" lon="4.48541">
        <ele>399.56506347656</ele>
        <time>2019-01-27T10:39:37Z</time>
      </trkpt>
      <trkpt lat="46.30987" lon="4.48555">
        <ele>398.60375976562</ele>
        <time>2019-01-27T10:39:41Z</time>
      </trkpt>
      <trkpt lat="46.30994" lon="4.48564">
        <ele>397.16174316406</ele>
        <time>2019-01-27T10:39:44Z</time>
      </trkpt>
      <trkpt lat="46.31003" lon="4.48575">
        <ele>397.16174316406</ele>
        <time>2019-01-27T10:39:47Z</time>
      </trkpt>
      <trkpt lat="46.31012" lon="4.48584">
        <ele>398.60375976562</ele>
        <time>2019-01-27T10:39:50Z</time>
      </trkpt>
      <trkpt lat="46.3102" lon="4.48595">
        <ele>397.64245605469</ele>
        <time>2019-01-27T10:39:53Z</time>
      </trkpt>
      <trkpt lat="46.31029" lon="4.48601">
        <ele>399.08435058594</ele>
        <time>2019-01-27T10:39:56Z</time>
      </trkpt>
      <trkpt lat="46.31044" lon="4.48608">
        <ele>398.60375976562</ele>
        <time>2019-01-27T10:40:00Z</time>
      </trkpt>
      <trkpt lat="46.31059" lon="4.48617">
        <ele>398.60375976562</ele>
        <time>2019-01-27T10:40:04Z</time>
      </trkpt>
      <trkpt lat="46.3107" lon="4.48623">
        <ele>399.08435058594</ele>
        <time>2019-01-27T10:40:08Z</time>
      </trkpt>
      <trkpt lat="46.31083" lon="4.48634">
        <ele>400.52648925781</ele>
        <time>2019-01-27T10:40:12Z</time>
      </trkpt>
      <trkpt lat="46.31093" lon="4.48644">
        <ele>400.0458984375</ele>
        <time>2019-01-27T10:40:16Z</time>
      </trkpt>
      <trkpt lat="46.31105" lon="4.48655">
        <ele>401.96850585938</ele>
        <time>2019-01-27T10:40:20Z</time>
      </trkpt>
      <trkpt lat="46.31118" lon="4.48662">
        <ele>402.9296875</ele>
        <time>2019-01-27T10:40:25Z</time>
      </trkpt>
      <trkpt lat="46.31127" lon="4.4867">
        <ele>404.37170410156</ele>
        <time>2019-01-27T10:40:29Z</time>
      </trkpt>
      <trkpt lat="46.31135" lon="4.48679">
        <ele>405.81372070312</ele>
        <time>2019-01-27T10:40:33Z</time>
      </trkpt>
      <trkpt lat="46.3114" lon="4.48692">
        <ele>406.29431152344</ele>
        <time>2019-01-27T10:40:37Z</time>
      </trkpt>
      <trkpt lat="46.31146" lon="4.48704">
        <ele>407.25561523438</ele>
        <time>2019-01-27T10:40:41Z</time>
      </trkpt>
      <trkpt lat="46.31153" lon="4.48717">
        <ele>409.17834472656</ele>
        <time>2019-01-27T10:40:45Z</time>
      </trkpt>
      <trkpt lat="46.3116" lon="4.48728">
        <ele>410.1396484375</ele>
        <time>2019-01-27T10:40:49Z</time>
      </trkpt>
      <trkpt lat="46.31169" lon="4.48741">
        <ele>411.10095214844</ele>
        <time>2019-01-27T10:40:54Z</time>
      </trkpt>
      <trkpt lat="46.31177" lon="4.48756">
        <ele>413.50427246094</ele>
        <time>2019-01-27T10:41:00Z</time>
      </trkpt>
      <trkpt lat="46.31184" lon="4.48768">
        <ele>414.94616699219</ele>
        <time>2019-01-27T10:41:05Z</time>
      </trkpt>
      <trkpt lat="46.31188" lon="4.4878">
        <ele>415.90747070312</ele>
        <time>2019-01-27T10:41:10Z</time>
      </trkpt>
      <trkpt lat="46.31195" lon="4.48796">
        <ele>417.349609375</ele>
        <time>2019-01-27T10:41:17Z</time>
      </trkpt>
      <trkpt lat="46.31206" lon="4.48814">
        <ele>418.31079101562</ele>
        <time>2019-01-27T10:41:23Z</time>
      </trkpt>
      <trkpt lat="46.31215" lon="4.48846">
        <ele>418.31079101562</ele>
        <time>2019-01-27T10:41:30Z</time>
      </trkpt>
      <trkpt lat="46.31224" lon="4.48854">
        <ele>420.2333984375</ele>
        <time>2019-01-27T10:41:35Z</time>
      </trkpt>
      <trkpt lat="46.31232" lon="4.48862">
        <ele>420.2333984375</ele>
        <time>2019-01-27T10:41:40Z</time>
      </trkpt>
      <trkpt lat="46.31242" lon="4.48871">
        <ele>421.67541503906</ele>
        <time>2019-01-27T10:41:45Z</time>
      </trkpt>
      <trkpt lat="46.31256" lon="4.48884">
        <ele>422.15600585938</ele>
        <time>2019-01-27T10:41:50Z</time>
      </trkpt>
      <trkpt lat="46.31269" lon="4.48894">
        <ele>423.59802246094</ele>
        <time>2019-01-27T10:41:55Z</time>
      </trkpt>
      <trkpt lat="46.31281" lon="4.48913">
        <ele>423.59802246094</ele>
        <time>2019-01-27T10:42:02Z</time>
      </trkpt>
      <trkpt lat="46.31282" lon="4.48945">
        <ele>422.63671875</ele>
        <time>2019-01-27T10:42:13Z</time>
      </trkpt>
      <trkpt lat="46.31279" lon="4.48961">
        <ele>421.19482421875</ele>
        <time>2019-01-27T10:42:18Z</time>
      </trkpt>
      <trkpt lat="46.31276" lon="4.48977">
        <ele>419.75280761719</ele>
        <time>2019-01-27T10:42:22Z</time>
      </trkpt>
      <trkpt lat="46.3127" lon="4.48991">
        <ele>419.27221679688</ele>
        <time>2019-01-27T10:42:26Z</time>
      </trkpt>
      <trkpt lat="46.31266" lon="4.49007">
        <ele>416.86889648438</ele>
        <time>2019-01-27T10:42:30Z</time>
      </trkpt>
      <trkpt lat="46.31259" lon="4.49026">
        <ele>414.94616699219</ele>
        <time>2019-01-27T10:42:35Z</time>
      </trkpt>
      <trkpt lat="46.31254" lon="4.49037">
        <ele>413.02355957031</ele>
        <time>2019-01-27T10:42:39Z</time>
      </trkpt>
      <trkpt lat="46.31249" lon="4.49054">
        <ele>411.58166503906</ele>
        <time>2019-01-27T10:42:44Z</time>
      </trkpt>
      <trkpt lat="46.31239" lon="4.49067">
        <ele>410.1396484375</ele>
        <time>2019-01-27T10:42:49Z</time>
      </trkpt>
      <trkpt lat="46.31226" lon="4.49084">
        <ele>409.65905761719</ele>
        <time>2019-01-27T10:42:57Z</time>
      </trkpt>
      <trkpt lat="46.3121" lon="4.49099">
        <ele>409.17834472656</ele>
        <time>2019-01-27T10:43:01Z</time>
      </trkpt>
      <trkpt lat="46.31204" lon="4.49116">
        <ele>408.21704101562</ele>
        <time>2019-01-27T10:43:05Z</time>
      </trkpt>
      <trkpt lat="46.31198" lon="4.49131">
        <ele>407.736328125</ele>
        <time>2019-01-27T10:43:09Z</time>
      </trkpt>
      <trkpt lat="46.31192" lon="4.49149">
        <ele>407.736328125</ele>
        <time>2019-01-27T10:43:14Z</time>
      </trkpt>
      <trkpt lat="46.31186" lon="4.49164">
        <ele>407.736328125</ele>
        <time>2019-01-27T10:43:18Z</time>
      </trkpt>
      <trkpt lat="46.31179" lon="4.49174">
        <ele>407.736328125</ele>
        <time>2019-01-27T10:43:22Z</time>
      </trkpt>
      <trkpt lat="46.31173" lon="4.49193">
        <ele>406.77490234375</ele>
        <time>2019-01-27T10:43:29Z</time>
      </trkpt>
      <trkpt lat="46.31166" lon="4.49209">
        <ele>407.736328125</ele>
        <time>2019-01-27T10:43:36Z</time>
      </trkpt>
      <trkpt lat="46.31153" lon="4.49223">
        <ele>407.736328125</ele>
        <time>2019-01-27T10:43:41Z</time>
      </trkpt>
      <trkpt lat="46.31134" lon="4.49237">
        <ele>407.736328125</ele>
        <time>2019-01-27T10:43:45Z</time>
      </trkpt>
      <trkpt lat="46.3113" lon="4.49255">
        <ele>408.69763183594</ele>
        <time>2019-01-27T10:43:50Z</time>
      </trkpt>
      <trkpt lat="46.31124" lon="4.49271">
        <ele>409.17834472656</ele>
        <time>2019-01-27T10:43:55Z</time>
      </trkpt>
      <trkpt lat="46.31115" lon="4.49291">
        <ele>408.69763183594</ele>
        <time>2019-01-27T10:44:03Z</time>
      </trkpt>
      <trkpt lat="46.31103" lon="4.49308">
        <ele>408.21704101562</ele>
        <time>2019-01-27T10:44:08Z</time>
      </trkpt>
      <trkpt lat="46.31095" lon="4.49324">
        <ele>408.21704101562</ele>
        <time>2019-01-27T10:44:13Z</time>
      </trkpt>
      <trkpt lat="46.3109" lon="4.49343">
        <ele>407.25561523438</ele>
        <time>2019-01-27T10:44:18Z</time>
      </trkpt>
      <trkpt lat="46.31077" lon="4.4936">
        <ele>407.25561523438</ele>
        <time>2019-01-27T10:44:23Z</time>
      </trkpt>
      <trkpt lat="46.3107" lon="4.4938">
        <ele>406.77490234375</ele>
        <time>2019-01-27T10:44:27Z</time>
      </trkpt>
      <trkpt lat="46.31065" lon="4.49393">
        <ele>407.25561523438</ele>
        <time>2019-01-27T10:44:31Z</time>
      </trkpt>
      <trkpt lat="46.31062" lon="4.49408">
        <ele>407.25561523438</ele>
        <time>2019-01-27T10:44:35Z</time>
      </trkpt>
      <trkpt lat="46.31047" lon="4.49446">
        <ele>412.54284667969</ele>
        <time>2019-01-27T10:44:54Z</time>
      </trkpt>
      <trkpt lat="46.31054" lon="4.49458">
        <ele>413.02355957031</ele>
        <time>2019-01-27T10:44:59Z</time>
      </trkpt>
      <trkpt lat="46.31062" lon="4.49464">
        <ele>413.50427246094</ele>
        <time>2019-01-27T10:45:04Z</time>
      </trkpt>
      <trkpt lat="46.31075" lon="4.49474">
        <ele>413.98486328125</ele>
        <time>2019-01-27T10:45:09Z</time>
      </trkpt>
      <trkpt lat="46.31086" lon="4.49483">
        <ele>414.46545410156</ele>
        <time>2019-01-27T10:45:14Z</time>
      </trkpt>
      <trkpt lat="46.31098" lon="4.4949">
        <ele>414.94616699219</ele>
        <time>2019-01-27T10:45:19Z</time>
      </trkpt>
      <trkpt lat="46.31113" lon="4.495">
        <ele>415.42687988281</ele>
        <time>2019-01-27T10:45:26Z</time>
      </trkpt>
      <trkpt lat="46.31128" lon="4.49505">
        <ele>414.94616699219</ele>
        <time>2019-01-27T10:45:35Z</time>
      </trkpt>
      <trkpt lat="46.31142" lon="4.49512">
        <ele>414.46545410156</ele>
        <time>2019-01-27T10:45:44Z</time>
      </trkpt>
      <trkpt lat="46.31157" lon="4.49521">
        <ele>415.42687988281</ele>
        <time>2019-01-27T10:45:51Z</time>
      </trkpt>
      <trkpt lat="46.31172" lon="4.49534">
        <ele>415.42687988281</ele>
        <time>2019-01-27T10:45:59Z</time>
      </trkpt>
      <trkpt lat="46.31183" lon="4.4954">
        <ele>414.94616699219</ele>
        <time>2019-01-27T10:46:07Z</time>
      </trkpt>
      <trkpt lat="46.31193" lon="4.4955">
        <ele>415.90747070312</ele>
        <time>2019-01-27T10:46:17Z</time>
      </trkpt>
      <trkpt lat="46.31207" lon="4.4956">
        <ele>416.38818359375</ele>
        <time>2019-01-27T10:46:27Z</time>
      </trkpt>
      <trkpt lat="46.31218" lon="4.49571">
        <ele>417.349609375</ele>
        <time>2019-01-27T10:46:37Z</time>
      </trkpt>
      <trkpt lat="46.3123" lon="4.49587">
        <ele>417.83020019531</ele>
        <time>2019-01-27T10:46:45Z</time>
      </trkpt>
      <trkpt lat="46.31238" lon="4.49597">
        <ele>418.79150390625</ele>
        <time>2019-01-27T10:46:52Z</time>
      </trkpt>
      <trkpt lat="46.31247" lon="4.49609">
        <ele>419.75280761719</ele>
        <time>2019-01-27T10:46:57Z</time>
      </trkpt>
      <trkpt lat="46.31256" lon="4.49628">
        <ele>421.19482421875</ele>
        <time>2019-01-27T10:47:03Z</time>
      </trkpt>
      <trkpt lat="46.31267" lon="4.49647">
        <ele>422.63671875</ele>
        <time>2019-01-27T10:47:10Z</time>
      </trkpt>
      <trkpt lat="46.31276" lon="4.49663">
        <ele>423.59802246094</ele>
        <time>2019-01-27T10:47:16Z</time>
      </trkpt>
      <trkpt lat="46.31283" lon="4.49681">
        <ele>425.04016113281</ele>
        <time>2019-01-27T10:47:22Z</time>
      </trkpt>
      <trkpt lat="46.31296" lon="4.497">
        <ele>426.48205566406</ele>
        <time>2019-01-27T10:47:28Z</time>
      </trkpt>
      <trkpt lat="46.31299" lon="4.49715">
        <ele>428.88537597656</ele>
        <time>2019-01-27T10:47:34Z</time>
      </trkpt>
      <trkpt lat="46.31303" lon="4.49735">
        <ele>430.32727050781</ele>
        <time>2019-01-27T10:47:43Z</time>
      </trkpt>
      <trkpt lat="46.3131" lon="4.4975">
        <ele>432.25</ele>
        <time>2019-01-27T10:47:52Z</time>
      </trkpt>
      <trkpt lat="46.31317" lon="4.49764">
        <ele>434.17260742188</ele>
        <time>2019-01-27T10:48:01Z</time>
      </trkpt>
      <trkpt lat="46.31325" lon="4.49775">
        <ele>436.09521484375</ele>
        <time>2019-01-27T10:48:10Z</time>
      </trkpt>
      <trkpt lat="46.31337" lon="4.49789">
        <ele>437.537109375</ele>
        <time>2019-01-27T10:48:20Z</time>
      </trkpt>
      <trkpt lat="46.31353" lon="4.49796">
        <ele>439.45971679688</ele>
        <time>2019-01-27T10:48:28Z</time>
      </trkpt>
      <trkpt lat="46.31362" lon="4.49801">
        <ele>441.86315917969</ele>
        <time>2019-01-27T10:48:38Z</time>
      </trkpt>
      <trkpt lat="46.31374" lon="4.49811">
        <ele>444.7470703125</ele>
        <time>2019-01-27T10:48:49Z</time>
      </trkpt>
      <trkpt lat="46.31384" lon="4.49822">
        <ele>446.18908691406</ele>
        <time>2019-01-27T10:48:58Z</time>
      </trkpt>
      <trkpt lat="46.31394" lon="4.49829">
        <ele>448.11181640625</ele>
        <time>2019-01-27T10:49:07Z</time>
      </trkpt>
      <trkpt lat="46.31404" lon="4.49838">
        <ele>449.5537109375</ele>
        <time>2019-01-27T10:49:17Z</time>
      </trkpt>
      <trkpt lat="46.31417" lon="4.49843">
        <ele>450.99560546875</ele>
        <time>2019-01-27T10:49:26Z</time>
      </trkpt>
      <trkpt lat="46.3143" lon="4.4985">
        <ele>451.47631835938</ele>
        <time>2019-01-27T10:49:36Z</time>
      </trkpt>
      <trkpt lat="46.31443" lon="4.49851">
        <ele>451.95703125</ele>
        <time>2019-01-27T10:49:44Z</time>
      </trkpt>
      <trkpt lat="46.31455" lon="4.49858">
        <ele>453.39892578125</ele>
        <time>2019-01-27T10:49:56Z</time>
      </trkpt>
      <trkpt lat="46.31469" lon="4.49867">
        <ele>453.87963867188</ele>
        <time>2019-01-27T10:50:06Z</time>
      </trkpt>
      <trkpt lat="46.31482" lon="4.49873">
        <ele>454.36022949219</ele>
        <time>2019-01-27T10:50:17Z</time>
      </trkpt>
      <trkpt lat="46.31493" lon="4.49879">
        <ele>455.32153320312</ele>
        <time>2019-01-27T10:50:25Z</time>
      </trkpt>
      <trkpt lat="46.31505" lon="4.49888">
        <ele>456.28295898438</ele>
        <time>2019-01-27T10:50:33Z</time>
      </trkpt>
      <trkpt lat="46.31518" lon="4.49893">
        <ele>456.28295898438</ele>
        <time>2019-01-27T10:50:41Z</time>
      </trkpt>
      <trkpt lat="46.31528" lon="4.49897">
        <ele>454.8408203125</ele>
        <time>2019-01-27T10:50:45Z</time>
      </trkpt>
      <trkpt lat="46.31539" lon="4.49905">
        <ele>453.39892578125</ele>
        <time>2019-01-27T10:50:49Z</time>
      </trkpt>
      <trkpt lat="46.31548" lon="4.49913">
        <ele>452.43762207031</ele>
        <time>2019-01-27T10:50:53Z</time>
      </trkpt>
      <trkpt lat="46.31557" lon="4.49922">
        <ele>451.95703125</ele>
        <time>2019-01-27T10:50:56Z</time>
      </trkpt>
      <trkpt lat="46.31566" lon="4.4993">
        <ele>451.95703125</ele>
        <time>2019-01-27T10:51:00Z</time>
      </trkpt>
      <trkpt lat="46.31578" lon="4.49947">
        <ele>451.95703125</ele>
        <time>2019-01-27T10:51:06Z</time>
      </trkpt>
      <trkpt lat="46.31591" lon="4.49961">
        <ele>451.95703125</ele>
        <time>2019-01-27T10:51:11Z</time>
      </trkpt>
      <trkpt lat="46.316" lon="4.49972">
        <ele>452.43762207031</ele>
        <time>2019-01-27T10:51:15Z</time>
      </trkpt>
      <trkpt lat="46.31611" lon="4.49987">
        <ele>452.91821289062</ele>
        <time>2019-01-27T10:51:20Z</time>
      </trkpt>
      <trkpt lat="46.31619" lon="4.50002">
        <ele>453.39892578125</ele>
        <time>2019-01-27T10:51:25Z</time>
      </trkpt>
      <trkpt lat="46.31629" lon="4.50011">
        <ele>453.87963867188</ele>
        <time>2019-01-27T10:51:29Z</time>
      </trkpt>
      <trkpt lat="46.31638" lon="4.50026">
        <ele>454.8408203125</ele>
        <time>2019-01-27T10:51:34Z</time>
      </trkpt>
      <trkpt lat="46.31648" lon="4.50038">
        <ele>454.36022949219</ele>
        <time>2019-01-27T10:51:39Z</time>
      </trkpt>
      <trkpt lat="46.31657" lon="4.5005">
        <ele>452.91821289062</ele>
        <time>2019-01-27T10:51:44Z</time>
      </trkpt>
      <trkpt lat="46.31666" lon="4.5006">
        <ele>451.47631835938</ele>
        <time>2019-01-27T10:51:48Z</time>
      </trkpt>
      <trkpt lat="46.31678" lon="4.50075">
        <ele>450.51501464844</ele>
        <time>2019-01-27T10:51:53Z</time>
      </trkpt>
      <trkpt lat="46.3169" lon="4.50083">
        <ele>449.07299804688</ele>
        <time>2019-01-27T10:51:58Z</time>
      </trkpt>
      <trkpt lat="46.31706" lon="4.50094">
        <ele>448.11181640625</ele>
        <time>2019-01-27T10:52:03Z</time>
      </trkpt>
      <trkpt lat="46.31717" lon="4.50097">
        <ele>447.15026855469</ele>
        <time>2019-01-27T10:52:07Z</time>
      </trkpt>
      <trkpt lat="46.31728" lon="4.50099">
        <ele>447.15026855469</ele>
        <time>2019-01-27T10:52:11Z</time>
      </trkpt>
      <trkpt lat="46.31741" lon="4.50104">
        <ele>447.63098144531</ele>
        <time>2019-01-27T10:52:21Z</time>
      </trkpt>
      <trkpt lat="46.31754" lon="4.50117">
        <ele>448.59240722656</ele>
        <time>2019-01-27T10:52:31Z</time>
      </trkpt>
      <trkpt lat="46.31764" lon="4.50128">
        <ele>450.03442382812</ele>
        <time>2019-01-27T10:52:42Z</time>
      </trkpt>
      <trkpt lat="46.31781" lon="4.5014">
        <ele>451.47631835938</ele>
        <time>2019-01-27T10:52:51Z</time>
      </trkpt>
      <trkpt lat="46.31796" lon="4.5015">
        <ele>452.91821289062</ele>
        <time>2019-01-27T10:53:00Z</time>
      </trkpt>
      <trkpt lat="46.31811" lon="4.50155">
        <ele>455.80224609375</ele>
        <time>2019-01-27T10:53:11Z</time>
      </trkpt>
      <trkpt lat="46.31821" lon="4.50163">
        <ele>457.24426269531</ele>
        <time>2019-01-27T10:53:18Z</time>
      </trkpt>
      <trkpt lat="46.31828" lon="4.5018">
        <ele>459.16687011719</ele>
        <time>2019-01-27T10:53:27Z</time>
      </trkpt>
      <trkpt lat="46.31842" lon="4.50205">
        <ele>459.64758300781</ele>
        <time>2019-01-27T10:53:38Z</time>
      </trkpt>
      <trkpt lat="46.3185" lon="4.50219">
        <ele>460.60876464844</ele>
        <time>2019-01-27T10:53:47Z</time>
      </trkpt>
      <trkpt lat="46.31862" lon="4.50238">
        <ele>461.08947753906</ele>
        <time>2019-01-27T10:53:56Z</time>
      </trkpt>
      <trkpt lat="46.31872" lon="4.50232">
        <ele>463.01208496094</ele>
        <time>2019-01-27T10:54:04Z</time>
      </trkpt>
      <trkpt lat="46.31894" lon="4.50222">
        <ele>462.53137207031</ele>
        <time>2019-01-27T10:54:16Z</time>
      </trkpt>
      <trkpt lat="46.31902" lon="4.50221">
        <ele>462.53137207031</ele>
        <time>2019-01-27T10:54:20Z</time>
      </trkpt>
      <trkpt lat="46.31915" lon="4.50226">
        <ele>461.08947753906</ele>
        <time>2019-01-27T10:54:24Z</time>
      </trkpt>
      <trkpt lat="46.31923" lon="4.50234">
        <ele>461.08947753906</ele>
        <time>2019-01-27T10:54:28Z</time>
      </trkpt>
      <trkpt lat="46.31935" lon="4.50247">
        <ele>461.08947753906</ele>
        <time>2019-01-27T10:54:33Z</time>
      </trkpt>
      <trkpt lat="46.31949" lon="4.50261">
        <ele>460.60876464844</ele>
        <time>2019-01-27T10:54:38Z</time>
      </trkpt>
      <trkpt lat="46.31958" lon="4.50266">
        <ele>461.08947753906</ele>
        <time>2019-01-27T10:54:42Z</time>
      </trkpt>
      <trkpt lat="46.31969" lon="4.5027">
        <ele>461.08947753906</ele>
        <time>2019-01-27T10:54:46Z</time>
      </trkpt>
      <trkpt lat="46.31981" lon="4.50276">
        <ele>461.57019042969</ele>
        <time>2019-01-27T10:54:51Z</time>
      </trkpt>
      <trkpt lat="46.31994" lon="4.50285">
        <ele>462.53137207031</ele>
        <time>2019-01-27T10:54:57Z</time>
      </trkpt>
      <trkpt lat="46.32004" lon="4.50304">
        <ele>463.01208496094</ele>
        <time>2019-01-27T10:55:02Z</time>
      </trkpt>
      <trkpt lat="46.32013" lon="4.50325">
        <ele>463.01208496094</ele>
        <time>2019-01-27T10:55:08Z</time>
      </trkpt>
      <trkpt lat="46.3201" lon="4.50344">
        <ele>462.05078125</ele>
        <time>2019-01-27T10:55:13Z</time>
      </trkpt>
      <trkpt lat="46.32008" lon="4.50364">
        <ele>462.53137207031</ele>
        <time>2019-01-27T10:55:18Z</time>
      </trkpt>
      <trkpt lat="46.3201" lon="4.50386">
        <ele>461.57019042969</ele>
        <time>2019-01-27T10:55:23Z</time>
      </trkpt>
      <trkpt lat="46.32009" lon="4.50409">
        <ele>462.05078125</ele>
        <time>2019-01-27T10:55:29Z</time>
      </trkpt>
      <trkpt lat="46.32008" lon="4.50434">
        <ele>462.05078125</ele>
        <time>2019-01-27T10:55:34Z</time>
      </trkpt>
      <trkpt lat="46.32013" lon="4.50451">
        <ele>462.05078125</ele>
        <time>2019-01-27T10:55:39Z</time>
      </trkpt>
      <trkpt lat="46.32022" lon="4.50469">
        <ele>462.53137207031</ele>
        <time>2019-01-27T10:55:44Z</time>
      </trkpt>
      <trkpt lat="46.32031" lon="4.50486">
        <ele>463.01208496094</ele>
        <time>2019-01-27T10:55:49Z</time>
      </trkpt>
      <trkpt lat="46.32043" lon="4.505">
        <ele>463.49279785156</ele>
        <time>2019-01-27T10:55:54Z</time>
      </trkpt>
      <trkpt lat="46.32053" lon="4.50521">
        <ele>463.97338867188</ele>
        <time>2019-01-27T10:55:59Z</time>
      </trkpt>
      <trkpt lat="46.32063" lon="4.50536">
        <ele>463.97338867188</ele>
        <time>2019-01-27T10:56:04Z</time>
      </trkpt>
      <trkpt lat="46.32074" lon="4.5055">
        <ele>464.4541015625</ele>
        <time>2019-01-27T10:56:09Z</time>
      </trkpt>
      <trkpt lat="46.32085" lon="4.50565">
        <ele>464.4541015625</ele>
        <time>2019-01-27T10:56:15Z</time>
      </trkpt>
      <trkpt lat="46.3209" lon="4.50593">
        <ele>463.49279785156</ele>
        <time>2019-01-27T10:56:21Z</time>
      </trkpt>
      <trkpt lat="46.32087" lon="4.50608">
        <ele>462.53137207031</ele>
        <time>2019-01-27T10:56:25Z</time>
      </trkpt>
      <trkpt lat="46.32085" lon="4.5063">
        <ele>461.08947753906</ele>
        <time>2019-01-27T10:56:29Z</time>
      </trkpt>
      <trkpt lat="46.32082" lon="4.50647">
        <ele>459.64758300781</ele>
        <time>2019-01-27T10:56:34Z</time>
      </trkpt>
      <trkpt lat="46.32079" lon="4.50663">
        <ele>459.16687011719</ele>
        <time>2019-01-27T10:56:38Z</time>
      </trkpt>
      <trkpt lat="46.32074" lon="4.50678">
        <ele>457.24426269531</ele>
        <time>2019-01-27T10:56:43Z</time>
      </trkpt>
      <trkpt lat="46.32063" lon="4.50692">
        <ele>455.80224609375</ele>
        <time>2019-01-27T10:56:48Z</time>
      </trkpt>
      <trkpt lat="46.32055" lon="4.50704">
        <ele>454.8408203125</ele>
        <time>2019-01-27T10:56:52Z</time>
      </trkpt>
      <trkpt lat="46.32044" lon="4.50715">
        <ele>452.91821289062</ele>
        <time>2019-01-27T10:56:57Z</time>
      </trkpt>
      <trkpt lat="46.32029" lon="4.50724">
        <ele>450.51501464844</ele>
        <time>2019-01-27T10:57:03Z</time>
      </trkpt>
      <trkpt lat="46.32019" lon="4.50744">
        <ele>448.59240722656</ele>
        <time>2019-01-27T10:57:09Z</time>
      </trkpt>
      <trkpt lat="46.32011" lon="4.50759">
        <ele>447.63098144531</ele>
        <time>2019-01-27T10:57:14Z</time>
      </trkpt>
      <trkpt lat="46.32002" lon="4.50772">
        <ele>447.15026855469</ele>
        <time>2019-01-27T10:57:19Z</time>
      </trkpt>
      <trkpt lat="46.31988" lon="4.50784">
        <ele>444.26647949219</ele>
        <time>2019-01-27T10:57:27Z</time>
      </trkpt>
      <trkpt lat="46.31972" lon="4.50797">
        <ele>442.34387207031</ele>
        <time>2019-01-27T10:57:32Z</time>
      </trkpt>
      <trkpt lat="46.31958" lon="4.50802">
        <ele>439.9404296875</ele>
        <time>2019-01-27T10:57:38Z</time>
      </trkpt>
      <trkpt lat="46.31941" lon="4.50807">
        <ele>437.537109375</ele>
        <time>2019-01-27T10:57:43Z</time>
      </trkpt>
      <trkpt lat="46.31922" lon="4.50813">
        <ele>434.6533203125</ele>
        <time>2019-01-27T10:57:49Z</time>
      </trkpt>
      <trkpt lat="46.31905" lon="4.50815">
        <ele>431.76916503906</ele>
        <time>2019-01-27T10:57:56Z</time>
      </trkpt>
      <trkpt lat="46.31894" lon="4.50823">
        <ele>429.84655761719</ele>
        <time>2019-01-27T10:58:01Z</time>
      </trkpt>
      <trkpt lat="46.31884" lon="4.50825">
        <ele>426.48205566406</ele>
        <time>2019-01-27T10:58:07Z</time>
      </trkpt>
      <trkpt lat="46.31858" lon="4.50837">
        <ele>420.2333984375</ele>
        <time>2019-01-27T10:58:18Z</time>
      </trkpt>
      <trkpt lat="46.31846" lon="4.50844">
        <ele>420.2333984375</ele>
        <time>2019-01-27T10:58:21Z</time>
      </trkpt>
      <trkpt lat="46.31827" lon="4.50855">
        <ele>418.31079101562</ele>
        <time>2019-01-27T10:58:26Z</time>
      </trkpt>
      <trkpt lat="46.31816" lon="4.50865">
        <ele>417.349609375</ele>
        <time>2019-01-27T10:58:30Z</time>
      </trkpt>
      <trkpt lat="46.31808" lon="4.50876">
        <ele>416.38818359375</ele>
        <time>2019-01-27T10:58:34Z</time>
      </trkpt>
      <trkpt lat="46.31795" lon="4.50889">
        <ele>416.86889648438</ele>
        <time>2019-01-27T10:58:39Z</time>
      </trkpt>
      <trkpt lat="46.3178" lon="4.50904">
        <ele>417.349609375</ele>
        <time>2019-01-27T10:58:48Z</time>
      </trkpt>
      <trkpt lat="46.31769" lon="4.50918">
        <ele>418.31079101562</ele>
        <time>2019-01-27T10:58:55Z</time>
      </trkpt>
      <trkpt lat="46.31769" lon="4.50935">
        <ele>418.79150390625</ele>
        <time>2019-01-27T10:59:00Z</time>
      </trkpt>
      <trkpt lat="46.31766" lon="4.50955">
        <ele>418.31079101562</ele>
        <time>2019-01-27T10:59:05Z</time>
      </trkpt>
      <trkpt lat="46.31764" lon="4.50971">
        <ele>418.79150390625</ele>
        <time>2019-01-27T10:59:09Z</time>
      </trkpt>
      <trkpt lat="46.31764" lon="4.50987">
        <ele>418.31079101562</ele>
        <time>2019-01-27T10:59:13Z</time>
      </trkpt>
      <trkpt lat="46.31764" lon="4.51003">
        <ele>418.79150390625</ele>
        <time>2019-01-27T10:59:17Z</time>
      </trkpt>
      <trkpt lat="46.31764" lon="4.51017">
        <ele>418.31079101562</ele>
        <time>2019-01-27T10:59:21Z</time>
      </trkpt>
      <trkpt lat="46.31762" lon="4.51032">
        <ele>418.79150390625</ele>
        <time>2019-01-27T10:59:25Z</time>
      </trkpt>
      <trkpt lat="46.31757" lon="4.5105">
        <ele>419.27221679688</ele>
        <time>2019-01-27T10:59:30Z</time>
      </trkpt>
      <trkpt lat="46.31754" lon="4.5107">
        <ele>419.27221679688</ele>
        <time>2019-01-27T10:59:35Z</time>
      </trkpt>
      <trkpt lat="46.31755" lon="4.51085">
        <ele>418.79150390625</ele>
        <time>2019-01-27T10:59:39Z</time>
      </trkpt>
      <trkpt lat="46.31753" lon="4.51106">
        <ele>417.349609375</ele>
        <time>2019-01-27T10:59:44Z</time>
      </trkpt>
      <trkpt lat="46.3175" lon="4.51132">
        <ele>416.38818359375</ele>
        <time>2019-01-27T10:59:50Z</time>
      </trkpt>
      <trkpt lat="46.31749" lon="4.51154">
        <ele>415.42687988281</ele>
        <time>2019-01-27T10:59:55Z</time>
      </trkpt>
      <trkpt lat="46.31755" lon="4.51173">
        <ele>414.46545410156</ele>
        <time>2019-01-27T10:59:59Z</time>
      </trkpt>
      <trkpt lat="46.31756" lon="4.51194">
        <ele>413.50427246094</ele>
        <time>2019-01-27T11:00:04Z</time>
      </trkpt>
      <trkpt lat="46.3176" lon="4.51217">
        <ele>412.06225585938</ele>
        <time>2019-01-27T11:00:09Z</time>
      </trkpt>
      <trkpt lat="46.31762" lon="4.51237">
        <ele>410.62023925781</ele>
        <time>2019-01-27T11:00:13Z</time>
      </trkpt>
      <trkpt lat="46.31766" lon="4.51253">
        <ele>409.17834472656</ele>
        <time>2019-01-27T11:00:17Z</time>
      </trkpt>
      <trkpt lat="46.31771" lon="4.51266">
        <ele>407.736328125</ele>
        <time>2019-01-27T11:00:21Z</time>
      </trkpt>
      <trkpt lat="46.3178" lon="4.51284">
        <ele>405.81372070312</ele>
        <time>2019-01-27T11:00:26Z</time>
      </trkpt>
      <trkpt lat="46.31793" lon="4.51301">
        <ele>404.37170410156</ele>
        <time>2019-01-27T11:00:30Z</time>
      </trkpt>
      <trkpt lat="46.31803" lon="4.51313">
        <ele>403.89111328125</ele>
        <time>2019-01-27T11:00:34Z</time>
      </trkpt>
      <trkpt lat="46.31811" lon="4.5133">
        <ele>401.96850585938</ele>
        <time>2019-01-27T11:00:38Z</time>
      </trkpt>
      <trkpt lat="46.31822" lon="4.51348">
        <ele>401.00708007812</ele>
        <time>2019-01-27T11:00:43Z</time>
      </trkpt>
      <trkpt lat="46.31832" lon="4.51365">
        <ele>400.52648925781</ele>
        <time>2019-01-27T11:00:48Z</time>
      </trkpt>
      <trkpt lat="46.31842" lon="4.51382">
        <ele>399.56506347656</ele>
        <time>2019-01-27T11:00:52Z</time>
      </trkpt>
      <trkpt lat="46.31847" lon="4.51399">
        <ele>398.12316894531</ele>
        <time>2019-01-27T11:00:56Z</time>
      </trkpt>
      <trkpt lat="46.31852" lon="4.51418">
        <ele>398.12316894531</ele>
        <time>2019-01-27T11:01:01Z</time>
      </trkpt>
      <trkpt lat="46.31856" lon="4.51441">
        <ele>396.68115234375</ele>
        <time>2019-01-27T11:01:06Z</time>
      </trkpt>
      <trkpt lat="46.31859" lon="4.5146">
        <ele>395.23913574219</ele>
        <time>2019-01-27T11:01:11Z</time>
      </trkpt>
      <trkpt lat="46.31863" lon="4.51485">
        <ele>393.79724121094</ele>
        <time>2019-01-27T11:01:16Z</time>
      </trkpt>
      <trkpt lat="46.31868" lon="4.51502">
        <ele>393.31652832031</ele>
        <time>2019-01-27T11:01:20Z</time>
      </trkpt>
      <trkpt lat="46.31871" lon="4.51523">
        <ele>391.87451171875</ele>
        <time>2019-01-27T11:01:24Z</time>
      </trkpt>
      <trkpt lat="46.31875" lon="4.51545">
        <ele>390.91320800781</ele>
        <time>2019-01-27T11:01:28Z</time>
      </trkpt>
      <trkpt lat="46.31876" lon="4.51562">
        <ele>388.99060058594</ele>
        <time>2019-01-27T11:01:32Z</time>
      </trkpt>
      <trkpt lat="46.31878" lon="4.51581">
        <ele>388.51000976562</ele>
        <time>2019-01-27T11:01:36Z</time>
      </trkpt>
      <trkpt lat="46.31879" lon="4.51598">
        <ele>386.58740234375</ele>
        <time>2019-01-27T11:01:40Z</time>
      </trkpt>
      <trkpt lat="46.31889" lon="4.51612">
        <ele>385.6259765625</ele>
        <time>2019-01-27T11:01:44Z</time>
      </trkpt>
      <trkpt lat="46.31899" lon="4.5163">
        <ele>384.18408203125</ele>
        <time>2019-01-27T11:01:48Z</time>
      </trkpt>
      <trkpt lat="46.31911" lon="4.51652">
        <ele>381.30004882812</ele>
        <time>2019-01-27T11:01:52Z</time>
      </trkpt>
      <trkpt lat="46.31925" lon="4.51655">
        <ele>379.85803222656</ele>
        <time>2019-01-27T11:01:56Z</time>
      </trkpt>
      <trkpt lat="46.31939" lon="4.5167">
        <ele>377.93542480469</ele>
        <time>2019-01-27T11:02:02Z</time>
      </trkpt>
      <trkpt lat="46.31952" lon="4.51675">
        <ele>375.53210449219</ele>
        <time>2019-01-27T11:02:07Z</time>
      </trkpt>
      <trkpt lat="46.31967" lon="4.51682">
        <ele>373.60949707031</ele>
        <time>2019-01-27T11:02:12Z</time>
      </trkpt>
      <trkpt lat="46.31986" lon="4.51689">
        <ele>373.12890625</ele>
        <time>2019-01-27T11:02:17Z</time>
      </trkpt>
      <trkpt lat="46.32005" lon="4.51703">
        <ele>370.24487304688</ele>
        <time>2019-01-27T11:02:22Z</time>
      </trkpt>
      <trkpt lat="46.32018" lon="4.51708">
        <ele>368.80297851562</ele>
        <time>2019-01-27T11:02:26Z</time>
      </trkpt>
      <trkpt lat="46.32028" lon="4.5171">
        <ele>367.36096191406</ele>
        <time>2019-01-27T11:02:30Z</time>
      </trkpt>
      <trkpt lat="46.3204" lon="4.51709">
        <ele>365.9189453125</ele>
        <time>2019-01-27T11:02:34Z</time>
      </trkpt>
      <trkpt lat="46.32051" lon="4.51707">
        <ele>365.43835449219</ele>
        <time>2019-01-27T11:02:38Z</time>
      </trkpt>
      <trkpt lat="46.32063" lon="4.51702">
        <ele>364.47692871094</ele>
        <time>2019-01-27T11:02:42Z</time>
      </trkpt>
      <trkpt lat="46.32076" lon="4.51698">
        <ele>363.99633789062</ele>
        <time>2019-01-27T11:02:46Z</time>
      </trkpt>
      <trkpt lat="46.32085" lon="4.5171">
        <ele>363.03503417969</ele>
        <time>2019-01-27T11:02:50Z</time>
      </trkpt>
      <trkpt lat="46.32102" lon="4.51715">
        <ele>363.51574707031</ele>
        <time>2019-01-27T11:02:54Z</time>
      </trkpt>
      <trkpt lat="46.32119" lon="4.51721">
        <ele>363.99633789062</ele>
        <time>2019-01-27T11:02:58Z</time>
      </trkpt>
      <trkpt lat="46.32134" lon="4.51747">
        <ele>364.95764160156</ele>
        <time>2019-01-27T11:03:03Z</time>
      </trkpt>
      <trkpt lat="46.32148" lon="4.51766">
        <ele>364.95764160156</ele>
        <time>2019-01-27T11:03:09Z</time>
      </trkpt>
      <trkpt lat="46.32159" lon="4.51779">
        <ele>365.9189453125</ele>
        <time>2019-01-27T11:03:15Z</time>
      </trkpt>
      <trkpt lat="46.32167" lon="4.51798">
        <ele>366.88024902344</ele>
        <time>2019-01-27T11:03:21Z</time>
      </trkpt>
      <trkpt lat="46.32183" lon="4.51825">
        <ele>366.88024902344</ele>
        <time>2019-01-27T11:03:33Z</time>
      </trkpt>
      <trkpt lat="46.32194" lon="4.51843">
        <ele>366.39953613281</ele>
        <time>2019-01-27T11:03:43Z</time>
      </trkpt>
      <trkpt lat="46.32206" lon="4.51859">
        <ele>365.9189453125</ele>
        <time>2019-01-27T11:03:54Z</time>
      </trkpt>
      <trkpt lat="46.32222" lon="4.51872">
        <ele>365.43835449219</ele>
        <time>2019-01-27T11:04:02Z</time>
      </trkpt>
      <trkpt lat="46.32234" lon="4.5188">
        <ele>365.43835449219</ele>
        <time>2019-01-27T11:04:09Z</time>
      </trkpt>
      <trkpt lat="46.32245" lon="4.51884">
        <ele>364.95764160156</ele>
        <time>2019-01-27T11:04:13Z</time>
      </trkpt>
      <trkpt lat="46.32259" lon="4.51891">
        <ele>363.99633789062</ele>
        <time>2019-01-27T11:04:17Z</time>
      </trkpt>
      <trkpt lat="46.32273" lon="4.51896">
        <ele>363.99633789062</ele>
        <time>2019-01-27T11:04:21Z</time>
      </trkpt>
      <trkpt lat="46.32284" lon="4.51901">
        <ele>363.03503417969</ele>
        <time>2019-01-27T11:04:25Z</time>
      </trkpt>
      <trkpt lat="46.32297" lon="4.51903">
        <ele>361.59313964844</ele>
        <time>2019-01-27T11:04:29Z</time>
      </trkpt>
      <trkpt lat="46.32307" lon="4.51905">
        <ele>360.63171386719</ele>
        <time>2019-01-27T11:04:32Z</time>
      </trkpt>
      <trkpt lat="46.32317" lon="4.5191">
        <ele>359.67041015625</ele>
        <time>2019-01-27T11:04:36Z</time>
      </trkpt>
      <trkpt lat="46.32328" lon="4.51912">
        <ele>359.18969726562</ele>
        <time>2019-01-27T11:04:40Z</time>
      </trkpt>
      <trkpt lat="46.32343" lon="4.51913">
        <ele>358.708984375</ele>
        <time>2019-01-27T11:04:45Z</time>
      </trkpt>
      <trkpt lat="46.32356" lon="4.51916">
        <ele>358.22839355469</ele>
        <time>2019-01-27T11:04:49Z</time>
      </trkpt>
      <trkpt lat="46.32367" lon="4.51921">
        <ele>356.30578613281</ele>
        <time>2019-01-27T11:04:53Z</time>
      </trkpt>
      <trkpt lat="46.3238" lon="4.51932">
        <ele>355.34448242188</ele>
        <time>2019-01-27T11:04:57Z</time>
      </trkpt>
      <trkpt lat="46.32391" lon="4.51939">
        <ele>354.86376953125</ele>
        <time>2019-01-27T11:05:01Z</time>
      </trkpt>
      <trkpt lat="46.32402" lon="4.51948">
        <ele>353.90258789062</ele>
        <time>2019-01-27T11:05:05Z</time>
      </trkpt>
      <trkpt lat="46.32415" lon="4.51959">
        <ele>352.46057128906</ele>
        <time>2019-01-27T11:05:10Z</time>
      </trkpt>
      <trkpt lat="46.32429" lon="4.51973">
        <ele>351.49914550781</ele>
        <time>2019-01-27T11:05:15Z</time>
      </trkpt>
      <trkpt lat="46.32439" lon="4.51983">
        <ele>349.57653808594</ele>
        <time>2019-01-27T11:05:20Z</time>
      </trkpt>
      <trkpt lat="46.32452" lon="4.5199">
        <ele>349.09582519531</ele>
        <time>2019-01-27T11:05:25Z</time>
      </trkpt>
      <trkpt lat="46.32463" lon="4.51993">
        <ele>347.17321777344</ele>
        <time>2019-01-27T11:05:31Z</time>
      </trkpt>
      <trkpt lat="46.32481" lon="4.52">
        <ele>346.21203613281</ele>
        <time>2019-01-27T11:05:36Z</time>
      </trkpt>
      <trkpt lat="46.32494" lon="4.52008">
        <ele>344.77001953125</ele>
        <time>2019-01-27T11:05:41Z</time>
      </trkpt>
      <trkpt lat="46.325" lon="4.52015">
        <ele>343.80859375</ele>
        <time>2019-01-27T11:05:46Z</time>
      </trkpt>
      <trkpt lat="46.32511" lon="4.52022">
        <ele>344.28942871094</ele>
        <time>2019-01-27T11:05:52Z</time>
      </trkpt>
      <trkpt lat="46.32523" lon="4.52035">
        <ele>344.77001953125</ele>
        <time>2019-01-27T11:05:58Z</time>
      </trkpt>
      <trkpt lat="46.32531" lon="4.52049">
        <ele>345.73132324219</ele>
        <time>2019-01-27T11:06:03Z</time>
      </trkpt>
      <trkpt lat="46.32541" lon="4.52063">
        <ele>345.25061035156</ele>
        <time>2019-01-27T11:06:09Z</time>
      </trkpt>
      <trkpt lat="46.32546" lon="4.52082">
        <ele>346.21203613281</ele>
        <time>2019-01-27T11:06:15Z</time>
      </trkpt>
      <trkpt lat="46.32552" lon="4.52102">
        <ele>346.21203613281</ele>
        <time>2019-01-27T11:06:20Z</time>
      </trkpt>
      <trkpt lat="46.32556" lon="4.5212">
        <ele>347.17321777344</ele>
        <time>2019-01-27T11:06:25Z</time>
      </trkpt>
      <trkpt lat="46.32567" lon="4.52144">
        <ele>348.13464355469</ele>
        <time>2019-01-27T11:06:40Z</time>
      </trkpt>
      <trkpt lat="46.32572" lon="4.52141">
        <ele>348.13464355469</ele>
        <time>2019-01-27T11:06:46Z</time>
      </trkpt>
      <trkpt lat="46.32579" lon="4.52137">
        <ele>347.17321777344</ele>
        <time>2019-01-27T11:06:53Z</time>
      </trkpt>
      <trkpt lat="46.32581" lon="4.5213">
        <ele>344.28942871094</ele>
        <time>2019-01-27T11:07:03Z</time>
      </trkpt>
      <trkpt lat="46.3259" lon="4.52116">
        <ele>344.28942871094</ele>
        <time>2019-01-27T11:07:12Z</time>
      </trkpt>
      <trkpt lat="46.32606" lon="4.52097">
        <ele>344.77001953125</ele>
        <time>2019-01-27T11:07:22Z</time>
      </trkpt>
      <trkpt lat="46.32625" lon="4.52076">
        <ele>346.21203613281</ele>
        <time>2019-01-27T11:07:32Z</time>
      </trkpt>
      <trkpt lat="46.32643" lon="4.52064">
        <ele>346.69262695312</ele>
        <time>2019-01-27T11:07:40Z</time>
      </trkpt>
      <trkpt lat="46.3266" lon="4.5204">
        <ele>347.17321777344</ele>
        <time>2019-01-27T11:07:49Z</time>
      </trkpt>
      <trkpt lat="46.32679" lon="4.52014">
        <ele>348.13464355469</ele>
        <time>2019-01-27T11:07:58Z</time>
      </trkpt>
      <trkpt lat="46.3269" lon="4.51994">
        <ele>348.13464355469</ele>
        <time>2019-01-27T11:08:06Z</time>
      </trkpt>
      <trkpt lat="46.32707" lon="4.51972">
        <ele>349.57653808594</ele>
        <time>2019-01-27T11:08:15Z</time>
      </trkpt>
      <trkpt lat="46.32724" lon="4.51949">
        <ele>349.57653808594</ele>
        <time>2019-01-27T11:08:25Z</time>
      </trkpt>
      <trkpt lat="46.3274" lon="4.51932">
        <ele>350.05725097656</ele>
        <time>2019-01-27T11:08:37Z</time>
      </trkpt>
      <trkpt lat="46.32755" lon="4.51911">
        <ele>351.01843261719</ele>
        <time>2019-01-27T11:08:50Z</time>
      </trkpt>
      <trkpt lat="46.32763" lon="4.51897">
        <ele>351.01843261719</ele>
        <time>2019-01-27T11:09:02Z</time>
      </trkpt>
      <trkpt lat="46.32781" lon="4.51885">
        <ele>351.49914550781</ele>
        <time>2019-01-27T11:09:12Z</time>
      </trkpt>
      <trkpt lat="46.32814" lon="4.51868">
        <ele>352.46057128906</ele>
        <time>2019-01-27T11:09:23Z</time>
      </trkpt>
      <trkpt lat="46.3283" lon="4.51847">
        <ele>352.46057128906</ele>
        <time>2019-01-27T11:09:35Z</time>
      </trkpt>
      <trkpt lat="46.32839" lon="4.51821">
        <ele>353.421875</ele>
        <time>2019-01-27T11:09:45Z</time>
      </trkpt>
      <trkpt lat="46.32851" lon="4.51804">
        <ele>353.90258789062</ele>
        <time>2019-01-27T11:09:58Z</time>
      </trkpt>
      <trkpt lat="46.32864" lon="4.51786">
        <ele>354.38317871094</ele>
        <time>2019-01-27T11:10:07Z</time>
      </trkpt>
      <trkpt lat="46.32876" lon="4.51768">
        <ele>355.34448242188</ele>
        <time>2019-01-27T11:10:13Z</time>
      </trkpt>
      <trkpt lat="46.3289" lon="4.51754">
        <ele>356.30578613281</ele>
        <time>2019-01-27T11:10:19Z</time>
      </trkpt>
      <trkpt lat="46.32904" lon="4.51734">
        <ele>356.30578613281</ele>
        <time>2019-01-27T11:10:27Z</time>
      </trkpt>
      <trkpt lat="46.3292" lon="4.51718">
        <ele>357.26708984375</ele>
        <time>2019-01-27T11:10:34Z</time>
      </trkpt>
      <trkpt lat="46.32935" lon="4.51699">
        <ele>357.26708984375</ele>
        <time>2019-01-27T11:10:42Z</time>
      </trkpt>
      <trkpt lat="46.32954" lon="4.51682">
        <ele>357.74780273438</ele>
        <time>2019-01-27T11:10:57Z</time>
      </trkpt>
      <trkpt lat="46.32976" lon="4.5167">
        <ele>358.22839355469</ele>
        <time>2019-01-27T11:13:14Z</time>
      </trkpt>
      <trkpt lat="46.32995" lon="4.51657">
        <ele>358.22839355469</ele>
        <time>2019-01-27T11:13:38Z</time>
      </trkpt>
      <trkpt lat="46.33002" lon="4.51644">
        <ele>358.22839355469</ele>
        <time>2019-01-27T11:13:43Z</time>
      </trkpt>
      <trkpt lat="46.33011" lon="4.5163">
        <ele>358.22839355469</ele>
        <time>2019-01-27T11:13:48Z</time>
      </trkpt>
      <trkpt lat="46.3302" lon="4.51617">
        <ele>357.74780273438</ele>
        <time>2019-01-27T11:13:53Z</time>
      </trkpt>
      <trkpt lat="46.33031" lon="4.51603">
        <ele>358.22839355469</ele>
        <time>2019-01-27T11:13:57Z</time>
      </trkpt>
      <trkpt lat="46.3304" lon="4.51585">
        <ele>358.708984375</ele>
        <time>2019-01-27T11:14:02Z</time>
      </trkpt>
      <trkpt lat="46.33051" lon="4.51569">
        <ele>360.15112304688</ele>
        <time>2019-01-27T11:14:08Z</time>
      </trkpt>
      <trkpt lat="46.33061" lon="4.51552">
        <ele>360.63171386719</ele>
        <time>2019-01-27T11:14:14Z</time>
      </trkpt>
      <trkpt lat="46.33068" lon="4.51538">
        <ele>361.11242675781</ele>
        <time>2019-01-27T11:14:19Z</time>
      </trkpt>
      <trkpt lat="46.33073" lon="4.51517">
        <ele>361.11242675781</ele>
        <time>2019-01-27T11:14:25Z</time>
      </trkpt>
      <trkpt lat="46.33078" lon="4.51497">
        <ele>361.59313964844</ele>
        <time>2019-01-27T11:14:30Z</time>
      </trkpt>
      <trkpt lat="46.33085" lon="4.5148">
        <ele>361.59313964844</ele>
        <time>2019-01-27T11:14:35Z</time>
      </trkpt>
      <trkpt lat="46.33094" lon="4.5146">
        <ele>361.11242675781</ele>
        <time>2019-01-27T11:14:40Z</time>
      </trkpt>
      <trkpt lat="46.33106" lon="4.51444">
        <ele>361.59313964844</ele>
        <time>2019-01-27T11:14:45Z</time>
      </trkpt>
      <trkpt lat="46.33116" lon="4.51429">
        <ele>361.59313964844</ele>
        <time>2019-01-27T11:14:50Z</time>
      </trkpt>
      <trkpt lat="46.33123" lon="4.51411">
        <ele>362.55432128906</ele>
        <time>2019-01-27T11:14:55Z</time>
      </trkpt>
      <trkpt lat="46.33128" lon="4.51393">
        <ele>362.55432128906</ele>
        <time>2019-01-27T11:15:00Z</time>
      </trkpt>
      <trkpt lat="46.33131" lon="4.51369">
        <ele>363.51574707031</ele>
        <time>2019-01-27T11:15:05Z</time>
      </trkpt>
      <trkpt lat="46.33141" lon="4.51345">
        <ele>364.47692871094</ele>
        <time>2019-01-27T11:15:16Z</time>
      </trkpt>
      <trkpt lat="46.33147" lon="4.51333">
        <ele>366.88024902344</ele>
        <time>2019-01-27T11:15:21Z</time>
      </trkpt>
      <trkpt lat="46.33153" lon="4.51313">
        <ele>369.28369140625</ele>
        <time>2019-01-27T11:15:28Z</time>
      </trkpt>
      <trkpt lat="46.33162" lon="4.51301">
        <ele>370.7255859375</ele>
        <time>2019-01-27T11:15:34Z</time>
      </trkpt>
      <trkpt lat="46.3317" lon="4.51287">
        <ele>372.16748046875</ele>
        <time>2019-01-27T11:15:40Z</time>
      </trkpt>
      <trkpt lat="46.3318" lon="4.5127">
        <ele>372.64819335938</ele>
        <time>2019-01-27T11:15:48Z</time>
      </trkpt>
      <trkpt lat="46.3319" lon="4.51253">
        <ele>373.12890625</ele>
        <time>2019-01-27T11:15:59Z</time>
      </trkpt>
      <trkpt lat="46.332" lon="4.51238">
        <ele>373.12890625</ele>
        <time>2019-01-27T11:16:09Z</time>
      </trkpt>
      <trkpt lat="46.33208" lon="4.5122">
        <ele>373.12890625</ele>
        <time>2019-01-27T11:16:20Z</time>
      </trkpt>
      <trkpt lat="46.33213" lon="4.51201">
        <ele>373.12890625</ele>
        <time>2019-01-27T11:16:30Z</time>
      </trkpt>
      <trkpt lat="46.3322" lon="4.5118">
        <ele>373.60949707031</ele>
        <time>2019-01-27T11:16:38Z</time>
      </trkpt>
      <trkpt lat="46.33221" lon="4.51162">
        <ele>373.60949707031</ele>
        <time>2019-01-27T11:16:45Z</time>
      </trkpt>
      <trkpt lat="46.33224" lon="4.51142">
        <ele>374.09008789062</ele>
        <time>2019-01-27T11:16:52Z</time>
      </trkpt>
      <trkpt lat="46.33235" lon="4.51122">
        <ele>373.12890625</ele>
        <time>2019-01-27T11:17:01Z</time>
      </trkpt>
      <trkpt lat="46.3325" lon="4.51096">
        <ele>373.12890625</ele>
        <time>2019-01-27T11:17:07Z</time>
      </trkpt>
      <trkpt lat="46.33261" lon="4.51074">
        <ele>372.64819335938</ele>
        <time>2019-01-27T11:17:11Z</time>
      </trkpt>
      <trkpt lat="46.3327" lon="4.51057">
        <ele>372.16748046875</ele>
        <time>2019-01-27T11:17:16Z</time>
      </trkpt>
      <trkpt lat="46.33282" lon="4.51045">
        <ele>370.24487304688</ele>
        <time>2019-01-27T11:17:22Z</time>
      </trkpt>
      <trkpt lat="46.33293" lon="4.51026">
        <ele>369.76428222656</ele>
        <time>2019-01-27T11:17:28Z</time>
      </trkpt>
      <trkpt lat="46.333" lon="4.51007">
        <ele>369.76428222656</ele>
        <time>2019-01-27T11:17:34Z</time>
      </trkpt>
      <trkpt lat="46.33309" lon="4.50987">
        <ele>369.76428222656</ele>
        <time>2019-01-27T11:17:41Z</time>
      </trkpt>
      <trkpt lat="46.33321" lon="4.50978">
        <ele>370.7255859375</ele>
        <time>2019-01-27T11:17:52Z</time>
      </trkpt>
      <trkpt lat="46.33333" lon="4.50981">
        <ele>372.16748046875</ele>
        <time>2019-01-27T11:18:04Z</time>
      </trkpt>
      <trkpt lat="46.33352" lon="4.50983">
        <ele>373.12890625</ele>
        <time>2019-01-27T11:18:15Z</time>
      </trkpt>
      <trkpt lat="46.33368" lon="4.50985">
        <ele>375.05151367188</ele>
        <time>2019-01-27T11:18:26Z</time>
      </trkpt>
      <trkpt lat="46.33381" lon="4.50992">
        <ele>376.01281738281</ele>
        <time>2019-01-27T11:18:34Z</time>
      </trkpt>
      <trkpt lat="46.3339" lon="4.50997">
        <ele>376.97424316406</ele>
        <time>2019-01-27T11:18:41Z</time>
      </trkpt>
      <trkpt lat="46.33398" lon="4.51008">
        <ele>377.93542480469</ele>
        <time>2019-01-27T11:18:50Z</time>
      </trkpt>
      <trkpt lat="46.33408" lon="4.51014">
        <ele>380.33874511719</ele>
        <time>2019-01-27T11:19:00Z</time>
      </trkpt>
      <trkpt lat="46.33415" lon="4.51014">
        <ele>381.78063964844</ele>
        <time>2019-01-27T11:19:09Z</time>
      </trkpt>
      <trkpt lat="46.33425" lon="4.51005">
        <ele>383.22265625</ele>
        <time>2019-01-27T11:19:17Z</time>
      </trkpt>
      <trkpt lat="46.33435" lon="4.50996">
        <ele>385.6259765625</ele>
        <time>2019-01-27T11:19:28Z</time>
      </trkpt>
      <trkpt lat="46.33447" lon="4.50997">
        <ele>388.51000976562</ele>
        <time>2019-01-27T11:19:50Z</time>
      </trkpt>
      <trkpt lat="46.33459" lon="4.50998">
        <ele>389.95190429688</ele>
        <time>2019-01-27T11:19:58Z</time>
      </trkpt>
      <trkpt lat="46.33473" lon="4.51001">
        <ele>390.4326171875</ele>
        <time>2019-01-27T11:20:06Z</time>
      </trkpt>
      <trkpt lat="46.33488" lon="4.51002">
        <ele>392.35534667969</ele>
        <time>2019-01-27T11:20:17Z</time>
      </trkpt>
      <trkpt lat="46.335" lon="4.50999">
        <ele>394.75854492188</ele>
        <time>2019-01-27T11:20:27Z</time>
      </trkpt>
      <trkpt lat="46.33515" lon="4.51005">
        <ele>396.68115234375</ele>
        <time>2019-01-27T11:20:36Z</time>
      </trkpt>
      <trkpt lat="46.33533" lon="4.51008">
        <ele>399.56506347656</ele>
        <time>2019-01-27T11:20:47Z</time>
      </trkpt>
      <trkpt lat="46.33549" lon="4.5101">
        <ele>400.52648925781</ele>
        <time>2019-01-27T11:20:55Z</time>
      </trkpt>
      <trkpt lat="46.33559" lon="4.5102">
        <ele>403.41040039062</ele>
        <time>2019-01-27T11:21:03Z</time>
      </trkpt>
      <trkpt lat="46.33568" lon="4.5103">
        <ele>405.3330078125</ele>
        <time>2019-01-27T11:21:13Z</time>
      </trkpt>
      <trkpt lat="46.33575" lon="4.51042">
        <ele>407.25561523438</ele>
        <time>2019-01-27T11:21:23Z</time>
      </trkpt>
      <trkpt lat="46.33581" lon="4.51054">
        <ele>409.17834472656</ele>
        <time>2019-01-27T11:21:31Z</time>
      </trkpt>
      <trkpt lat="46.33585" lon="4.51067">
        <ele>411.58166503906</ele>
        <time>2019-01-27T11:21:41Z</time>
      </trkpt>
      <trkpt lat="46.33587" lon="4.5108">
        <ele>413.50427246094</ele>
        <time>2019-01-27T11:21:51Z</time>
      </trkpt>
      <trkpt lat="46.33597" lon="4.51095">
        <ele>414.94616699219</ele>
        <time>2019-01-27T11:22:02Z</time>
      </trkpt>
      <trkpt lat="46.33604" lon="4.51109">
        <ele>416.38818359375</ele>
        <time>2019-01-27T11:22:12Z</time>
      </trkpt>
      <trkpt lat="46.33611" lon="4.5112">
        <ele>419.27221679688</ele>
        <time>2019-01-27T11:22:23Z</time>
      </trkpt>
      <trkpt lat="46.33617" lon="4.51128">
        <ele>421.67541503906</ele>
        <time>2019-01-27T11:22:34Z</time>
      </trkpt>
      <trkpt lat="46.33629" lon="4.51129">
        <ele>424.07873535156</ele>
        <time>2019-01-27T11:22:46Z</time>
      </trkpt>
      <trkpt lat="46.33641" lon="4.5114">
        <ele>426.48205566406</ele>
        <time>2019-01-27T11:22:58Z</time>
      </trkpt>
      <trkpt lat="46.33653" lon="4.51147">
        <ele>428.40466308594</ele>
        <time>2019-01-27T11:23:13Z</time>
      </trkpt>
      <trkpt lat="46.33673" lon="4.51156">
        <ele>430.32727050781</ele>
        <time>2019-01-27T11:23:28Z</time>
      </trkpt>
      <trkpt lat="46.33689" lon="4.51159">
        <ele>432.73071289062</ele>
        <time>2019-01-27T11:23:44Z</time>
      </trkpt>
      <trkpt lat="46.33711" lon="4.51174">
        <ele>436.09521484375</ele>
        <time>2019-01-27T11:24:04Z</time>
      </trkpt>
      <trkpt lat="46.3373" lon="4.51179">
        <ele>438.49853515625</ele>
        <time>2019-01-27T11:24:23Z</time>
      </trkpt>
      <trkpt lat="46.33765" lon="4.51192">
        <ele>442.34387207031</ele>
        <time>2019-01-27T11:24:53Z</time>
      </trkpt>
      <trkpt lat="46.33779" lon="4.51197">
        <ele>443.78576660156</ele>
        <time>2019-01-27T11:25:06Z</time>
      </trkpt>
      <trkpt lat="46.33799" lon="4.51204">
        <ele>444.26647949219</ele>
        <time>2019-01-27T11:25:17Z</time>
      </trkpt>
      <trkpt lat="46.33815" lon="4.51212">
        <ele>444.7470703125</ele>
        <time>2019-01-27T11:25:28Z</time>
      </trkpt>
      <trkpt lat="46.33829" lon="4.51222">
        <ele>445.22766113281</ele>
        <time>2019-01-27T11:25:38Z</time>
      </trkpt>
      <trkpt lat="46.33839" lon="4.51234">
        <ele>445.70837402344</ele>
        <time>2019-01-27T11:25:48Z</time>
      </trkpt>
      <trkpt lat="46.33849" lon="4.51245">
        <ele>446.66967773438</ele>
        <time>2019-01-27T11:25:58Z</time>
      </trkpt>
      <trkpt lat="46.3386" lon="4.51253">
        <ele>446.66967773438</ele>
        <time>2019-01-27T11:26:07Z</time>
      </trkpt>
      <trkpt lat="46.33869" lon="4.51262">
        <ele>446.66967773438</ele>
        <time>2019-01-27T11:26:17Z</time>
      </trkpt>
      <trkpt lat="46.33884" lon="4.51277">
        <ele>447.63098144531</ele>
        <time>2019-01-27T11:26:30Z</time>
      </trkpt>
      <trkpt lat="46.33893" lon="4.51283">
        <ele>449.07299804688</ele>
        <time>2019-01-27T11:26:41Z</time>
      </trkpt>
      <trkpt lat="46.33901" lon="4.51298">
        <ele>448.11181640625</ele>
        <time>2019-01-27T11:26:54Z</time>
      </trkpt>
      <trkpt lat="46.3391" lon="4.51316">
        <ele>450.51501464844</ele>
        <time>2019-01-27T11:27:11Z</time>
      </trkpt>
      <trkpt lat="46.33917" lon="4.51329">
        <ele>451.47631835938</ele>
        <time>2019-01-27T11:27:24Z</time>
      </trkpt>
      <trkpt lat="46.33925" lon="4.51336">
        <ele>452.91821289062</ele>
        <time>2019-01-27T11:27:43Z</time>
      </trkpt>
      <trkpt lat="46.33939" lon="4.51356">
        <ele>454.8408203125</ele>
        <time>2019-01-27T11:28:45Z</time>
      </trkpt>
      <trkpt lat="46.33966" lon="4.51375">
        <ele>460.12817382812</ele>
        <time>2019-01-27T11:30:38Z</time>
      </trkpt>
      <trkpt lat="46.33996" lon="4.51409">
        <ele>463.97338867188</ele>
        <time>2019-01-27T11:30:57Z</time>
      </trkpt>
      <trkpt lat="46.34017" lon="4.51424">
        <ele>465.89611816406</ele>
        <time>2019-01-27T11:31:14Z</time>
      </trkpt>
      <trkpt lat="46.34021" lon="4.51443">
        <ele>440.90185546875</ele>
        <time>2019-01-19T09:50:02Z</time>
      </trkpt>
      <trkpt lat="46.34025" lon="4.5145">
        <ele>441.38244628906</ele>
        <time>2019-01-19T09:49:57Z</time>
      </trkpt>
      <trkpt lat="46.34035" lon="4.51456">
        <ele>442.82446289062</ele>
        <time>2019-01-19T09:49:54Z</time>
      </trkpt>
      <trkpt lat="46.34046" lon="4.5146">
        <ele>444.26647949219</ele>
        <time>2019-01-19T09:49:52Z</time>
      </trkpt>
      <trkpt lat="46.34057" lon="4.51467">
        <ele>446.18908691406</ele>
        <time>2019-01-19T09:49:49Z</time>
      </trkpt>
      <trkpt lat="46.34068" lon="4.51471">
        <ele>448.59240722656</ele>
        <time>2019-01-19T09:49:46Z</time>
      </trkpt>
      <trkpt lat="46.34078" lon="4.51475">
        <ele>450.03442382812</ele>
        <time>2019-01-19T09:49:44Z</time>
      </trkpt>
      <trkpt lat="46.34089" lon="4.51482">
        <ele>451.47631835938</ele>
        <time>2019-01-19T09:49:42Z</time>
      </trkpt>
      <trkpt lat="46.34099" lon="4.51487">
        <ele>453.39892578125</ele>
        <time>2019-01-19T09:49:40Z</time>
      </trkpt>
      <trkpt lat="46.3411" lon="4.51498">
        <ele>454.36022949219</ele>
        <time>2019-01-19T09:49:37Z</time>
      </trkpt>
      <trkpt lat="46.34117" lon="4.51505">
        <ele>456.28295898438</ele>
        <time>2019-01-19T09:49:35Z</time>
      </trkpt>
      <trkpt lat="46.34126" lon="4.51514">
        <ele>456.76354980469</ele>
        <time>2019-01-19T09:49:33Z</time>
      </trkpt>
      <trkpt lat="46.34136" lon="4.51521">
        <ele>458.20556640625</ele>
        <time>2019-01-19T09:49:31Z</time>
      </trkpt>
      <trkpt lat="46.34146" lon="4.51528">
        <ele>458.20556640625</ele>
        <time>2019-01-19T09:49:29Z</time>
      </trkpt>
      <trkpt lat="46.3416" lon="4.51536">
        <ele>459.16687011719</ele>
        <time>2019-01-19T09:49:27Z</time>
      </trkpt>
      <trkpt lat="46.34175" lon="4.51545">
        <ele>459.64758300781</ele>
        <time>2019-01-19T09:49:25Z</time>
      </trkpt>
      <trkpt lat="46.34189" lon="4.51556">
        <ele>460.12817382812</ele>
        <time>2019-01-19T09:49:23Z</time>
      </trkpt>
      <trkpt lat="46.34202" lon="4.5157">
        <ele>459.64758300781</ele>
        <time>2019-01-19T09:49:21Z</time>
      </trkpt>
      <trkpt lat="46.34213" lon="4.51584">
        <ele>459.64758300781</ele>
        <time>2019-01-19T09:49:19Z</time>
      </trkpt>
      <trkpt lat="46.34224" lon="4.51599">
        <ele>460.12817382812</ele>
        <time>2019-01-19T09:49:17Z</time>
      </trkpt>
      <trkpt lat="46.34236" lon="4.51613">
        <ele>460.12817382812</ele>
        <time>2019-01-19T09:49:15Z</time>
      </trkpt>
      <trkpt lat="46.34248" lon="4.51627">
        <ele>460.12817382812</ele>
        <time>2019-01-19T09:49:13Z</time>
      </trkpt>
      <trkpt lat="46.34261" lon="4.51639">
        <ele>459.64758300781</ele>
        <time>2019-01-19T09:49:11Z</time>
      </trkpt>
      <trkpt lat="46.34272" lon="4.51649">
        <ele>460.12817382812</ele>
        <time>2019-01-19T09:49:09Z</time>
      </trkpt>
      <trkpt lat="46.34281" lon="4.51662">
        <ele>460.12817382812</ele>
        <time>2019-01-19T09:49:07Z</time>
      </trkpt>
      <trkpt lat="46.34292" lon="4.51674">
        <ele>459.64758300781</ele>
        <time>2019-01-19T09:49:04Z</time>
      </trkpt>
      <trkpt lat="46.34299" lon="4.51684">
        <ele>459.16687011719</ele>
        <time>2019-01-19T09:49:01Z</time>
      </trkpt>
      <trkpt lat="46.34308" lon="4.51695">
        <ele>459.64758300781</ele>
        <time>2019-01-19T09:48:59Z</time>
      </trkpt>
      <trkpt lat="46.3432" lon="4.51711">
        <ele>459.64758300781</ele>
        <time>2019-01-19T09:48:57Z</time>
      </trkpt>
      <trkpt lat="46.34333" lon="4.51727">
        <ele>460.12817382812</ele>
        <time>2019-01-19T09:48:55Z</time>
      </trkpt>
      <trkpt lat="46.34343" lon="4.51743">
        <ele>460.60876464844</ele>
        <time>2019-01-19T09:48:53Z</time>
      </trkpt>
      <trkpt lat="46.34348" lon="4.5174">
        <ele>484.64184570312</ele>
      </trkpt>
      <trkpt lat="46.34347" lon="4.51725">
        <ele>483.68041992188</ele>
      </trkpt>
      <trkpt lat="46.3435" lon="4.5171">
        <ele>483.68041992188</ele>
      </trkpt>
      <trkpt lat="46.34355" lon="4.51657">
        <ele>481.7578125</ele>
      </trkpt>
      <trkpt lat="46.34364" lon="4.51528">
        <ele>465.89611816406</ele>
      </trkpt>
      <trkpt lat="46.34374" lon="4.51498">
        <ele>463.01208496094</ele>
      </trkpt>
      <trkpt lat="46.34378" lon="4.51463">
        <ele>459.64758300781</ele>
      </trkpt>
      <trkpt lat="46.34394" lon="4.51436">
        <ele>455.80224609375</ele>
      </trkpt>
      <trkpt lat="46.34394" lon="4.51401">
        <ele>453.39892578125</ele>
      </trkpt>
      <trkpt lat="46.34412" lon="4.51336">
        <ele>450.03442382812</ele>
      </trkpt>
      <trkpt lat="46.34411" lon="4.51315">
        <ele>449.07299804688</ele>
      </trkpt>
      <trkpt lat="46.34384" lon="4.51229">
        <ele>446.66967773438</ele>
      </trkpt>
      <trkpt lat="46.34363" lon="4.51172">
        <ele>442.34387207031</ele>
      </trkpt>
      <trkpt lat="46.34349" lon="4.51142">
        <ele>439.9404296875</ele>
      </trkpt>
      <trkpt lat="46.34339" lon="4.51127">
        <ele>438.49853515625</ele>
      </trkpt>
      <trkpt lat="46.34325" lon="4.51115">
        <ele>437.05651855469</ele>
      </trkpt>
      <trkpt lat="46.34291" lon="4.5109">
        <ele>433.21130371094</ele>
      </trkpt>
      <trkpt lat="46.34282" lon="4.5108">
        <ele>430.80798339844</ele>
      </trkpt>
      <trkpt lat="46.3428" lon="4.51066">
        <ele>429.84655761719</ele>
      </trkpt>
      <trkpt lat="46.34291" lon="4.51044">
        <ele>425.52075195312</ele>
      </trkpt>
      <trkpt lat="46.34279" lon="4.5108">
        <ele>406.77490234375</ele>
        <time>2019-01-19T09:52:22Z</time>
      </trkpt>
      <trkpt lat="46.34282" lon="4.51061">
        <ele>404.85229492188</ele>
        <time>2019-01-19T09:52:25Z</time>
      </trkpt>
      <trkpt lat="46.34296" lon="4.5104">
        <ele>403.41040039062</ele>
        <time>2019-01-19T09:52:27Z</time>
      </trkpt>
      <trkpt lat="46.34308" lon="4.51025">
        <ele>401.00708007812</ele>
        <time>2019-01-19T09:52:29Z</time>
      </trkpt>
      <trkpt lat="46.34317" lon="4.51013">
        <ele>398.60375976562</ele>
        <time>2019-01-19T09:52:31Z</time>
      </trkpt>
      <trkpt lat="46.34323" lon="4.51001">
        <ele>395.23913574219</ele>
        <time>2019-01-19T09:52:34Z</time>
      </trkpt>
      <trkpt lat="46.34331" lon="4.50993">
        <ele>394.27795410156</ele>
        <time>2019-01-19T09:52:39Z</time>
      </trkpt>
      <trkpt lat="46.34343" lon="4.50987">
        <ele>392.35534667969</ele>
        <time>2019-01-19T09:52:42Z</time>
      </trkpt>
      <trkpt lat="46.34352" lon="4.5098">
        <ele>389.95190429688</ele>
        <time>2019-01-19T09:52:45Z</time>
      </trkpt>
      <trkpt lat="46.3436" lon="4.50975">
        <ele>388.51000976562</ele>
        <time>2019-01-19T09:52:48Z</time>
      </trkpt>
      <trkpt lat="46.34373" lon="4.5097">
        <ele>387.06799316406</ele>
        <time>2019-01-19T09:52:51Z</time>
      </trkpt>
      <trkpt lat="46.34382" lon="4.5097">
        <ele>386.10668945312</ele>
        <time>2019-01-19T09:52:53Z</time>
      </trkpt>
      <trkpt lat="46.34391" lon="4.50971">
        <ele>385.14538574219</ele>
        <time>2019-01-19T09:52:55Z</time>
      </trkpt>
      <trkpt lat="46.34401" lon="4.50974">
        <ele>384.18408203125</ele>
        <time>2019-01-19T09:52:57Z</time>
      </trkpt>
      <trkpt lat="46.34411" lon="4.50976">
        <ele>382.74206542969</ele>
        <time>2019-01-19T09:52:59Z</time>
      </trkpt>
      <trkpt lat="46.34422" lon="4.50974">
        <ele>382.26135253906</ele>
        <time>2019-01-19T09:53:02Z</time>
      </trkpt>
      <trkpt lat="46.34426" lon="4.50962">
        <ele>381.30004882812</ele>
        <time>2019-01-19T09:53:04Z</time>
      </trkpt>
      <trkpt lat="46.34425" lon="4.50948">
        <ele>381.30004882812</ele>
        <time>2019-01-19T09:53:06Z</time>
      </trkpt>
      <trkpt lat="46.3442" lon="4.50934">
        <ele>380.33874511719</ele>
        <time>2019-01-19T09:53:08Z</time>
      </trkpt>
      <trkpt lat="46.34414" lon="4.50921">
        <ele>379.85803222656</ele>
        <time>2019-01-19T09:53:10Z</time>
      </trkpt>
      <trkpt lat="46.34409" lon="4.50902">
        <ele>379.37744140625</ele>
        <time>2019-01-19T09:53:13Z</time>
      </trkpt>
      <trkpt lat="46.34404" lon="4.50882">
        <ele>378.89685058594</ele>
        <time>2019-01-19T09:53:16Z</time>
      </trkpt>
      <trkpt lat="46.34405" lon="4.50866">
        <ele>379.37744140625</ele>
        <time>2019-01-19T09:53:19Z</time>
      </trkpt>
      <trkpt lat="46.34406" lon="4.50852">
        <ele>379.37744140625</ele>
        <time>2019-01-19T09:53:22Z</time>
      </trkpt>
      <trkpt lat="46.34408" lon="4.50838">
        <ele>378.41613769531</ele>
        <time>2019-01-19T09:53:25Z</time>
      </trkpt>
      <trkpt lat="46.34411" lon="4.50821">
        <ele>376.97424316406</ele>
        <time>2019-01-19T09:53:29Z</time>
      </trkpt>
      <trkpt lat="46.34418" lon="4.5081">
        <ele>375.05151367188</ele>
        <time>2019-01-19T09:53:32Z</time>
      </trkpt>
      <trkpt lat="46.34428" lon="4.50799">
        <ele>373.60949707031</ele>
        <time>2019-01-19T09:53:35Z</time>
      </trkpt>
      <trkpt lat="46.34438" lon="4.50794">
        <ele>373.12890625</ele>
        <time>2019-01-19T09:53:38Z</time>
      </trkpt>
      <trkpt lat="46.3445" lon="4.50793">
        <ele>373.60949707031</ele>
        <time>2019-01-19T09:53:40Z</time>
      </trkpt>
      <trkpt lat="46.34465" lon="4.5079">
        <ele>374.09008789062</ele>
        <time>2019-01-19T09:53:42Z</time>
      </trkpt>
      <trkpt lat="46.34484" lon="4.50787">
        <ele>374.57080078125</ele>
        <time>2019-01-19T09:53:44Z</time>
      </trkpt>
      <trkpt lat="46.34494" lon="4.50785">
        <ele>374.57080078125</ele>
        <time>2019-01-19T09:53:45Z</time>
      </trkpt>
      <trkpt lat="46.34504" lon="4.50785">
        <ele>375.05151367188</ele>
        <time>2019-01-19T09:53:46Z</time>
      </trkpt>
      <trkpt lat="46.34515" lon="4.50786">
        <ele>375.05151367188</ele>
        <time>2019-01-19T09:53:47Z</time>
      </trkpt>
      <trkpt lat="46.34526" lon="4.50788">
        <ele>375.53210449219</ele>
        <time>2019-01-19T09:53:48Z</time>
      </trkpt>
      <trkpt lat="46.34536" lon="4.50787">
        <ele>375.53210449219</ele>
        <time>2019-01-19T09:53:49Z</time>
      </trkpt>
      <trkpt lat="46.34547" lon="4.50787">
        <ele>376.01281738281</ele>
        <time>2019-01-19T09:53:50Z</time>
      </trkpt>
      <trkpt lat="46.34558" lon="4.50789">
        <ele>376.49353027344</ele>
        <time>2019-01-19T09:53:51Z</time>
      </trkpt>
      <trkpt lat="46.34568" lon="4.50789">
        <ele>376.01281738281</ele>
        <time>2019-01-19T09:53:52Z</time>
      </trkpt>
      <trkpt lat="46.34578" lon="4.50791">
        <ele>376.49353027344</ele>
        <time>2019-01-19T09:53:53Z</time>
      </trkpt>
      <trkpt lat="46.34588" lon="4.50791">
        <ele>376.49353027344</ele>
        <time>2019-01-19T09:53:54Z</time>
      </trkpt>
      <trkpt lat="46.34599" lon="4.50792">
        <ele>377.45483398438</ele>
        <time>2019-01-19T09:53:55Z</time>
      </trkpt>
      <trkpt lat="46.34608" lon="4.5079">
        <ele>377.93542480469</ele>
        <time>2019-01-19T09:53:56Z</time>
      </trkpt>
      <trkpt lat="46.34617" lon="4.50788">
        <ele>377.93542480469</ele>
        <time>2019-01-19T09:53:57Z</time>
      </trkpt>
      <trkpt lat="46.34635" lon="4.50787">
        <ele>377.93542480469</ele>
        <time>2019-01-19T09:53:59Z</time>
      </trkpt>
      <trkpt lat="46.34648" lon="4.50782">
        <ele>378.41613769531</ele>
        <time>2019-01-19T09:54:01Z</time>
      </trkpt>
      <trkpt lat="46.34659" lon="4.5078">
        <ele>378.89685058594</ele>
        <time>2019-01-19T09:54:03Z</time>
      </trkpt>
      <trkpt lat="46.34669" lon="4.5078">
        <ele>379.37744140625</ele>
        <time>2019-01-19T09:54:05Z</time>
      </trkpt>
      <trkpt lat="46.34679" lon="4.50778">
        <ele>377.93542480469</ele>
        <time>2019-01-19T09:54:08Z</time>
      </trkpt>
      <trkpt lat="46.34689" lon="4.5077">
        <ele>379.85803222656</ele>
        <time>2019-01-19T09:54:11Z</time>
      </trkpt>
      <trkpt lat="46.34695" lon="4.50756">
        <ele>379.37744140625</ele>
        <time>2019-01-19T09:54:14Z</time>
      </trkpt>
      <trkpt lat="46.34699" lon="4.50743">
        <ele>380.33874511719</ele>
        <time>2019-01-19T09:54:17Z</time>
      </trkpt>
      <trkpt lat="46.34708" lon="4.50738">
        <ele>380.81945800781</ele>
        <time>2019-01-19T09:54:38Z</time>
      </trkpt>
      <trkpt lat="46.34723" lon="4.5074">
        <ele>382.74206542969</ele>
        <time>2019-01-19T09:54:41Z</time>
      </trkpt>
      <trkpt lat="46.34736" lon="4.50739">
        <ele>384.66479492188</ele>
        <time>2019-01-19T09:54:43Z</time>
      </trkpt>
      <trkpt lat="46.34748" lon="4.50737">
        <ele>386.10668945312</ele>
        <time>2019-01-19T09:54:45Z</time>
      </trkpt>
      <trkpt lat="46.34763" lon="4.50737">
        <ele>388.51000976562</ele>
        <time>2019-01-19T09:54:47Z</time>
      </trkpt>
      <trkpt lat="46.34777" lon="4.50737">
        <ele>390.91320800781</ele>
        <time>2019-01-19T09:54:49Z</time>
      </trkpt>
      <trkpt lat="46.3479" lon="4.50741">
        <ele>391.87451171875</ele>
        <time>2019-01-19T09:54:51Z</time>
      </trkpt>
      <trkpt lat="46.34803" lon="4.50745">
        <ele>394.27795410156</ele>
        <time>2019-01-19T09:54:53Z</time>
      </trkpt>
      <trkpt lat="46.34814" lon="4.50749">
        <ele>395.23913574219</ele>
        <time>2019-01-19T09:54:55Z</time>
      </trkpt>
      <trkpt lat="46.34823" lon="4.50754">
        <ele>395.23913574219</ele>
        <time>2019-01-19T09:54:57Z</time>
      </trkpt>
      <trkpt lat="46.34836" lon="4.50758">
        <ele>396.20056152344</ele>
        <time>2019-01-19T09:55:00Z</time>
      </trkpt>
      <trkpt lat="46.34846" lon="4.50762">
        <ele>397.64245605469</ele>
        <time>2019-01-19T09:55:03Z</time>
      </trkpt>
      <trkpt lat="46.34857" lon="4.50764">
        <ele>397.64245605469</ele>
        <time>2019-01-19T09:55:06Z</time>
      </trkpt>
      <trkpt lat="46.3487" lon="4.50763">
        <ele>398.60375976562</ele>
        <time>2019-01-19T09:55:09Z</time>
      </trkpt>
      <trkpt lat="46.34884" lon="4.50763">
        <ele>399.56506347656</ele>
        <time>2019-01-19T09:55:12Z</time>
      </trkpt>
      <trkpt lat="46.34897" lon="4.50762">
        <ele>400.52648925781</ele>
        <time>2019-01-19T09:55:15Z</time>
      </trkpt>
      <trkpt lat="46.34909" lon="4.50758">
        <ele>401.48779296875</ele>
        <time>2019-01-19T09:55:18Z</time>
      </trkpt>
      <trkpt lat="46.34922" lon="4.50752">
        <ele>402.9296875</ele>
        <time>2019-01-19T09:55:21Z</time>
      </trkpt>
      <trkpt lat="46.34935" lon="4.50749">
        <ele>403.89111328125</ele>
        <time>2019-01-19T09:55:24Z</time>
      </trkpt>
      <trkpt lat="46.34947" lon="4.50747">
        <ele>404.85229492188</ele>
        <time>2019-01-19T09:55:27Z</time>
      </trkpt>
      <trkpt lat="46.34957" lon="4.50746">
        <ele>405.81372070312</ele>
        <time>2019-01-19T09:55:30Z</time>
      </trkpt>
      <trkpt lat="46.34968" lon="4.50751">
        <ele>407.736328125</ele>
        <time>2019-01-19T09:55:33Z</time>
      </trkpt>
      <trkpt lat="46.34976" lon="4.5076">
        <ele>409.65905761719</ele>
        <time>2019-01-19T09:55:36Z</time>
      </trkpt>
      <trkpt lat="46.34985" lon="4.5077">
        <ele>411.10095214844</ele>
        <time>2019-01-19T09:55:39Z</time>
      </trkpt>
      <trkpt lat="46.34992" lon="4.50782">
        <ele>411.58166503906</ele>
        <time>2019-01-19T09:55:42Z</time>
      </trkpt>
      <trkpt lat="46.35003" lon="4.50797">
        <ele>412.54284667969</ele>
        <time>2019-01-19T09:55:45Z</time>
      </trkpt>
      <trkpt lat="46.35013" lon="4.50799">
        <ele>413.50427246094</ele>
        <time>2019-01-19T09:55:47Z</time>
      </trkpt>
      <trkpt lat="46.35024" lon="4.50795">
        <ele>414.94616699219</ele>
        <time>2019-01-19T09:55:49Z</time>
      </trkpt>
      <trkpt lat="46.35033" lon="4.5079">
        <ele>415.90747070312</ele>
        <time>2019-01-19T09:55:51Z</time>
      </trkpt>
      <trkpt lat="46.35044" lon="4.50783">
        <ele>417.349609375</ele>
        <time>2019-01-19T09:55:53Z</time>
      </trkpt>
      <trkpt lat="46.35052" lon="4.50776">
        <ele>418.31079101562</ele>
        <time>2019-01-19T09:55:55Z</time>
      </trkpt>
      <trkpt lat="46.3506" lon="4.5077">
        <ele>420.2333984375</ele>
        <time>2019-01-19T09:55:58Z</time>
      </trkpt>
      <trkpt lat="46.35069" lon="4.50758">
        <ele>421.67541503906</ele>
        <time>2019-01-19T09:56:01Z</time>
      </trkpt>
      <trkpt lat="46.35075" lon="4.50746">
        <ele>423.59802246094</ele>
        <time>2019-01-19T09:56:04Z</time>
      </trkpt>
      <trkpt lat="46.35081" lon="4.50732">
        <ele>425.52075195312</ele>
        <time>2019-01-19T09:56:07Z</time>
      </trkpt>
      <trkpt lat="46.35088" lon="4.50716">
        <ele>427.92395019531</ele>
        <time>2019-01-19T09:56:10Z</time>
      </trkpt>
      <trkpt lat="46.35094" lon="4.50699">
        <ele>431.28857421875</ele>
        <time>2019-01-19T09:56:13Z</time>
      </trkpt>
      <trkpt lat="46.35099" lon="4.50684">
        <ele>433.21130371094</ele>
        <time>2019-01-19T09:56:15Z</time>
      </trkpt>
      <trkpt lat="46.35104" lon="4.50664">
        <ele>436.57592773438</ele>
        <time>2019-01-19T09:56:17Z</time>
      </trkpt>
      <trkpt lat="46.3511" lon="4.50646">
        <ele>438.97912597656</ele>
        <time>2019-01-19T09:56:19Z</time>
      </trkpt>
      <trkpt lat="46.35117" lon="4.50631">
        <ele>441.86315917969</ele>
        <time>2019-01-19T09:56:21Z</time>
      </trkpt>
      <trkpt lat="46.35123" lon="4.50615">
        <ele>442.82446289062</ele>
        <time>2019-01-19T09:56:23Z</time>
      </trkpt>
      <trkpt lat="46.35128" lon="4.50602">
        <ele>443.30505371094</ele>
        <time>2019-01-19T09:56:25Z</time>
      </trkpt>
      <trkpt lat="46.35134" lon="4.50588">
        <ele>444.26647949219</ele>
        <time>2019-01-19T09:56:27Z</time>
      </trkpt>
      <trkpt lat="46.35142" lon="4.50574">
        <ele>444.26647949219</ele>
        <time>2019-01-19T09:56:29Z</time>
      </trkpt>
      <trkpt lat="46.35148" lon="4.50561">
        <ele>443.30505371094</ele>
        <time>2019-01-19T09:56:31Z</time>
      </trkpt>
      <trkpt lat="46.35155" lon="4.50548">
        <ele>441.86315917969</ele>
        <time>2019-01-19T09:56:34Z</time>
      </trkpt>
      <trkpt lat="46.35161" lon="4.50537">
        <ele>438.97912597656</ele>
        <time>2019-01-19T09:56:37Z</time>
      </trkpt>
      <trkpt lat="46.35166" lon="4.50528">
        <ele>434.6533203125</ele>
        <time>2019-01-19T09:56:40Z</time>
      </trkpt>
      <trkpt lat="46.35171" lon="4.50516">
        <ele>430.80798339844</ele>
        <time>2019-01-19T09:56:43Z</time>
      </trkpt>
      <trkpt lat="46.35186" lon="4.50502">
        <ele>428.40466308594</ele>
        <time>2019-01-19T09:56:46Z</time>
      </trkpt>
      <trkpt lat="46.35196" lon="4.50488">
        <ele>426.00134277344</ele>
        <time>2019-01-19T09:56:49Z</time>
      </trkpt>
      <trkpt lat="46.35208" lon="4.50475">
        <ele>424.07873535156</ele>
        <time>2019-01-19T09:56:52Z</time>
      </trkpt>
      <trkpt lat="46.35221" lon="4.50462">
        <ele>421.67541503906</ele>
        <time>2019-01-19T09:56:55Z</time>
      </trkpt>
      <trkpt lat="46.35234" lon="4.5045">
        <ele>418.79150390625</ele>
        <time>2019-01-19T09:56:58Z</time>
      </trkpt>
      <trkpt lat="46.35242" lon="4.50441">
        <ele>417.349609375</ele>
        <time>2019-01-19T09:57:00Z</time>
      </trkpt>
      <trkpt lat="46.3525" lon="4.50431">
        <ele>415.90747070312</ele>
        <time>2019-01-19T09:57:02Z</time>
      </trkpt>
      <trkpt lat="46.35255" lon="4.50418">
        <ele>415.42687988281</ele>
        <time>2019-01-19T09:57:05Z</time>
      </trkpt>
      <trkpt lat="46.35265" lon="4.50405">
        <ele>416.86889648438</ele>
        <time>2019-01-19T09:57:08Z</time>
      </trkpt>
      <trkpt lat="46.35269" lon="4.50382">
        <ele>416.86889648438</ele>
        <time>2019-01-19T09:57:11Z</time>
      </trkpt>
      <trkpt lat="46.35277" lon="4.50363">
        <ele>418.31079101562</ele>
        <time>2019-01-19T09:57:13Z</time>
      </trkpt>
      <trkpt lat="46.35286" lon="4.50344">
        <ele>418.31079101562</ele>
        <time>2019-01-19T09:57:15Z</time>
      </trkpt>
      <trkpt lat="46.35291" lon="4.50322">
        <ele>418.79150390625</ele>
        <time>2019-01-19T09:57:17Z</time>
      </trkpt>
      <trkpt lat="46.353" lon="4.50302">
        <ele>419.27221679688</ele>
        <time>2019-01-19T09:57:19Z</time>
      </trkpt>
      <trkpt lat="46.35308" lon="4.50287">
        <ele>418.79150390625</ele>
        <time>2019-01-19T09:57:21Z</time>
      </trkpt>
      <trkpt lat="46.35315" lon="4.50272">
        <ele>419.27221679688</ele>
        <time>2019-01-19T09:57:23Z</time>
      </trkpt>
      <trkpt lat="46.35321" lon="4.5026">
        <ele>419.75280761719</ele>
        <time>2019-01-19T09:57:25Z</time>
      </trkpt>
      <trkpt lat="46.35332" lon="4.50249">
        <ele>420.71411132812</ele>
        <time>2019-01-19T09:57:28Z</time>
      </trkpt>
      <trkpt lat="46.35341" lon="4.50243">
        <ele>421.19482421875</ele>
        <time>2019-01-19T09:57:30Z</time>
      </trkpt>
      <trkpt lat="46.35351" lon="4.50234">
        <ele>422.63671875</ele>
        <time>2019-01-19T09:57:33Z</time>
      </trkpt>
      <trkpt lat="46.35363" lon="4.50221">
        <ele>424.07873535156</ele>
        <time>2019-01-19T09:57:36Z</time>
      </trkpt>
      <trkpt lat="46.35375" lon="4.50209">
        <ele>426.48205566406</ele>
        <time>2019-01-19T09:57:39Z</time>
      </trkpt>
      <trkpt lat="46.35386" lon="4.502">
        <ele>428.40466308594</ele>
        <time>2019-01-19T09:57:41Z</time>
      </trkpt>
      <trkpt lat="46.35395" lon="4.50191">
        <ele>429.36596679688</ele>
        <time>2019-01-19T09:57:43Z</time>
      </trkpt>
      <trkpt lat="46.35403" lon="4.50181">
        <ele>431.76916503906</ele>
        <time>2019-01-19T09:57:45Z</time>
      </trkpt>
      <trkpt lat="46.35411" lon="4.50169">
        <ele>433.21130371094</ele>
        <time>2019-01-19T09:57:47Z</time>
      </trkpt>
      <trkpt lat="46.35419" lon="4.50158">
        <ele>435.61450195312</ele>
        <time>2019-01-19T09:57:49Z</time>
      </trkpt>
      <trkpt lat="46.35425" lon="4.50147">
        <ele>437.537109375</ele>
        <time>2019-01-19T09:57:51Z</time>
      </trkpt>
      <trkpt lat="46.35433" lon="4.5013">
        <ele>440.90185546875</ele>
        <time>2019-01-19T09:57:54Z</time>
      </trkpt>
      <trkpt lat="46.35439" lon="4.50115">
        <ele>443.78576660156</ele>
        <time>2019-01-19T09:57:57Z</time>
      </trkpt>
      <trkpt lat="46.35435" lon="4.50103">
        <ele>445.70837402344</ele>
        <time>2019-01-19T09:58:00Z</time>
      </trkpt>
      <trkpt lat="46.35426" lon="4.50096">
        <ele>445.22766113281</ele>
        <time>2019-01-19T09:58:02Z</time>
      </trkpt>
      <trkpt lat="46.35415" lon="4.50089">
        <ele>443.78576660156</ele>
        <time>2019-01-19T09:58:04Z</time>
      </trkpt>
      <trkpt lat="46.35405" lon="4.5008">
        <ele>442.82446289062</ele>
        <time>2019-01-19T09:58:06Z</time>
      </trkpt>
      <trkpt lat="46.35395" lon="4.50072">
        <ele>442.34387207031</ele>
        <time>2019-01-19T09:58:08Z</time>
      </trkpt>
      <trkpt lat="46.35386" lon="4.50064">
        <ele>441.38244628906</ele>
        <time>2019-01-19T09:58:10Z</time>
      </trkpt>
      <trkpt lat="46.35377" lon="4.50056">
        <ele>439.45971679688</ele>
        <time>2019-01-19T09:58:13Z</time>
      </trkpt>
      <trkpt lat="46.3537" lon="4.50049">
        <ele>438.97912597656</ele>
        <time>2019-01-19T09:58:16Z</time>
      </trkpt>
      <trkpt lat="46.35357" lon="4.50039">
        <ele>438.01782226562</ele>
        <time>2019-01-19T09:58:19Z</time>
      </trkpt>
      <trkpt lat="46.35353" lon="4.50032">
        <ele>436.09521484375</ele>
        <time>2019-01-19T09:58:22Z</time>
      </trkpt>
      <trkpt lat="46.35344" lon="4.50028">
        <ele>436.09521484375</ele>
        <time>2019-01-19T09:58:28Z</time>
      </trkpt>
      <trkpt lat="46.3533" lon="4.5002">
        <ele>435.13391113281</ele>
        <time>2019-01-19T09:58:31Z</time>
      </trkpt>
      <trkpt lat="46.3532" lon="4.50013">
        <ele>433.69189453125</ele>
        <time>2019-01-19T09:58:33Z</time>
      </trkpt>
      <trkpt lat="46.35312" lon="4.50005">
        <ele>432.25</ele>
        <time>2019-01-19T09:58:36Z</time>
      </trkpt>
      <trkpt lat="46.35301" lon="4.49994">
        <ele>430.80798339844</ele>
        <time>2019-01-19T09:58:51Z</time>
      </trkpt>
      <trkpt lat="46.3529" lon="4.49981">
        <ele>430.32727050781</ele>
        <time>2019-01-19T09:58:54Z</time>
      </trkpt>
      <trkpt lat="46.3528" lon="4.4997">
        <ele>429.36596679688</ele>
        <time>2019-01-19T09:58:57Z</time>
      </trkpt>
      <trkpt lat="46.35269" lon="4.4996">
        <ele>427.92395019531</ele>
        <time>2019-01-19T09:59:00Z</time>
      </trkpt>
      <trkpt lat="46.35257" lon="4.4995">
        <ele>425.52075195312</ele>
        <time>2019-01-19T09:59:03Z</time>
      </trkpt>
      <trkpt lat="46.35246" lon="4.49937">
        <ele>424.07873535156</ele>
        <time>2019-01-19T09:59:06Z</time>
      </trkpt>
      <trkpt lat="46.35238" lon="4.4993">
        <ele>423.11743164062</ele>
        <time>2019-01-19T09:59:08Z</time>
      </trkpt>
      <trkpt lat="46.3523" lon="4.49919">
        <ele>422.15600585938</ele>
        <time>2019-01-19T09:59:10Z</time>
      </trkpt>
      <trkpt lat="46.35222" lon="4.49909">
        <ele>420.2333984375</ele>
        <time>2019-01-19T09:59:12Z</time>
      </trkpt>
      <trkpt lat="46.35215" lon="4.49896">
        <ele>418.31079101562</ele>
        <time>2019-01-19T09:59:14Z</time>
      </trkpt>
      <trkpt lat="46.35208" lon="4.49884">
        <ele>417.349609375</ele>
        <time>2019-01-19T09:59:16Z</time>
      </trkpt>
      <trkpt lat="46.35199" lon="4.49874">
        <ele>415.90747070312</ele>
        <time>2019-01-19T09:59:18Z</time>
      </trkpt>
      <trkpt lat="46.35191" lon="4.4986">
        <ele>414.94616699219</ele>
        <time>2019-01-19T09:59:21Z</time>
      </trkpt>
      <trkpt lat="46.35181" lon="4.4985">
        <ele>413.98486328125</ele>
        <time>2019-01-19T09:59:24Z</time>
      </trkpt>
      <trkpt lat="46.35172" lon="4.49841">
        <ele>413.50427246094</ele>
        <time>2019-01-19T09:59:27Z</time>
      </trkpt>
      <trkpt lat="46.35163" lon="4.49833">
        <ele>412.54284667969</ele>
        <time>2019-01-19T09:59:30Z</time>
      </trkpt>
      <trkpt lat="46.35156" lon="4.49821">
        <ele>411.58166503906</ele>
        <time>2019-01-19T09:59:33Z</time>
      </trkpt>
      <trkpt lat="46.35148" lon="4.49809">
        <ele>410.1396484375</ele>
        <time>2019-01-19T09:59:36Z</time>
      </trkpt>
      <trkpt lat="46.3514" lon="4.49796">
        <ele>409.17834472656</ele>
        <time>2019-01-19T09:59:39Z</time>
      </trkpt>
      <trkpt lat="46.35129" lon="4.49783">
        <ele>407.25561523438</ele>
        <time>2019-01-19T09:59:42Z</time>
      </trkpt>
      <trkpt lat="46.35121" lon="4.49775">
        <ele>405.3330078125</ele>
        <time>2019-01-19T09:59:44Z</time>
      </trkpt>
      <trkpt lat="46.35115" lon="4.49765">
        <ele>404.37170410156</ele>
        <time>2019-01-19T09:59:46Z</time>
      </trkpt>
      <trkpt lat="46.35107" lon="4.49755">
        <ele>402.44909667969</ele>
        <time>2019-01-19T09:59:48Z</time>
      </trkpt>
      <trkpt lat="46.35101" lon="4.49746">
        <ele>400.0458984375</ele>
        <time>2019-01-19T09:59:50Z</time>
      </trkpt>
      <trkpt lat="46.35093" lon="4.49734">
        <ele>398.60375976562</ele>
        <time>2019-01-19T09:59:52Z</time>
      </trkpt>
      <trkpt lat="46.35083" lon="4.49723">
        <ele>397.16174316406</ele>
        <time>2019-01-19T09:59:54Z</time>
      </trkpt>
      <trkpt lat="46.35074" lon="4.49713">
        <ele>395.71984863281</ele>
        <time>2019-01-19T09:59:56Z</time>
      </trkpt>
      <trkpt lat="46.35064" lon="4.49705">
        <ele>394.27795410156</ele>
        <time>2019-01-19T09:59:58Z</time>
      </trkpt>
      <trkpt lat="46.35055" lon="4.49696">
        <ele>392.35534667969</ele>
        <time>2019-01-19T10:00:01Z</time>
      </trkpt>
      <trkpt lat="46.35043" lon="4.49689">
        <ele>391.39379882812</ele>
        <time>2019-01-19T10:00:04Z</time>
      </trkpt>
      <trkpt lat="46.35033" lon="4.49683">
        <ele>389.95190429688</ele>
        <time>2019-01-19T10:00:06Z</time>
      </trkpt>
      <trkpt lat="46.35024" lon="4.49675">
        <ele>388.51000976562</ele>
        <time>2019-01-19T10:00:09Z</time>
      </trkpt>
      <trkpt lat="46.3502" lon="4.49662">
        <ele>387.06799316406</ele>
        <time>2019-01-19T10:00:13Z</time>
      </trkpt>
      <trkpt lat="46.35005" lon="4.49588">
        <ele>386.10668945312</ele>
        <time>2019-01-19T10:00:15Z</time>
      </trkpt>
      <trkpt lat="46.35017" lon="4.49579">
        <ele>385.6259765625</ele>
        <time>2019-01-19T10:00:17Z</time>
      </trkpt>
      <trkpt lat="46.35029" lon="4.49569">
        <ele>383.70324707031</ele>
        <time>2019-01-19T10:00:19Z</time>
      </trkpt>
      <trkpt lat="46.35038" lon="4.49562">
        <ele>382.26135253906</ele>
        <time>2019-01-19T10:00:21Z</time>
      </trkpt>
      <trkpt lat="46.35033" lon="4.49528">
        <ele>379.85803222656</ele>
        <time>2019-01-19T10:01:35Z</time>
      </trkpt>
      <trkpt lat="46.35053" lon="4.49511">
        <ele>373.12890625</ele>
        <time>2019-01-19T10:02:07Z</time>
      </trkpt>
      <trkpt lat="46.35059" lon="4.49506">
        <ele>373.12890625</ele>
        <time>2019-01-19T10:02:12Z</time>
      </trkpt>
      <trkpt lat="46.35059" lon="4.49506">
        <ele>373.12890625</ele>
        <time>2019-01-19T10:02:15Z</time>
      </trkpt>
      <trkpt lat="46.35059" lon="4.49506">
        <ele>372.64819335938</ele>
        <time>2019-01-19T10:02:18Z</time>
      </trkpt>
      <trkpt lat="46.3507" lon="4.49412">
        <ele>372.64819335938</ele>
        <time>2019-01-19T10:02:23Z</time>
      </trkpt>
      <trkpt lat="46.35075" lon="4.49395">
        <ele>372.16748046875</ele>
        <time>2019-01-19T10:02:29Z</time>
      </trkpt>
      <trkpt lat="46.35079" lon="4.49379">
        <ele>371.68688964844</ele>
        <time>2019-01-19T10:02:33Z</time>
      </trkpt>
      <trkpt lat="46.3508" lon="4.49367">
        <ele>371.68688964844</ele>
        <time>2019-01-19T10:02:36Z</time>
      </trkpt>
      <trkpt lat="46.35082" lon="4.4935">
        <ele>371.68688964844</ele>
        <time>2019-01-19T10:02:39Z</time>
      </trkpt>
      <trkpt lat="46.35084" lon="4.49334">
        <ele>372.16748046875</ele>
        <time>2019-01-19T10:02:42Z</time>
      </trkpt>
      <trkpt lat="46.35087" lon="4.49321">
        <ele>372.16748046875</ele>
        <time>2019-01-19T10:02:45Z</time>
      </trkpt>
      <trkpt lat="46.35096" lon="4.49304">
        <ele>372.64819335938</ele>
        <time>2019-01-19T10:02:49Z</time>
      </trkpt>
      <trkpt lat="46.35106" lon="4.49294">
        <ele>372.64819335938</ele>
        <time>2019-01-19T10:02:52Z</time>
      </trkpt>
      <trkpt lat="46.35113" lon="4.49284">
        <ele>372.64819335938</ele>
        <time>2019-01-19T10:02:55Z</time>
      </trkpt>
      <trkpt lat="46.35119" lon="4.4927">
        <ele>371.20629882812</ele>
        <time>2019-01-19T10:02:57Z</time>
      </trkpt>
      <trkpt lat="46.35125" lon="4.49253">
        <ele>369.28369140625</ele>
        <time>2019-01-19T10:02:59Z</time>
      </trkpt>
      <trkpt lat="46.3513" lon="4.49233">
        <ele>367.36096191406</ele>
        <time>2019-01-19T10:03:01Z</time>
      </trkpt>
      <trkpt lat="46.35136" lon="4.49216">
        <ele>366.88024902344</ele>
        <time>2019-01-19T10:03:03Z</time>
      </trkpt>
      <trkpt lat="46.35144" lon="4.492">
        <ele>365.9189453125</ele>
        <time>2019-01-19T10:03:05Z</time>
      </trkpt>
      <trkpt lat="46.3515" lon="4.49185">
        <ele>366.88024902344</ele>
        <time>2019-01-19T10:03:07Z</time>
      </trkpt>
      <trkpt lat="46.35153" lon="4.49168">
        <ele>366.88024902344</ele>
        <time>2019-01-19T10:03:09Z</time>
      </trkpt>
      <trkpt lat="46.35153" lon="4.49149">
        <ele>366.39953613281</ele>
        <time>2019-01-19T10:03:11Z</time>
      </trkpt>
      <trkpt lat="46.35154" lon="4.4913">
        <ele>365.43835449219</ele>
        <time>2019-01-19T10:03:13Z</time>
      </trkpt>
      <trkpt lat="46.35155" lon="4.49112">
        <ele>363.51574707031</ele>
        <time>2019-01-19T10:03:15Z</time>
      </trkpt>
      <trkpt lat="46.35153" lon="4.49091">
        <ele>362.07373046875</ele>
        <time>2019-01-19T10:03:17Z</time>
      </trkpt>
      <trkpt lat="46.35149" lon="4.4907">
        <ele>361.11242675781</ele>
        <time>2019-01-19T10:03:19Z</time>
      </trkpt>
      <trkpt lat="46.35146" lon="4.49051">
        <ele>359.67041015625</ele>
        <time>2019-01-19T10:03:21Z</time>
      </trkpt>
      <trkpt lat="46.35144" lon="4.49038">
        <ele>359.67041015625</ele>
        <time>2019-01-19T10:03:23Z</time>
      </trkpt>
      <trkpt lat="46.3514" lon="4.4902">
        <ele>360.15112304688</ele>
        <time>2019-01-19T10:03:26Z</time>
      </trkpt>
      <trkpt lat="46.35137" lon="4.48998">
        <ele>360.63171386719</ele>
        <time>2019-01-19T10:03:29Z</time>
      </trkpt>
      <trkpt lat="46.35137" lon="4.48984">
        <ele>361.11242675781</ele>
        <time>2019-01-19T10:03:31Z</time>
      </trkpt>
      <trkpt lat="46.35136" lon="4.48966">
        <ele>362.55432128906</ele>
        <time>2019-01-19T10:03:34Z</time>
      </trkpt>
      <trkpt lat="46.3513" lon="4.48948">
        <ele>365.43835449219</ele>
        <time>2019-01-19T10:03:37Z</time>
      </trkpt>
      <trkpt lat="46.35123" lon="4.48934">
        <ele>366.88024902344</ele>
        <time>2019-01-19T10:03:39Z</time>
      </trkpt>
      <trkpt lat="46.35117" lon="4.4892">
        <ele>366.88024902344</ele>
        <time>2019-01-19T10:03:41Z</time>
      </trkpt>
      <trkpt lat="46.35114" lon="4.48904">
        <ele>366.88024902344</ele>
        <time>2019-01-19T10:03:44Z</time>
      </trkpt>
      <trkpt lat="46.3511" lon="4.48898">
        <ele>366.88024902344</ele>
        <time>2019-01-19T10:04:04Z</time>
      </trkpt>
      <trkpt lat="46.35111" lon="4.48859">
        <ele>366.39953613281</ele>
        <time>2019-01-19T10:06:29Z</time>
      </trkpt>
      <trkpt lat="46.35108" lon="4.48839">
        <ele>365.9189453125</ele>
        <time>2019-01-19T10:06:34Z</time>
      </trkpt>
      <trkpt lat="46.35105" lon="4.48824">
        <ele>366.39953613281</ele>
        <time>2019-01-19T10:06:39Z</time>
      </trkpt>
      <trkpt lat="46.3511" lon="4.48808">
        <ele>367.36096191406</ele>
        <time>2019-01-19T10:06:56Z</time>
      </trkpt>
      <trkpt lat="46.35117" lon="4.48808">
        <ele>365.9189453125</ele>
        <time>2019-01-19T10:07:17Z</time>
      </trkpt>
      <trkpt lat="46.35132" lon="4.48809">
        <ele>365.43835449219</ele>
        <time>2019-01-19T10:07:24Z</time>
      </trkpt>
      <trkpt lat="46.35153" lon="4.48805">
        <ele>365.43835449219</ele>
        <time>2019-01-19T10:07:28Z</time>
      </trkpt>
      <trkpt lat="46.35164" lon="4.48803">
        <ele>365.43835449219</ele>
        <time>2019-01-19T10:07:32Z</time>
      </trkpt>
      <trkpt lat="46.35181" lon="4.48803">
        <ele>365.43835449219</ele>
        <time>2019-01-19T10:07:38Z</time>
      </trkpt>
      <trkpt lat="46.35188" lon="4.48792">
        <ele>365.9189453125</ele>
        <time>2019-01-19T10:07:44Z</time>
      </trkpt>
      <trkpt lat="46.35184" lon="4.48777">
        <ele>366.39953613281</ele>
        <time>2019-01-19T10:07:50Z</time>
      </trkpt>
      <trkpt lat="46.35183" lon="4.48763">
        <ele>365.9189453125</ele>
        <time>2019-01-19T10:13:10Z</time>
      </trkpt>
      <trkpt lat="46.35176" lon="4.4874">
        <ele>370.7255859375</ele>
        <time>2019-01-19T10:25:44Z</time>
      </trkpt>
      <trkpt lat="46.35176" lon="4.48718">
        <ele>372.16748046875</ele>
        <time>2019-01-19T10:25:47Z</time>
      </trkpt>
      <trkpt lat="46.3517" lon="4.48693">
        <ele>370.7255859375</ele>
        <time>2019-01-19T10:25:50Z</time>
      </trkpt>
      <trkpt lat="46.35165" lon="4.48676">
        <ele>370.7255859375</ele>
        <time>2019-01-19T10:25:52Z</time>
      </trkpt>
      <trkpt lat="46.35161" lon="4.48657">
        <ele>371.68688964844</ele>
        <time>2019-01-19T10:25:54Z</time>
      </trkpt>
      <trkpt lat="46.35158" lon="4.4864">
        <ele>370.7255859375</ele>
        <time>2019-01-19T10:25:56Z</time>
      </trkpt>
      <trkpt lat="46.35158" lon="4.48618">
        <ele>371.20629882812</ele>
        <time>2019-01-19T10:25:59Z</time>
      </trkpt>
      <trkpt lat="46.35161" lon="4.48593">
        <ele>370.24487304688</ele>
        <time>2019-01-19T10:26:02Z</time>
      </trkpt>
      <trkpt lat="46.35165" lon="4.48575">
        <ele>371.20629882812</ele>
        <time>2019-01-19T10:26:05Z</time>
      </trkpt>
      <trkpt lat="46.35169" lon="4.48556">
        <ele>371.20629882812</ele>
        <time>2019-01-19T10:26:08Z</time>
      </trkpt>
      <trkpt lat="46.35174" lon="4.48529">
        <ele>371.20629882812</ele>
        <time>2019-01-19T10:26:11Z</time>
      </trkpt>
      <trkpt lat="46.35178" lon="4.48508">
        <ele>371.20629882812</ele>
        <time>2019-01-19T10:26:13Z</time>
      </trkpt>
      <trkpt lat="46.35181" lon="4.48488">
        <ele>369.28369140625</ele>
        <time>2019-01-19T10:26:15Z</time>
      </trkpt>
      <trkpt lat="46.35184" lon="4.48474">
        <ele>370.7255859375</ele>
        <time>2019-01-19T10:26:17Z</time>
      </trkpt>
      <trkpt lat="46.35189" lon="4.48445">
        <ele>370.24487304688</ele>
        <time>2019-01-19T10:26:20Z</time>
      </trkpt>
      <trkpt lat="46.35201" lon="4.48424">
        <ele>369.76428222656</ele>
        <time>2019-01-19T10:26:23Z</time>
      </trkpt>
      <trkpt lat="46.35201" lon="4.48405">
        <ele>368.80297851562</ele>
        <time>2019-01-19T10:26:28Z</time>
      </trkpt>
      <trkpt lat="46.35202" lon="4.48384">
        <ele>367.84155273438</ele>
        <time>2019-01-19T10:26:32Z</time>
      </trkpt>
      <trkpt lat="46.35201" lon="4.48359">
        <ele>367.84155273438</ele>
        <time>2019-01-19T10:26:36Z</time>
      </trkpt>
      <trkpt lat="46.35196" lon="4.48336">
        <ele>367.36096191406</ele>
        <time>2019-01-19T10:26:40Z</time>
      </trkpt>
      <trkpt lat="46.35196" lon="4.48315">
        <ele>368.80297851562</ele>
        <time>2019-01-19T10:26:43Z</time>
      </trkpt>
      <trkpt lat="46.35186" lon="4.48303">
        <ele>368.322265625</ele>
        <time>2019-01-19T10:26:47Z</time>
      </trkpt>
      <trkpt lat="46.35175" lon="4.48295">
        <ele>368.80297851562</ele>
        <time>2019-01-19T10:26:51Z</time>
      </trkpt>
      <trkpt lat="46.35165" lon="4.48306">
        <ele>369.76428222656</ele>
        <time>2019-01-19T10:26:54Z</time>
      </trkpt>
      <trkpt lat="46.35158" lon="4.4832">
        <ele>371.20629882812</ele>
        <time>2019-01-19T10:26:57Z</time>
      </trkpt>
      <trkpt lat="46.35146" lon="4.48338">
        <ele>372.64819335938</ele>
        <time>2019-01-19T10:27:00Z</time>
      </trkpt>
      <trkpt lat="46.3514" lon="4.48351">
        <ele>371.20629882812</ele>
        <time>2019-01-19T10:27:02Z</time>
      </trkpt>
      <trkpt lat="46.35134" lon="4.48364">
        <ele>370.7255859375</ele>
        <time>2019-01-19T10:27:04Z</time>
      </trkpt>
      <trkpt lat="46.35124" lon="4.48379">
        <ele>370.24487304688</ele>
        <time>2019-01-19T10:27:06Z</time>
      </trkpt>
      <trkpt lat="46.35117" lon="4.48391">
        <ele>369.76428222656</ele>
        <time>2019-01-19T10:27:08Z</time>
      </trkpt>
      <trkpt lat="46.35107" lon="4.48401">
        <ele>370.24487304688</ele>
        <time>2019-01-19T10:27:11Z</time>
      </trkpt>
      <trkpt lat="46.35094" lon="4.48397">
        <ele>370.7255859375</ele>
        <time>2019-01-19T10:27:15Z</time>
      </trkpt>
      <trkpt lat="46.35079" lon="4.4839">
        <ele>370.24487304688</ele>
        <time>2019-01-19T10:27:18Z</time>
      </trkpt>
      <trkpt lat="46.35065" lon="4.48385">
        <ele>370.7255859375</ele>
        <time>2019-01-19T10:27:21Z</time>
      </trkpt>
      <trkpt lat="46.35053" lon="4.48388">
        <ele>369.28369140625</ele>
        <time>2019-01-19T10:27:24Z</time>
      </trkpt>
      <trkpt lat="46.35038" lon="4.48402">
        <ele>368.322265625</ele>
        <time>2019-01-19T10:27:27Z</time>
      </trkpt>
      <trkpt lat="46.35035" lon="4.48412">
        <ele>367.84155273438</ele>
        <time>2019-01-19T10:27:29Z</time>
      </trkpt>
      <trkpt lat="46.35026" lon="4.48428">
        <ele>367.84155273438</ele>
        <time>2019-01-19T10:27:32Z</time>
      </trkpt>
      <trkpt lat="46.35018" lon="4.48442">
        <ele>367.84155273438</ele>
        <time>2019-01-19T10:27:35Z</time>
      </trkpt>
      <trkpt lat="46.35009" lon="4.48448">
        <ele>368.80297851562</ele>
        <time>2019-01-19T10:27:38Z</time>
      </trkpt>
      <trkpt lat="46.34997" lon="4.48443">
        <ele>370.24487304688</ele>
        <time>2019-01-19T10:27:41Z</time>
      </trkpt>
      <trkpt lat="46.34986" lon="4.48436">
        <ele>370.7255859375</ele>
        <time>2019-01-19T10:27:43Z</time>
      </trkpt>
      <trkpt lat="46.34976" lon="4.48427">
        <ele>371.68688964844</ele>
        <time>2019-01-19T10:27:45Z</time>
      </trkpt>
      <trkpt lat="46.34967" lon="4.48417">
        <ele>372.64819335938</ele>
        <time>2019-01-19T10:27:47Z</time>
      </trkpt>
      <trkpt lat="46.34958" lon="4.48405">
        <ele>372.64819335938</ele>
        <time>2019-01-19T10:27:49Z</time>
      </trkpt>
      <trkpt lat="46.34948" lon="4.48391">
        <ele>373.60949707031</ele>
        <time>2019-01-19T10:27:51Z</time>
      </trkpt>
      <trkpt lat="46.34939" lon="4.48378">
        <ele>375.05151367188</ele>
        <time>2019-01-19T10:27:53Z</time>
      </trkpt>
      <trkpt lat="46.34929" lon="4.48362">
        <ele>377.45483398438</ele>
        <time>2019-01-19T10:27:56Z</time>
      </trkpt>
      <trkpt lat="46.34921" lon="4.48343">
        <ele>378.41613769531</ele>
        <time>2019-01-19T10:27:59Z</time>
      </trkpt>
      <trkpt lat="46.34912" lon="4.48327">
        <ele>378.41613769531</ele>
        <time>2019-01-19T10:28:02Z</time>
      </trkpt>
      <trkpt lat="46.34908" lon="4.48307">
        <ele>378.89685058594</ele>
        <time>2019-01-19T10:28:06Z</time>
      </trkpt>
      <trkpt lat="46.34903" lon="4.48284">
        <ele>380.33874511719</ele>
        <time>2019-01-19T10:28:09Z</time>
      </trkpt>
      <trkpt lat="46.34895" lon="4.48262">
        <ele>380.81945800781</ele>
        <time>2019-01-19T10:28:12Z</time>
      </trkpt>
      <trkpt lat="46.34886" lon="4.48248">
        <ele>380.81945800781</ele>
        <time>2019-01-19T10:28:14Z</time>
      </trkpt>
      <trkpt lat="46.34873" lon="4.48238">
        <ele>381.30004882812</ele>
        <time>2019-01-19T10:28:16Z</time>
      </trkpt>
      <trkpt lat="46.3486" lon="4.48232">
        <ele>381.30004882812</ele>
        <time>2019-01-19T10:28:18Z</time>
      </trkpt>
      <trkpt lat="46.34844" lon="4.48224">
        <ele>381.30004882812</ele>
        <time>2019-01-19T10:28:20Z</time>
      </trkpt>
      <trkpt lat="46.34827" lon="4.48218">
        <ele>381.78063964844</ele>
        <time>2019-01-19T10:28:22Z</time>
      </trkpt>
      <trkpt lat="46.34813" lon="4.48211">
        <ele>381.78063964844</ele>
        <time>2019-01-19T10:28:24Z</time>
      </trkpt>
      <trkpt lat="46.34801" lon="4.48203">
        <ele>381.30004882812</ele>
        <time>2019-01-19T10:28:26Z</time>
      </trkpt>
      <trkpt lat="46.34791" lon="4.48198">
        <ele>382.26135253906</ele>
        <time>2019-01-19T10:28:28Z</time>
      </trkpt>
      <trkpt lat="46.34779" lon="4.48195">
        <ele>382.74206542969</ele>
        <time>2019-01-19T10:28:30Z</time>
      </trkpt>
      <trkpt lat="46.34763" lon="4.48191">
        <ele>382.26135253906</ele>
        <time>2019-01-19T10:28:32Z</time>
      </trkpt>
      <trkpt lat="46.34755" lon="4.48181">
        <ele>381.30004882812</ele>
        <time>2019-01-19T10:28:34Z</time>
      </trkpt>
      <trkpt lat="46.34753" lon="4.48164">
        <ele>381.30004882812</ele>
        <time>2019-01-19T10:28:37Z</time>
      </trkpt>
      <trkpt lat="46.34752" lon="4.48147">
        <ele>381.78063964844</ele>
        <time>2019-01-19T10:28:40Z</time>
      </trkpt>
      <trkpt lat="46.34761" lon="4.48127">
        <ele>381.78063964844</ele>
        <time>2019-01-19T10:28:44Z</time>
      </trkpt>
      <trkpt lat="46.34766" lon="4.48108">
        <ele>383.22265625</ele>
        <time>2019-01-19T10:28:47Z</time>
      </trkpt>
      <trkpt lat="46.34765" lon="4.48091">
        <ele>383.22265625</ele>
        <time>2019-01-19T10:28:50Z</time>
      </trkpt>
      <trkpt lat="46.34767" lon="4.48071">
        <ele>382.74206542969</ele>
        <time>2019-01-19T10:28:54Z</time>
      </trkpt>
      <trkpt lat="46.34771" lon="4.48055">
        <ele>382.74206542969</ele>
        <time>2019-01-19T10:28:56Z</time>
      </trkpt>
      <trkpt lat="46.34777" lon="4.48032">
        <ele>383.70324707031</ele>
        <time>2019-01-19T10:28:58Z</time>
      </trkpt>
      <trkpt lat="46.34784" lon="4.48013">
        <ele>383.70324707031</ele>
        <time>2019-01-19T10:29:00Z</time>
      </trkpt>
      <trkpt lat="46.34789" lon="4.47997">
        <ele>383.22265625</ele>
        <time>2019-01-19T10:29:02Z</time>
      </trkpt>
      <trkpt lat="46.34794" lon="4.47979">
        <ele>383.70324707031</ele>
        <time>2019-01-19T10:29:04Z</time>
      </trkpt>
      <trkpt lat="46.34798" lon="4.47963">
        <ele>383.70324707031</ele>
        <time>2019-01-19T10:29:06Z</time>
      </trkpt>
      <trkpt lat="46.34801" lon="4.47944">
        <ele>384.18408203125</ele>
        <time>2019-01-19T10:29:09Z</time>
      </trkpt>
      <trkpt lat="46.34803" lon="4.47926">
        <ele>385.14538574219</ele>
        <time>2019-01-19T10:29:11Z</time>
      </trkpt>
      <trkpt lat="46.34802" lon="4.47912">
        <ele>386.10668945312</ele>
        <time>2019-01-19T10:29:13Z</time>
      </trkpt>
      <trkpt lat="46.34802" lon="4.47895">
        <ele>387.06799316406</ele>
        <time>2019-01-19T10:29:16Z</time>
      </trkpt>
      <trkpt lat="46.34808" lon="4.47875">
        <ele>388.029296875</ele>
        <time>2019-01-19T10:29:20Z</time>
      </trkpt>
      <trkpt lat="46.34816" lon="4.47859">
        <ele>388.51000976562</ele>
        <time>2019-01-19T10:29:23Z</time>
      </trkpt>
      <trkpt lat="46.34821" lon="4.4784">
        <ele>388.029296875</ele>
        <time>2019-01-19T10:29:26Z</time>
      </trkpt>
      <trkpt lat="46.34822" lon="4.47823">
        <ele>388.029296875</ele>
        <time>2019-01-19T10:29:29Z</time>
      </trkpt>
      <trkpt lat="46.34823" lon="4.47799">
        <ele>388.029296875</ele>
        <time>2019-01-19T10:29:32Z</time>
      </trkpt>
      <trkpt lat="46.34823" lon="4.47785">
        <ele>388.51000976562</ele>
        <time>2019-01-19T10:29:34Z</time>
      </trkpt>
      <trkpt lat="46.34821" lon="4.47771">
        <ele>388.99060058594</ele>
        <time>2019-01-19T10:29:36Z</time>
      </trkpt>
      <trkpt lat="46.34817" lon="4.47754">
        <ele>388.99060058594</ele>
        <time>2019-01-19T10:29:38Z</time>
      </trkpt>
      <trkpt lat="46.34816" lon="4.47734">
        <ele>388.51000976562</ele>
        <time>2019-01-19T10:29:40Z</time>
      </trkpt>
      <trkpt lat="46.3481" lon="4.47716">
        <ele>388.51000976562</ele>
        <time>2019-01-19T10:29:42Z</time>
      </trkpt>
      <trkpt lat="46.34805" lon="4.47698">
        <ele>388.029296875</ele>
        <time>2019-01-19T10:29:44Z</time>
      </trkpt>
      <trkpt lat="46.348" lon="4.47679">
        <ele>388.029296875</ele>
        <time>2019-01-19T10:29:46Z</time>
      </trkpt>
      <trkpt lat="46.34795" lon="4.47662">
        <ele>387.54858398438</ele>
        <time>2019-01-19T10:29:48Z</time>
      </trkpt>
      <trkpt lat="46.34793" lon="4.47646">
        <ele>387.06799316406</ele>
        <time>2019-01-19T10:29:50Z</time>
      </trkpt>
      <trkpt lat="46.34796" lon="4.4762">
        <ele>386.58740234375</ele>
        <time>2019-01-19T10:29:53Z</time>
      </trkpt>
      <trkpt lat="46.34804" lon="4.47608">
        <ele>386.10668945312</ele>
        <time>2019-01-19T10:29:55Z</time>
      </trkpt>
      <trkpt lat="46.34817" lon="4.476">
        <ele>387.06799316406</ele>
        <time>2019-01-19T10:29:57Z</time>
      </trkpt>
      <trkpt lat="46.34831" lon="4.4759">
        <ele>388.029296875</ele>
        <time>2019-01-19T10:29:59Z</time>
      </trkpt>
      <trkpt lat="46.34845" lon="4.47577">
        <ele>389.47119140625</ele>
        <time>2019-01-19T10:30:01Z</time>
      </trkpt>
      <trkpt lat="46.3486" lon="4.47564">
        <ele>391.39379882812</ele>
        <time>2019-01-19T10:30:03Z</time>
      </trkpt>
      <trkpt lat="46.34874" lon="4.47552">
        <ele>394.27795410156</ele>
        <time>2019-01-19T10:30:05Z</time>
      </trkpt>
      <trkpt lat="46.34883" lon="4.47546">
        <ele>395.23913574219</ele>
        <time>2019-01-19T10:30:07Z</time>
      </trkpt>
      <trkpt lat="46.34891" lon="4.47555">
        <ele>396.68115234375</ele>
        <time>2019-01-19T10:30:10Z</time>
      </trkpt>
      <trkpt lat="46.34897" lon="4.47567">
        <ele>395.23913574219</ele>
        <time>2019-01-19T10:30:12Z</time>
      </trkpt>
      <trkpt lat="46.34905" lon="4.4758">
        <ele>393.31652832031</ele>
        <time>2019-01-19T10:30:14Z</time>
      </trkpt>
      <trkpt lat="46.34912" lon="4.47596">
        <ele>391.87451171875</ele>
        <time>2019-01-19T10:30:16Z</time>
      </trkpt>
      <trkpt lat="46.34922" lon="4.47612">
        <ele>390.4326171875</ele>
        <time>2019-01-19T10:30:18Z</time>
      </trkpt>
      <trkpt lat="46.34935" lon="4.47627">
        <ele>389.95190429688</ele>
        <time>2019-01-19T10:30:20Z</time>
      </trkpt>
      <trkpt lat="46.34945" lon="4.4764">
        <ele>389.95190429688</ele>
        <time>2019-01-19T10:30:22Z</time>
      </trkpt>
      <trkpt lat="46.34951" lon="4.47653">
        <ele>390.4326171875</ele>
        <time>2019-01-19T10:30:24Z</time>
      </trkpt>
      <trkpt lat="46.34956" lon="4.47668">
        <ele>390.4326171875</ele>
        <time>2019-01-19T10:30:26Z</time>
      </trkpt>
      <trkpt lat="46.3496" lon="4.47684">
        <ele>391.87451171875</ele>
        <time>2019-01-19T10:30:28Z</time>
      </trkpt>
      <trkpt lat="46.34965" lon="4.47702">
        <ele>392.8359375</ele>
        <time>2019-01-19T10:30:30Z</time>
      </trkpt>
      <trkpt lat="46.34972" lon="4.4772">
        <ele>394.27795410156</ele>
        <time>2019-01-19T10:30:32Z</time>
      </trkpt>
      <trkpt lat="46.34979" lon="4.47741">
        <ele>395.71984863281</ele>
        <time>2019-01-19T10:30:34Z</time>
      </trkpt>
      <trkpt lat="46.34986" lon="4.47767">
        <ele>397.16174316406</ele>
        <time>2019-01-19T10:30:36Z</time>
      </trkpt>
      <trkpt lat="46.34993" lon="4.4779">
        <ele>398.12316894531</ele>
        <time>2019-01-19T10:30:38Z</time>
      </trkpt>
      <trkpt lat="46.35" lon="4.47805">
        <ele>399.08435058594</ele>
        <time>2019-01-19T10:30:40Z</time>
      </trkpt>
      <trkpt lat="46.3501" lon="4.47818">
        <ele>400.52648925781</ele>
        <time>2019-01-19T10:30:42Z</time>
      </trkpt>
      <trkpt lat="46.35024" lon="4.47821">
        <ele>401.00708007812</ele>
        <time>2019-01-19T10:30:44Z</time>
      </trkpt>
      <trkpt lat="46.35033" lon="4.47821">
        <ele>401.00708007812</ele>
        <time>2019-01-19T10:30:46Z</time>
      </trkpt>
      <trkpt lat="46.35043" lon="4.47817">
        <ele>401.48779296875</ele>
        <time>2019-01-19T10:30:49Z</time>
      </trkpt>
      <trkpt lat="46.35054" lon="4.47815">
        <ele>401.48779296875</ele>
        <time>2019-01-19T10:30:52Z</time>
      </trkpt>
      <trkpt lat="46.35066" lon="4.47813">
        <ele>401.48779296875</ele>
        <time>2019-01-19T10:30:55Z</time>
      </trkpt>
      <trkpt lat="46.35079" lon="4.47811">
        <ele>401.48779296875</ele>
        <time>2019-01-19T10:30:58Z</time>
      </trkpt>
      <trkpt lat="46.35091" lon="4.47808">
        <ele>401.48779296875</ele>
        <time>2019-01-19T10:31:01Z</time>
      </trkpt>
      <trkpt lat="46.351" lon="4.47806">
        <ele>401.48779296875</ele>
        <time>2019-01-19T10:31:04Z</time>
      </trkpt>
      <trkpt lat="46.35111" lon="4.47804">
        <ele>401.00708007812</ele>
        <time>2019-01-19T10:31:07Z</time>
      </trkpt>
      <trkpt lat="46.3512" lon="4.47802">
        <ele>400.52648925781</ele>
        <time>2019-01-19T10:31:10Z</time>
      </trkpt>
      <trkpt lat="46.35125" lon="4.47817">
        <ele>399.08435058594</ele>
        <time>2019-01-19T10:31:29Z</time>
      </trkpt>
      <trkpt lat="46.3512" lon="4.47829">
        <ele>398.60375976562</ele>
        <time>2019-01-19T10:31:32Z</time>
      </trkpt>
      <trkpt lat="46.35111" lon="4.47843">
        <ele>398.60375976562</ele>
        <time>2019-01-19T10:31:34Z</time>
      </trkpt>
      <trkpt lat="46.35102" lon="4.47863">
        <ele>397.16174316406</ele>
        <time>2019-01-19T10:31:36Z</time>
      </trkpt>
      <trkpt lat="46.35099" lon="4.47885">
        <ele>394.75854492188</ele>
        <time>2019-01-19T10:31:38Z</time>
      </trkpt>
      <trkpt lat="46.351" lon="4.47908">
        <ele>393.31652832031</ele>
        <time>2019-01-19T10:31:40Z</time>
      </trkpt>
      <trkpt lat="46.35103" lon="4.47931">
        <ele>391.87451171875</ele>
        <time>2019-01-19T10:31:42Z</time>
      </trkpt>
      <trkpt lat="46.35103" lon="4.47954">
        <ele>389.47119140625</ele>
        <time>2019-01-19T10:31:44Z</time>
      </trkpt>
      <trkpt lat="46.35102" lon="4.47977">
        <ele>389.47119140625</ele>
        <time>2019-01-19T10:31:46Z</time>
      </trkpt>
      <trkpt lat="46.35103" lon="4.48002">
        <ele>388.029296875</ele>
        <time>2019-01-19T10:31:48Z</time>
      </trkpt>
      <trkpt lat="46.35105" lon="4.48014">
        <ele>387.54858398438</ele>
        <time>2019-01-19T10:31:49Z</time>
      </trkpt>
      <trkpt lat="46.35106" lon="4.48028">
        <ele>386.58740234375</ele>
        <time>2019-01-19T10:31:50Z</time>
      </trkpt>
      <trkpt lat="46.35108" lon="4.48042">
        <ele>385.6259765625</ele>
        <time>2019-01-19T10:31:51Z</time>
      </trkpt>
      <trkpt lat="46.35112" lon="4.48055">
        <ele>385.14538574219</ele>
        <time>2019-01-19T10:31:52Z</time>
      </trkpt>
      <trkpt lat="46.35116" lon="4.48067">
        <ele>383.70324707031</ele>
        <time>2019-01-19T10:31:53Z</time>
      </trkpt>
      <trkpt lat="46.35122" lon="4.48078">
        <ele>382.26135253906</ele>
        <time>2019-01-19T10:31:54Z</time>
      </trkpt>
      <trkpt lat="46.35129" lon="4.48088">
        <ele>380.33874511719</ele>
        <time>2019-01-19T10:31:55Z</time>
      </trkpt>
      <trkpt lat="46.35135" lon="4.48097">
        <ele>378.89685058594</ele>
        <time>2019-01-19T10:31:56Z</time>
      </trkpt>
      <trkpt lat="46.35177" lon="4.48135">
        <ele>378.41613769531</ele>
        <time>2019-01-19T10:31:57Z</time>
      </trkpt>
      <trkpt lat="46.35177" lon="4.48135">
        <ele>376.97424316406</ele>
        <time>2019-01-19T10:31:59Z</time>
      </trkpt>
      <trkpt lat="46.35177" lon="4.48135">
        <ele>374.57080078125</ele>
        <time>2019-01-19T10:32:00Z</time>
      </trkpt>
      <trkpt lat="46.35179" lon="4.48137">
        <ele>373.12890625</ele>
        <time>2019-01-19T10:32:01Z</time>
      </trkpt>
      <trkpt lat="46.35188" lon="4.48145">
        <ele>372.64819335938</ele>
        <time>2019-01-19T10:32:02Z</time>
      </trkpt>
      <trkpt lat="46.35196" lon="4.48153">
        <ele>371.20629882812</ele>
        <time>2019-01-19T10:32:03Z</time>
      </trkpt>
      <trkpt lat="46.35206" lon="4.48161">
        <ele>369.76428222656</ele>
        <time>2019-01-19T10:32:04Z</time>
      </trkpt>
      <trkpt lat="46.35215" lon="4.48166">
        <ele>369.76428222656</ele>
        <time>2019-01-19T10:32:05Z</time>
      </trkpt>
      <trkpt lat="46.35224" lon="4.48167">
        <ele>369.76428222656</ele>
        <time>2019-01-19T10:32:06Z</time>
      </trkpt>
      <trkpt lat="46.35232" lon="4.48164">
        <ele>369.76428222656</ele>
        <time>2019-01-19T10:32:07Z</time>
      </trkpt>
      <trkpt lat="46.35253" lon="4.48156">
        <ele>370.7255859375</ele>
        <time>2019-01-19T10:32:09Z</time>
      </trkpt>
      <trkpt lat="46.35265" lon="4.48151">
        <ele>371.68688964844</ele>
        <time>2019-01-19T10:32:10Z</time>
      </trkpt>
      <trkpt lat="46.35277" lon="4.48146">
        <ele>372.16748046875</ele>
        <time>2019-01-19T10:32:11Z</time>
      </trkpt>
      <trkpt lat="46.35289" lon="4.48142">
        <ele>372.64819335938</ele>
        <time>2019-01-19T10:32:12Z</time>
      </trkpt>
      <trkpt lat="46.35302" lon="4.48138">
        <ele>374.09008789062</ele>
        <time>2019-01-19T10:32:13Z</time>
      </trkpt>
      <trkpt lat="46.35315" lon="4.48134">
        <ele>375.05151367188</ele>
        <time>2019-01-19T10:32:14Z</time>
      </trkpt>
      <trkpt lat="46.35327" lon="4.48131">
        <ele>376.01281738281</ele>
        <time>2019-01-19T10:32:15Z</time>
      </trkpt>
      <trkpt lat="46.3534" lon="4.48127">
        <ele>376.97424316406</ele>
        <time>2019-01-19T10:32:16Z</time>
      </trkpt>
      <trkpt lat="46.35353" lon="4.48123">
        <ele>377.45483398438</ele>
        <time>2019-01-19T10:32:17Z</time>
      </trkpt>
      <trkpt lat="46.35365" lon="4.48122">
        <ele>378.89685058594</ele>
        <time>2019-01-19T10:32:18Z</time>
      </trkpt>
      <trkpt lat="46.35387" lon="4.48126">
        <ele>379.85803222656</ele>
        <time>2019-01-19T10:32:20Z</time>
      </trkpt>
      <trkpt lat="46.35397" lon="4.48127">
        <ele>380.33874511719</ele>
        <time>2019-01-19T10:32:21Z</time>
      </trkpt>
      <trkpt lat="46.35408" lon="4.48128">
        <ele>380.33874511719</ele>
        <time>2019-01-19T10:32:22Z</time>
      </trkpt>
      <trkpt lat="46.35417" lon="4.48128">
        <ele>381.30004882812</ele>
        <time>2019-01-19T10:32:23Z</time>
      </trkpt>
      <trkpt lat="46.35431" lon="4.48128">
        <ele>382.26135253906</ele>
        <time>2019-01-19T10:32:25Z</time>
      </trkpt>
      <trkpt lat="46.35443" lon="4.48117">
        <ele>383.22265625</ele>
        <time>2019-01-19T10:32:27Z</time>
      </trkpt>
    </trkseg>
  </trk>
</gpx>